<?xml version="1.0" encoding="UTF-8" standalone="no" ?>
<gpx xmlns="http://www.topografix.com/GPX/1/1" xmlns:xsi="http://www.w3.org/2001/XMLSchema-instance" xsi:schemaLocation="http://www.topografix.com/GPX/1/1 http://www.topografix.com/GPX/1/1/gpx.xsd" version="1.1" creator="VisuGPX - https://www.visugpx.com">
  <metadata>
    <name>GR5 - Nice - St Etienne de Tinée</name>
    <desc><![CDATA[Le début du GR5 de Nice à St Etienne de Tinée]]></desc>
  </metadata>
  <trk>
    <name><![CDATA[OR-7762189--Nice:GR5_S4_Nice - St Etienne De Tinée]]></name>
    <trkseg>
      <trkpt lat="43.71476" lon="7.25438">
        <ele>53</ele>
        <time>2017-08-19T10:27:54Z</time>
      </trkpt>
      <trkpt lat="43.71483" lon="7.25443">
        <ele>53</ele>
        <time>2017-08-19T10:29:54Z</time>
      </trkpt>
      <trkpt lat="43.71487" lon="7.25446">
        <ele>53</ele>
        <time>2017-08-19T10:31:54Z</time>
      </trkpt>
      <trkpt lat="43.71497" lon="7.25441">
        <ele>53</ele>
        <time>2017-08-19T10:33:54Z</time>
      </trkpt>
      <trkpt lat="43.71505" lon="7.25443">
        <ele>53</ele>
        <time>2017-08-19T10:35:54Z</time>
      </trkpt>
      <trkpt lat="43.71517" lon="7.25465">
        <ele>51</ele>
        <time>2017-08-19T10:37:54Z</time>
      </trkpt>
      <trkpt lat="43.71533" lon="7.25494">
        <ele>49</ele>
        <time>2017-08-19T10:39:54Z</time>
      </trkpt>
      <trkpt lat="43.71545" lon="7.25529">
        <ele>48</ele>
        <time>2017-08-19T10:41:54Z</time>
      </trkpt>
      <trkpt lat="43.71573" lon="7.25618">
        <ele>48</ele>
        <time>2017-08-19T10:43:54Z</time>
      </trkpt>
      <trkpt lat="43.71618" lon="7.25748">
        <ele>45</ele>
        <time>2017-08-19T10:45:54Z</time>
      </trkpt>
      <trkpt lat="43.71628" lon="7.25739">
        <ele>46</ele>
        <time>2017-08-19T10:47:54Z</time>
      </trkpt>
      <trkpt lat="43.7165" lon="7.25722">
        <ele>47</ele>
        <time>2017-08-19T10:49:54Z</time>
      </trkpt>
      <trkpt lat="43.71663" lon="7.25713">
        <ele>47</ele>
        <time>2017-08-19T10:51:54Z</time>
      </trkpt>
      <trkpt lat="43.71693" lon="7.25694">
        <ele>50</ele>
        <time>2017-08-19T10:53:54Z</time>
      </trkpt>
      <trkpt lat="43.71703" lon="7.25693">
        <ele>51</ele>
        <time>2017-08-19T10:55:54Z</time>
      </trkpt>
      <trkpt lat="43.7182" lon="7.25674">
        <ele>54</ele>
        <time>2017-08-19T10:57:54Z</time>
      </trkpt>
      <trkpt lat="43.71866" lon="7.25837">
        <ele>52</ele>
        <time>2017-08-19T10:59:54Z</time>
      </trkpt>
      <trkpt lat="43.71894" lon="7.25934">
        <ele>53</ele>
        <time>2017-08-19T11:01:54Z</time>
      </trkpt>
      <trkpt lat="43.71913" lon="7.25999">
        <ele>52</ele>
        <time>2017-08-19T11:03:54Z</time>
      </trkpt>
      <trkpt lat="43.7192" lon="7.26026">
        <ele>52</ele>
        <time>2017-08-19T11:05:54Z</time>
      </trkpt>
      <trkpt lat="43.71954" lon="7.26159">
        <ele>53</ele>
        <time>2017-08-19T11:07:54Z</time>
      </trkpt>
      <trkpt lat="43.71975" lon="7.2623">
        <ele>53</ele>
        <time>2017-08-19T11:09:54Z</time>
      </trkpt>
      <trkpt lat="43.71986" lon="7.26244">
        <ele>53</ele>
        <time>2017-08-19T11:11:54Z</time>
      </trkpt>
      <trkpt lat="43.71981" lon="7.26291">
        <ele>53</ele>
        <time>2017-08-19T11:13:54Z</time>
      </trkpt>
      <trkpt lat="43.71995" lon="7.26294">
        <ele>53</ele>
        <time>2017-08-19T11:15:54Z</time>
      </trkpt>
      <trkpt lat="43.72009" lon="7.26296">
        <ele>54</ele>
        <time>2017-08-19T11:17:54Z</time>
      </trkpt>
      <trkpt lat="43.7207" lon="7.26311">
        <ele>56</ele>
        <time>2017-08-19T11:19:54Z</time>
      </trkpt>
      <trkpt lat="43.72147" lon="7.26334">
        <ele>58</ele>
        <time>2017-08-19T11:21:54Z</time>
      </trkpt>
      <trkpt lat="43.72197" lon="7.26354">
        <ele>58</ele>
        <time>2017-08-19T11:23:54Z</time>
      </trkpt>
      <trkpt lat="43.72226" lon="7.26359">
        <ele>58</ele>
        <time>2017-08-19T11:25:54Z</time>
      </trkpt>
      <trkpt lat="43.72265" lon="7.26353">
        <ele>60</ele>
        <time>2017-08-19T11:27:54Z</time>
      </trkpt>
      <trkpt lat="43.7228" lon="7.26346">
        <ele>61</ele>
        <time>2017-08-19T11:29:54Z</time>
      </trkpt>
      <trkpt lat="43.72292" lon="7.26337">
        <ele>63</ele>
        <time>2017-08-19T11:31:54Z</time>
      </trkpt>
      <trkpt lat="43.72309" lon="7.26326">
        <ele>65</ele>
        <time>2017-08-19T11:33:54Z</time>
      </trkpt>
      <trkpt lat="43.7232" lon="7.26324">
        <ele>66</ele>
        <time>2017-08-19T11:35:54Z</time>
      </trkpt>
      <trkpt lat="43.72344" lon="7.26329">
        <ele>68</ele>
        <time>2017-08-19T11:37:54Z</time>
      </trkpt>
      <trkpt lat="43.72359" lon="7.26329">
        <ele>69</ele>
        <time>2017-08-19T11:39:54Z</time>
      </trkpt>
      <trkpt lat="43.7239" lon="7.26347">
        <ele>72</ele>
        <time>2017-08-19T11:41:54Z</time>
      </trkpt>
      <trkpt lat="43.72401" lon="7.26343">
        <ele>73</ele>
        <time>2017-08-19T11:43:54Z</time>
      </trkpt>
      <trkpt lat="43.72419" lon="7.2631">
        <ele>74</ele>
        <time>2017-08-19T11:45:54Z</time>
      </trkpt>
      <trkpt lat="43.72441" lon="7.26297">
        <ele>77</ele>
        <time>2017-08-19T11:47:54Z</time>
      </trkpt>
      <trkpt lat="43.72478" lon="7.26285">
        <ele>83</ele>
        <time>2017-08-19T11:49:54Z</time>
      </trkpt>
      <trkpt lat="43.72491" lon="7.26291">
        <ele>84</ele>
        <time>2017-08-19T11:51:54Z</time>
      </trkpt>
      <trkpt lat="43.72523" lon="7.26276">
        <ele>88</ele>
        <time>2017-08-19T11:53:54Z</time>
      </trkpt>
      <trkpt lat="43.72583" lon="7.26244">
        <ele>95</ele>
        <time>2017-08-19T11:55:54Z</time>
      </trkpt>
      <trkpt lat="43.72629" lon="7.26217">
        <ele>103</ele>
        <time>2017-08-19T11:57:54Z</time>
      </trkpt>
      <trkpt lat="43.72643" lon="7.26202">
        <ele>106</ele>
        <time>2017-08-19T11:59:54Z</time>
      </trkpt>
      <trkpt lat="43.7266" lon="7.26194">
        <ele>109</ele>
        <time>2017-08-19T12:01:54Z</time>
      </trkpt>
      <trkpt lat="43.72675" lon="7.26194">
        <ele>111</ele>
        <time>2017-08-19T12:03:54Z</time>
      </trkpt>
      <trkpt lat="43.72704" lon="7.26182">
        <ele>117</ele>
        <time>2017-08-19T12:05:54Z</time>
      </trkpt>
      <trkpt lat="43.72793" lon="7.26129">
        <ele>131</ele>
        <time>2017-08-19T12:07:54Z</time>
      </trkpt>
      <trkpt lat="43.72815" lon="7.26083">
        <ele>134</ele>
        <time>2017-08-19T12:09:54Z</time>
      </trkpt>
      <trkpt lat="43.72921" lon="7.26075">
        <ele>141</ele>
        <time>2017-08-19T12:11:54Z</time>
      </trkpt>
      <trkpt lat="43.72949" lon="7.2608">
        <ele>144</ele>
        <time>2017-08-19T12:13:54Z</time>
      </trkpt>
      <trkpt lat="43.72974" lon="7.26098">
        <ele>149</ele>
        <time>2017-08-19T12:15:54Z</time>
      </trkpt>
      <trkpt lat="43.73003" lon="7.26119">
        <ele>155</ele>
        <time>2017-08-19T12:17:54Z</time>
      </trkpt>
      <trkpt lat="43.73019" lon="7.26123">
        <ele>158</ele>
        <time>2017-08-19T12:19:54Z</time>
      </trkpt>
      <trkpt lat="43.73034" lon="7.26125">
        <ele>161</ele>
        <time>2017-08-19T12:21:54Z</time>
      </trkpt>
      <trkpt lat="43.73068" lon="7.26121">
        <ele>165</ele>
        <time>2017-08-19T12:23:54Z</time>
      </trkpt>
      <trkpt lat="43.73095" lon="7.26123">
        <ele>168</ele>
        <time>2017-08-19T12:25:54Z</time>
      </trkpt>
      <trkpt lat="43.73134" lon="7.26129">
        <ele>172</ele>
        <time>2017-08-19T12:27:54Z</time>
      </trkpt>
      <trkpt lat="43.7315" lon="7.26126">
        <ele>172</ele>
        <time>2017-08-19T12:29:54Z</time>
      </trkpt>
      <trkpt lat="43.73171" lon="7.26113">
        <ele>170</ele>
        <time>2017-08-19T12:31:54Z</time>
      </trkpt>
      <trkpt lat="43.73184" lon="7.26105">
        <ele>168</ele>
        <time>2017-08-19T12:33:54Z</time>
      </trkpt>
      <trkpt lat="43.73202" lon="7.26102">
        <ele>169</ele>
        <time>2017-08-19T12:35:54Z</time>
      </trkpt>
      <trkpt lat="43.73215" lon="7.26109">
        <ele>171</ele>
        <time>2017-08-19T12:37:54Z</time>
      </trkpt>
      <trkpt lat="43.73235" lon="7.26141">
        <ele>179</ele>
        <time>2017-08-19T12:39:54Z</time>
      </trkpt>
      <trkpt lat="43.73249" lon="7.26154">
        <ele>182</ele>
        <time>2017-08-19T12:41:54Z</time>
      </trkpt>
      <trkpt lat="43.73267" lon="7.26158">
        <ele>184</ele>
        <time>2017-08-19T12:43:54Z</time>
      </trkpt>
      <trkpt lat="43.73277" lon="7.26159">
        <ele>184</ele>
        <time>2017-08-19T12:45:54Z</time>
      </trkpt>
      <trkpt lat="43.73288" lon="7.26149">
        <ele>183</ele>
        <time>2017-08-19T12:47:54Z</time>
      </trkpt>
      <trkpt lat="43.73306" lon="7.26142">
        <ele>183</ele>
        <time>2017-08-19T12:49:54Z</time>
      </trkpt>
      <trkpt lat="43.7332" lon="7.26138">
        <ele>183</ele>
        <time>2017-08-19T12:51:54Z</time>
      </trkpt>
      <trkpt lat="43.73339" lon="7.26143">
        <ele>184</ele>
        <time>2017-08-19T12:53:54Z</time>
      </trkpt>
      <trkpt lat="43.73354" lon="7.26154">
        <ele>187</ele>
        <time>2017-08-19T12:55:54Z</time>
      </trkpt>
      <trkpt lat="43.73374" lon="7.26165">
        <ele>189</ele>
        <time>2017-08-19T12:57:54Z</time>
      </trkpt>
      <trkpt lat="43.73384" lon="7.26178">
        <ele>191</ele>
        <time>2017-08-19T12:59:54Z</time>
      </trkpt>
      <trkpt lat="43.73392" lon="7.26181">
        <ele>192</ele>
        <time>2017-08-19T13:01:54Z</time>
      </trkpt>
      <trkpt lat="43.73407" lon="7.26191">
        <ele>194</ele>
        <time>2017-08-19T13:03:54Z</time>
      </trkpt>
      <trkpt lat="43.73419" lon="7.26206">
        <ele>196</ele>
        <time>2017-08-19T13:05:54Z</time>
      </trkpt>
      <trkpt lat="43.73423" lon="7.2622">
        <ele>198</ele>
        <time>2017-08-19T13:07:54Z</time>
      </trkpt>
      <trkpt lat="43.73423" lon="7.26245">
        <ele>201</ele>
        <time>2017-08-19T13:09:54Z</time>
      </trkpt>
      <trkpt lat="43.73442" lon="7.26259">
        <ele>202</ele>
        <time>2017-08-19T13:11:54Z</time>
      </trkpt>
      <trkpt lat="43.73459" lon="7.26267">
        <ele>203</ele>
        <time>2017-08-19T13:13:54Z</time>
      </trkpt>
      <trkpt lat="43.73485" lon="7.26292">
        <ele>206</ele>
        <time>2017-08-19T13:15:54Z</time>
      </trkpt>
      <trkpt lat="43.73562" lon="7.26351">
        <ele>213</ele>
        <time>2017-08-19T13:17:54Z</time>
      </trkpt>
      <trkpt lat="43.73575" lon="7.26353">
        <ele>214</ele>
        <time>2017-08-19T13:19:54Z</time>
      </trkpt>
      <trkpt lat="43.73594" lon="7.26352">
        <ele>216</ele>
        <time>2017-08-19T13:21:54Z</time>
      </trkpt>
      <trkpt lat="43.73618" lon="7.26347">
        <ele>218</ele>
        <time>2017-08-19T13:23:54Z</time>
      </trkpt>
      <trkpt lat="43.73636" lon="7.2634">
        <ele>220</ele>
        <time>2017-08-19T13:25:54Z</time>
      </trkpt>
      <trkpt lat="43.73644" lon="7.26334">
        <ele>220</ele>
        <time>2017-08-19T13:27:54Z</time>
      </trkpt>
      <trkpt lat="43.73659" lon="7.26321">
        <ele>221</ele>
        <time>2017-08-19T13:29:54Z</time>
      </trkpt>
      <trkpt lat="43.73674" lon="7.26304">
        <ele>222</ele>
        <time>2017-08-19T13:31:54Z</time>
      </trkpt>
      <trkpt lat="43.73683" lon="7.26281">
        <ele>223</ele>
        <time>2017-08-19T13:33:54Z</time>
      </trkpt>
      <trkpt lat="43.73732" lon="7.26285">
        <ele>231</ele>
        <time>2017-08-19T13:35:54Z</time>
      </trkpt>
      <trkpt lat="43.73764" lon="7.2629">
        <ele>236</ele>
        <time>2017-08-19T13:37:54Z</time>
      </trkpt>
      <trkpt lat="43.73798" lon="7.2629">
        <ele>242</ele>
        <time>2017-08-19T13:39:54Z</time>
      </trkpt>
      <trkpt lat="43.73821" lon="7.26281">
        <ele>246</ele>
        <time>2017-08-19T13:41:54Z</time>
      </trkpt>
      <trkpt lat="43.73846" lon="7.26271">
        <ele>249</ele>
        <time>2017-08-19T13:43:54Z</time>
      </trkpt>
      <trkpt lat="43.73875" lon="7.26265">
        <ele>253</ele>
        <time>2017-08-19T13:45:54Z</time>
      </trkpt>
      <trkpt lat="43.73901" lon="7.2627">
        <ele>258</ele>
        <time>2017-08-19T13:47:54Z</time>
      </trkpt>
      <trkpt lat="43.7393" lon="7.26271">
        <ele>263</ele>
        <time>2017-08-19T13:49:54Z</time>
      </trkpt>
      <trkpt lat="43.73957" lon="7.26267">
        <ele>267</ele>
        <time>2017-08-19T13:51:54Z</time>
      </trkpt>
      <trkpt lat="43.73987" lon="7.26255">
        <ele>271</ele>
        <time>2017-08-19T13:53:54Z</time>
      </trkpt>
      <trkpt lat="43.74008" lon="7.26251">
        <ele>274</ele>
        <time>2017-08-19T13:55:54Z</time>
      </trkpt>
      <trkpt lat="43.74045" lon="7.26268">
        <ele>279</ele>
        <time>2017-08-19T13:57:54Z</time>
      </trkpt>
      <trkpt lat="43.74084" lon="7.26283">
        <ele>285</ele>
        <time>2017-08-19T13:59:54Z</time>
      </trkpt>
      <trkpt lat="43.74102" lon="7.26293">
        <ele>288</ele>
        <time>2017-08-19T14:01:54Z</time>
      </trkpt>
      <trkpt lat="43.74112" lon="7.26305">
        <ele>290</ele>
        <time>2017-08-19T14:03:54Z</time>
      </trkpt>
      <trkpt lat="43.74139" lon="7.26353">
        <ele>296</ele>
        <time>2017-08-19T14:05:54Z</time>
      </trkpt>
      <trkpt lat="43.74151" lon="7.26368">
        <ele>297</ele>
        <time>2017-08-19T14:07:54Z</time>
      </trkpt>
      <trkpt lat="43.74183" lon="7.2637">
        <ele>300</ele>
        <time>2017-08-19T14:09:54Z</time>
      </trkpt>
      <trkpt lat="43.74201" lon="7.26368">
        <ele>303</ele>
        <time>2017-08-19T14:11:54Z</time>
      </trkpt>
      <trkpt lat="43.74233" lon="7.26364">
        <ele>307</ele>
        <time>2017-08-19T14:13:54Z</time>
      </trkpt>
      <trkpt lat="43.74254" lon="7.26365">
        <ele>310</ele>
        <time>2017-08-19T14:15:54Z</time>
      </trkpt>
      <trkpt lat="43.74295" lon="7.26358">
        <ele>314</ele>
        <time>2017-08-19T14:17:54Z</time>
      </trkpt>
      <trkpt lat="43.74331" lon="7.26348">
        <ele>318</ele>
        <time>2017-08-19T14:19:54Z</time>
      </trkpt>
      <trkpt lat="43.74347" lon="7.26348">
        <ele>318</ele>
        <time>2017-08-19T14:21:54Z</time>
      </trkpt>
      <trkpt lat="43.74351" lon="7.26336">
        <ele>317</ele>
        <time>2017-08-19T14:23:54Z</time>
      </trkpt>
      <trkpt lat="43.74369" lon="7.26296">
        <ele>321</ele>
        <time>2017-08-19T14:25:54Z</time>
      </trkpt>
      <trkpt lat="43.7438" lon="7.26263">
        <ele>326</ele>
        <time>2017-08-19T14:27:54Z</time>
      </trkpt>
      <trkpt lat="43.74355" lon="7.26178">
        <ele>334</ele>
        <time>2017-08-19T14:29:54Z</time>
      </trkpt>
      <trkpt lat="43.74323" lon="7.26067">
        <ele>339</ele>
        <time>2017-08-19T14:31:54Z</time>
      </trkpt>
      <trkpt lat="43.74286" lon="7.25949">
        <ele>341</ele>
        <time>2017-08-19T14:33:54Z</time>
      </trkpt>
      <trkpt lat="43.74283" lon="7.25922">
        <ele>344</ele>
        <time>2017-08-19T14:35:54Z</time>
      </trkpt>
      <trkpt lat="43.7429" lon="7.25895">
        <ele>350</ele>
        <time>2017-08-19T14:37:54Z</time>
      </trkpt>
      <trkpt lat="43.74292" lon="7.25889">
        <ele>351</ele>
        <time>2017-08-19T14:39:54Z</time>
      </trkpt>
      <trkpt lat="43.74289" lon="7.2588">
        <ele>353</ele>
        <time>2017-08-19T14:41:54Z</time>
      </trkpt>
      <trkpt lat="43.74273" lon="7.25865">
        <ele>354</ele>
        <time>2017-08-19T14:43:54Z</time>
      </trkpt>
      <trkpt lat="43.74254" lon="7.25858">
        <ele>353</ele>
        <time>2017-08-19T14:45:54Z</time>
      </trkpt>
      <trkpt lat="43.74244" lon="7.25849">
        <ele>354</ele>
        <time>2017-08-19T14:47:54Z</time>
      </trkpt>
      <trkpt lat="43.74196" lon="7.25782">
        <ele>351</ele>
        <time>2017-08-19T14:49:54Z</time>
      </trkpt>
      <trkpt lat="43.74186" lon="7.25755">
        <ele>352</ele>
        <time>2017-08-19T14:51:54Z</time>
      </trkpt>
      <trkpt lat="43.7419" lon="7.25739">
        <ele>355</ele>
        <time>2017-08-19T14:53:54Z</time>
      </trkpt>
      <trkpt lat="43.74192" lon="7.25725">
        <ele>357</ele>
        <time>2017-08-19T14:55:54Z</time>
      </trkpt>
      <trkpt lat="43.74195" lon="7.2571">
        <ele>360</ele>
        <time>2017-08-19T14:57:54Z</time>
      </trkpt>
      <trkpt lat="43.74202" lon="7.257">
        <ele>363</ele>
        <time>2017-08-19T14:59:54Z</time>
      </trkpt>
      <trkpt lat="43.74212" lon="7.2569">
        <ele>366</ele>
        <time>2017-08-19T15:01:54Z</time>
      </trkpt>
      <trkpt lat="43.74219" lon="7.25672">
        <ele>370</ele>
        <time>2017-08-19T15:03:54Z</time>
      </trkpt>
      <trkpt lat="43.7423" lon="7.25664">
        <ele>372</ele>
        <time>2017-08-19T15:05:54Z</time>
      </trkpt>
      <trkpt lat="43.7424" lon="7.25658">
        <ele>374</ele>
        <time>2017-08-19T15:07:54Z</time>
      </trkpt>
      <trkpt lat="43.74255" lon="7.25644">
        <ele>377</ele>
        <time>2017-08-19T15:09:54Z</time>
      </trkpt>
      <trkpt lat="43.74268" lon="7.25633">
        <ele>378</ele>
        <time>2017-08-19T15:11:54Z</time>
      </trkpt>
      <trkpt lat="43.74279" lon="7.2563">
        <ele>378</ele>
        <time>2017-08-19T15:13:54Z</time>
      </trkpt>
      <trkpt lat="43.7429" lon="7.25616">
        <ele>379</ele>
        <time>2017-08-19T15:15:54Z</time>
      </trkpt>
      <trkpt lat="43.74304" lon="7.25619">
        <ele>380</ele>
        <time>2017-08-19T15:17:54Z</time>
      </trkpt>
      <trkpt lat="43.74312" lon="7.25622">
        <ele>381</ele>
        <time>2017-08-19T15:19:54Z</time>
      </trkpt>
      <trkpt lat="43.74327" lon="7.25624">
        <ele>382</ele>
        <time>2017-08-19T15:21:54Z</time>
      </trkpt>
      <trkpt lat="43.74335" lon="7.25638">
        <ele>381</ele>
        <time>2017-08-19T15:23:54Z</time>
      </trkpt>
      <trkpt lat="43.74364" lon="7.2565">
        <ele>382</ele>
        <time>2017-08-19T15:25:54Z</time>
      </trkpt>
      <trkpt lat="43.74402" lon="7.25647">
        <ele>384</ele>
        <time>2017-08-19T15:27:54Z</time>
      </trkpt>
      <trkpt lat="43.74429" lon="7.25676">
        <ele>385</ele>
        <time>2017-08-19T15:29:54Z</time>
      </trkpt>
      <trkpt lat="43.74471" lon="7.25686">
        <ele>391</ele>
        <time>2017-08-19T15:31:54Z</time>
      </trkpt>
      <trkpt lat="43.74495" lon="7.25697">
        <ele>396</ele>
        <time>2017-08-19T15:33:54Z</time>
      </trkpt>
      <trkpt lat="43.74508" lon="7.25708">
        <ele>399</ele>
        <time>2017-08-19T15:35:54Z</time>
      </trkpt>
      <trkpt lat="43.74524" lon="7.25714">
        <ele>402</ele>
        <time>2017-08-19T15:37:54Z</time>
      </trkpt>
      <trkpt lat="43.74536" lon="7.25726">
        <ele>406</ele>
        <time>2017-08-19T15:39:54Z</time>
      </trkpt>
      <trkpt lat="43.74545" lon="7.25746">
        <ele>410</ele>
        <time>2017-08-19T15:41:54Z</time>
      </trkpt>
      <trkpt lat="43.74564" lon="7.25788">
        <ele>420</ele>
        <time>2017-08-19T15:43:54Z</time>
      </trkpt>
      <trkpt lat="43.74564" lon="7.25807">
        <ele>423</ele>
        <time>2017-08-19T15:45:54Z</time>
      </trkpt>
      <trkpt lat="43.74566" lon="7.25829">
        <ele>427</ele>
        <time>2017-08-19T15:47:54Z</time>
      </trkpt>
      <trkpt lat="43.74572" lon="7.25846">
        <ele>429</ele>
        <time>2017-08-19T15:49:54Z</time>
      </trkpt>
      <trkpt lat="43.74578" lon="7.25872">
        <ele>430</ele>
        <time>2017-08-19T15:51:54Z</time>
      </trkpt>
      <trkpt lat="43.74601" lon="7.25875">
        <ele>434</ele>
        <time>2017-08-19T15:53:54Z</time>
      </trkpt>
      <trkpt lat="43.74616" lon="7.25868">
        <ele>436</ele>
        <time>2017-08-19T15:55:54Z</time>
      </trkpt>
      <trkpt lat="43.74654" lon="7.25846">
        <ele>442</ele>
        <time>2017-08-19T15:57:54Z</time>
      </trkpt>
      <trkpt lat="43.74677" lon="7.25868">
        <ele>446</ele>
        <time>2017-08-19T15:59:54Z</time>
      </trkpt>
      <trkpt lat="43.7468" lon="7.25873">
        <ele>446</ele>
        <time>2017-08-19T16:01:54Z</time>
      </trkpt>
      <trkpt lat="43.74681" lon="7.25893">
        <ele>446</ele>
        <time>2017-08-19T16:03:54Z</time>
      </trkpt>
      <trkpt lat="43.74691" lon="7.25887">
        <ele>448</ele>
        <time>2017-08-19T16:05:54Z</time>
      </trkpt>
      <trkpt lat="43.74709" lon="7.25891">
        <ele>451</ele>
        <time>2017-08-19T16:07:54Z</time>
      </trkpt>
      <trkpt lat="43.7471" lon="7.25878">
        <ele>452</ele>
        <time>2017-08-19T16:09:54Z</time>
      </trkpt>
      <trkpt lat="43.74728" lon="7.25871">
        <ele>455</ele>
        <time>2017-08-19T16:11:54Z</time>
      </trkpt>
      <trkpt lat="43.74745" lon="7.25861">
        <ele>459</ele>
        <time>2017-08-19T16:13:54Z</time>
      </trkpt>
      <trkpt lat="43.74762" lon="7.25848">
        <ele>461</ele>
        <time>2017-08-19T16:15:54Z</time>
      </trkpt>
      <trkpt lat="43.74781" lon="7.25844">
        <ele>463</ele>
        <time>2017-08-19T16:17:54Z</time>
      </trkpt>
      <trkpt lat="43.74796" lon="7.25839">
        <ele>464</ele>
        <time>2017-08-19T16:19:54Z</time>
      </trkpt>
      <trkpt lat="43.7482" lon="7.25841">
        <ele>466</ele>
        <time>2017-08-19T16:21:54Z</time>
      </trkpt>
      <trkpt lat="43.74837" lon="7.25842">
        <ele>467</ele>
        <time>2017-08-19T16:23:54Z</time>
      </trkpt>
      <trkpt lat="43.74861" lon="7.2584">
        <ele>467</ele>
        <time>2017-08-19T16:25:54Z</time>
      </trkpt>
      <trkpt lat="43.7489" lon="7.25841">
        <ele>466</ele>
        <time>2017-08-19T16:27:54Z</time>
      </trkpt>
      <trkpt lat="43.74919" lon="7.25837">
        <ele>466</ele>
        <time>2017-08-19T16:29:54Z</time>
      </trkpt>
      <trkpt lat="43.74945" lon="7.25838">
        <ele>467</ele>
        <time>2017-08-19T16:31:54Z</time>
      </trkpt>
      <trkpt lat="43.74964" lon="7.25844">
        <ele>467</ele>
        <time>2017-08-19T16:33:54Z</time>
      </trkpt>
      <trkpt lat="43.74975" lon="7.25856">
        <ele>469</ele>
        <time>2017-08-19T16:35:54Z</time>
      </trkpt>
      <trkpt lat="43.74998" lon="7.2585">
        <ele>469</ele>
        <time>2017-08-19T16:37:54Z</time>
      </trkpt>
      <trkpt lat="43.75016" lon="7.25856">
        <ele>470</ele>
        <time>2017-08-19T16:39:54Z</time>
      </trkpt>
      <trkpt lat="43.75042" lon="7.25859">
        <ele>472</ele>
        <time>2017-08-19T16:41:54Z</time>
      </trkpt>
      <trkpt lat="43.75073" lon="7.25863">
        <ele>473</ele>
        <time>2017-08-19T16:43:54Z</time>
      </trkpt>
      <trkpt lat="43.75092" lon="7.25881">
        <ele>477</ele>
        <time>2017-08-19T16:45:54Z</time>
      </trkpt>
      <trkpt lat="43.75109" lon="7.25875">
        <ele>478</ele>
        <time>2017-08-19T16:47:54Z</time>
      </trkpt>
      <trkpt lat="43.75127" lon="7.25872">
        <ele>479</ele>
        <time>2017-08-19T16:49:54Z</time>
      </trkpt>
      <trkpt lat="43.75147" lon="7.25874">
        <ele>481</ele>
        <time>2017-08-19T16:51:54Z</time>
      </trkpt>
      <trkpt lat="43.75174" lon="7.25873">
        <ele>483</ele>
        <time>2017-08-19T16:53:54Z</time>
      </trkpt>
      <trkpt lat="43.75202" lon="7.25865">
        <ele>485</ele>
        <time>2017-08-19T16:55:54Z</time>
      </trkpt>
      <trkpt lat="43.75225" lon="7.25854">
        <ele>487</ele>
        <time>2017-08-19T16:57:54Z</time>
      </trkpt>
      <trkpt lat="43.75249" lon="7.25854">
        <ele>489</ele>
        <time>2017-08-19T16:59:54Z</time>
      </trkpt>
      <trkpt lat="43.75272" lon="7.25843">
        <ele>490</ele>
        <time>2017-08-19T17:01:54Z</time>
      </trkpt>
      <trkpt lat="43.75305" lon="7.25819">
        <ele>492</ele>
        <time>2017-08-19T17:03:54Z</time>
      </trkpt>
      <trkpt lat="43.75327" lon="7.25809">
        <ele>493</ele>
        <time>2017-08-19T17:05:54Z</time>
      </trkpt>
      <trkpt lat="43.75334" lon="7.25795">
        <ele>493</ele>
        <time>2017-08-19T17:07:54Z</time>
      </trkpt>
      <trkpt lat="43.75346" lon="7.25782">
        <ele>493</ele>
        <time>2017-08-19T17:09:54Z</time>
      </trkpt>
      <trkpt lat="43.75366" lon="7.25784">
        <ele>493</ele>
        <time>2017-08-19T17:11:54Z</time>
      </trkpt>
      <trkpt lat="43.75376" lon="7.25793">
        <ele>494</ele>
        <time>2017-08-19T17:13:54Z</time>
      </trkpt>
      <trkpt lat="43.7539" lon="7.25799">
        <ele>495</ele>
        <time>2017-08-19T17:15:54Z</time>
      </trkpt>
      <trkpt lat="43.75407" lon="7.25807">
        <ele>496</ele>
        <time>2017-08-19T17:17:54Z</time>
      </trkpt>
      <trkpt lat="43.75423" lon="7.25799">
        <ele>496</ele>
        <time>2017-08-19T17:19:54Z</time>
      </trkpt>
      <trkpt lat="43.75448" lon="7.25796">
        <ele>497</ele>
        <time>2017-08-19T17:21:54Z</time>
      </trkpt>
      <trkpt lat="43.7546" lon="7.25788">
        <ele>498</ele>
        <time>2017-08-19T17:23:54Z</time>
      </trkpt>
      <trkpt lat="43.7548" lon="7.2578">
        <ele>499</ele>
        <time>2017-08-19T17:25:54Z</time>
      </trkpt>
      <trkpt lat="43.75489" lon="7.25751">
        <ele>500</ele>
        <time>2017-08-19T17:27:54Z</time>
      </trkpt>
      <trkpt lat="43.75497" lon="7.25731">
        <ele>501</ele>
        <time>2017-08-19T17:29:54Z</time>
      </trkpt>
      <trkpt lat="43.75508" lon="7.25731">
        <ele>503</ele>
        <time>2017-08-19T17:31:54Z</time>
      </trkpt>
      <trkpt lat="43.75511" lon="7.25712">
        <ele>504</ele>
        <time>2017-08-19T17:33:54Z</time>
      </trkpt>
      <trkpt lat="43.75525" lon="7.25707">
        <ele>506</ele>
        <time>2017-08-19T17:35:54Z</time>
      </trkpt>
      <trkpt lat="43.7553" lon="7.25649">
        <ele>508</ele>
        <time>2017-08-19T17:37:54Z</time>
      </trkpt>
      <trkpt lat="43.75535" lon="7.25623">
        <ele>508</ele>
        <time>2017-08-19T17:39:54Z</time>
      </trkpt>
      <trkpt lat="43.75544" lon="7.25606">
        <ele>510</ele>
        <time>2017-08-19T17:41:54Z</time>
      </trkpt>
      <trkpt lat="43.75558" lon="7.25586">
        <ele>513</ele>
        <time>2017-08-19T17:43:54Z</time>
      </trkpt>
      <trkpt lat="43.75578" lon="7.25581">
        <ele>518</ele>
        <time>2017-08-19T17:45:54Z</time>
      </trkpt>
      <trkpt lat="43.75682" lon="7.25522">
        <ele>530</ele>
        <time>2017-08-19T17:47:54Z</time>
      </trkpt>
      <trkpt lat="43.75752" lon="7.25492">
        <ele>540</ele>
        <time>2017-08-19T17:49:54Z</time>
      </trkpt>
      <trkpt lat="43.7578" lon="7.25469">
        <ele>542</ele>
        <time>2017-08-19T17:51:54Z</time>
      </trkpt>
      <trkpt lat="43.75807" lon="7.25452">
        <ele>546</ele>
        <time>2017-08-19T17:53:54Z</time>
      </trkpt>
      <trkpt lat="43.75831" lon="7.25435">
        <ele>550</ele>
        <time>2017-08-19T17:55:54Z</time>
      </trkpt>
      <trkpt lat="43.75853" lon="7.25434">
        <ele>555</ele>
        <time>2017-08-19T17:57:54Z</time>
      </trkpt>
      <trkpt lat="43.75884" lon="7.25407">
        <ele>557</ele>
        <time>2017-08-19T17:59:54Z</time>
      </trkpt>
      <trkpt lat="43.75924" lon="7.25374">
        <ele>558</ele>
        <time>2017-08-19T18:01:54Z</time>
      </trkpt>
      <trkpt lat="43.75968" lon="7.25344">
        <ele>561</ele>
        <time>2017-08-19T18:03:54Z</time>
      </trkpt>
      <trkpt lat="43.76035" lon="7.25303">
        <ele>567</ele>
        <time>2017-08-19T18:05:54Z</time>
      </trkpt>
      <trkpt lat="43.76069" lon="7.25288">
        <ele>572</ele>
        <time>2017-08-19T18:07:54Z</time>
      </trkpt>
      <trkpt lat="43.76095" lon="7.25281">
        <ele>578</ele>
        <time>2017-08-19T18:09:54Z</time>
      </trkpt>
      <trkpt lat="43.76114" lon="7.25266">
        <ele>580</ele>
        <time>2017-08-19T18:11:54Z</time>
      </trkpt>
      <trkpt lat="43.76159" lon="7.2524">
        <ele>587</ele>
        <time>2017-08-19T18:13:54Z</time>
      </trkpt>
      <trkpt lat="43.76187" lon="7.25223">
        <ele>588</ele>
        <time>2017-08-19T18:15:54Z</time>
      </trkpt>
      <trkpt lat="43.7621" lon="7.25211">
        <ele>590</ele>
        <time>2017-08-19T18:17:54Z</time>
      </trkpt>
      <trkpt lat="43.76239" lon="7.2521">
        <ele>596</ele>
        <time>2017-08-19T18:19:54Z</time>
      </trkpt>
      <trkpt lat="43.76315" lon="7.25199">
        <ele>606</ele>
        <time>2017-08-19T18:21:54Z</time>
      </trkpt>
      <trkpt lat="43.76346" lon="7.252">
        <ele>612</ele>
        <time>2017-08-19T18:23:54Z</time>
      </trkpt>
      <trkpt lat="43.76359" lon="7.25178">
        <ele>612</ele>
        <time>2017-08-19T18:25:54Z</time>
      </trkpt>
      <trkpt lat="43.76377" lon="7.25159">
        <ele>614</ele>
        <time>2017-08-19T18:27:54Z</time>
      </trkpt>
      <trkpt lat="43.76399" lon="7.25138">
        <ele>614</ele>
        <time>2017-08-19T18:29:54Z</time>
      </trkpt>
      <trkpt lat="43.76424" lon="7.25128">
        <ele>618</ele>
        <time>2017-08-19T18:31:54Z</time>
      </trkpt>
      <trkpt lat="43.76439" lon="7.25115">
        <ele>617</ele>
        <time>2017-08-19T18:33:54Z</time>
      </trkpt>
      <trkpt lat="43.76487" lon="7.25113">
        <ele>624</ele>
        <time>2017-08-19T18:35:54Z</time>
      </trkpt>
      <trkpt lat="43.76509" lon="7.25123">
        <ele>628</ele>
        <time>2017-08-19T18:37:54Z</time>
      </trkpt>
      <trkpt lat="43.76531" lon="7.25132">
        <ele>630</ele>
        <time>2017-08-19T18:39:54Z</time>
      </trkpt>
      <trkpt lat="43.7656" lon="7.25117">
        <ele>632</ele>
        <time>2017-08-19T18:41:54Z</time>
      </trkpt>
      <trkpt lat="43.76585" lon="7.25104">
        <ele>635</ele>
        <time>2017-08-19T18:43:54Z</time>
      </trkpt>
      <trkpt lat="43.7662" lon="7.25098">
        <ele>639</ele>
        <time>2017-08-19T18:45:54Z</time>
      </trkpt>
      <trkpt lat="43.76661" lon="7.25094">
        <ele>644</ele>
        <time>2017-08-19T18:47:54Z</time>
      </trkpt>
      <trkpt lat="43.76686" lon="7.25049">
        <ele>648</ele>
        <time>2017-08-19T18:49:54Z</time>
      </trkpt>
      <trkpt lat="43.76699" lon="7.25052">
        <ele>649</ele>
        <time>2017-08-19T18:51:54Z</time>
      </trkpt>
      <trkpt lat="43.76716" lon="7.25055">
        <ele>652</ele>
        <time>2017-08-19T18:53:54Z</time>
      </trkpt>
      <trkpt lat="43.76736" lon="7.25052">
        <ele>655</ele>
        <time>2017-08-19T18:55:54Z</time>
      </trkpt>
      <trkpt lat="43.76765" lon="7.2504">
        <ele>659</ele>
        <time>2017-08-19T18:57:54Z</time>
      </trkpt>
      <trkpt lat="43.76788" lon="7.25033">
        <ele>662</ele>
        <time>2017-08-19T18:59:54Z</time>
      </trkpt>
      <trkpt lat="43.76839" lon="7.25053">
        <ele>665</ele>
        <time>2017-08-19T19:01:54Z</time>
      </trkpt>
      <trkpt lat="43.77024" lon="7.24967">
        <ele>675</ele>
        <time>2017-08-19T19:03:54Z</time>
      </trkpt>
      <trkpt lat="43.7704" lon="7.24964">
        <ele>673</ele>
        <time>2017-08-19T19:05:54Z</time>
      </trkpt>
      <trkpt lat="43.77058" lon="7.2498">
        <ele>677</ele>
        <time>2017-08-19T19:07:54Z</time>
      </trkpt>
      <trkpt lat="43.77081" lon="7.24993">
        <ele>680</ele>
        <time>2017-08-19T19:09:54Z</time>
      </trkpt>
      <trkpt lat="43.77114" lon="7.2499">
        <ele>680</ele>
        <time>2017-08-19T19:11:54Z</time>
      </trkpt>
      <trkpt lat="43.77217" lon="7.24981">
        <ele>679</ele>
        <time>2017-08-19T19:13:54Z</time>
      </trkpt>
      <trkpt lat="43.77331" lon="7.2496">
        <ele>672</ele>
        <time>2017-08-19T19:15:54Z</time>
      </trkpt>
      <trkpt lat="43.77374" lon="7.24948">
        <ele>667</ele>
        <time>2017-08-19T19:17:54Z</time>
      </trkpt>
      <trkpt lat="43.77397" lon="7.24947">
        <ele>666</ele>
        <time>2017-08-19T19:19:54Z</time>
      </trkpt>
      <trkpt lat="43.77447" lon="7.24944">
        <ele>664</ele>
        <time>2017-08-19T19:21:54Z</time>
      </trkpt>
      <trkpt lat="43.77517" lon="7.24934">
        <ele>662</ele>
        <time>2017-08-19T19:23:54Z</time>
      </trkpt>
      <trkpt lat="43.77552" lon="7.24925">
        <ele>661</ele>
        <time>2017-08-19T19:25:54Z</time>
      </trkpt>
      <trkpt lat="43.776" lon="7.24909">
        <ele>658</ele>
        <time>2017-08-19T19:27:54Z</time>
      </trkpt>
      <trkpt lat="43.77631" lon="7.24908">
        <ele>657</ele>
        <time>2017-08-19T19:29:54Z</time>
      </trkpt>
      <trkpt lat="43.77658" lon="7.24906">
        <ele>656</ele>
        <time>2017-08-19T19:31:54Z</time>
      </trkpt>
      <trkpt lat="43.77694" lon="7.24923">
        <ele>661</ele>
        <time>2017-08-19T19:33:54Z</time>
      </trkpt>
      <trkpt lat="43.77719" lon="7.24916">
        <ele>659</ele>
        <time>2017-08-19T19:35:54Z</time>
      </trkpt>
      <trkpt lat="43.77733" lon="7.24909">
        <ele>658</ele>
        <time>2017-08-19T19:37:54Z</time>
      </trkpt>
      <trkpt lat="43.77748" lon="7.24904">
        <ele>656</ele>
        <time>2017-08-19T19:39:54Z</time>
      </trkpt>
      <trkpt lat="43.77769" lon="7.24896">
        <ele>652</ele>
        <time>2017-08-19T19:41:54Z</time>
      </trkpt>
      <trkpt lat="43.77781" lon="7.24881">
        <ele>647</ele>
        <time>2017-08-19T19:43:54Z</time>
      </trkpt>
      <trkpt lat="43.77797" lon="7.24872">
        <ele>644</ele>
        <time>2017-08-19T19:45:54Z</time>
      </trkpt>
      <trkpt lat="43.77808" lon="7.24879">
        <ele>645</ele>
        <time>2017-08-19T19:47:54Z</time>
      </trkpt>
      <trkpt lat="43.77832" lon="7.24864">
        <ele>640</ele>
        <time>2017-08-19T19:49:54Z</time>
      </trkpt>
      <trkpt lat="43.77859" lon="7.24838">
        <ele>630</ele>
        <time>2017-08-19T19:51:54Z</time>
      </trkpt>
      <trkpt lat="43.77879" lon="7.24834">
        <ele>625</ele>
        <time>2017-08-19T19:53:54Z</time>
      </trkpt>
      <trkpt lat="43.77908" lon="7.24803">
        <ele>615</ele>
        <time>2017-08-19T19:55:54Z</time>
      </trkpt>
      <trkpt lat="43.77918" lon="7.24807">
        <ele>614</ele>
        <time>2017-08-19T19:57:54Z</time>
      </trkpt>
      <trkpt lat="43.7793" lon="7.24806">
        <ele>610</ele>
        <time>2017-08-19T19:59:54Z</time>
      </trkpt>
      <trkpt lat="43.77937" lon="7.24821">
        <ele>610</ele>
        <time>2017-08-19T20:01:54Z</time>
      </trkpt>
      <trkpt lat="43.77947" lon="7.2482">
        <ele>607</ele>
        <time>2017-08-19T20:03:54Z</time>
      </trkpt>
      <trkpt lat="43.7797" lon="7.2479">
        <ele>597</ele>
        <time>2017-08-19T20:05:54Z</time>
      </trkpt>
      <trkpt lat="43.77974" lon="7.24813">
        <ele>598</ele>
        <time>2017-08-19T20:07:54Z</time>
      </trkpt>
      <trkpt lat="43.77979" lon="7.24838">
        <ele>599</ele>
        <time>2017-08-19T20:09:54Z</time>
      </trkpt>
      <trkpt lat="43.7798" lon="7.24852">
        <ele>601</ele>
        <time>2017-08-19T20:11:54Z</time>
      </trkpt>
      <trkpt lat="43.77983" lon="7.24874">
        <ele>605</ele>
        <time>2017-08-19T20:13:54Z</time>
      </trkpt>
      <trkpt lat="43.78" lon="7.24875">
        <ele>600</ele>
        <time>2017-08-19T20:15:54Z</time>
      </trkpt>
      <trkpt lat="43.78011" lon="7.2488">
        <ele>598</ele>
        <time>2017-08-19T20:17:54Z</time>
      </trkpt>
      <trkpt lat="43.78021" lon="7.2488">
        <ele>595</ele>
        <time>2017-08-19T20:19:54Z</time>
      </trkpt>
      <trkpt lat="43.78033" lon="7.24879">
        <ele>592</ele>
        <time>2017-08-19T20:21:54Z</time>
      </trkpt>
      <trkpt lat="43.78052" lon="7.2488">
        <ele>586</ele>
        <time>2017-08-19T20:23:54Z</time>
      </trkpt>
      <trkpt lat="43.78064" lon="7.24881">
        <ele>583</ele>
        <time>2017-08-19T20:25:54Z</time>
      </trkpt>
      <trkpt lat="43.78076" lon="7.2488">
        <ele>579</ele>
        <time>2017-08-19T20:27:54Z</time>
      </trkpt>
      <trkpt lat="43.78093" lon="7.24878">
        <ele>573</ele>
        <time>2017-08-19T20:29:54Z</time>
      </trkpt>
      <trkpt lat="43.781" lon="7.2488">
        <ele>572</ele>
        <time>2017-08-19T20:31:54Z</time>
      </trkpt>
      <trkpt lat="43.7812" lon="7.24879">
        <ele>565</ele>
        <time>2017-08-19T20:33:54Z</time>
      </trkpt>
      <trkpt lat="43.78132" lon="7.24881">
        <ele>561</ele>
        <time>2017-08-19T20:35:54Z</time>
      </trkpt>
      <trkpt lat="43.78141" lon="7.24892">
        <ele>561</ele>
        <time>2017-08-19T20:37:54Z</time>
      </trkpt>
      <trkpt lat="43.78167" lon="7.24905">
        <ele>555</ele>
        <time>2017-08-19T20:39:54Z</time>
      </trkpt>
      <trkpt lat="43.78201" lon="7.24947">
        <ele>546</ele>
        <time>2017-08-19T20:41:54Z</time>
      </trkpt>
      <trkpt lat="43.78223" lon="7.25054">
        <ele>538</ele>
        <time>2017-08-19T20:43:54Z</time>
      </trkpt>
      <trkpt lat="43.78211" lon="7.25122">
        <ele>540</ele>
        <time>2017-08-19T20:45:54Z</time>
      </trkpt>
      <trkpt lat="43.78252" lon="7.25042">
        <ele>527</ele>
        <time>2017-08-19T20:47:54Z</time>
      </trkpt>
      <trkpt lat="43.78285" lon="7.24993">
        <ele>523</ele>
        <time>2017-08-19T20:49:54Z</time>
      </trkpt>
      <trkpt lat="43.78291" lon="7.24948">
        <ele>520</ele>
        <time>2017-08-19T20:51:54Z</time>
      </trkpt>
      <trkpt lat="43.78303" lon="7.24888">
        <ele>513</ele>
        <time>2017-08-19T20:53:54Z</time>
      </trkpt>
      <trkpt lat="43.78312" lon="7.24782">
        <ele>501</ele>
        <time>2017-08-19T20:55:54Z</time>
      </trkpt>
      <trkpt lat="43.78346" lon="7.24673">
        <ele>489</ele>
        <time>2017-08-19T20:57:54Z</time>
      </trkpt>
      <trkpt lat="43.78352" lon="7.24659">
        <ele>489</ele>
        <time>2017-08-19T20:59:54Z</time>
      </trkpt>
      <trkpt lat="43.78357" lon="7.24644">
        <ele>490</ele>
        <time>2017-08-19T21:01:54Z</time>
      </trkpt>
      <trkpt lat="43.78376" lon="7.24617">
        <ele>492</ele>
        <time>2017-08-19T21:03:54Z</time>
      </trkpt>
      <trkpt lat="43.78395" lon="7.24592">
        <ele>493</ele>
        <time>2017-08-19T21:05:54Z</time>
      </trkpt>
      <trkpt lat="43.78409" lon="7.24579">
        <ele>494</ele>
        <time>2017-08-19T21:07:54Z</time>
      </trkpt>
      <trkpt lat="43.78422" lon="7.24556">
        <ele>497</ele>
        <time>2017-08-19T21:09:54Z</time>
      </trkpt>
      <trkpt lat="43.78426" lon="7.24541">
        <ele>498</ele>
        <time>2017-08-19T21:11:54Z</time>
      </trkpt>
      <trkpt lat="43.78434" lon="7.24529">
        <ele>500</ele>
        <time>2017-08-19T21:13:54Z</time>
      </trkpt>
      <trkpt lat="43.78448" lon="7.24505">
        <ele>502</ele>
        <time>2017-08-19T21:15:54Z</time>
      </trkpt>
      <trkpt lat="43.78461" lon="7.2449">
        <ele>503</ele>
        <time>2017-08-19T21:17:54Z</time>
      </trkpt>
      <trkpt lat="43.78463" lon="7.24494">
        <ele>503</ele>
        <time>2017-08-19T21:19:54Z</time>
      </trkpt>
      <trkpt lat="43.7848" lon="7.24467">
        <ele>504</ele>
        <time>2017-08-19T21:21:54Z</time>
      </trkpt>
      <trkpt lat="43.78482" lon="7.24457">
        <ele>504</ele>
        <time>2017-08-19T21:23:54Z</time>
      </trkpt>
      <trkpt lat="43.7848" lon="7.24445">
        <ele>504</ele>
        <time>2017-08-19T21:25:54Z</time>
      </trkpt>
      <trkpt lat="43.78472" lon="7.24414">
        <ele>503</ele>
        <time>2017-08-19T21:27:54Z</time>
      </trkpt>
      <trkpt lat="43.78462" lon="7.24388">
        <ele>503</ele>
        <time>2017-08-19T21:29:54Z</time>
      </trkpt>
      <trkpt lat="43.78447" lon="7.24372">
        <ele>502</ele>
        <time>2017-08-19T21:31:54Z</time>
      </trkpt>
      <trkpt lat="43.78486" lon="7.24386">
        <ele>502</ele>
        <time>2017-08-19T21:33:54Z</time>
      </trkpt>
      <trkpt lat="43.78497" lon="7.24391">
        <ele>502</ele>
        <time>2017-08-19T21:35:54Z</time>
      </trkpt>
      <trkpt lat="43.7851" lon="7.24399">
        <ele>503</ele>
        <time>2017-08-19T21:37:54Z</time>
      </trkpt>
      <trkpt lat="43.78538" lon="7.24415">
        <ele>507</ele>
        <time>2017-08-19T21:39:54Z</time>
      </trkpt>
      <trkpt lat="43.78556" lon="7.24425">
        <ele>510</ele>
        <time>2017-08-19T21:41:54Z</time>
      </trkpt>
      <trkpt lat="43.78568" lon="7.24428">
        <ele>512</ele>
        <time>2017-08-19T21:43:54Z</time>
      </trkpt>
      <trkpt lat="43.78576" lon="7.24429">
        <ele>513</ele>
        <time>2017-08-19T21:45:54Z</time>
      </trkpt>
      <trkpt lat="43.78588" lon="7.24431">
        <ele>515</ele>
        <time>2017-08-19T21:47:54Z</time>
      </trkpt>
      <trkpt lat="43.78599" lon="7.24434">
        <ele>518</ele>
        <time>2017-08-19T21:49:54Z</time>
      </trkpt>
      <trkpt lat="43.78611" lon="7.24432">
        <ele>520</ele>
        <time>2017-08-19T21:51:54Z</time>
      </trkpt>
      <trkpt lat="43.78621" lon="7.24427">
        <ele>521</ele>
        <time>2017-08-19T21:53:54Z</time>
      </trkpt>
      <trkpt lat="43.78644" lon="7.24412">
        <ele>523</ele>
        <time>2017-08-19T21:55:54Z</time>
      </trkpt>
      <trkpt lat="43.78656" lon="7.24403">
        <ele>523</ele>
        <time>2017-08-19T21:57:54Z</time>
      </trkpt>
      <trkpt lat="43.78661" lon="7.24409">
        <ele>526</ele>
        <time>2017-08-19T21:59:54Z</time>
      </trkpt>
      <trkpt lat="43.78684" lon="7.24403">
        <ele>525</ele>
        <time>2017-08-19T22:01:54Z</time>
      </trkpt>
      <trkpt lat="43.7871" lon="7.24404">
        <ele>527</ele>
        <time>2017-08-19T22:03:54Z</time>
      </trkpt>
      <trkpt lat="43.78721" lon="7.24407">
        <ele>528</ele>
        <time>2017-08-19T22:05:54Z</time>
      </trkpt>
      <trkpt lat="43.78738" lon="7.24421">
        <ele>533</ele>
        <time>2017-08-19T22:07:54Z</time>
      </trkpt>
      <trkpt lat="43.78756" lon="7.24441">
        <ele>538</ele>
        <time>2017-08-19T22:09:54Z</time>
      </trkpt>
      <trkpt lat="43.78765" lon="7.24462">
        <ele>542</ele>
        <time>2017-08-19T22:11:54Z</time>
      </trkpt>
      <trkpt lat="43.78771" lon="7.24489">
        <ele>548</ele>
        <time>2017-08-19T22:13:54Z</time>
      </trkpt>
      <trkpt lat="43.78775" lon="7.24505">
        <ele>552</ele>
        <time>2017-08-19T22:15:54Z</time>
      </trkpt>
      <trkpt lat="43.78794" lon="7.24517">
        <ele>553</ele>
        <time>2017-08-19T22:17:54Z</time>
      </trkpt>
      <trkpt lat="43.78809" lon="7.24527">
        <ele>554</ele>
        <time>2017-08-19T22:19:54Z</time>
      </trkpt>
      <trkpt lat="43.78827" lon="7.24544">
        <ele>558</ele>
        <time>2017-08-19T22:21:54Z</time>
      </trkpt>
      <trkpt lat="43.78842" lon="7.24559">
        <ele>561</ele>
        <time>2017-08-19T22:23:54Z</time>
      </trkpt>
      <trkpt lat="43.78844" lon="7.2457">
        <ele>564</ele>
        <time>2017-08-19T22:25:54Z</time>
      </trkpt>
      <trkpt lat="43.78842" lon="7.24579">
        <ele>566</ele>
        <time>2017-08-19T22:27:54Z</time>
      </trkpt>
      <trkpt lat="43.78837" lon="7.24587">
        <ele>568</ele>
        <time>2017-08-19T22:29:54Z</time>
      </trkpt>
      <trkpt lat="43.78828" lon="7.24591">
        <ele>568</ele>
        <time>2017-08-19T22:31:54Z</time>
      </trkpt>
      <trkpt lat="43.78819" lon="7.24596">
        <ele>568</ele>
        <time>2017-08-19T22:33:54Z</time>
      </trkpt>
      <trkpt lat="43.78811" lon="7.24602">
        <ele>568</ele>
        <time>2017-08-19T22:35:54Z</time>
      </trkpt>
      <trkpt lat="43.78816" lon="7.24613">
        <ele>569</ele>
        <time>2017-08-19T22:37:54Z</time>
      </trkpt>
      <trkpt lat="43.78822" lon="7.24624">
        <ele>571</ele>
        <time>2017-08-19T22:39:54Z</time>
      </trkpt>
      <trkpt lat="43.78832" lon="7.24633">
        <ele>573</ele>
        <time>2017-08-19T22:41:54Z</time>
      </trkpt>
      <trkpt lat="43.78852" lon="7.24648">
        <ele>575</ele>
        <time>2017-08-19T22:43:54Z</time>
      </trkpt>
      <trkpt lat="43.78862" lon="7.24656">
        <ele>577</ele>
        <time>2017-08-19T22:45:54Z</time>
      </trkpt>
      <trkpt lat="43.78872" lon="7.24659">
        <ele>578</ele>
        <time>2017-08-19T22:47:54Z</time>
      </trkpt>
      <trkpt lat="43.78876" lon="7.2467">
        <ele>581</ele>
        <time>2017-08-19T22:49:54Z</time>
      </trkpt>
      <trkpt lat="43.78883" lon="7.24675">
        <ele>582</ele>
        <time>2017-08-19T22:51:54Z</time>
      </trkpt>
      <trkpt lat="43.78894" lon="7.24682">
        <ele>584</ele>
        <time>2017-08-19T22:53:54Z</time>
      </trkpt>
      <trkpt lat="43.789" lon="7.24692">
        <ele>586</ele>
        <time>2017-08-19T22:55:54Z</time>
      </trkpt>
      <trkpt lat="43.78904" lon="7.24709">
        <ele>589</ele>
        <time>2017-08-19T22:57:54Z</time>
      </trkpt>
      <trkpt lat="43.78909" lon="7.24742">
        <ele>595</ele>
        <time>2017-08-19T22:59:54Z</time>
      </trkpt>
      <trkpt lat="43.78916" lon="7.24758">
        <ele>599</ele>
        <time>2017-08-19T23:01:54Z</time>
      </trkpt>
      <trkpt lat="43.78931" lon="7.24777">
        <ele>605</ele>
        <time>2017-08-19T23:03:54Z</time>
      </trkpt>
      <trkpt lat="43.78943" lon="7.24794">
        <ele>610</ele>
        <time>2017-08-19T23:05:54Z</time>
      </trkpt>
      <trkpt lat="43.78951" lon="7.24798">
        <ele>613</ele>
        <time>2017-08-19T23:07:54Z</time>
      </trkpt>
      <trkpt lat="43.78957" lon="7.24798">
        <ele>614</ele>
        <time>2017-08-19T23:09:54Z</time>
      </trkpt>
      <trkpt lat="43.78969" lon="7.24793">
        <ele>616</ele>
        <time>2017-08-19T23:11:54Z</time>
      </trkpt>
      <trkpt lat="43.78986" lon="7.24786">
        <ele>618</ele>
        <time>2017-08-19T23:13:54Z</time>
      </trkpt>
      <trkpt lat="43.79026" lon="7.24773">
        <ele>624</ele>
        <time>2017-08-19T23:15:54Z</time>
      </trkpt>
      <trkpt lat="43.79046" lon="7.24768">
        <ele>628</ele>
        <time>2017-08-19T23:17:54Z</time>
      </trkpt>
      <trkpt lat="43.79056" lon="7.24766">
        <ele>629</ele>
        <time>2017-08-19T23:19:54Z</time>
      </trkpt>
      <trkpt lat="43.79067" lon="7.24766">
        <ele>632</ele>
        <time>2017-08-19T23:21:54Z</time>
      </trkpt>
      <trkpt lat="43.79083" lon="7.24763">
        <ele>635</ele>
        <time>2017-08-19T23:23:54Z</time>
      </trkpt>
      <trkpt lat="43.79117" lon="7.24754">
        <ele>640</ele>
        <time>2017-08-19T23:25:54Z</time>
      </trkpt>
      <trkpt lat="43.79146" lon="7.24746">
        <ele>643</ele>
        <time>2017-08-19T23:27:54Z</time>
      </trkpt>
      <trkpt lat="43.79166" lon="7.24749">
        <ele>649</ele>
        <time>2017-08-19T23:29:54Z</time>
      </trkpt>
      <trkpt lat="43.79183" lon="7.24749">
        <ele>651</ele>
        <time>2017-08-19T23:31:54Z</time>
      </trkpt>
      <trkpt lat="43.79204" lon="7.24765">
        <ele>655</ele>
        <time>2017-08-19T23:33:54Z</time>
      </trkpt>
      <trkpt lat="43.79221" lon="7.24774">
        <ele>657</ele>
        <time>2017-08-19T23:35:54Z</time>
      </trkpt>
      <trkpt lat="43.79247" lon="7.24779">
        <ele>658</ele>
        <time>2017-08-19T23:37:54Z</time>
      </trkpt>
      <trkpt lat="43.79271" lon="7.24781">
        <ele>663</ele>
        <time>2017-08-19T23:39:54Z</time>
      </trkpt>
      <trkpt lat="43.79287" lon="7.24787">
        <ele>666</ele>
        <time>2017-08-19T23:41:54Z</time>
      </trkpt>
      <trkpt lat="43.79298" lon="7.24812">
        <ele>667</ele>
        <time>2017-08-19T23:43:54Z</time>
      </trkpt>
      <trkpt lat="43.79321" lon="7.24832">
        <ele>668</ele>
        <time>2017-08-19T23:45:54Z</time>
      </trkpt>
      <trkpt lat="43.7936" lon="7.24835">
        <ele>674</ele>
        <time>2017-08-19T23:47:54Z</time>
      </trkpt>
      <trkpt lat="43.79376" lon="7.24839">
        <ele>675</ele>
        <time>2017-08-19T23:49:54Z</time>
      </trkpt>
      <trkpt lat="43.79403" lon="7.24848">
        <ele>677</ele>
        <time>2017-08-19T23:51:54Z</time>
      </trkpt>
      <trkpt lat="43.79436" lon="7.24867">
        <ele>676</ele>
        <time>2017-08-19T23:53:54Z</time>
      </trkpt>
      <trkpt lat="43.79489" lon="7.24893">
        <ele>676</ele>
        <time>2017-08-19T23:55:54Z</time>
      </trkpt>
      <trkpt lat="43.79554" lon="7.24902">
        <ele>682</ele>
        <time>2017-08-19T23:57:54Z</time>
      </trkpt>
      <trkpt lat="43.79575" lon="7.24905">
        <ele>684</ele>
        <time>2017-08-19T23:59:54Z</time>
      </trkpt>
      <trkpt lat="43.79603" lon="7.24905">
        <ele>684</ele>
        <time>2017-08-20T00:01:54Z</time>
      </trkpt>
      <trkpt lat="43.79631" lon="7.24901">
        <ele>684</ele>
        <time>2017-08-20T00:03:54Z</time>
      </trkpt>
      <trkpt lat="43.79652" lon="7.24887">
        <ele>689</ele>
        <time>2017-08-20T00:05:54Z</time>
      </trkpt>
      <trkpt lat="43.79671" lon="7.24869">
        <ele>693</ele>
        <time>2017-08-20T00:07:54Z</time>
      </trkpt>
      <trkpt lat="43.79685" lon="7.24851">
        <ele>697</ele>
        <time>2017-08-20T00:09:54Z</time>
      </trkpt>
      <trkpt lat="43.79705" lon="7.24825">
        <ele>702</ele>
        <time>2017-08-20T00:11:54Z</time>
      </trkpt>
      <trkpt lat="43.79728" lon="7.24807">
        <ele>703</ele>
        <time>2017-08-20T00:13:54Z</time>
      </trkpt>
      <trkpt lat="43.79748" lon="7.24793">
        <ele>704</ele>
        <time>2017-08-20T00:15:54Z</time>
      </trkpt>
      <trkpt lat="43.79785" lon="7.24779">
        <ele>700</ele>
        <time>2017-08-20T00:17:54Z</time>
      </trkpt>
      <trkpt lat="43.79871" lon="7.24718">
        <ele>700</ele>
        <time>2017-08-20T00:19:54Z</time>
      </trkpt>
      <trkpt lat="43.80039" lon="7.24677">
        <ele>698</ele>
        <time>2017-08-20T00:21:54Z</time>
      </trkpt>
      <trkpt lat="43.80067" lon="7.24763">
        <ele>696</ele>
        <time>2017-08-20T00:23:54Z</time>
      </trkpt>
      <trkpt lat="43.80076" lon="7.24813">
        <ele>698</ele>
        <time>2017-08-20T00:25:54Z</time>
      </trkpt>
      <trkpt lat="43.80071" lon="7.24857">
        <ele>692</ele>
        <time>2017-08-20T00:27:54Z</time>
      </trkpt>
      <trkpt lat="43.80079" lon="7.24891">
        <ele>693</ele>
        <time>2017-08-20T00:29:54Z</time>
      </trkpt>
      <trkpt lat="43.8009" lon="7.24911">
        <ele>696</ele>
        <time>2017-08-20T00:31:54Z</time>
      </trkpt>
      <trkpt lat="43.801" lon="7.24934">
        <ele>697</ele>
        <time>2017-08-20T00:33:54Z</time>
      </trkpt>
      <trkpt lat="43.80114" lon="7.24961">
        <ele>697</ele>
        <time>2017-08-20T00:35:54Z</time>
      </trkpt>
      <trkpt lat="43.80131" lon="7.24984">
        <ele>698</ele>
        <time>2017-08-20T00:37:54Z</time>
      </trkpt>
      <trkpt lat="43.80149" lon="7.24982">
        <ele>704</ele>
        <time>2017-08-20T00:39:54Z</time>
      </trkpt>
      <trkpt lat="43.80163" lon="7.24984">
        <ele>709</ele>
        <time>2017-08-20T00:41:54Z</time>
      </trkpt>
      <trkpt lat="43.80176" lon="7.25001">
        <ele>710</ele>
        <time>2017-08-20T00:43:54Z</time>
      </trkpt>
      <trkpt lat="43.80193" lon="7.25027">
        <ele>713</ele>
        <time>2017-08-20T00:45:54Z</time>
      </trkpt>
      <trkpt lat="43.80221" lon="7.25085">
        <ele>712</ele>
        <time>2017-08-20T00:47:54Z</time>
      </trkpt>
      <trkpt lat="43.80246" lon="7.25114">
        <ele>713</ele>
        <time>2017-08-20T00:49:54Z</time>
      </trkpt>
      <trkpt lat="43.80273" lon="7.25148">
        <ele>710</ele>
        <time>2017-08-20T00:51:54Z</time>
      </trkpt>
      <trkpt lat="43.80316" lon="7.25167">
        <ele>714</ele>
        <time>2017-08-20T00:53:54Z</time>
      </trkpt>
      <trkpt lat="43.8034" lon="7.25172">
        <ele>716</ele>
        <time>2017-08-20T00:55:54Z</time>
      </trkpt>
      <trkpt lat="43.80365" lon="7.25174">
        <ele>718</ele>
        <time>2017-08-20T00:57:54Z</time>
      </trkpt>
      <trkpt lat="43.80399" lon="7.25169">
        <ele>723</ele>
        <time>2017-08-20T00:59:54Z</time>
      </trkpt>
      <trkpt lat="43.80478" lon="7.25143">
        <ele>730</ele>
        <time>2017-08-20T01:01:54Z</time>
      </trkpt>
      <trkpt lat="43.80537" lon="7.25124">
        <ele>733</ele>
        <time>2017-08-20T01:03:54Z</time>
      </trkpt>
      <trkpt lat="43.80574" lon="7.25125">
        <ele>731</ele>
        <time>2017-08-20T01:05:54Z</time>
      </trkpt>
      <trkpt lat="43.80608" lon="7.25119">
        <ele>732</ele>
        <time>2017-08-20T01:07:54Z</time>
      </trkpt>
      <trkpt lat="43.80643" lon="7.25109">
        <ele>734</ele>
        <time>2017-08-20T01:09:54Z</time>
      </trkpt>
      <trkpt lat="43.80675" lon="7.25102">
        <ele>737</ele>
        <time>2017-08-20T01:11:54Z</time>
      </trkpt>
      <trkpt lat="43.80691" lon="7.25102">
        <ele>738</ele>
        <time>2017-08-20T01:13:54Z</time>
      </trkpt>
      <trkpt lat="43.80714" lon="7.2511">
        <ele>736</ele>
        <time>2017-08-20T01:15:54Z</time>
      </trkpt>
      <trkpt lat="43.80757" lon="7.25118">
        <ele>735</ele>
        <time>2017-08-20T01:17:54Z</time>
      </trkpt>
      <trkpt lat="43.8079" lon="7.25104">
        <ele>736</ele>
        <time>2017-08-20T01:19:54Z</time>
      </trkpt>
      <trkpt lat="43.80804" lon="7.25093">
        <ele>737</ele>
        <time>2017-08-20T01:21:54Z</time>
      </trkpt>
      <trkpt lat="43.80817" lon="7.25078">
        <ele>740</ele>
        <time>2017-08-20T01:23:54Z</time>
      </trkpt>
      <trkpt lat="43.80841" lon="7.25044">
        <ele>750</ele>
        <time>2017-08-20T01:25:54Z</time>
      </trkpt>
      <trkpt lat="43.80847" lon="7.25054">
        <ele>746</ele>
        <time>2017-08-20T01:27:54Z</time>
      </trkpt>
      <trkpt lat="43.80861" lon="7.25064">
        <ele>741</ele>
        <time>2017-08-20T01:29:54Z</time>
      </trkpt>
      <trkpt lat="43.80891" lon="7.25074">
        <ele>735</ele>
        <time>2017-08-20T01:31:54Z</time>
      </trkpt>
      <trkpt lat="43.80926" lon="7.25083">
        <ele>729</ele>
        <time>2017-08-20T01:33:54Z</time>
      </trkpt>
      <trkpt lat="43.80957" lon="7.25107">
        <ele>721</ele>
        <time>2017-08-20T01:35:54Z</time>
      </trkpt>
      <trkpt lat="43.81072" lon="7.25251">
        <ele>695</ele>
        <time>2017-08-20T01:37:54Z</time>
      </trkpt>
      <trkpt lat="43.81106" lon="7.25282">
        <ele>684</ele>
        <time>2017-08-20T01:39:54Z</time>
      </trkpt>
      <trkpt lat="43.81138" lon="7.25293">
        <ele>677</ele>
        <time>2017-08-20T01:41:54Z</time>
      </trkpt>
      <trkpt lat="43.81186" lon="7.25326">
        <ele>673</ele>
        <time>2017-08-20T01:43:54Z</time>
      </trkpt>
      <trkpt lat="43.81201" lon="7.25331">
        <ele>670</ele>
        <time>2017-08-20T01:45:54Z</time>
      </trkpt>
      <trkpt lat="43.8124" lon="7.25342">
        <ele>662</ele>
        <time>2017-08-20T01:47:54Z</time>
      </trkpt>
      <trkpt lat="43.8127" lon="7.25349">
        <ele>656</ele>
        <time>2017-08-20T01:49:54Z</time>
      </trkpt>
      <trkpt lat="43.81294" lon="7.25373">
        <ele>652</ele>
        <time>2017-08-20T01:51:54Z</time>
      </trkpt>
      <trkpt lat="43.81317" lon="7.25374">
        <ele>650</ele>
        <time>2017-08-20T01:53:54Z</time>
      </trkpt>
      <trkpt lat="43.81334" lon="7.25379">
        <ele>648</ele>
        <time>2017-08-20T01:55:54Z</time>
      </trkpt>
      <trkpt lat="43.81345" lon="7.2539">
        <ele>650</ele>
        <time>2017-08-20T01:57:54Z</time>
      </trkpt>
      <trkpt lat="43.81437" lon="7.25398">
        <ele>653</ele>
        <time>2017-08-20T01:59:54Z</time>
      </trkpt>
      <trkpt lat="43.8148" lon="7.25375">
        <ele>646</ele>
        <time>2017-08-20T02:01:54Z</time>
      </trkpt>
      <trkpt lat="43.81511" lon="7.25358">
        <ele>640</ele>
        <time>2017-08-20T02:03:54Z</time>
      </trkpt>
      <trkpt lat="43.81531" lon="7.25345">
        <ele>635</ele>
        <time>2017-08-20T02:05:54Z</time>
      </trkpt>
      <trkpt lat="43.81554" lon="7.25342">
        <ele>630</ele>
        <time>2017-08-20T02:07:54Z</time>
      </trkpt>
      <trkpt lat="43.81565" lon="7.2534">
        <ele>628</ele>
        <time>2017-08-20T02:09:54Z</time>
      </trkpt>
      <trkpt lat="43.81579" lon="7.25351">
        <ele>624</ele>
        <time>2017-08-20T02:11:54Z</time>
      </trkpt>
      <trkpt lat="43.81598" lon="7.25362">
        <ele>617</ele>
        <time>2017-08-20T02:13:54Z</time>
      </trkpt>
      <trkpt lat="43.8162" lon="7.25382">
        <ele>611</ele>
        <time>2017-08-20T02:15:54Z</time>
      </trkpt>
      <trkpt lat="43.81668" lon="7.25432">
        <ele>601</ele>
        <time>2017-08-20T02:17:54Z</time>
      </trkpt>
      <trkpt lat="43.81702" lon="7.25465">
        <ele>596</ele>
        <time>2017-08-20T02:19:54Z</time>
      </trkpt>
      <trkpt lat="43.81709" lon="7.25462">
        <ele>596</ele>
        <time>2017-08-20T02:21:54Z</time>
      </trkpt>
      <trkpt lat="43.81716" lon="7.25449">
        <ele>595</ele>
        <time>2017-08-20T02:23:54Z</time>
      </trkpt>
      <trkpt lat="43.81742" lon="7.25451">
        <ele>594</ele>
        <time>2017-08-20T02:25:54Z</time>
      </trkpt>
      <trkpt lat="43.81769" lon="7.25452">
        <ele>588</ele>
        <time>2017-08-20T02:27:54Z</time>
      </trkpt>
      <trkpt lat="43.81799" lon="7.25468">
        <ele>586</ele>
        <time>2017-08-20T02:29:54Z</time>
      </trkpt>
      <trkpt lat="43.81812" lon="7.2549">
        <ele>592</ele>
        <time>2017-08-20T02:31:54Z</time>
      </trkpt>
      <trkpt lat="43.81833" lon="7.25494">
        <ele>591</ele>
        <time>2017-08-20T02:33:54Z</time>
      </trkpt>
      <trkpt lat="43.81856" lon="7.25494">
        <ele>584</ele>
        <time>2017-08-20T02:35:54Z</time>
      </trkpt>
      <trkpt lat="43.81877" lon="7.25508">
        <ele>581</ele>
        <time>2017-08-20T02:37:54Z</time>
      </trkpt>
      <trkpt lat="43.81904" lon="7.25515">
        <ele>573</ele>
        <time>2017-08-20T02:39:54Z</time>
      </trkpt>
      <trkpt lat="43.81931" lon="7.25529">
        <ele>570</ele>
        <time>2017-08-20T02:41:54Z</time>
      </trkpt>
      <trkpt lat="43.81949" lon="7.25542">
        <ele>569</ele>
        <time>2017-08-20T02:43:54Z</time>
      </trkpt>
      <trkpt lat="43.81989" lon="7.25574">
        <ele>566</ele>
        <time>2017-08-20T02:45:54Z</time>
      </trkpt>
      <trkpt lat="43.81996" lon="7.25573">
        <ele>564</ele>
        <time>2017-08-20T02:47:54Z</time>
      </trkpt>
      <trkpt lat="43.82015" lon="7.25546">
        <ele>562</ele>
        <time>2017-08-20T02:49:54Z</time>
      </trkpt>
      <trkpt lat="43.82034" lon="7.25531">
        <ele>563</ele>
        <time>2017-08-20T02:51:54Z</time>
      </trkpt>
      <trkpt lat="43.82064" lon="7.25512">
        <ele>565</ele>
        <time>2017-08-20T02:53:54Z</time>
      </trkpt>
      <trkpt lat="43.82089" lon="7.25495">
        <ele>566</ele>
        <time>2017-08-20T02:55:54Z</time>
      </trkpt>
      <trkpt lat="43.82127" lon="7.25467">
        <ele>565</ele>
        <time>2017-08-20T02:57:54Z</time>
      </trkpt>
      <trkpt lat="43.82147" lon="7.25448">
        <ele>564</ele>
        <time>2017-08-20T02:59:54Z</time>
      </trkpt>
      <trkpt lat="43.82165" lon="7.25422">
        <ele>560</ele>
        <time>2017-08-20T03:01:54Z</time>
      </trkpt>
      <trkpt lat="43.82186" lon="7.25409">
        <ele>562</ele>
        <time>2017-08-20T03:03:54Z</time>
      </trkpt>
      <trkpt lat="43.82213" lon="7.25396">
        <ele>566</ele>
        <time>2017-08-20T03:05:54Z</time>
      </trkpt>
      <trkpt lat="43.82232" lon="7.25374">
        <ele>565</ele>
        <time>2017-08-20T03:07:54Z</time>
      </trkpt>
      <trkpt lat="43.82249" lon="7.25351">
        <ele>564</ele>
        <time>2017-08-20T03:09:54Z</time>
      </trkpt>
      <trkpt lat="43.82271" lon="7.25324">
        <ele>563</ele>
        <time>2017-08-20T03:11:54Z</time>
      </trkpt>
      <trkpt lat="43.8231" lon="7.25295">
        <ele>565</ele>
        <time>2017-08-20T03:13:54Z</time>
      </trkpt>
      <trkpt lat="43.82333" lon="7.2528">
        <ele>566</ele>
        <time>2017-08-20T03:15:54Z</time>
      </trkpt>
      <trkpt lat="43.82367" lon="7.2526">
        <ele>564</ele>
        <time>2017-08-20T03:17:54Z</time>
      </trkpt>
      <trkpt lat="43.82401" lon="7.25243">
        <ele>564</ele>
        <time>2017-08-20T03:19:54Z</time>
      </trkpt>
      <trkpt lat="43.8243" lon="7.2522">
        <ele>560</ele>
        <time>2017-08-20T03:21:54Z</time>
      </trkpt>
      <trkpt lat="43.82475" lon="7.25199">
        <ele>559</ele>
        <time>2017-08-20T03:23:54Z</time>
      </trkpt>
      <trkpt lat="43.82507" lon="7.25172">
        <ele>554</ele>
        <time>2017-08-20T03:25:54Z</time>
      </trkpt>
      <trkpt lat="43.82552" lon="7.25145">
        <ele>549</ele>
        <time>2017-08-20T03:27:54Z</time>
      </trkpt>
      <trkpt lat="43.82569" lon="7.25123">
        <ele>544</ele>
        <time>2017-08-20T03:29:54Z</time>
      </trkpt>
      <trkpt lat="43.82601" lon="7.25102">
        <ele>541</ele>
        <time>2017-08-20T03:31:54Z</time>
      </trkpt>
      <trkpt lat="43.82636" lon="7.25071">
        <ele>537</ele>
        <time>2017-08-20T03:33:54Z</time>
      </trkpt>
      <trkpt lat="43.82661" lon="7.25039">
        <ele>532</ele>
        <time>2017-08-20T03:35:54Z</time>
      </trkpt>
      <trkpt lat="43.82696" lon="7.25013">
        <ele>529</ele>
        <time>2017-08-20T03:37:54Z</time>
      </trkpt>
      <trkpt lat="43.82734" lon="7.24978">
        <ele>526</ele>
        <time>2017-08-20T03:39:54Z</time>
      </trkpt>
      <trkpt lat="43.82743" lon="7.24964">
        <ele>523</ele>
        <time>2017-08-20T03:41:54Z</time>
      </trkpt>
      <trkpt lat="43.82765" lon="7.24961">
        <ele>524</ele>
        <time>2017-08-20T03:43:54Z</time>
      </trkpt>
      <trkpt lat="43.82793" lon="7.24964">
        <ele>525</ele>
        <time>2017-08-20T03:45:54Z</time>
      </trkpt>
      <trkpt lat="43.82815" lon="7.2497">
        <ele>527</ele>
        <time>2017-08-20T03:47:54Z</time>
      </trkpt>
      <trkpt lat="43.82834" lon="7.24975">
        <ele>528</ele>
        <time>2017-08-20T03:49:54Z</time>
      </trkpt>
      <trkpt lat="43.82849" lon="7.24969">
        <ele>530</ele>
        <time>2017-08-20T03:51:54Z</time>
      </trkpt>
      <trkpt lat="43.8286" lon="7.24941">
        <ele>527</ele>
        <time>2017-08-20T03:53:54Z</time>
      </trkpt>
      <trkpt lat="43.82867" lon="7.24921">
        <ele>525</ele>
        <time>2017-08-20T03:55:54Z</time>
      </trkpt>
      <trkpt lat="43.82897" lon="7.24892">
        <ele>524</ele>
        <time>2017-08-20T03:57:54Z</time>
      </trkpt>
      <trkpt lat="43.82915" lon="7.24875">
        <ele>523</ele>
        <time>2017-08-20T03:59:54Z</time>
      </trkpt>
      <trkpt lat="43.82936" lon="7.24865">
        <ele>522</ele>
        <time>2017-08-20T04:01:54Z</time>
      </trkpt>
      <trkpt lat="43.82971" lon="7.24862">
        <ele>523</ele>
        <time>2017-08-20T04:03:54Z</time>
      </trkpt>
      <trkpt lat="43.82987" lon="7.24869">
        <ele>526</ele>
        <time>2017-08-20T04:05:54Z</time>
      </trkpt>
      <trkpt lat="43.83002" lon="7.24877">
        <ele>529</ele>
        <time>2017-08-20T04:07:54Z</time>
      </trkpt>
      <trkpt lat="43.83014" lon="7.24894">
        <ele>534</ele>
        <time>2017-08-20T04:09:54Z</time>
      </trkpt>
      <trkpt lat="43.83029" lon="7.24898">
        <ele>537</ele>
        <time>2017-08-20T04:11:54Z</time>
      </trkpt>
      <trkpt lat="43.83047" lon="7.24864">
        <ele>530</ele>
        <time>2017-08-20T04:13:54Z</time>
      </trkpt>
      <trkpt lat="43.83058" lon="7.24854">
        <ele>528</ele>
        <time>2017-08-20T04:15:54Z</time>
      </trkpt>
      <trkpt lat="43.83089" lon="7.24851">
        <ele>530</ele>
        <time>2017-08-20T04:17:54Z</time>
      </trkpt>
      <trkpt lat="43.83124" lon="7.24837">
        <ele>531</ele>
        <time>2017-08-20T04:19:54Z</time>
      </trkpt>
      <trkpt lat="43.83142" lon="7.24828">
        <ele>530</ele>
        <time>2017-08-20T04:21:54Z</time>
      </trkpt>
      <trkpt lat="43.83164" lon="7.24804">
        <ele>523</ele>
        <time>2017-08-20T04:23:54Z</time>
      </trkpt>
      <trkpt lat="43.8318" lon="7.24796">
        <ele>521</ele>
        <time>2017-08-20T04:25:54Z</time>
      </trkpt>
      <trkpt lat="43.83201" lon="7.24786">
        <ele>519</ele>
        <time>2017-08-20T04:27:54Z</time>
      </trkpt>
      <trkpt lat="43.83231" lon="7.24777">
        <ele>517</ele>
        <time>2017-08-20T04:29:54Z</time>
      </trkpt>
      <trkpt lat="43.83276" lon="7.24763">
        <ele>515</ele>
        <time>2017-08-20T04:31:54Z</time>
      </trkpt>
      <trkpt lat="43.8331" lon="7.24747">
        <ele>510</ele>
        <time>2017-08-20T04:33:54Z</time>
      </trkpt>
      <trkpt lat="43.83344" lon="7.24733">
        <ele>508</ele>
        <time>2017-08-20T04:35:54Z</time>
      </trkpt>
      <trkpt lat="43.83384" lon="7.24727">
        <ele>512</ele>
        <time>2017-08-20T04:37:54Z</time>
      </trkpt>
      <trkpt lat="43.83401" lon="7.24726">
        <ele>515</ele>
        <time>2017-08-20T04:39:54Z</time>
      </trkpt>
      <trkpt lat="43.83429" lon="7.24717">
        <ele>515</ele>
        <time>2017-08-20T04:41:54Z</time>
      </trkpt>
      <trkpt lat="43.83461" lon="7.24702">
        <ele>514</ele>
        <time>2017-08-20T04:43:54Z</time>
      </trkpt>
      <trkpt lat="43.83488" lon="7.24677">
        <ele>514</ele>
        <time>2017-08-20T04:45:54Z</time>
      </trkpt>
      <trkpt lat="43.83524" lon="7.2466">
        <ele>517</ele>
        <time>2017-08-20T04:47:54Z</time>
      </trkpt>
      <trkpt lat="43.83547" lon="7.24644">
        <ele>519</ele>
        <time>2017-08-20T04:49:54Z</time>
      </trkpt>
      <trkpt lat="43.8355" lon="7.24627">
        <ele>522</ele>
        <time>2017-08-20T04:51:54Z</time>
      </trkpt>
      <trkpt lat="43.83564" lon="7.24613">
        <ele>524</ele>
        <time>2017-08-20T04:53:54Z</time>
      </trkpt>
      <trkpt lat="43.83573" lon="7.2458">
        <ele>528</ele>
        <time>2017-08-20T04:55:54Z</time>
      </trkpt>
      <trkpt lat="43.83584" lon="7.24554">
        <ele>531</ele>
        <time>2017-08-20T04:57:54Z</time>
      </trkpt>
      <trkpt lat="43.83588" lon="7.2453">
        <ele>532</ele>
        <time>2017-08-20T04:59:54Z</time>
      </trkpt>
      <trkpt lat="43.83589" lon="7.24504">
        <ele>535</ele>
        <time>2017-08-20T05:01:54Z</time>
      </trkpt>
      <trkpt lat="43.83573" lon="7.2441">
        <ele>529</ele>
        <time>2017-08-20T05:03:54Z</time>
      </trkpt>
      <trkpt lat="43.83587" lon="7.24384">
        <ele>533</ele>
        <time>2017-08-20T05:05:54Z</time>
      </trkpt>
      <trkpt lat="43.83598" lon="7.24368">
        <ele>537</ele>
        <time>2017-08-20T05:07:54Z</time>
      </trkpt>
      <trkpt lat="43.83597" lon="7.24344">
        <ele>536</ele>
        <time>2017-08-20T05:09:54Z</time>
      </trkpt>
      <trkpt lat="43.83587" lon="7.24324">
        <ele>530</ele>
        <time>2017-08-20T05:11:54Z</time>
      </trkpt>
      <trkpt lat="43.83576" lon="7.24292">
        <ele>522</ele>
        <time>2017-08-20T05:13:54Z</time>
      </trkpt>
      <trkpt lat="43.83576" lon="7.24242">
        <ele>521</ele>
        <time>2017-08-20T05:15:54Z</time>
      </trkpt>
      <trkpt lat="43.83585" lon="7.24214">
        <ele>528</ele>
        <time>2017-08-20T05:17:54Z</time>
      </trkpt>
      <trkpt lat="43.83603" lon="7.24191">
        <ele>540</ele>
        <time>2017-08-20T05:19:54Z</time>
      </trkpt>
      <trkpt lat="43.83539" lon="7.2417">
        <ele>509</ele>
        <time>2017-08-20T05:21:54Z</time>
      </trkpt>
      <trkpt lat="43.83479" lon="7.24095">
        <ele>494</ele>
        <time>2017-08-20T05:23:54Z</time>
      </trkpt>
      <trkpt lat="43.83468" lon="7.24072">
        <ele>490</ele>
        <time>2017-08-20T05:25:54Z</time>
      </trkpt>
      <trkpt lat="43.83459" lon="7.24052">
        <ele>485</ele>
        <time>2017-08-20T05:27:54Z</time>
      </trkpt>
      <trkpt lat="43.83465" lon="7.24024">
        <ele>487</ele>
        <time>2017-08-20T05:29:54Z</time>
      </trkpt>
      <trkpt lat="43.83469" lon="7.24006">
        <ele>488</ele>
        <time>2017-08-20T05:31:54Z</time>
      </trkpt>
      <trkpt lat="43.83493" lon="7.23977">
        <ele>493</ele>
        <time>2017-08-20T05:33:54Z</time>
      </trkpt>
      <trkpt lat="43.83521" lon="7.23939">
        <ele>495</ele>
        <time>2017-08-20T05:35:54Z</time>
      </trkpt>
      <trkpt lat="43.83544" lon="7.23888">
        <ele>490</ele>
        <time>2017-08-20T05:37:54Z</time>
      </trkpt>
      <trkpt lat="43.83581" lon="7.23819">
        <ele>486</ele>
        <time>2017-08-20T05:39:54Z</time>
      </trkpt>
      <trkpt lat="43.83604" lon="7.2379">
        <ele>487</ele>
        <time>2017-08-20T05:41:54Z</time>
      </trkpt>
      <trkpt lat="43.83654" lon="7.23763">
        <ele>498</ele>
        <time>2017-08-20T05:43:54Z</time>
      </trkpt>
      <trkpt lat="43.83661" lon="7.23785">
        <ele>505</ele>
        <time>2017-08-20T05:45:54Z</time>
      </trkpt>
      <trkpt lat="43.83671" lon="7.2379">
        <ele>509</ele>
        <time>2017-08-20T05:47:54Z</time>
      </trkpt>
      <trkpt lat="43.83672" lon="7.23801">
        <ele>512</ele>
        <time>2017-08-20T05:49:54Z</time>
      </trkpt>
      <trkpt lat="43.83688" lon="7.2379">
        <ele>514</ele>
        <time>2017-08-20T05:51:54Z</time>
      </trkpt>
      <trkpt lat="43.83692" lon="7.23817">
        <ele>521</ele>
        <time>2017-08-20T05:53:54Z</time>
      </trkpt>
      <trkpt lat="43.83703" lon="7.23834">
        <ele>527</ele>
        <time>2017-08-20T05:55:54Z</time>
      </trkpt>
      <trkpt lat="43.8372" lon="7.23844">
        <ele>535</ele>
        <time>2017-08-20T05:57:54Z</time>
      </trkpt>
      <trkpt lat="43.83772" lon="7.23842">
        <ele>550</ele>
        <time>2017-08-20T05:59:54Z</time>
      </trkpt>
      <trkpt lat="43.83806" lon="7.23779">
        <ele>547</ele>
        <time>2017-08-20T06:01:54Z</time>
      </trkpt>
      <trkpt lat="43.83828" lon="7.23747">
        <ele>549</ele>
        <time>2017-08-20T06:03:54Z</time>
      </trkpt>
      <trkpt lat="43.83843" lon="7.23739">
        <ele>554</ele>
        <time>2017-08-20T06:05:54Z</time>
      </trkpt>
      <trkpt lat="43.8386" lon="7.23732">
        <ele>560</ele>
        <time>2017-08-20T06:07:54Z</time>
      </trkpt>
      <trkpt lat="43.83878" lon="7.23731">
        <ele>567</ele>
        <time>2017-08-20T06:09:54Z</time>
      </trkpt>
      <trkpt lat="43.83902" lon="7.23723">
        <ele>575</ele>
        <time>2017-08-20T06:11:54Z</time>
      </trkpt>
      <trkpt lat="43.83911" lon="7.23736">
        <ele>579</ele>
        <time>2017-08-20T06:13:54Z</time>
      </trkpt>
      <trkpt lat="43.83933" lon="7.23731">
        <ele>582</ele>
        <time>2017-08-20T06:15:54Z</time>
      </trkpt>
      <trkpt lat="43.8396" lon="7.23696">
        <ele>584</ele>
        <time>2017-08-20T06:17:54Z</time>
      </trkpt>
      <trkpt lat="43.83965" lon="7.23663">
        <ele>585</ele>
        <time>2017-08-20T06:19:54Z</time>
      </trkpt>
      <trkpt lat="43.83987" lon="7.2371">
        <ele>586</ele>
        <time>2017-08-20T06:21:54Z</time>
      </trkpt>
      <trkpt lat="43.84005" lon="7.23719">
        <ele>585</ele>
        <time>2017-08-20T06:23:54Z</time>
      </trkpt>
      <trkpt lat="43.84037" lon="7.23722">
        <ele>578</ele>
        <time>2017-08-20T06:25:54Z</time>
      </trkpt>
      <trkpt lat="43.84043" lon="7.23754">
        <ele>576</ele>
        <time>2017-08-20T06:27:54Z</time>
      </trkpt>
      <trkpt lat="43.84051" lon="7.23759">
        <ele>575</ele>
        <time>2017-08-20T06:29:54Z</time>
      </trkpt>
      <trkpt lat="43.8407" lon="7.23753">
        <ele>571</ele>
        <time>2017-08-20T06:31:54Z</time>
      </trkpt>
      <trkpt lat="43.84091" lon="7.23717">
        <ele>567</ele>
        <time>2017-08-20T06:33:54Z</time>
      </trkpt>
      <trkpt lat="43.841" lon="7.23656">
        <ele>567</ele>
        <time>2017-08-20T06:35:54Z</time>
      </trkpt>
      <trkpt lat="43.8411" lon="7.23647">
        <ele>566</ele>
        <time>2017-08-20T06:37:54Z</time>
      </trkpt>
      <trkpt lat="43.8412" lon="7.23656">
        <ele>564</ele>
        <time>2017-08-20T06:39:54Z</time>
      </trkpt>
      <trkpt lat="43.84142" lon="7.23659">
        <ele>562</ele>
        <time>2017-08-20T06:41:54Z</time>
      </trkpt>
      <trkpt lat="43.84181" lon="7.2368">
        <ele>560</ele>
        <time>2017-08-20T06:43:54Z</time>
      </trkpt>
      <trkpt lat="43.84198" lon="7.23695">
        <ele>561</ele>
        <time>2017-08-20T06:45:54Z</time>
      </trkpt>
      <trkpt lat="43.84269" lon="7.23767">
        <ele>567</ele>
        <time>2017-08-20T06:47:54Z</time>
      </trkpt>
      <trkpt lat="43.84292" lon="7.23778">
        <ele>569</ele>
        <time>2017-08-20T06:49:54Z</time>
      </trkpt>
      <trkpt lat="43.84299" lon="7.23774">
        <ele>570</ele>
        <time>2017-08-20T06:51:54Z</time>
      </trkpt>
      <trkpt lat="43.84319" lon="7.23784">
        <ele>571</ele>
        <time>2017-08-20T06:53:54Z</time>
      </trkpt>
      <trkpt lat="43.84341" lon="7.23788">
        <ele>570</ele>
        <time>2017-08-20T06:55:54Z</time>
      </trkpt>
      <trkpt lat="43.84384" lon="7.23788">
        <ele>562</ele>
        <time>2017-08-20T06:57:54Z</time>
      </trkpt>
      <trkpt lat="43.8439" lon="7.23809">
        <ele>559</ele>
        <time>2017-08-20T06:59:54Z</time>
      </trkpt>
      <trkpt lat="43.84377" lon="7.23845">
        <ele>559</ele>
        <time>2017-08-20T07:01:54Z</time>
      </trkpt>
      <trkpt lat="43.8439" lon="7.23866">
        <ele>556</ele>
        <time>2017-08-20T07:03:54Z</time>
      </trkpt>
      <trkpt lat="43.84414" lon="7.23878">
        <ele>552</ele>
        <time>2017-08-20T07:05:54Z</time>
      </trkpt>
      <trkpt lat="43.84426" lon="7.23896">
        <ele>550</ele>
        <time>2017-08-20T07:07:54Z</time>
      </trkpt>
      <trkpt lat="43.84429" lon="7.23909">
        <ele>549</ele>
        <time>2017-08-20T07:09:54Z</time>
      </trkpt>
      <trkpt lat="43.84479" lon="7.23843">
        <ele>546</ele>
        <time>2017-08-20T07:11:54Z</time>
      </trkpt>
      <trkpt lat="43.84527" lon="7.23784">
        <ele>543</ele>
        <time>2017-08-20T07:13:54Z</time>
      </trkpt>
      <trkpt lat="43.84561" lon="7.23745">
        <ele>542</ele>
        <time>2017-08-20T07:15:54Z</time>
      </trkpt>
      <trkpt lat="43.846" lon="7.23687">
        <ele>543</ele>
        <time>2017-08-20T07:17:54Z</time>
      </trkpt>
      <trkpt lat="43.84652" lon="7.23613">
        <ele>544</ele>
        <time>2017-08-20T07:19:54Z</time>
      </trkpt>
      <trkpt lat="43.84708" lon="7.2354">
        <ele>546</ele>
        <time>2017-08-20T07:21:54Z</time>
      </trkpt>
      <trkpt lat="43.84737" lon="7.23514">
        <ele>545</ele>
        <time>2017-08-20T07:23:54Z</time>
      </trkpt>
      <trkpt lat="43.84771" lon="7.23488">
        <ele>544</ele>
        <time>2017-08-20T07:25:54Z</time>
      </trkpt>
      <trkpt lat="43.84828" lon="7.23443">
        <ele>544</ele>
        <time>2017-08-20T07:27:54Z</time>
      </trkpt>
      <trkpt lat="43.84865" lon="7.23409">
        <ele>545</ele>
        <time>2017-08-20T07:29:54Z</time>
      </trkpt>
      <trkpt lat="43.84887" lon="7.23389">
        <ele>544</ele>
        <time>2017-08-20T07:31:54Z</time>
      </trkpt>
      <trkpt lat="43.849" lon="7.23369">
        <ele>544</ele>
        <time>2017-08-20T07:33:54Z</time>
      </trkpt>
      <trkpt lat="43.84941" lon="7.23391">
        <ele>544</ele>
        <time>2017-08-20T07:35:54Z</time>
      </trkpt>
      <trkpt lat="43.84952" lon="7.23409">
        <ele>545</ele>
        <time>2017-08-20T07:37:54Z</time>
      </trkpt>
      <trkpt lat="43.84965" lon="7.23435">
        <ele>545</ele>
        <time>2017-08-20T07:39:54Z</time>
      </trkpt>
      <trkpt lat="43.84975" lon="7.2346">
        <ele>545</ele>
        <time>2017-08-20T07:41:54Z</time>
      </trkpt>
      <trkpt lat="43.85012" lon="7.23482">
        <ele>545</ele>
        <time>2017-08-20T07:43:54Z</time>
      </trkpt>
      <trkpt lat="43.85024" lon="7.23467">
        <ele>545</ele>
        <time>2017-08-20T07:45:54Z</time>
      </trkpt>
      <trkpt lat="43.85053" lon="7.23446">
        <ele>546</ele>
        <time>2017-08-20T07:47:54Z</time>
      </trkpt>
      <trkpt lat="43.85067" lon="7.23439">
        <ele>547</ele>
        <time>2017-08-20T07:49:54Z</time>
      </trkpt>
      <trkpt lat="43.85092" lon="7.23454">
        <ele>545</ele>
        <time>2017-08-20T07:51:54Z</time>
      </trkpt>
      <trkpt lat="43.85117" lon="7.23465">
        <ele>542</ele>
        <time>2017-08-20T07:53:54Z</time>
      </trkpt>
      <trkpt lat="43.85121" lon="7.23513">
        <ele>538</ele>
        <time>2017-08-20T07:55:54Z</time>
      </trkpt>
      <trkpt lat="43.8513" lon="7.2351">
        <ele>537</ele>
        <time>2017-08-20T07:57:54Z</time>
      </trkpt>
      <trkpt lat="43.85145" lon="7.23506">
        <ele>535</ele>
        <time>2017-08-20T07:59:54Z</time>
      </trkpt>
      <trkpt lat="43.85158" lon="7.23496">
        <ele>534</ele>
        <time>2017-08-20T08:01:54Z</time>
      </trkpt>
      <trkpt lat="43.8517" lon="7.23484">
        <ele>534</ele>
        <time>2017-08-20T08:03:54Z</time>
      </trkpt>
      <trkpt lat="43.85183" lon="7.23466">
        <ele>534</ele>
        <time>2017-08-20T08:05:54Z</time>
      </trkpt>
      <trkpt lat="43.85194" lon="7.23448">
        <ele>534</ele>
        <time>2017-08-20T08:07:54Z</time>
      </trkpt>
      <trkpt lat="43.85204" lon="7.23436">
        <ele>533</ele>
        <time>2017-08-20T08:09:54Z</time>
      </trkpt>
      <trkpt lat="43.85219" lon="7.23426">
        <ele>530</ele>
        <time>2017-08-20T08:11:54Z</time>
      </trkpt>
      <trkpt lat="43.85231" lon="7.2342">
        <ele>527</ele>
        <time>2017-08-20T08:13:54Z</time>
      </trkpt>
      <trkpt lat="43.85243" lon="7.23397">
        <ele>525</ele>
        <time>2017-08-20T08:15:54Z</time>
      </trkpt>
      <trkpt lat="43.8525" lon="7.2339">
        <ele>524</ele>
        <time>2017-08-20T08:17:54Z</time>
      </trkpt>
      <trkpt lat="43.85261" lon="7.23385">
        <ele>524</ele>
        <time>2017-08-20T08:19:54Z</time>
      </trkpt>
      <trkpt lat="43.85277" lon="7.23379">
        <ele>525</ele>
        <time>2017-08-20T08:21:54Z</time>
      </trkpt>
      <trkpt lat="43.85289" lon="7.23372">
        <ele>525</ele>
        <time>2017-08-20T08:23:54Z</time>
      </trkpt>
      <trkpt lat="43.85301" lon="7.23379">
        <ele>525</ele>
        <time>2017-08-20T08:25:54Z</time>
      </trkpt>
      <trkpt lat="43.85308" lon="7.23378">
        <ele>525</ele>
        <time>2017-08-20T08:27:54Z</time>
      </trkpt>
      <trkpt lat="43.8532" lon="7.2336">
        <ele>525</ele>
        <time>2017-08-20T08:29:54Z</time>
      </trkpt>
      <trkpt lat="43.85328" lon="7.23364">
        <ele>525</ele>
        <time>2017-08-20T08:31:54Z</time>
      </trkpt>
      <trkpt lat="43.85381" lon="7.23287">
        <ele>522</ele>
        <time>2017-08-20T08:33:54Z</time>
      </trkpt>
      <trkpt lat="43.85387" lon="7.23272">
        <ele>521</ele>
        <time>2017-08-20T08:35:54Z</time>
      </trkpt>
      <trkpt lat="43.85397" lon="7.23255">
        <ele>520</ele>
        <time>2017-08-20T08:37:54Z</time>
      </trkpt>
      <trkpt lat="43.85406" lon="7.23246">
        <ele>519</ele>
        <time>2017-08-20T08:39:54Z</time>
      </trkpt>
      <trkpt lat="43.85413" lon="7.23227">
        <ele>516</ele>
        <time>2017-08-20T08:41:54Z</time>
      </trkpt>
      <trkpt lat="43.85416" lon="7.23209">
        <ele>513</ele>
        <time>2017-08-20T08:43:54Z</time>
      </trkpt>
      <trkpt lat="43.85414" lon="7.23193">
        <ele>511</ele>
        <time>2017-08-20T08:45:54Z</time>
      </trkpt>
      <trkpt lat="43.8542" lon="7.23179">
        <ele>509</ele>
        <time>2017-08-20T08:47:54Z</time>
      </trkpt>
      <trkpt lat="43.85429" lon="7.23169">
        <ele>509</ele>
        <time>2017-08-20T08:49:54Z</time>
      </trkpt>
      <trkpt lat="43.85438" lon="7.23168">
        <ele>510</ele>
        <time>2017-08-20T08:51:54Z</time>
      </trkpt>
      <trkpt lat="43.85438" lon="7.2315">
        <ele>507</ele>
        <time>2017-08-20T08:53:54Z</time>
      </trkpt>
      <trkpt lat="43.85447" lon="7.23114">
        <ele>504</ele>
        <time>2017-08-20T08:55:54Z</time>
      </trkpt>
      <trkpt lat="43.85449" lon="7.23063">
        <ele>498</ele>
        <time>2017-08-20T08:57:54Z</time>
      </trkpt>
      <trkpt lat="43.85453" lon="7.23041">
        <ele>497</ele>
        <time>2017-08-20T08:59:54Z</time>
      </trkpt>
      <trkpt lat="43.85459" lon="7.23014">
        <ele>495</ele>
        <time>2017-08-20T09:01:54Z</time>
      </trkpt>
      <trkpt lat="43.85457" lon="7.22989">
        <ele>494</ele>
        <time>2017-08-20T09:03:54Z</time>
      </trkpt>
      <trkpt lat="43.85468" lon="7.22974">
        <ele>496</ele>
        <time>2017-08-20T09:05:54Z</time>
      </trkpt>
      <trkpt lat="43.85474" lon="7.22956">
        <ele>497</ele>
        <time>2017-08-20T09:07:54Z</time>
      </trkpt>
      <trkpt lat="43.85489" lon="7.22947">
        <ele>499</ele>
        <time>2017-08-20T09:09:54Z</time>
      </trkpt>
      <trkpt lat="43.85498" lon="7.22925">
        <ele>499</ele>
        <time>2017-08-20T09:11:54Z</time>
      </trkpt>
      <trkpt lat="43.85506" lon="7.22894">
        <ele>499</ele>
        <time>2017-08-20T09:13:54Z</time>
      </trkpt>
      <trkpt lat="43.85524" lon="7.22823">
        <ele>500</ele>
        <time>2017-08-20T09:15:54Z</time>
      </trkpt>
      <trkpt lat="43.85541" lon="7.22759">
        <ele>502</ele>
        <time>2017-08-20T09:17:54Z</time>
      </trkpt>
      <trkpt lat="43.8555" lon="7.22744">
        <ele>501</ele>
        <time>2017-08-20T09:19:54Z</time>
      </trkpt>
      <trkpt lat="43.85564" lon="7.22734">
        <ele>500</ele>
        <time>2017-08-20T09:21:54Z</time>
      </trkpt>
      <trkpt lat="43.85578" lon="7.22727">
        <ele>498</ele>
        <time>2017-08-20T09:23:54Z</time>
      </trkpt>
      <trkpt lat="43.85594" lon="7.22725">
        <ele>499</ele>
        <time>2017-08-20T09:25:54Z</time>
      </trkpt>
      <trkpt lat="43.85596" lon="7.22713">
        <ele>499</ele>
        <time>2017-08-20T09:27:54Z</time>
      </trkpt>
      <trkpt lat="43.85608" lon="7.22719">
        <ele>501</ele>
        <time>2017-08-20T09:29:54Z</time>
      </trkpt>
      <trkpt lat="43.85619" lon="7.22732">
        <ele>501</ele>
        <time>2017-08-20T09:31:54Z</time>
      </trkpt>
      <trkpt lat="43.85623" lon="7.22722">
        <ele>502</ele>
        <time>2017-08-20T09:33:54Z</time>
      </trkpt>
      <trkpt lat="43.85625" lon="7.22709">
        <ele>503</ele>
        <time>2017-08-20T09:35:54Z</time>
      </trkpt>
      <trkpt lat="43.85637" lon="7.22727">
        <ele>504</ele>
        <time>2017-08-20T09:37:54Z</time>
      </trkpt>
      <trkpt lat="43.85638" lon="7.22717">
        <ele>505</ele>
        <time>2017-08-20T09:39:54Z</time>
      </trkpt>
      <trkpt lat="43.8564" lon="7.22707">
        <ele>506</ele>
        <time>2017-08-20T09:41:54Z</time>
      </trkpt>
      <trkpt lat="43.85646" lon="7.22718">
        <ele>506</ele>
        <time>2017-08-20T09:43:54Z</time>
      </trkpt>
      <trkpt lat="43.8565" lon="7.22726">
        <ele>505</ele>
        <time>2017-08-20T09:45:54Z</time>
      </trkpt>
      <trkpt lat="43.85651" lon="7.22712">
        <ele>507</ele>
        <time>2017-08-20T09:47:54Z</time>
      </trkpt>
      <trkpt lat="43.85654" lon="7.22705">
        <ele>508</ele>
        <time>2017-08-20T09:49:54Z</time>
      </trkpt>
      <trkpt lat="43.85667" lon="7.22713">
        <ele>509</ele>
        <time>2017-08-20T09:51:54Z</time>
      </trkpt>
      <trkpt lat="43.85665" lon="7.22702">
        <ele>510</ele>
        <time>2017-08-20T09:53:54Z</time>
      </trkpt>
      <trkpt lat="43.85667" lon="7.22688">
        <ele>512</ele>
        <time>2017-08-20T09:55:54Z</time>
      </trkpt>
      <trkpt lat="43.85673" lon="7.22677">
        <ele>516</ele>
        <time>2017-08-20T09:57:54Z</time>
      </trkpt>
      <trkpt lat="43.85682" lon="7.2267">
        <ele>520</ele>
        <time>2017-08-20T09:59:54Z</time>
      </trkpt>
      <trkpt lat="43.85686" lon="7.22691">
        <ele>518</ele>
        <time>2017-08-20T10:01:54Z</time>
      </trkpt>
      <trkpt lat="43.8569" lon="7.22696">
        <ele>518</ele>
        <time>2017-08-20T10:03:54Z</time>
      </trkpt>
      <trkpt lat="43.85695" lon="7.22678">
        <ele>523</ele>
        <time>2017-08-20T10:05:54Z</time>
      </trkpt>
      <trkpt lat="43.85699" lon="7.22671">
        <ele>525</ele>
        <time>2017-08-20T10:07:54Z</time>
      </trkpt>
      <trkpt lat="43.85702" lon="7.22691">
        <ele>523</ele>
        <time>2017-08-20T10:09:54Z</time>
      </trkpt>
      <trkpt lat="43.8571" lon="7.2269">
        <ele>525</ele>
        <time>2017-08-20T10:11:54Z</time>
      </trkpt>
      <trkpt lat="43.85716" lon="7.2268">
        <ele>529</ele>
        <time>2017-08-20T10:13:54Z</time>
      </trkpt>
      <trkpt lat="43.85716" lon="7.22663">
        <ele>532</ele>
        <time>2017-08-20T10:15:54Z</time>
      </trkpt>
      <trkpt lat="43.85721" lon="7.2265">
        <ele>533</ele>
        <time>2017-08-20T10:17:54Z</time>
      </trkpt>
      <trkpt lat="43.85733" lon="7.22632">
        <ele>537</ele>
        <time>2017-08-20T10:19:54Z</time>
      </trkpt>
      <trkpt lat="43.85742" lon="7.22628">
        <ele>541</ele>
        <time>2017-08-20T10:21:54Z</time>
      </trkpt>
      <trkpt lat="43.85737" lon="7.22648">
        <ele>539</ele>
        <time>2017-08-20T10:23:54Z</time>
      </trkpt>
      <trkpt lat="43.85736" lon="7.22654">
        <ele>538</ele>
        <time>2017-08-20T10:25:54Z</time>
      </trkpt>
      <trkpt lat="43.85738" lon="7.22662">
        <ele>539</ele>
        <time>2017-08-20T10:27:54Z</time>
      </trkpt>
      <trkpt lat="43.85747" lon="7.2267">
        <ele>541</ele>
        <time>2017-08-20T10:29:54Z</time>
      </trkpt>
      <trkpt lat="43.85757" lon="7.22676">
        <ele>542</ele>
        <time>2017-08-20T10:31:54Z</time>
      </trkpt>
      <trkpt lat="43.85771" lon="7.22695">
        <ele>539</ele>
        <time>2017-08-20T10:33:54Z</time>
      </trkpt>
      <trkpt lat="43.85792" lon="7.2271">
        <ele>538</ele>
        <time>2017-08-20T10:35:54Z</time>
      </trkpt>
      <trkpt lat="43.85816" lon="7.22716">
        <ele>539</ele>
        <time>2017-08-20T10:37:54Z</time>
      </trkpt>
      <trkpt lat="43.85857" lon="7.22727">
        <ele>539</ele>
        <time>2017-08-20T10:39:54Z</time>
      </trkpt>
      <trkpt lat="43.85901" lon="7.22737">
        <ele>538</ele>
        <time>2017-08-20T10:41:54Z</time>
      </trkpt>
      <trkpt lat="43.85952" lon="7.22745">
        <ele>535</ele>
        <time>2017-08-20T10:43:54Z</time>
      </trkpt>
      <trkpt lat="43.85974" lon="7.2275">
        <ele>533</ele>
        <time>2017-08-20T10:45:54Z</time>
      </trkpt>
      <trkpt lat="43.85991" lon="7.22767">
        <ele>530</ele>
        <time>2017-08-20T10:47:54Z</time>
      </trkpt>
      <trkpt lat="43.86001" lon="7.22799">
        <ele>527</ele>
        <time>2017-08-20T10:49:54Z</time>
      </trkpt>
      <trkpt lat="43.86013" lon="7.22845">
        <ele>522</ele>
        <time>2017-08-20T10:51:54Z</time>
      </trkpt>
      <trkpt lat="43.86013" lon="7.22884">
        <ele>523</ele>
        <time>2017-08-20T10:53:54Z</time>
      </trkpt>
      <trkpt lat="43.86009" lon="7.22906">
        <ele>523</ele>
        <time>2017-08-20T10:55:54Z</time>
      </trkpt>
      <trkpt lat="43.86058" lon="7.22906">
        <ele>522</ele>
        <time>2017-08-20T10:57:54Z</time>
      </trkpt>
      <trkpt lat="43.86194" lon="7.2291">
        <ele>519</ele>
        <time>2017-08-20T10:59:54Z</time>
      </trkpt>
      <trkpt lat="43.86206" lon="7.229">
        <ele>520</ele>
        <time>2017-08-20T11:01:54Z</time>
      </trkpt>
      <trkpt lat="43.86255" lon="7.22849">
        <ele>520</ele>
        <time>2017-08-20T11:03:54Z</time>
      </trkpt>
      <trkpt lat="43.86291" lon="7.22802">
        <ele>520</ele>
        <time>2017-08-20T11:05:54Z</time>
      </trkpt>
      <trkpt lat="43.86314" lon="7.22781">
        <ele>519</ele>
        <time>2017-08-20T11:07:54Z</time>
      </trkpt>
      <trkpt lat="43.86354" lon="7.22764">
        <ele>520</ele>
        <time>2017-08-20T11:09:54Z</time>
      </trkpt>
      <trkpt lat="43.86393" lon="7.22749">
        <ele>522</ele>
        <time>2017-08-20T11:11:54Z</time>
      </trkpt>
      <trkpt lat="43.86435" lon="7.22738">
        <ele>525</ele>
        <time>2017-08-20T11:13:54Z</time>
      </trkpt>
      <trkpt lat="43.86493" lon="7.22728">
        <ele>525</ele>
        <time>2017-08-20T11:15:54Z</time>
      </trkpt>
      <trkpt lat="43.86556" lon="7.22724">
        <ele>522</ele>
        <time>2017-08-20T11:17:54Z</time>
      </trkpt>
      <trkpt lat="43.86581" lon="7.22713">
        <ele>519</ele>
        <time>2017-08-20T11:19:54Z</time>
      </trkpt>
      <trkpt lat="43.86611" lon="7.22683">
        <ele>513</ele>
        <time>2017-08-20T11:21:54Z</time>
      </trkpt>
      <trkpt lat="43.86641" lon="7.22664">
        <ele>513</ele>
        <time>2017-08-20T11:23:54Z</time>
      </trkpt>
      <trkpt lat="43.86685" lon="7.22661">
        <ele>510</ele>
        <time>2017-08-20T11:25:54Z</time>
      </trkpt>
      <trkpt lat="43.86695" lon="7.22673">
        <ele>509</ele>
        <time>2017-08-20T11:27:54Z</time>
      </trkpt>
      <trkpt lat="43.86692" lon="7.22699">
        <ele>509</ele>
        <time>2017-08-20T11:29:54Z</time>
      </trkpt>
      <trkpt lat="43.86684" lon="7.22716">
        <ele>510</ele>
        <time>2017-08-20T11:31:54Z</time>
      </trkpt>
      <trkpt lat="43.86659" lon="7.22746">
        <ele>514</ele>
        <time>2017-08-20T11:33:54Z</time>
      </trkpt>
      <trkpt lat="43.86609" lon="7.22818">
        <ele>524</ele>
        <time>2017-08-20T11:35:54Z</time>
      </trkpt>
      <trkpt lat="43.86596" lon="7.22848">
        <ele>528</ele>
        <time>2017-08-20T11:37:54Z</time>
      </trkpt>
      <trkpt lat="43.86595" lon="7.22871">
        <ele>530</ele>
        <time>2017-08-20T11:39:54Z</time>
      </trkpt>
      <trkpt lat="43.86615" lon="7.2288">
        <ele>528</ele>
        <time>2017-08-20T11:41:54Z</time>
      </trkpt>
      <trkpt lat="43.86618" lon="7.22872">
        <ele>527</ele>
        <time>2017-08-20T11:43:54Z</time>
      </trkpt>
      <trkpt lat="43.86631" lon="7.22858">
        <ele>523</ele>
        <time>2017-08-20T11:45:54Z</time>
      </trkpt>
      <trkpt lat="43.86656" lon="7.22836">
        <ele>514</ele>
        <time>2017-08-20T11:47:54Z</time>
      </trkpt>
      <trkpt lat="43.86677" lon="7.22829">
        <ele>511</ele>
        <time>2017-08-20T11:49:54Z</time>
      </trkpt>
      <trkpt lat="43.86692" lon="7.22835">
        <ele>511</ele>
        <time>2017-08-20T11:51:54Z</time>
      </trkpt>
      <trkpt lat="43.86707" lon="7.22848">
        <ele>514</ele>
        <time>2017-08-20T11:53:54Z</time>
      </trkpt>
      <trkpt lat="43.86719" lon="7.22848">
        <ele>514</ele>
        <time>2017-08-20T11:55:54Z</time>
      </trkpt>
      <trkpt lat="43.86734" lon="7.2284">
        <ele>511</ele>
        <time>2017-08-20T11:57:54Z</time>
      </trkpt>
      <trkpt lat="43.86754" lon="7.22828">
        <ele>507</ele>
        <time>2017-08-20T11:59:54Z</time>
      </trkpt>
      <trkpt lat="43.86777" lon="7.22821">
        <ele>505</ele>
        <time>2017-08-20T12:01:54Z</time>
      </trkpt>
      <trkpt lat="43.86801" lon="7.22815">
        <ele>503</ele>
        <time>2017-08-20T12:03:54Z</time>
      </trkpt>
      <trkpt lat="43.86814" lon="7.22799">
        <ele>498</ele>
        <time>2017-08-20T12:05:54Z</time>
      </trkpt>
      <trkpt lat="43.8683" lon="7.22774">
        <ele>489</ele>
        <time>2017-08-20T12:07:54Z</time>
      </trkpt>
      <trkpt lat="43.86859" lon="7.22758">
        <ele>489</ele>
        <time>2017-08-20T12:09:54Z</time>
      </trkpt>
      <trkpt lat="43.86857" lon="7.22731">
        <ele>481</ele>
        <time>2017-08-20T12:11:54Z</time>
      </trkpt>
      <trkpt lat="43.86855" lon="7.22718">
        <ele>478</ele>
        <time>2017-08-20T12:13:54Z</time>
      </trkpt>
      <trkpt lat="43.8686" lon="7.22707">
        <ele>476</ele>
        <time>2017-08-20T12:15:54Z</time>
      </trkpt>
      <trkpt lat="43.86877" lon="7.22693">
        <ele>475</ele>
        <time>2017-08-20T12:17:54Z</time>
      </trkpt>
      <trkpt lat="43.86893" lon="7.22686">
        <ele>475</ele>
        <time>2017-08-20T12:19:54Z</time>
      </trkpt>
      <trkpt lat="43.86902" lon="7.22669">
        <ele>470</ele>
        <time>2017-08-20T12:21:54Z</time>
      </trkpt>
      <trkpt lat="43.86915" lon="7.22651">
        <ele>464</ele>
        <time>2017-08-20T12:23:54Z</time>
      </trkpt>
      <trkpt lat="43.86935" lon="7.22632">
        <ele>457</ele>
        <time>2017-08-20T12:25:54Z</time>
      </trkpt>
      <trkpt lat="43.86956" lon="7.22622">
        <ele>454</ele>
        <time>2017-08-20T12:27:54Z</time>
      </trkpt>
      <trkpt lat="43.86977" lon="7.22613">
        <ele>451</ele>
        <time>2017-08-20T12:29:54Z</time>
      </trkpt>
      <trkpt lat="43.86996" lon="7.22614">
        <ele>453</ele>
        <time>2017-08-20T12:31:54Z</time>
      </trkpt>
      <trkpt lat="43.87017" lon="7.22622">
        <ele>452</ele>
        <time>2017-08-20T12:33:54Z</time>
      </trkpt>
      <trkpt lat="43.87004" lon="7.22599">
        <ele>446</ele>
        <time>2017-08-20T12:35:54Z</time>
      </trkpt>
      <trkpt lat="43.86991" lon="7.22586">
        <ele>441</ele>
        <time>2017-08-20T12:37:54Z</time>
      </trkpt>
      <trkpt lat="43.86998" lon="7.22582">
        <ele>440</ele>
        <time>2017-08-20T12:39:54Z</time>
      </trkpt>
      <trkpt lat="43.87016" lon="7.22578">
        <ele>436</ele>
        <time>2017-08-20T12:41:54Z</time>
      </trkpt>
      <trkpt lat="43.87039" lon="7.22588">
        <ele>435</ele>
        <time>2017-08-20T12:43:54Z</time>
      </trkpt>
      <trkpt lat="43.87055" lon="7.22604">
        <ele>437</ele>
        <time>2017-08-20T12:45:54Z</time>
      </trkpt>
      <trkpt lat="43.87083" lon="7.2266">
        <ele>445</ele>
        <time>2017-08-20T12:47:54Z</time>
      </trkpt>
      <trkpt lat="43.87094" lon="7.22631">
        <ele>439</ele>
        <time>2017-08-20T12:49:54Z</time>
      </trkpt>
      <trkpt lat="43.87103" lon="7.22612">
        <ele>435</ele>
        <time>2017-08-20T12:51:54Z</time>
      </trkpt>
      <trkpt lat="43.87124" lon="7.22583">
        <ele>428</ele>
        <time>2017-08-20T12:53:54Z</time>
      </trkpt>
      <trkpt lat="43.87186" lon="7.22522">
        <ele>402</ele>
        <time>2017-08-20T12:55:54Z</time>
      </trkpt>
      <trkpt lat="43.8719" lon="7.22496">
        <ele>392</ele>
        <time>2017-08-20T12:57:54Z</time>
      </trkpt>
      <trkpt lat="43.87215" lon="7.22535">
        <ele>399</ele>
        <time>2017-08-20T12:59:54Z</time>
      </trkpt>
      <trkpt lat="43.87238" lon="7.22557">
        <ele>401</ele>
        <time>2017-08-20T13:01:54Z</time>
      </trkpt>
      <trkpt lat="43.87254" lon="7.22585">
        <ele>405</ele>
        <time>2017-08-20T13:03:54Z</time>
      </trkpt>
      <trkpt lat="43.87293" lon="7.22644">
        <ele>401</ele>
        <time>2017-08-20T13:05:54Z</time>
      </trkpt>
      <trkpt lat="43.87312" lon="7.22682">
        <ele>403</ele>
        <time>2017-08-20T13:07:54Z</time>
      </trkpt>
      <trkpt lat="43.87324" lon="7.22691">
        <ele>400</ele>
        <time>2017-08-20T13:09:54Z</time>
      </trkpt>
      <trkpt lat="43.87341" lon="7.22689">
        <ele>391</ele>
        <time>2017-08-20T13:11:54Z</time>
      </trkpt>
      <trkpt lat="43.87359" lon="7.22679">
        <ele>382</ele>
        <time>2017-08-20T13:13:54Z</time>
      </trkpt>
      <trkpt lat="43.87385" lon="7.22657">
        <ele>369</ele>
        <time>2017-08-20T13:15:54Z</time>
      </trkpt>
      <trkpt lat="43.87406" lon="7.22634">
        <ele>357</ele>
        <time>2017-08-20T13:17:54Z</time>
      </trkpt>
      <trkpt lat="43.87426" lon="7.22634">
        <ele>349</ele>
        <time>2017-08-20T13:19:54Z</time>
      </trkpt>
      <trkpt lat="43.87439" lon="7.22646">
        <ele>346</ele>
        <time>2017-08-20T13:21:54Z</time>
      </trkpt>
      <trkpt lat="43.87452" lon="7.22634">
        <ele>336</ele>
        <time>2017-08-20T13:23:54Z</time>
      </trkpt>
      <trkpt lat="43.87456" lon="7.22653">
        <ele>339</ele>
        <time>2017-08-20T13:25:54Z</time>
      </trkpt>
      <trkpt lat="43.87456" lon="7.22745">
        <ele>349</ele>
        <time>2017-08-20T13:27:54Z</time>
      </trkpt>
      <trkpt lat="43.87465" lon="7.2271">
        <ele>340</ele>
        <time>2017-08-20T13:29:54Z</time>
      </trkpt>
      <trkpt lat="43.87473" lon="7.22734">
        <ele>337</ele>
        <time>2017-08-20T13:31:54Z</time>
      </trkpt>
      <trkpt lat="43.8748" lon="7.22689">
        <ele>330</ele>
        <time>2017-08-20T13:33:54Z</time>
      </trkpt>
      <trkpt lat="43.87485" lon="7.22709">
        <ele>328</ele>
        <time>2017-08-20T13:35:54Z</time>
      </trkpt>
      <trkpt lat="43.87489" lon="7.22746">
        <ele>326</ele>
        <time>2017-08-20T13:37:54Z</time>
      </trkpt>
      <trkpt lat="43.87498" lon="7.22737">
        <ele>320</ele>
        <time>2017-08-20T13:39:54Z</time>
      </trkpt>
      <trkpt lat="43.87502" lon="7.22712">
        <ele>317</ele>
        <time>2017-08-20T13:41:54Z</time>
      </trkpt>
      <trkpt lat="43.87513" lon="7.22738">
        <ele>310</ele>
        <time>2017-08-20T13:43:54Z</time>
      </trkpt>
      <trkpt lat="43.87519" lon="7.22762">
        <ele>305</ele>
        <time>2017-08-20T13:45:54Z</time>
      </trkpt>
      <trkpt lat="43.87524" lon="7.22712">
        <ele>299</ele>
        <time>2017-08-20T13:47:54Z</time>
      </trkpt>
      <trkpt lat="43.87535" lon="7.22766">
        <ele>295</ele>
        <time>2017-08-20T13:49:54Z</time>
      </trkpt>
      <trkpt lat="43.87543" lon="7.22738">
        <ele>289</ele>
        <time>2017-08-20T13:51:54Z</time>
      </trkpt>
      <trkpt lat="43.87538" lon="7.22722">
        <ele>290</ele>
        <time>2017-08-20T13:53:54Z</time>
      </trkpt>
      <trkpt lat="43.87539" lon="7.22701">
        <ele>285</ele>
        <time>2017-08-20T13:55:54Z</time>
      </trkpt>
      <trkpt lat="43.87555" lon="7.22728">
        <ele>278</ele>
        <time>2017-08-20T13:57:54Z</time>
      </trkpt>
      <trkpt lat="43.8757" lon="7.22764">
        <ele>273</ele>
        <time>2017-08-20T13:59:54Z</time>
      </trkpt>
      <trkpt lat="43.87561" lon="7.22808">
        <ele>278</ele>
        <time>2017-08-20T14:01:54Z</time>
      </trkpt>
      <trkpt lat="43.87547" lon="7.22833">
        <ele>285</ele>
        <time>2017-08-20T14:03:54Z</time>
      </trkpt>
      <trkpt lat="43.87551" lon="7.22851">
        <ele>286</ele>
        <time>2017-08-20T14:05:54Z</time>
      </trkpt>
      <trkpt lat="43.87564" lon="7.22855">
        <ele>282</ele>
        <time>2017-08-20T14:07:54Z</time>
      </trkpt>
      <trkpt lat="43.87595" lon="7.22859">
        <ele>267</ele>
        <time>2017-08-20T14:09:54Z</time>
      </trkpt>
      <trkpt lat="43.87628" lon="7.22915">
        <ele>260</ele>
        <time>2017-08-20T14:11:54Z</time>
      </trkpt>
      <trkpt lat="43.87633" lon="7.22937">
        <ele>265</ele>
        <time>2017-08-20T14:13:54Z</time>
      </trkpt>
      <trkpt lat="43.87643" lon="7.22967">
        <ele>270</ele>
        <time>2017-08-20T14:15:54Z</time>
      </trkpt>
      <trkpt lat="43.87677" lon="7.22998">
        <ele>259</ele>
        <time>2017-08-20T14:17:54Z</time>
      </trkpt>
      <trkpt lat="43.87696" lon="7.23005">
        <ele>251</ele>
        <time>2017-08-20T14:19:54Z</time>
      </trkpt>
      <trkpt lat="43.87711" lon="7.23014">
        <ele>246</ele>
        <time>2017-08-20T14:21:54Z</time>
      </trkpt>
      <trkpt lat="43.8773" lon="7.23025">
        <ele>240</ele>
        <time>2017-08-20T14:23:54Z</time>
      </trkpt>
      <trkpt lat="43.87733" lon="7.23041">
        <ele>244</ele>
        <time>2017-08-20T14:25:54Z</time>
      </trkpt>
      <trkpt lat="43.87748" lon="7.23042">
        <ele>236</ele>
        <time>2017-08-20T14:27:54Z</time>
      </trkpt>
      <trkpt lat="43.87767" lon="7.23057">
        <ele>231</ele>
        <time>2017-08-20T14:29:54Z</time>
      </trkpt>
      <trkpt lat="43.87794" lon="7.23085">
        <ele>223</ele>
        <time>2017-08-20T14:31:54Z</time>
      </trkpt>
      <trkpt lat="43.87801" lon="7.23082">
        <ele>218</ele>
        <time>2017-08-20T14:33:54Z</time>
      </trkpt>
      <trkpt lat="43.87812" lon="7.23091">
        <ele>213</ele>
        <time>2017-08-20T14:35:54Z</time>
      </trkpt>
      <trkpt lat="43.8782" lon="7.23135">
        <ele>211</ele>
        <time>2017-08-20T14:37:54Z</time>
      </trkpt>
      <trkpt lat="43.87829" lon="7.23166">
        <ele>207</ele>
        <time>2017-08-20T14:39:54Z</time>
      </trkpt>
      <trkpt lat="43.87836" lon="7.23199">
        <ele>206</ele>
        <time>2017-08-20T14:41:54Z</time>
      </trkpt>
      <trkpt lat="43.87839" lon="7.23175">
        <ele>204</ele>
        <time>2017-08-20T14:43:54Z</time>
      </trkpt>
      <trkpt lat="43.87846" lon="7.23162">
        <ele>202</ele>
        <time>2017-08-20T14:45:54Z</time>
      </trkpt>
      <trkpt lat="43.87845" lon="7.23137">
        <ele>201</ele>
        <time>2017-08-20T14:47:54Z</time>
      </trkpt>
      <trkpt lat="43.87875" lon="7.23135">
        <ele>198</ele>
        <time>2017-08-20T14:49:54Z</time>
      </trkpt>
      <trkpt lat="43.87884" lon="7.23128">
        <ele>198</ele>
        <time>2017-08-20T14:51:54Z</time>
      </trkpt>
      <trkpt lat="43.87901" lon="7.23129">
        <ele>196</ele>
        <time>2017-08-20T14:53:54Z</time>
      </trkpt>
      <trkpt lat="43.87911" lon="7.23138">
        <ele>195</ele>
        <time>2017-08-20T14:55:54Z</time>
      </trkpt>
      <trkpt lat="43.87914" lon="7.23147">
        <ele>194</ele>
        <time>2017-08-20T14:57:54Z</time>
      </trkpt>
      <trkpt lat="43.87931" lon="7.23212">
        <ele>199</ele>
        <time>2017-08-20T14:59:54Z</time>
      </trkpt>
      <trkpt lat="43.87931" lon="7.23225">
        <ele>199</ele>
        <time>2017-08-20T15:01:54Z</time>
      </trkpt>
      <trkpt lat="43.87934" lon="7.23241">
        <ele>200</ele>
        <time>2017-08-20T15:03:54Z</time>
      </trkpt>
      <trkpt lat="43.87939" lon="7.2325">
        <ele>202</ele>
        <time>2017-08-20T15:05:54Z</time>
      </trkpt>
      <trkpt lat="43.87945" lon="7.23279">
        <ele>202</ele>
        <time>2017-08-20T15:07:54Z</time>
      </trkpt>
      <trkpt lat="43.87947" lon="7.23266">
        <ele>203</ele>
        <time>2017-08-20T15:09:54Z</time>
      </trkpt>
      <trkpt lat="43.87945" lon="7.23151">
        <ele>204</ele>
        <time>2017-08-20T15:11:54Z</time>
      </trkpt>
      <trkpt lat="43.87951" lon="7.23177">
        <ele>207</ele>
        <time>2017-08-20T15:13:54Z</time>
      </trkpt>
      <trkpt lat="43.87954" lon="7.23206">
        <ele>208</ele>
        <time>2017-08-20T15:15:54Z</time>
      </trkpt>
      <trkpt lat="43.87964" lon="7.23245">
        <ele>211</ele>
        <time>2017-08-20T15:17:54Z</time>
      </trkpt>
      <trkpt lat="43.87972" lon="7.23278">
        <ele>212</ele>
        <time>2017-08-20T15:19:54Z</time>
      </trkpt>
      <trkpt lat="43.87979" lon="7.23259">
        <ele>216</ele>
        <time>2017-08-20T15:21:54Z</time>
      </trkpt>
      <trkpt lat="43.87985" lon="7.23252">
        <ele>219</ele>
        <time>2017-08-20T15:23:54Z</time>
      </trkpt>
      <trkpt lat="43.87996" lon="7.23251">
        <ele>223</ele>
        <time>2017-08-20T15:25:54Z</time>
      </trkpt>
      <trkpt lat="43.88015" lon="7.23256">
        <ele>230</ele>
        <time>2017-08-20T15:27:54Z</time>
      </trkpt>
      <trkpt lat="43.88025" lon="7.23264">
        <ele>233</ele>
        <time>2017-08-20T15:29:54Z</time>
      </trkpt>
      <trkpt lat="43.88033" lon="7.23277">
        <ele>235</ele>
        <time>2017-08-20T15:31:54Z</time>
      </trkpt>
      <trkpt lat="43.88039" lon="7.23282">
        <ele>237</ele>
        <time>2017-08-20T15:33:54Z</time>
      </trkpt>
      <trkpt lat="43.8805" lon="7.23277">
        <ele>241</ele>
        <time>2017-08-20T15:35:54Z</time>
      </trkpt>
      <trkpt lat="43.8806" lon="7.23272">
        <ele>245</ele>
        <time>2017-08-20T15:37:54Z</time>
      </trkpt>
      <trkpt lat="43.88075" lon="7.23269">
        <ele>250</ele>
        <time>2017-08-20T15:39:54Z</time>
      </trkpt>
      <trkpt lat="43.88093" lon="7.23278">
        <ele>256</ele>
        <time>2017-08-20T15:41:54Z</time>
      </trkpt>
      <trkpt lat="43.88102" lon="7.2329">
        <ele>258</ele>
        <time>2017-08-20T15:43:54Z</time>
      </trkpt>
      <trkpt lat="43.88119" lon="7.23308">
        <ele>261</ele>
        <time>2017-08-20T15:45:54Z</time>
      </trkpt>
      <trkpt lat="43.88137" lon="7.23313">
        <ele>265</ele>
        <time>2017-08-20T15:47:54Z</time>
      </trkpt>
      <trkpt lat="43.88151" lon="7.23317">
        <ele>268</ele>
        <time>2017-08-20T15:49:54Z</time>
      </trkpt>
      <trkpt lat="43.88154" lon="7.23333">
        <ele>264</ele>
        <time>2017-08-20T15:51:54Z</time>
      </trkpt>
      <trkpt lat="43.88149" lon="7.23346">
        <ele>266</ele>
        <time>2017-08-20T15:53:54Z</time>
      </trkpt>
      <trkpt lat="43.88135" lon="7.2335">
        <ele>264</ele>
        <time>2017-08-20T15:55:54Z</time>
      </trkpt>
      <trkpt lat="43.88117" lon="7.2335">
        <ele>260</ele>
        <time>2017-08-20T15:57:54Z</time>
      </trkpt>
      <trkpt lat="43.88105" lon="7.23356">
        <ele>259</ele>
        <time>2017-08-20T15:59:54Z</time>
      </trkpt>
      <trkpt lat="43.88092" lon="7.23356">
        <ele>256</ele>
        <time>2017-08-20T16:01:54Z</time>
      </trkpt>
      <trkpt lat="43.88083" lon="7.23362">
        <ele>255</ele>
        <time>2017-08-20T16:03:54Z</time>
      </trkpt>
      <trkpt lat="43.88081" lon="7.23377">
        <ele>258</ele>
        <time>2017-08-20T16:05:54Z</time>
      </trkpt>
      <trkpt lat="43.88091" lon="7.23375">
        <ele>260</ele>
        <time>2017-08-20T16:07:54Z</time>
      </trkpt>
      <trkpt lat="43.881" lon="7.23378">
        <ele>262</ele>
        <time>2017-08-20T16:09:54Z</time>
      </trkpt>
      <trkpt lat="43.88097" lon="7.23393">
        <ele>265</ele>
        <time>2017-08-20T16:11:54Z</time>
      </trkpt>
      <trkpt lat="43.88095" lon="7.23401">
        <ele>266</ele>
        <time>2017-08-20T16:13:54Z</time>
      </trkpt>
      <trkpt lat="43.88104" lon="7.23399">
        <ele>268</ele>
        <time>2017-08-20T16:15:54Z</time>
      </trkpt>
      <trkpt lat="43.88102" lon="7.23415">
        <ele>271</ele>
        <time>2017-08-20T16:17:54Z</time>
      </trkpt>
      <trkpt lat="43.88113" lon="7.23414">
        <ele>273</ele>
        <time>2017-08-20T16:19:54Z</time>
      </trkpt>
      <trkpt lat="43.88128" lon="7.23417">
        <ele>277</ele>
        <time>2017-08-20T16:21:54Z</time>
      </trkpt>
      <trkpt lat="43.88144" lon="7.2342">
        <ele>281</ele>
        <time>2017-08-20T16:23:54Z</time>
      </trkpt>
      <trkpt lat="43.88178" lon="7.23434">
        <ele>291</ele>
        <time>2017-08-20T16:25:54Z</time>
      </trkpt>
      <trkpt lat="43.88175" lon="7.2345">
        <ele>293</ele>
        <time>2017-08-20T16:27:54Z</time>
      </trkpt>
      <trkpt lat="43.88192" lon="7.23453">
        <ele>297</ele>
        <time>2017-08-20T16:29:54Z</time>
      </trkpt>
      <trkpt lat="43.88188" lon="7.23471">
        <ele>301</ele>
        <time>2017-08-20T16:31:54Z</time>
      </trkpt>
      <trkpt lat="43.88195" lon="7.23495">
        <ele>308</ele>
        <time>2017-08-20T16:33:54Z</time>
      </trkpt>
      <trkpt lat="43.88202" lon="7.23515">
        <ele>311</ele>
        <time>2017-08-20T16:35:54Z</time>
      </trkpt>
      <trkpt lat="43.88223" lon="7.2352">
        <ele>317</ele>
        <time>2017-08-20T16:37:54Z</time>
      </trkpt>
      <trkpt lat="43.88231" lon="7.23536">
        <ele>320</ele>
        <time>2017-08-20T16:39:54Z</time>
      </trkpt>
      <trkpt lat="43.88291" lon="7.23587">
        <ele>341</ele>
        <time>2017-08-20T16:41:54Z</time>
      </trkpt>
      <trkpt lat="43.88296" lon="7.236">
        <ele>341</ele>
        <time>2017-08-20T16:43:54Z</time>
      </trkpt>
      <trkpt lat="43.88297" lon="7.23631">
        <ele>338</ele>
        <time>2017-08-20T16:45:54Z</time>
      </trkpt>
      <trkpt lat="43.88309" lon="7.23676">
        <ele>338</ele>
        <time>2017-08-20T16:47:54Z</time>
      </trkpt>
      <trkpt lat="43.88324" lon="7.23696">
        <ele>342</ele>
        <time>2017-08-20T16:49:54Z</time>
      </trkpt>
      <trkpt lat="43.88328" lon="7.2373">
        <ele>338</ele>
        <time>2017-08-20T16:51:54Z</time>
      </trkpt>
      <trkpt lat="43.88345" lon="7.23753">
        <ele>343</ele>
        <time>2017-08-20T16:53:54Z</time>
      </trkpt>
      <trkpt lat="43.88362" lon="7.23802">
        <ele>348</ele>
        <time>2017-08-20T16:55:54Z</time>
      </trkpt>
      <trkpt lat="43.88389" lon="7.23867">
        <ele>359</ele>
        <time>2017-08-20T16:57:54Z</time>
      </trkpt>
      <trkpt lat="43.88391" lon="7.23904">
        <ele>359</ele>
        <time>2017-08-20T16:59:54Z</time>
      </trkpt>
      <trkpt lat="43.88399" lon="7.23882">
        <ele>364</ele>
        <time>2017-08-20T17:01:54Z</time>
      </trkpt>
      <trkpt lat="43.88403" lon="7.23902">
        <ele>366</ele>
        <time>2017-08-20T17:03:54Z</time>
      </trkpt>
      <trkpt lat="43.88435" lon="7.23978">
        <ele>379</ele>
        <time>2017-08-20T17:05:54Z</time>
      </trkpt>
      <trkpt lat="43.8845" lon="7.24026">
        <ele>382</ele>
        <time>2017-08-20T17:07:54Z</time>
      </trkpt>
      <trkpt lat="43.88481" lon="7.24067">
        <ele>393</ele>
        <time>2017-08-20T17:09:54Z</time>
      </trkpt>
      <trkpt lat="43.88498" lon="7.24069">
        <ele>402</ele>
        <time>2017-08-20T17:11:54Z</time>
      </trkpt>
      <trkpt lat="43.88513" lon="7.24071">
        <ele>409</ele>
        <time>2017-08-20T17:13:54Z</time>
      </trkpt>
      <trkpt lat="43.88539" lon="7.24083">
        <ele>417</ele>
        <time>2017-08-20T17:15:54Z</time>
      </trkpt>
      <trkpt lat="43.88556" lon="7.241">
        <ele>422</ele>
        <time>2017-08-20T17:17:54Z</time>
      </trkpt>
      <trkpt lat="43.8857" lon="7.24119">
        <ele>427</ele>
        <time>2017-08-20T17:19:54Z</time>
      </trkpt>
      <trkpt lat="43.88581" lon="7.24151">
        <ele>429</ele>
        <time>2017-08-20T17:21:54Z</time>
      </trkpt>
      <trkpt lat="43.88594" lon="7.24235">
        <ele>440</ele>
        <time>2017-08-20T17:23:54Z</time>
      </trkpt>
      <trkpt lat="43.88602" lon="7.24263">
        <ele>447</ele>
        <time>2017-08-20T17:25:54Z</time>
      </trkpt>
      <trkpt lat="43.88621" lon="7.24169">
        <ele>451</ele>
        <time>2017-08-20T17:27:54Z</time>
      </trkpt>
      <trkpt lat="43.88629" lon="7.24143">
        <ele>455</ele>
        <time>2017-08-20T17:29:54Z</time>
      </trkpt>
      <trkpt lat="43.88645" lon="7.24129">
        <ele>463</ele>
        <time>2017-08-20T17:31:54Z</time>
      </trkpt>
      <trkpt lat="43.88643" lon="7.24148">
        <ele>463</ele>
        <time>2017-08-20T17:33:54Z</time>
      </trkpt>
      <trkpt lat="43.88649" lon="7.24147">
        <ele>466</ele>
        <time>2017-08-20T17:35:54Z</time>
      </trkpt>
      <trkpt lat="43.88659" lon="7.24135">
        <ele>471</ele>
        <time>2017-08-20T17:37:54Z</time>
      </trkpt>
      <trkpt lat="43.88668" lon="7.24127">
        <ele>475</ele>
        <time>2017-08-20T17:39:54Z</time>
      </trkpt>
      <trkpt lat="43.88673" lon="7.24115">
        <ele>477</ele>
        <time>2017-08-20T17:41:54Z</time>
      </trkpt>
      <trkpt lat="43.88673" lon="7.24124">
        <ele>478</ele>
        <time>2017-08-20T17:43:54Z</time>
      </trkpt>
      <trkpt lat="43.88669" lon="7.24162">
        <ele>479</ele>
        <time>2017-08-20T17:45:54Z</time>
      </trkpt>
      <trkpt lat="43.88669" lon="7.24176">
        <ele>481</ele>
        <time>2017-08-20T17:47:54Z</time>
      </trkpt>
      <trkpt lat="43.88673" lon="7.24187">
        <ele>485</ele>
        <time>2017-08-20T17:49:54Z</time>
      </trkpt>
      <trkpt lat="43.88682" lon="7.24196">
        <ele>492</ele>
        <time>2017-08-20T17:51:54Z</time>
      </trkpt>
      <trkpt lat="43.88681" lon="7.24206">
        <ele>492</ele>
        <time>2017-08-20T17:53:54Z</time>
      </trkpt>
      <trkpt lat="43.88686" lon="7.24213">
        <ele>496</ele>
        <time>2017-08-20T17:55:54Z</time>
      </trkpt>
      <trkpt lat="43.88687" lon="7.24229">
        <ele>498</ele>
        <time>2017-08-20T17:57:54Z</time>
      </trkpt>
      <trkpt lat="43.88691" lon="7.24222">
        <ele>500</ele>
        <time>2017-08-20T17:59:54Z</time>
      </trkpt>
      <trkpt lat="43.88696" lon="7.24211">
        <ele>502</ele>
        <time>2017-08-20T18:01:54Z</time>
      </trkpt>
      <trkpt lat="43.88699" lon="7.24218">
        <ele>504</ele>
        <time>2017-08-20T18:03:54Z</time>
      </trkpt>
      <trkpt lat="43.88703" lon="7.24246">
        <ele>508</ele>
        <time>2017-08-20T18:05:54Z</time>
      </trkpt>
      <trkpt lat="43.88711" lon="7.24242">
        <ele>513</ele>
        <time>2017-08-20T18:07:54Z</time>
      </trkpt>
      <trkpt lat="43.88715" lon="7.2426">
        <ele>515</ele>
        <time>2017-08-20T18:09:54Z</time>
      </trkpt>
      <trkpt lat="43.88719" lon="7.24251">
        <ele>517</ele>
        <time>2017-08-20T18:11:54Z</time>
      </trkpt>
      <trkpt lat="43.88722" lon="7.24254">
        <ele>519</ele>
        <time>2017-08-20T18:13:54Z</time>
      </trkpt>
      <trkpt lat="43.8873" lon="7.24314">
        <ele>518</ele>
        <time>2017-08-20T18:15:54Z</time>
      </trkpt>
      <trkpt lat="43.88748" lon="7.24259">
        <ele>532</ele>
        <time>2017-08-20T18:17:54Z</time>
      </trkpt>
      <trkpt lat="43.88753" lon="7.24225">
        <ele>536</ele>
        <time>2017-08-20T18:19:54Z</time>
      </trkpt>
      <trkpt lat="43.88764" lon="7.2428">
        <ele>533</ele>
        <time>2017-08-20T18:21:54Z</time>
      </trkpt>
      <trkpt lat="43.8878" lon="7.2427">
        <ele>538</ele>
        <time>2017-08-20T18:23:54Z</time>
      </trkpt>
      <trkpt lat="43.88797" lon="7.24262">
        <ele>544</ele>
        <time>2017-08-20T18:25:54Z</time>
      </trkpt>
      <trkpt lat="43.88814" lon="7.24247">
        <ele>553</ele>
        <time>2017-08-20T18:27:54Z</time>
      </trkpt>
      <trkpt lat="43.88828" lon="7.24243">
        <ele>559</ele>
        <time>2017-08-20T18:29:54Z</time>
      </trkpt>
      <trkpt lat="43.88837" lon="7.2423">
        <ele>567</ele>
        <time>2017-08-20T18:31:54Z</time>
      </trkpt>
      <trkpt lat="43.88856" lon="7.24236">
        <ele>567</ele>
        <time>2017-08-20T18:33:54Z</time>
      </trkpt>
      <trkpt lat="43.88858" lon="7.24204">
        <ele>581</ele>
        <time>2017-08-20T18:35:54Z</time>
      </trkpt>
      <trkpt lat="43.88867" lon="7.24181">
        <ele>593</ele>
        <time>2017-08-20T18:37:54Z</time>
      </trkpt>
      <trkpt lat="43.88866" lon="7.24157">
        <ele>602</ele>
        <time>2017-08-20T18:39:54Z</time>
      </trkpt>
      <trkpt lat="43.88891" lon="7.24155">
        <ele>609</ele>
        <time>2017-08-20T18:41:54Z</time>
      </trkpt>
      <trkpt lat="43.88933" lon="7.24146">
        <ele>628</ele>
        <time>2017-08-20T18:43:54Z</time>
      </trkpt>
      <trkpt lat="43.88941" lon="7.24156">
        <ele>626</ele>
        <time>2017-08-20T18:45:54Z</time>
      </trkpt>
      <trkpt lat="43.88937" lon="7.24184">
        <ele>610</ele>
        <time>2017-08-20T18:47:54Z</time>
      </trkpt>
      <trkpt lat="43.88945" lon="7.24194">
        <ele>610</ele>
        <time>2017-08-20T18:49:54Z</time>
      </trkpt>
      <trkpt lat="43.88949" lon="7.24207">
        <ele>606</ele>
        <time>2017-08-20T18:51:54Z</time>
      </trkpt>
      <trkpt lat="43.88973" lon="7.24197">
        <ele>623</ele>
        <time>2017-08-20T18:53:54Z</time>
      </trkpt>
      <trkpt lat="43.88997" lon="7.242">
        <ele>634</ele>
        <time>2017-08-20T18:55:54Z</time>
      </trkpt>
      <trkpt lat="43.88996" lon="7.24233">
        <ele>620</ele>
        <time>2017-08-20T18:57:54Z</time>
      </trkpt>
      <trkpt lat="43.88988" lon="7.24262">
        <ele>605</ele>
        <time>2017-08-20T18:59:54Z</time>
      </trkpt>
      <trkpt lat="43.88976" lon="7.24279">
        <ele>594</ele>
        <time>2017-08-20T19:01:54Z</time>
      </trkpt>
      <trkpt lat="43.88976" lon="7.24295">
        <ele>590</ele>
        <time>2017-08-20T19:03:54Z</time>
      </trkpt>
      <trkpt lat="43.88986" lon="7.24299">
        <ele>594</ele>
        <time>2017-08-20T19:05:54Z</time>
      </trkpt>
      <trkpt lat="43.89003" lon="7.24316">
        <ele>600</ele>
        <time>2017-08-20T19:07:54Z</time>
      </trkpt>
      <trkpt lat="43.8901" lon="7.24333">
        <ele>602</ele>
        <time>2017-08-20T19:09:54Z</time>
      </trkpt>
      <trkpt lat="43.89014" lon="7.24361">
        <ele>600</ele>
        <time>2017-08-20T19:11:54Z</time>
      </trkpt>
      <trkpt lat="43.89014" lon="7.24396">
        <ele>593</ele>
        <time>2017-08-20T19:13:54Z</time>
      </trkpt>
      <trkpt lat="43.89023" lon="7.24419">
        <ele>595</ele>
        <time>2017-08-20T19:15:54Z</time>
      </trkpt>
      <trkpt lat="43.89024" lon="7.24447">
        <ele>588</ele>
        <time>2017-08-20T19:17:54Z</time>
      </trkpt>
      <trkpt lat="43.89038" lon="7.24464">
        <ele>593</ele>
        <time>2017-08-20T19:19:54Z</time>
      </trkpt>
      <trkpt lat="43.89051" lon="7.24472">
        <ele>600</ele>
        <time>2017-08-20T19:21:54Z</time>
      </trkpt>
      <trkpt lat="43.89065" lon="7.24478">
        <ele>608</ele>
        <time>2017-08-20T19:23:54Z</time>
      </trkpt>
      <trkpt lat="43.89079" lon="7.24496">
        <ele>612</ele>
        <time>2017-08-20T19:25:54Z</time>
      </trkpt>
      <trkpt lat="43.89081" lon="7.24522">
        <ele>603</ele>
        <time>2017-08-20T19:27:54Z</time>
      </trkpt>
      <trkpt lat="43.89086" lon="7.24567">
        <ele>589</ele>
        <time>2017-08-20T19:29:54Z</time>
      </trkpt>
      <trkpt lat="43.89105" lon="7.24586">
        <ele>595</ele>
        <time>2017-08-20T19:31:54Z</time>
      </trkpt>
      <trkpt lat="43.8914" lon="7.24578">
        <ele>625</ele>
        <time>2017-08-20T19:33:54Z</time>
      </trkpt>
      <trkpt lat="43.89163" lon="7.24585">
        <ele>637</ele>
        <time>2017-08-20T19:35:54Z</time>
      </trkpt>
      <trkpt lat="43.89175" lon="7.246">
        <ele>634</ele>
        <time>2017-08-20T19:37:54Z</time>
      </trkpt>
      <trkpt lat="43.89187" lon="7.24633">
        <ele>617</ele>
        <time>2017-08-20T19:39:54Z</time>
      </trkpt>
      <trkpt lat="43.89187" lon="7.24658">
        <ele>598</ele>
        <time>2017-08-20T19:41:54Z</time>
      </trkpt>
      <trkpt lat="43.89198" lon="7.24672">
        <ele>598</ele>
        <time>2017-08-20T19:43:54Z</time>
      </trkpt>
      <trkpt lat="43.89209" lon="7.24701">
        <ele>591</ele>
        <time>2017-08-20T19:45:54Z</time>
      </trkpt>
      <trkpt lat="43.89222" lon="7.24698">
        <ele>602</ele>
        <time>2017-08-20T19:47:54Z</time>
      </trkpt>
      <trkpt lat="43.89229" lon="7.24711">
        <ele>599</ele>
        <time>2017-08-20T19:49:54Z</time>
      </trkpt>
      <trkpt lat="43.89252" lon="7.24712">
        <ele>614</ele>
        <time>2017-08-20T19:51:54Z</time>
      </trkpt>
      <trkpt lat="43.89265" lon="7.2473">
        <ele>605</ele>
        <time>2017-08-20T19:53:54Z</time>
      </trkpt>
      <trkpt lat="43.89266" lon="7.24748">
        <ele>592</ele>
        <time>2017-08-20T19:55:54Z</time>
      </trkpt>
      <trkpt lat="43.89287" lon="7.24771">
        <ele>588</ele>
        <time>2017-08-20T19:57:54Z</time>
      </trkpt>
      <trkpt lat="43.89312" lon="7.24765">
        <ele>598</ele>
        <time>2017-08-20T19:59:54Z</time>
      </trkpt>
      <trkpt lat="43.89308" lon="7.24758">
        <ele>600</ele>
        <time>2017-08-20T20:01:54Z</time>
      </trkpt>
      <trkpt lat="43.89327" lon="7.24758">
        <ele>606</ele>
        <time>2017-08-20T20:03:54Z</time>
      </trkpt>
      <trkpt lat="43.89349" lon="7.24763">
        <ele>601</ele>
        <time>2017-08-20T20:05:54Z</time>
      </trkpt>
      <trkpt lat="43.89366" lon="7.2474">
        <ele>607</ele>
        <time>2017-08-20T20:07:54Z</time>
      </trkpt>
      <trkpt lat="43.89368" lon="7.24721">
        <ele>617</ele>
        <time>2017-08-20T20:09:54Z</time>
      </trkpt>
      <trkpt lat="43.89382" lon="7.24713">
        <ele>616</ele>
        <time>2017-08-20T20:11:54Z</time>
      </trkpt>
      <trkpt lat="43.89395" lon="7.24716">
        <ele>609</ele>
        <time>2017-08-20T20:13:54Z</time>
      </trkpt>
      <trkpt lat="43.89399" lon="7.24705">
        <ele>613</ele>
        <time>2017-08-20T20:15:54Z</time>
      </trkpt>
      <trkpt lat="43.89442" lon="7.24667">
        <ele>615</ele>
        <time>2017-08-20T20:17:54Z</time>
      </trkpt>
      <trkpt lat="43.8946" lon="7.24645">
        <ele>620</ele>
        <time>2017-08-20T20:19:54Z</time>
      </trkpt>
      <trkpt lat="43.89464" lon="7.24633">
        <ele>625</ele>
        <time>2017-08-20T20:21:54Z</time>
      </trkpt>
      <trkpt lat="43.89477" lon="7.24631">
        <ele>622</ele>
        <time>2017-08-20T20:23:54Z</time>
      </trkpt>
      <trkpt lat="43.89498" lon="7.24629">
        <ele>617</ele>
        <time>2017-08-20T20:25:54Z</time>
      </trkpt>
      <trkpt lat="43.89515" lon="7.24609">
        <ele>623</ele>
        <time>2017-08-20T20:27:54Z</time>
      </trkpt>
      <trkpt lat="43.89535" lon="7.24601">
        <ele>623</ele>
        <time>2017-08-20T20:29:54Z</time>
      </trkpt>
      <trkpt lat="43.89559" lon="7.24585">
        <ele>622</ele>
        <time>2017-08-20T20:31:54Z</time>
      </trkpt>
      <trkpt lat="43.89591" lon="7.24568">
        <ele>622</ele>
        <time>2017-08-20T20:33:54Z</time>
      </trkpt>
      <trkpt lat="43.89602" lon="7.24545">
        <ele>630</ele>
        <time>2017-08-20T20:35:54Z</time>
      </trkpt>
      <trkpt lat="43.8962" lon="7.2453">
        <ele>635</ele>
        <time>2017-08-20T20:37:54Z</time>
      </trkpt>
      <trkpt lat="43.89641" lon="7.24506">
        <ele>639</ele>
        <time>2017-08-20T20:39:54Z</time>
      </trkpt>
      <trkpt lat="43.89652" lon="7.24483">
        <ele>642</ele>
        <time>2017-08-20T20:41:54Z</time>
      </trkpt>
      <trkpt lat="43.89665" lon="7.24475">
        <ele>642</ele>
        <time>2017-08-20T20:43:54Z</time>
      </trkpt>
      <trkpt lat="43.89672" lon="7.24506">
        <ele>639</ele>
        <time>2017-08-20T20:45:54Z</time>
      </trkpt>
      <trkpt lat="43.89679" lon="7.24557">
        <ele>639</ele>
        <time>2017-08-20T20:47:54Z</time>
      </trkpt>
      <trkpt lat="43.89672" lon="7.24598">
        <ele>635</ele>
        <time>2017-08-20T20:49:54Z</time>
      </trkpt>
      <trkpt lat="43.89672" lon="7.24619">
        <ele>636</ele>
        <time>2017-08-20T20:51:54Z</time>
      </trkpt>
      <trkpt lat="43.89665" lon="7.24648">
        <ele>635</ele>
        <time>2017-08-20T20:53:54Z</time>
      </trkpt>
      <trkpt lat="43.89656" lon="7.24716">
        <ele>638</ele>
        <time>2017-08-20T20:55:54Z</time>
      </trkpt>
      <trkpt lat="43.89653" lon="7.24759">
        <ele>638</ele>
        <time>2017-08-20T20:57:54Z</time>
      </trkpt>
      <trkpt lat="43.89661" lon="7.2474">
        <ele>643</ele>
        <time>2017-08-20T20:59:54Z</time>
      </trkpt>
      <trkpt lat="43.8968" lon="7.24733">
        <ele>648</ele>
        <time>2017-08-20T21:01:54Z</time>
      </trkpt>
      <trkpt lat="43.89702" lon="7.24724">
        <ele>653</ele>
        <time>2017-08-20T21:03:54Z</time>
      </trkpt>
      <trkpt lat="43.8975" lon="7.24729">
        <ele>664</ele>
        <time>2017-08-20T21:05:54Z</time>
      </trkpt>
      <trkpt lat="43.89791" lon="7.24733">
        <ele>664</ele>
        <time>2017-08-20T21:07:54Z</time>
      </trkpt>
      <trkpt lat="43.89826" lon="7.24717">
        <ele>671</ele>
        <time>2017-08-20T21:09:54Z</time>
      </trkpt>
      <trkpt lat="43.89848" lon="7.24717">
        <ele>670</ele>
        <time>2017-08-20T21:11:54Z</time>
      </trkpt>
      <trkpt lat="43.89883" lon="7.24706">
        <ele>672</ele>
        <time>2017-08-20T21:13:54Z</time>
      </trkpt>
      <trkpt lat="43.89911" lon="7.24707">
        <ele>670</ele>
        <time>2017-08-20T21:15:54Z</time>
      </trkpt>
      <trkpt lat="43.89936" lon="7.24713">
        <ele>665</ele>
        <time>2017-08-20T21:17:54Z</time>
      </trkpt>
      <trkpt lat="43.89958" lon="7.2471">
        <ele>663</ele>
        <time>2017-08-20T21:19:54Z</time>
      </trkpt>
      <trkpt lat="43.89977" lon="7.24691">
        <ele>666</ele>
        <time>2017-08-20T21:21:54Z</time>
      </trkpt>
      <trkpt lat="43.89989" lon="7.24665">
        <ele>671</ele>
        <time>2017-08-20T21:23:54Z</time>
      </trkpt>
      <trkpt lat="43.90002" lon="7.24636">
        <ele>676</ele>
        <time>2017-08-20T21:25:54Z</time>
      </trkpt>
      <trkpt lat="43.90012" lon="7.24623">
        <ele>679</ele>
        <time>2017-08-20T21:27:54Z</time>
      </trkpt>
      <trkpt lat="43.90016" lon="7.24577">
        <ele>691</ele>
        <time>2017-08-20T21:29:54Z</time>
      </trkpt>
      <trkpt lat="43.90031" lon="7.24572">
        <ele>693</ele>
        <time>2017-08-20T21:31:54Z</time>
      </trkpt>
      <trkpt lat="43.90065" lon="7.24571">
        <ele>694</ele>
        <time>2017-08-20T21:33:54Z</time>
      </trkpt>
      <trkpt lat="43.90091" lon="7.24563">
        <ele>697</ele>
        <time>2017-08-20T21:35:54Z</time>
      </trkpt>
      <trkpt lat="43.90112" lon="7.24545">
        <ele>700</ele>
        <time>2017-08-20T21:37:54Z</time>
      </trkpt>
      <trkpt lat="43.9014" lon="7.24504">
        <ele>710</ele>
        <time>2017-08-20T21:39:54Z</time>
      </trkpt>
      <trkpt lat="43.90176" lon="7.24452">
        <ele>720</ele>
        <time>2017-08-20T21:41:54Z</time>
      </trkpt>
      <trkpt lat="43.90196" lon="7.24415">
        <ele>723</ele>
        <time>2017-08-20T21:43:54Z</time>
      </trkpt>
      <trkpt lat="43.90204" lon="7.24379">
        <ele>725</ele>
        <time>2017-08-20T21:45:54Z</time>
      </trkpt>
      <trkpt lat="43.90216" lon="7.2429">
        <ele>726</ele>
        <time>2017-08-20T21:47:54Z</time>
      </trkpt>
      <trkpt lat="43.90229" lon="7.24206">
        <ele>726</ele>
        <time>2017-08-20T21:49:54Z</time>
      </trkpt>
      <trkpt lat="43.90237" lon="7.2416">
        <ele>726</ele>
        <time>2017-08-20T21:51:54Z</time>
      </trkpt>
      <trkpt lat="43.90245" lon="7.24129">
        <ele>726</ele>
        <time>2017-08-20T21:53:54Z</time>
      </trkpt>
      <trkpt lat="43.90264" lon="7.241">
        <ele>723</ele>
        <time>2017-08-20T21:55:54Z</time>
      </trkpt>
      <trkpt lat="43.90272" lon="7.24076">
        <ele>724</ele>
        <time>2017-08-20T21:57:54Z</time>
      </trkpt>
      <trkpt lat="43.90268" lon="7.24044">
        <ele>729</ele>
        <time>2017-08-20T21:59:54Z</time>
      </trkpt>
      <trkpt lat="43.90263" lon="7.24011">
        <ele>734</ele>
        <time>2017-08-20T22:01:54Z</time>
      </trkpt>
      <trkpt lat="43.90249" lon="7.23972">
        <ele>741</ele>
        <time>2017-08-20T22:03:54Z</time>
      </trkpt>
      <trkpt lat="43.90255" lon="7.23946">
        <ele>743</ele>
        <time>2017-08-20T22:05:54Z</time>
      </trkpt>
      <trkpt lat="43.90278" lon="7.23962">
        <ele>739</ele>
        <time>2017-08-20T22:07:54Z</time>
      </trkpt>
      <trkpt lat="43.90301" lon="7.23969">
        <ele>735</ele>
        <time>2017-08-20T22:09:54Z</time>
      </trkpt>
      <trkpt lat="43.90345" lon="7.2397">
        <ele>730</ele>
        <time>2017-08-20T22:11:54Z</time>
      </trkpt>
      <trkpt lat="43.9038" lon="7.23953">
        <ele>728</ele>
        <time>2017-08-20T22:13:54Z</time>
      </trkpt>
      <trkpt lat="43.9041" lon="7.2393">
        <ele>726</ele>
        <time>2017-08-20T22:15:54Z</time>
      </trkpt>
      <trkpt lat="43.90439" lon="7.23902">
        <ele>722</ele>
        <time>2017-08-20T22:17:54Z</time>
      </trkpt>
      <trkpt lat="43.90452" lon="7.23867">
        <ele>726</ele>
        <time>2017-08-20T22:19:54Z</time>
      </trkpt>
      <trkpt lat="43.90462" lon="7.23834">
        <ele>731</ele>
        <time>2017-08-20T22:21:54Z</time>
      </trkpt>
      <trkpt lat="43.90478" lon="7.23839">
        <ele>725</ele>
        <time>2017-08-20T22:23:54Z</time>
      </trkpt>
      <trkpt lat="43.90494" lon="7.23831">
        <ele>722</ele>
        <time>2017-08-20T22:25:54Z</time>
      </trkpt>
      <trkpt lat="43.90515" lon="7.23799">
        <ele>718</ele>
        <time>2017-08-20T22:27:54Z</time>
      </trkpt>
      <trkpt lat="43.90524" lon="7.23759">
        <ele>718</ele>
        <time>2017-08-20T22:29:54Z</time>
      </trkpt>
      <trkpt lat="43.90522" lon="7.23715">
        <ele>726</ele>
        <time>2017-08-20T22:31:54Z</time>
      </trkpt>
      <trkpt lat="43.90517" lon="7.23674">
        <ele>736</ele>
        <time>2017-08-20T22:33:54Z</time>
      </trkpt>
      <trkpt lat="43.90524" lon="7.2366">
        <ele>734</ele>
        <time>2017-08-20T22:35:54Z</time>
      </trkpt>
      <trkpt lat="43.90516" lon="7.23635">
        <ele>746</ele>
        <time>2017-08-20T22:37:54Z</time>
      </trkpt>
      <trkpt lat="43.90544" lon="7.23605">
        <ele>739</ele>
        <time>2017-08-20T22:39:54Z</time>
      </trkpt>
      <trkpt lat="43.90557" lon="7.23593">
        <ele>735</ele>
        <time>2017-08-20T22:41:54Z</time>
      </trkpt>
      <trkpt lat="43.90567" lon="7.23582">
        <ele>733</ele>
        <time>2017-08-20T22:43:54Z</time>
      </trkpt>
      <trkpt lat="43.90574" lon="7.2353">
        <ele>748</ele>
        <time>2017-08-20T22:45:54Z</time>
      </trkpt>
      <trkpt lat="43.90584" lon="7.23503">
        <ele>753</ele>
        <time>2017-08-20T22:47:54Z</time>
      </trkpt>
      <trkpt lat="43.90599" lon="7.23449">
        <ele>769</ele>
        <time>2017-08-20T22:49:54Z</time>
      </trkpt>
      <trkpt lat="43.9061" lon="7.2341">
        <ele>781</ele>
        <time>2017-08-20T22:51:54Z</time>
      </trkpt>
      <trkpt lat="43.90637" lon="7.23467">
        <ele>772</ele>
        <time>2017-08-20T22:53:54Z</time>
      </trkpt>
      <trkpt lat="43.90641" lon="7.23499">
        <ele>765</ele>
        <time>2017-08-20T22:55:54Z</time>
      </trkpt>
      <trkpt lat="43.90653" lon="7.23532">
        <ele>761</ele>
        <time>2017-08-20T22:57:54Z</time>
      </trkpt>
      <trkpt lat="43.90653" lon="7.23577">
        <ele>753</ele>
        <time>2017-08-20T22:59:54Z</time>
      </trkpt>
      <trkpt lat="43.90663" lon="7.23616">
        <ele>743</ele>
        <time>2017-08-20T23:01:54Z</time>
      </trkpt>
      <trkpt lat="43.90678" lon="7.23646">
        <ele>739</ele>
        <time>2017-08-20T23:03:54Z</time>
      </trkpt>
      <trkpt lat="43.90694" lon="7.23667">
        <ele>740</ele>
        <time>2017-08-20T23:05:54Z</time>
      </trkpt>
      <trkpt lat="43.90717" lon="7.23674">
        <ele>749</ele>
        <time>2017-08-20T23:07:54Z</time>
      </trkpt>
      <trkpt lat="43.90739" lon="7.23673">
        <ele>762</ele>
        <time>2017-08-20T23:09:54Z</time>
      </trkpt>
      <trkpt lat="43.90755" lon="7.2368">
        <ele>765</ele>
        <time>2017-08-20T23:11:54Z</time>
      </trkpt>
      <trkpt lat="43.90768" lon="7.23677">
        <ele>765</ele>
        <time>2017-08-20T23:13:54Z</time>
      </trkpt>
      <trkpt lat="43.90783" lon="7.2368">
        <ele>765</ele>
        <time>2017-08-20T23:15:54Z</time>
      </trkpt>
      <trkpt lat="43.90796" lon="7.23688">
        <ele>765</ele>
        <time>2017-08-20T23:17:54Z</time>
      </trkpt>
      <trkpt lat="43.90796" lon="7.23709">
        <ele>765</ele>
        <time>2017-08-20T23:19:54Z</time>
      </trkpt>
      <trkpt lat="43.90788" lon="7.23738">
        <ele>765</ele>
        <time>2017-08-20T23:21:54Z</time>
      </trkpt>
      <trkpt lat="43.90776" lon="7.23776">
        <ele>743</ele>
        <time>2017-08-20T23:23:54Z</time>
      </trkpt>
      <trkpt lat="43.90776" lon="7.23792">
        <ele>741</ele>
        <time>2017-08-20T23:25:54Z</time>
      </trkpt>
      <trkpt lat="43.90767" lon="7.23824">
        <ele>724</ele>
        <time>2017-08-20T23:27:54Z</time>
      </trkpt>
      <trkpt lat="43.90764" lon="7.23837">
        <ele>718</ele>
        <time>2017-08-20T23:29:54Z</time>
      </trkpt>
      <trkpt lat="43.90768" lon="7.23854">
        <ele>728</ele>
        <time>2017-08-20T23:31:54Z</time>
      </trkpt>
      <trkpt lat="43.90777" lon="7.23885">
        <ele>743</ele>
        <time>2017-08-20T23:33:54Z</time>
      </trkpt>
      <trkpt lat="43.90792" lon="7.23893">
        <ele>758</ele>
        <time>2017-08-20T23:35:54Z</time>
      </trkpt>
      <trkpt lat="43.90817" lon="7.23926">
        <ele>773</ele>
        <time>2017-08-20T23:37:54Z</time>
      </trkpt>
      <trkpt lat="43.90833" lon="7.23936">
        <ele>781</ele>
        <time>2017-08-20T23:39:54Z</time>
      </trkpt>
      <trkpt lat="43.90844" lon="7.23946">
        <ele>787</ele>
        <time>2017-08-20T23:41:54Z</time>
      </trkpt>
      <trkpt lat="43.90856" lon="7.23965">
        <ele>790</ele>
        <time>2017-08-20T23:43:54Z</time>
      </trkpt>
      <trkpt lat="43.90857" lon="7.23983">
        <ele>784</ele>
        <time>2017-08-20T23:45:54Z</time>
      </trkpt>
      <trkpt lat="43.90861" lon="7.24">
        <ele>781</ele>
        <time>2017-08-20T23:47:54Z</time>
      </trkpt>
      <trkpt lat="43.90864" lon="7.2403">
        <ele>774</ele>
        <time>2017-08-20T23:49:54Z</time>
      </trkpt>
      <trkpt lat="43.9087" lon="7.24049">
        <ele>772</ele>
        <time>2017-08-20T23:51:54Z</time>
      </trkpt>
      <trkpt lat="43.90881" lon="7.24057">
        <ele>779</ele>
        <time>2017-08-20T23:53:54Z</time>
      </trkpt>
      <trkpt lat="43.90894" lon="7.24066">
        <ele>786</ele>
        <time>2017-08-20T23:55:54Z</time>
      </trkpt>
      <trkpt lat="43.90908" lon="7.24084">
        <ele>790</ele>
        <time>2017-08-20T23:57:54Z</time>
      </trkpt>
      <trkpt lat="43.90912" lon="7.24104">
        <ele>785</ele>
        <time>2017-08-20T23:59:54Z</time>
      </trkpt>
      <trkpt lat="43.90911" lon="7.24138">
        <ele>769</ele>
        <time>2017-08-21T00:01:54Z</time>
      </trkpt>
      <trkpt lat="43.90913" lon="7.24159">
        <ele>762</ele>
        <time>2017-08-21T00:03:54Z</time>
      </trkpt>
      <trkpt lat="43.90921" lon="7.24183">
        <ele>758</ele>
        <time>2017-08-21T00:05:54Z</time>
      </trkpt>
      <trkpt lat="43.90933" lon="7.24196">
        <ele>760</ele>
        <time>2017-08-21T00:07:54Z</time>
      </trkpt>
      <trkpt lat="43.90966" lon="7.24216">
        <ele>770</ele>
        <time>2017-08-21T00:09:54Z</time>
      </trkpt>
      <trkpt lat="43.90999" lon="7.24239">
        <ele>775</ele>
        <time>2017-08-21T00:11:54Z</time>
      </trkpt>
      <trkpt lat="43.91037" lon="7.24272">
        <ele>784</ele>
        <time>2017-08-21T00:13:54Z</time>
      </trkpt>
      <trkpt lat="43.91054" lon="7.24294">
        <ele>788</ele>
        <time>2017-08-21T00:15:54Z</time>
      </trkpt>
      <trkpt lat="43.91061" lon="7.2432">
        <ele>786</ele>
        <time>2017-08-21T00:17:54Z</time>
      </trkpt>
      <trkpt lat="43.91068" lon="7.24361">
        <ele>782</ele>
        <time>2017-08-21T00:19:54Z</time>
      </trkpt>
      <trkpt lat="43.9107" lon="7.2439">
        <ele>779</ele>
        <time>2017-08-21T00:21:54Z</time>
      </trkpt>
      <trkpt lat="43.91065" lon="7.24424">
        <ele>770</ele>
        <time>2017-08-21T00:23:54Z</time>
      </trkpt>
      <trkpt lat="43.91078" lon="7.2446">
        <ele>776</ele>
        <time>2017-08-21T00:25:54Z</time>
      </trkpt>
      <trkpt lat="43.91098" lon="7.24475">
        <ele>784</ele>
        <time>2017-08-21T00:27:54Z</time>
      </trkpt>
      <trkpt lat="43.9112" lon="7.24492">
        <ele>790</ele>
        <time>2017-08-21T00:29:54Z</time>
      </trkpt>
      <trkpt lat="43.91153" lon="7.24507">
        <ele>797</ele>
        <time>2017-08-21T00:31:54Z</time>
      </trkpt>
      <trkpt lat="43.91188" lon="7.24516">
        <ele>802</ele>
        <time>2017-08-21T00:33:54Z</time>
      </trkpt>
      <trkpt lat="43.91226" lon="7.24524">
        <ele>804</ele>
        <time>2017-08-21T00:35:54Z</time>
      </trkpt>
      <trkpt lat="43.9125" lon="7.24531">
        <ele>804</ele>
        <time>2017-08-21T00:37:54Z</time>
      </trkpt>
      <trkpt lat="43.91272" lon="7.24527">
        <ele>805</ele>
        <time>2017-08-21T00:39:54Z</time>
      </trkpt>
      <trkpt lat="43.91305" lon="7.24525">
        <ele>805</ele>
        <time>2017-08-21T00:41:54Z</time>
      </trkpt>
      <trkpt lat="43.91319" lon="7.24515">
        <ele>810</ele>
        <time>2017-08-21T00:43:54Z</time>
      </trkpt>
      <trkpt lat="43.9134" lon="7.24521">
        <ele>804</ele>
        <time>2017-08-21T00:45:54Z</time>
      </trkpt>
      <trkpt lat="43.91409" lon="7.24507">
        <ele>789</ele>
        <time>2017-08-21T00:47:54Z</time>
      </trkpt>
      <trkpt lat="43.91431" lon="7.24503">
        <ele>782</ele>
        <time>2017-08-21T00:49:54Z</time>
      </trkpt>
      <trkpt lat="43.91442" lon="7.24483">
        <ele>781</ele>
        <time>2017-08-21T00:51:54Z</time>
      </trkpt>
      <trkpt lat="43.91452" lon="7.24417">
        <ele>788</ele>
        <time>2017-08-21T00:53:54Z</time>
      </trkpt>
      <trkpt lat="43.91471" lon="7.24352">
        <ele>782</ele>
        <time>2017-08-21T00:55:54Z</time>
      </trkpt>
      <trkpt lat="43.9148" lon="7.24327">
        <ele>780</ele>
        <time>2017-08-21T00:57:54Z</time>
      </trkpt>
      <trkpt lat="43.91486" lon="7.24306">
        <ele>780</ele>
        <time>2017-08-21T00:59:54Z</time>
      </trkpt>
      <trkpt lat="43.915" lon="7.24302">
        <ele>774</ele>
        <time>2017-08-21T01:01:54Z</time>
      </trkpt>
      <trkpt lat="43.91514" lon="7.24287">
        <ele>777</ele>
        <time>2017-08-21T01:03:54Z</time>
      </trkpt>
      <trkpt lat="43.91522" lon="7.24308">
        <ele>772</ele>
        <time>2017-08-21T01:05:54Z</time>
      </trkpt>
      <trkpt lat="43.91531" lon="7.24322">
        <ele>767</ele>
        <time>2017-08-21T01:07:54Z</time>
      </trkpt>
      <trkpt lat="43.9155" lon="7.24329">
        <ele>764</ele>
        <time>2017-08-21T01:09:54Z</time>
      </trkpt>
      <trkpt lat="43.91568" lon="7.24337">
        <ele>760</ele>
        <time>2017-08-21T01:11:54Z</time>
      </trkpt>
      <trkpt lat="43.91581" lon="7.24342">
        <ele>758</ele>
        <time>2017-08-21T01:13:54Z</time>
      </trkpt>
      <trkpt lat="43.91599" lon="7.24336">
        <ele>759</ele>
        <time>2017-08-21T01:15:54Z</time>
      </trkpt>
      <trkpt lat="43.91614" lon="7.24322">
        <ele>764</ele>
        <time>2017-08-21T01:17:54Z</time>
      </trkpt>
      <trkpt lat="43.91633" lon="7.24322">
        <ele>764</ele>
        <time>2017-08-21T01:19:54Z</time>
      </trkpt>
      <trkpt lat="43.91654" lon="7.24329">
        <ele>762</ele>
        <time>2017-08-21T01:21:54Z</time>
      </trkpt>
      <trkpt lat="43.91673" lon="7.24323">
        <ele>765</ele>
        <time>2017-08-21T01:23:54Z</time>
      </trkpt>
      <trkpt lat="43.91682" lon="7.24324">
        <ele>766</ele>
        <time>2017-08-21T01:25:54Z</time>
      </trkpt>
      <trkpt lat="43.91686" lon="7.24338">
        <ele>765</ele>
        <time>2017-08-21T01:27:54Z</time>
      </trkpt>
      <trkpt lat="43.91698" lon="7.24359">
        <ele>768</ele>
        <time>2017-08-21T01:29:54Z</time>
      </trkpt>
      <trkpt lat="43.91711" lon="7.2438">
        <ele>770</ele>
        <time>2017-08-21T01:31:54Z</time>
      </trkpt>
      <trkpt lat="43.91714" lon="7.24421">
        <ele>772</ele>
        <time>2017-08-21T01:33:54Z</time>
      </trkpt>
      <trkpt lat="43.91711" lon="7.24446">
        <ele>775</ele>
        <time>2017-08-21T01:35:54Z</time>
      </trkpt>
      <trkpt lat="43.91704" lon="7.24466">
        <ele>776</ele>
        <time>2017-08-21T01:37:54Z</time>
      </trkpt>
      <trkpt lat="43.91712" lon="7.24495">
        <ele>781</ele>
        <time>2017-08-21T01:39:54Z</time>
      </trkpt>
      <trkpt lat="43.91712" lon="7.24513">
        <ele>783</ele>
        <time>2017-08-21T01:41:54Z</time>
      </trkpt>
      <trkpt lat="43.91717" lon="7.24554">
        <ele>788</ele>
        <time>2017-08-21T01:43:54Z</time>
      </trkpt>
      <trkpt lat="43.91715" lon="7.24587">
        <ele>792</ele>
        <time>2017-08-21T01:45:54Z</time>
      </trkpt>
      <trkpt lat="43.91711" lon="7.24607">
        <ele>794</ele>
        <time>2017-08-21T01:47:54Z</time>
      </trkpt>
      <trkpt lat="43.91706" lon="7.24619">
        <ele>794</ele>
        <time>2017-08-21T01:49:54Z</time>
      </trkpt>
      <trkpt lat="43.91711" lon="7.24665">
        <ele>801</ele>
        <time>2017-08-21T01:51:54Z</time>
      </trkpt>
      <trkpt lat="43.91711" lon="7.24697">
        <ele>802</ele>
        <time>2017-08-21T01:53:54Z</time>
      </trkpt>
      <trkpt lat="43.91701" lon="7.2476">
        <ele>802</ele>
        <time>2017-08-21T01:55:54Z</time>
      </trkpt>
      <trkpt lat="43.91708" lon="7.24758">
        <ele>802</ele>
        <time>2017-08-21T01:57:54Z</time>
      </trkpt>
      <trkpt lat="43.91719" lon="7.24752">
        <ele>803</ele>
        <time>2017-08-21T01:59:54Z</time>
      </trkpt>
      <trkpt lat="43.91732" lon="7.24737">
        <ele>804</ele>
        <time>2017-08-21T02:01:54Z</time>
      </trkpt>
      <trkpt lat="43.91747" lon="7.24719">
        <ele>806</ele>
        <time>2017-08-21T02:03:54Z</time>
      </trkpt>
      <trkpt lat="43.91765" lon="7.24703">
        <ele>804</ele>
        <time>2017-08-21T02:05:54Z</time>
      </trkpt>
      <trkpt lat="43.91773" lon="7.24687">
        <ele>804</ele>
        <time>2017-08-21T02:07:54Z</time>
      </trkpt>
      <trkpt lat="43.91782" lon="7.2467">
        <ele>805</ele>
        <time>2017-08-21T02:09:54Z</time>
      </trkpt>
      <trkpt lat="43.91793" lon="7.24646">
        <ele>804</ele>
        <time>2017-08-21T02:11:54Z</time>
      </trkpt>
      <trkpt lat="43.91807" lon="7.24627">
        <ele>804</ele>
        <time>2017-08-21T02:13:54Z</time>
      </trkpt>
      <trkpt lat="43.91823" lon="7.24608">
        <ele>806</ele>
        <time>2017-08-21T02:15:54Z</time>
      </trkpt>
      <trkpt lat="43.91833" lon="7.24595">
        <ele>808</ele>
        <time>2017-08-21T02:17:54Z</time>
      </trkpt>
      <trkpt lat="43.9184" lon="7.2457">
        <ele>808</ele>
        <time>2017-08-21T02:19:54Z</time>
      </trkpt>
      <trkpt lat="43.91847" lon="7.24553">
        <ele>807</ele>
        <time>2017-08-21T02:21:54Z</time>
      </trkpt>
      <trkpt lat="43.91861" lon="7.24539">
        <ele>808</ele>
        <time>2017-08-21T02:23:54Z</time>
      </trkpt>
      <trkpt lat="43.91878" lon="7.24528">
        <ele>809</ele>
        <time>2017-08-21T02:25:54Z</time>
      </trkpt>
      <trkpt lat="43.91904" lon="7.24523">
        <ele>811</ele>
        <time>2017-08-21T02:27:54Z</time>
      </trkpt>
      <trkpt lat="43.91918" lon="7.24522">
        <ele>812</ele>
        <time>2017-08-21T02:29:54Z</time>
      </trkpt>
      <trkpt lat="43.9193" lon="7.24515">
        <ele>814</ele>
        <time>2017-08-21T02:31:54Z</time>
      </trkpt>
      <trkpt lat="43.91939" lon="7.24494">
        <ele>818</ele>
        <time>2017-08-21T02:33:54Z</time>
      </trkpt>
      <trkpt lat="43.91953" lon="7.24479">
        <ele>819</ele>
        <time>2017-08-21T02:35:54Z</time>
      </trkpt>
      <trkpt lat="43.9197" lon="7.24478">
        <ele>820</ele>
        <time>2017-08-21T02:37:54Z</time>
      </trkpt>
      <trkpt lat="43.91992" lon="7.24471">
        <ele>823</ele>
        <time>2017-08-21T02:39:54Z</time>
      </trkpt>
      <trkpt lat="43.92011" lon="7.2445">
        <ele>828</ele>
        <time>2017-08-21T02:41:54Z</time>
      </trkpt>
      <trkpt lat="43.9202" lon="7.24433">
        <ele>833</ele>
        <time>2017-08-21T02:43:54Z</time>
      </trkpt>
      <trkpt lat="43.92035" lon="7.244">
        <ele>844</ele>
        <time>2017-08-21T02:45:54Z</time>
      </trkpt>
      <trkpt lat="43.92052" lon="7.24369">
        <ele>858</ele>
        <time>2017-08-21T02:47:54Z</time>
      </trkpt>
      <trkpt lat="43.92051" lon="7.24354">
        <ele>862</ele>
        <time>2017-08-21T02:49:54Z</time>
      </trkpt>
      <trkpt lat="43.92065" lon="7.24361">
        <ele>865</ele>
        <time>2017-08-21T02:51:54Z</time>
      </trkpt>
      <trkpt lat="43.9209" lon="7.24375">
        <ele>869</ele>
        <time>2017-08-21T02:53:54Z</time>
      </trkpt>
      <trkpt lat="43.92109" lon="7.24372">
        <ele>877</ele>
        <time>2017-08-21T02:55:54Z</time>
      </trkpt>
      <trkpt lat="43.92126" lon="7.24374">
        <ele>881</ele>
        <time>2017-08-21T02:57:54Z</time>
      </trkpt>
      <trkpt lat="43.92135" lon="7.24361">
        <ele>891</ele>
        <time>2017-08-21T02:59:54Z</time>
      </trkpt>
      <trkpt lat="43.92147" lon="7.24341">
        <ele>908</ele>
        <time>2017-08-21T03:01:54Z</time>
      </trkpt>
      <trkpt lat="43.92161" lon="7.24329">
        <ele>920</ele>
        <time>2017-08-21T03:03:54Z</time>
      </trkpt>
      <trkpt lat="43.92177" lon="7.24324">
        <ele>927</ele>
        <time>2017-08-21T03:05:54Z</time>
      </trkpt>
      <trkpt lat="43.92196" lon="7.24332">
        <ele>930</ele>
        <time>2017-08-21T03:07:54Z</time>
      </trkpt>
      <trkpt lat="43.92207" lon="7.24351">
        <ele>924</ele>
        <time>2017-08-21T03:09:54Z</time>
      </trkpt>
      <trkpt lat="43.92215" lon="7.24373">
        <ele>917</ele>
        <time>2017-08-21T03:11:54Z</time>
      </trkpt>
      <trkpt lat="43.92228" lon="7.24363">
        <ele>927</ele>
        <time>2017-08-21T03:13:54Z</time>
      </trkpt>
      <trkpt lat="43.92238" lon="7.24362">
        <ele>931</ele>
        <time>2017-08-21T03:15:54Z</time>
      </trkpt>
      <trkpt lat="43.9225" lon="7.24369">
        <ele>933</ele>
        <time>2017-08-21T03:17:54Z</time>
      </trkpt>
      <trkpt lat="43.92252" lon="7.24383">
        <ele>930</ele>
        <time>2017-08-21T03:19:54Z</time>
      </trkpt>
      <trkpt lat="43.92261" lon="7.24383">
        <ele>936</ele>
        <time>2017-08-21T03:21:54Z</time>
      </trkpt>
      <trkpt lat="43.92278" lon="7.24383">
        <ele>949</ele>
        <time>2017-08-21T03:23:54Z</time>
      </trkpt>
      <trkpt lat="43.92286" lon="7.24388">
        <ele>953</ele>
        <time>2017-08-21T03:25:54Z</time>
      </trkpt>
      <trkpt lat="43.923" lon="7.24389">
        <ele>964</ele>
        <time>2017-08-21T03:27:54Z</time>
      </trkpt>
      <trkpt lat="43.92309" lon="7.24398">
        <ele>967</ele>
        <time>2017-08-21T03:29:54Z</time>
      </trkpt>
      <trkpt lat="43.92311" lon="7.24418">
        <ele>961</ele>
        <time>2017-08-21T03:31:54Z</time>
      </trkpt>
      <trkpt lat="43.92306" lon="7.24435">
        <ele>953</ele>
        <time>2017-08-21T03:33:54Z</time>
      </trkpt>
      <trkpt lat="43.9231" lon="7.24451">
        <ele>952</ele>
        <time>2017-08-21T03:35:54Z</time>
      </trkpt>
      <trkpt lat="43.92315" lon="7.2447">
        <ele>951</ele>
        <time>2017-08-21T03:37:54Z</time>
      </trkpt>
      <trkpt lat="43.9233" lon="7.24496">
        <ele>956</ele>
        <time>2017-08-21T03:39:54Z</time>
      </trkpt>
      <trkpt lat="43.92335" lon="7.24489">
        <ele>962</ele>
        <time>2017-08-21T03:41:54Z</time>
      </trkpt>
      <trkpt lat="43.92347" lon="7.24513">
        <ele>962</ele>
        <time>2017-08-21T03:43:54Z</time>
      </trkpt>
      <trkpt lat="43.92375" lon="7.24563">
        <ele>961</ele>
        <time>2017-08-21T03:45:54Z</time>
      </trkpt>
      <trkpt lat="43.92398" lon="7.24567">
        <ele>969</ele>
        <time>2017-08-21T03:47:54Z</time>
      </trkpt>
      <trkpt lat="43.92409" lon="7.24579">
        <ele>968</ele>
        <time>2017-08-21T03:49:54Z</time>
      </trkpt>
      <trkpt lat="43.92419" lon="7.24571">
        <ele>974</ele>
        <time>2017-08-21T03:51:54Z</time>
      </trkpt>
      <trkpt lat="43.92432" lon="7.24554">
        <ele>981</ele>
        <time>2017-08-21T03:53:54Z</time>
      </trkpt>
      <trkpt lat="43.92445" lon="7.24527">
        <ele>992</ele>
        <time>2017-08-21T03:55:54Z</time>
      </trkpt>
      <trkpt lat="43.92458" lon="7.2451">
        <ele>1001</ele>
        <time>2017-08-21T03:57:54Z</time>
      </trkpt>
      <trkpt lat="43.92459" lon="7.24499">
        <ele>1006</ele>
        <time>2017-08-21T03:59:54Z</time>
      </trkpt>
      <trkpt lat="43.92487" lon="7.24485">
        <ele>1013</ele>
        <time>2017-08-21T04:01:54Z</time>
      </trkpt>
      <trkpt lat="43.92464" lon="7.24484">
        <ele>1012</ele>
        <time>2017-08-21T04:03:54Z</time>
      </trkpt>
      <trkpt lat="43.9248" lon="7.24474">
        <ele>1017</ele>
        <time>2017-08-21T04:05:54Z</time>
      </trkpt>
      <trkpt lat="43.92493" lon="7.2446">
        <ele>1024</ele>
        <time>2017-08-21T04:07:54Z</time>
      </trkpt>
      <trkpt lat="43.92513" lon="7.24441">
        <ele>1038</ele>
        <time>2017-08-21T04:09:54Z</time>
      </trkpt>
      <trkpt lat="43.92533" lon="7.24434">
        <ele>1048</ele>
        <time>2017-08-21T04:11:54Z</time>
      </trkpt>
      <trkpt lat="43.92547" lon="7.24428">
        <ele>1055</ele>
        <time>2017-08-21T04:13:54Z</time>
      </trkpt>
      <trkpt lat="43.92527" lon="7.24417">
        <ele>1054</ele>
        <time>2017-08-21T04:15:54Z</time>
      </trkpt>
      <trkpt lat="43.92548" lon="7.2441">
        <ele>1063</ele>
        <time>2017-08-21T04:17:54Z</time>
      </trkpt>
      <trkpt lat="43.92572" lon="7.24403">
        <ele>1072</ele>
        <time>2017-08-21T04:19:54Z</time>
      </trkpt>
      <trkpt lat="43.92585" lon="7.24425">
        <ele>1068</ele>
        <time>2017-08-21T04:21:54Z</time>
      </trkpt>
      <trkpt lat="43.92587" lon="7.24439">
        <ele>1062</ele>
        <time>2017-08-21T04:23:54Z</time>
      </trkpt>
      <trkpt lat="43.92592" lon="7.24455">
        <ele>1057</ele>
        <time>2017-08-21T04:25:54Z</time>
      </trkpt>
      <trkpt lat="43.92602" lon="7.24464">
        <ele>1057</ele>
        <time>2017-08-21T04:27:54Z</time>
      </trkpt>
      <trkpt lat="43.92616" lon="7.24456">
        <ele>1065</ele>
        <time>2017-08-21T04:29:54Z</time>
      </trkpt>
      <trkpt lat="43.92646" lon="7.24448">
        <ele>1079</ele>
        <time>2017-08-21T04:31:54Z</time>
      </trkpt>
      <trkpt lat="43.92665" lon="7.24441">
        <ele>1089</ele>
        <time>2017-08-21T04:33:54Z</time>
      </trkpt>
      <trkpt lat="43.9268" lon="7.24461">
        <ele>1084</ele>
        <time>2017-08-21T04:35:54Z</time>
      </trkpt>
      <trkpt lat="43.92696" lon="7.24465">
        <ele>1085</ele>
        <time>2017-08-21T04:37:54Z</time>
      </trkpt>
      <trkpt lat="43.9272" lon="7.24463">
        <ele>1091</ele>
        <time>2017-08-21T04:39:54Z</time>
      </trkpt>
      <trkpt lat="43.92726" lon="7.24484">
        <ele>1086</ele>
        <time>2017-08-21T04:41:54Z</time>
      </trkpt>
      <trkpt lat="43.92744" lon="7.24523">
        <ele>1075</ele>
        <time>2017-08-21T04:43:54Z</time>
      </trkpt>
      <trkpt lat="43.92749" lon="7.24536">
        <ele>1070</ele>
        <time>2017-08-21T04:45:54Z</time>
      </trkpt>
      <trkpt lat="43.92765" lon="7.24533">
        <ele>1074</ele>
        <time>2017-08-21T04:47:54Z</time>
      </trkpt>
      <trkpt lat="43.92782" lon="7.2453">
        <ele>1079</ele>
        <time>2017-08-21T04:49:54Z</time>
      </trkpt>
      <trkpt lat="43.92814" lon="7.24521">
        <ele>1089</ele>
        <time>2017-08-21T04:51:54Z</time>
      </trkpt>
      <trkpt lat="43.92827" lon="7.24515">
        <ele>1094</ele>
        <time>2017-08-21T04:53:54Z</time>
      </trkpt>
      <trkpt lat="43.92839" lon="7.24529">
        <ele>1088</ele>
        <time>2017-08-21T04:55:54Z</time>
      </trkpt>
      <trkpt lat="43.92852" lon="7.24533">
        <ele>1087</ele>
        <time>2017-08-21T04:57:54Z</time>
      </trkpt>
      <trkpt lat="43.92865" lon="7.24518">
        <ele>1096</ele>
        <time>2017-08-21T04:59:54Z</time>
      </trkpt>
      <trkpt lat="43.92881" lon="7.24518">
        <ele>1097</ele>
        <time>2017-08-21T05:01:54Z</time>
      </trkpt>
      <trkpt lat="43.92898" lon="7.24496">
        <ele>1109</ele>
        <time>2017-08-21T05:03:54Z</time>
      </trkpt>
      <trkpt lat="43.9292" lon="7.24505">
        <ele>1107</ele>
        <time>2017-08-21T05:05:54Z</time>
      </trkpt>
      <trkpt lat="43.92942" lon="7.24492">
        <ele>1117</ele>
        <time>2017-08-21T05:07:54Z</time>
      </trkpt>
      <trkpt lat="43.92956" lon="7.24499">
        <ele>1116</ele>
        <time>2017-08-21T05:09:54Z</time>
      </trkpt>
      <trkpt lat="43.9297" lon="7.245">
        <ele>1119</ele>
        <time>2017-08-21T05:11:54Z</time>
      </trkpt>
      <trkpt lat="43.92991" lon="7.24511">
        <ele>1117</ele>
        <time>2017-08-21T05:13:54Z</time>
      </trkpt>
      <trkpt lat="43.93006" lon="7.24512">
        <ele>1120</ele>
        <time>2017-08-21T05:15:54Z</time>
      </trkpt>
      <trkpt lat="43.93023" lon="7.24495">
        <ele>1132</ele>
        <time>2017-08-21T05:17:54Z</time>
      </trkpt>
      <trkpt lat="43.93044" lon="7.24503">
        <ele>1135</ele>
        <time>2017-08-21T05:19:54Z</time>
      </trkpt>
      <trkpt lat="43.93057" lon="7.24514">
        <ele>1133</ele>
        <time>2017-08-21T05:21:54Z</time>
      </trkpt>
      <trkpt lat="43.93064" lon="7.24531">
        <ele>1127</ele>
        <time>2017-08-21T05:23:54Z</time>
      </trkpt>
      <trkpt lat="43.93092" lon="7.2452">
        <ele>1139</ele>
        <time>2017-08-21T05:25:54Z</time>
      </trkpt>
      <trkpt lat="43.93108" lon="7.24519">
        <ele>1142</ele>
        <time>2017-08-21T05:27:54Z</time>
      </trkpt>
      <trkpt lat="43.93128" lon="7.24528">
        <ele>1140</ele>
        <time>2017-08-21T05:29:54Z</time>
      </trkpt>
      <trkpt lat="43.9314" lon="7.24539">
        <ele>1136</ele>
        <time>2017-08-21T05:31:54Z</time>
      </trkpt>
      <trkpt lat="43.93156" lon="7.24535">
        <ele>1140</ele>
        <time>2017-08-21T05:33:54Z</time>
      </trkpt>
      <trkpt lat="43.93169" lon="7.24521">
        <ele>1148</ele>
        <time>2017-08-21T05:35:54Z</time>
      </trkpt>
      <trkpt lat="43.93197" lon="7.24479">
        <ele>1161</ele>
        <time>2017-08-21T05:37:54Z</time>
      </trkpt>
      <trkpt lat="43.93217" lon="7.24449">
        <ele>1169</ele>
        <time>2017-08-21T05:39:54Z</time>
      </trkpt>
      <trkpt lat="43.93234" lon="7.24437">
        <ele>1170</ele>
        <time>2017-08-21T05:41:54Z</time>
      </trkpt>
      <trkpt lat="43.93251" lon="7.24417">
        <ele>1176</ele>
        <time>2017-08-21T05:43:54Z</time>
      </trkpt>
      <trkpt lat="43.93278" lon="7.24394">
        <ele>1178</ele>
        <time>2017-08-21T05:45:54Z</time>
      </trkpt>
      <trkpt lat="43.93308" lon="7.24383">
        <ele>1181</ele>
        <time>2017-08-21T05:47:54Z</time>
      </trkpt>
      <trkpt lat="43.93327" lon="7.24367">
        <ele>1187</ele>
        <time>2017-08-21T05:49:54Z</time>
      </trkpt>
      <trkpt lat="43.93351" lon="7.24366">
        <ele>1189</ele>
        <time>2017-08-21T05:51:54Z</time>
      </trkpt>
      <trkpt lat="43.93381" lon="7.24338">
        <ele>1199</ele>
        <time>2017-08-21T05:53:54Z</time>
      </trkpt>
      <trkpt lat="43.93413" lon="7.24317">
        <ele>1198</ele>
        <time>2017-08-21T05:55:54Z</time>
      </trkpt>
      <trkpt lat="43.93435" lon="7.24301">
        <ele>1195</ele>
        <time>2017-08-21T05:57:54Z</time>
      </trkpt>
      <trkpt lat="43.93472" lon="7.24323">
        <ele>1199</ele>
        <time>2017-08-21T05:59:54Z</time>
      </trkpt>
      <trkpt lat="43.93506" lon="7.24346">
        <ele>1204</ele>
        <time>2017-08-21T06:01:54Z</time>
      </trkpt>
      <trkpt lat="43.93534" lon="7.24343">
        <ele>1209</ele>
        <time>2017-08-21T06:03:54Z</time>
      </trkpt>
      <trkpt lat="43.93559" lon="7.2435">
        <ele>1217</ele>
        <time>2017-08-21T06:05:54Z</time>
      </trkpt>
      <trkpt lat="43.93572" lon="7.24345">
        <ele>1216</ele>
        <time>2017-08-21T06:07:54Z</time>
      </trkpt>
      <trkpt lat="43.93582" lon="7.24331">
        <ele>1208</ele>
        <time>2017-08-21T06:09:54Z</time>
      </trkpt>
      <trkpt lat="43.93596" lon="7.24333">
        <ele>1216</ele>
        <time>2017-08-21T06:11:54Z</time>
      </trkpt>
      <trkpt lat="43.93612" lon="7.24338">
        <ele>1228</ele>
        <time>2017-08-21T06:13:54Z</time>
      </trkpt>
      <trkpt lat="43.93644" lon="7.24327">
        <ele>1238</ele>
        <time>2017-08-21T06:15:54Z</time>
      </trkpt>
      <trkpt lat="43.93665" lon="7.24314">
        <ele>1239</ele>
        <time>2017-08-21T06:17:54Z</time>
      </trkpt>
      <trkpt lat="43.93674" lon="7.24292">
        <ele>1226</ele>
        <time>2017-08-21T06:19:54Z</time>
      </trkpt>
      <trkpt lat="43.9369" lon="7.24281">
        <ele>1226</ele>
        <time>2017-08-21T06:21:54Z</time>
      </trkpt>
      <trkpt lat="43.93707" lon="7.2427">
        <ele>1228</ele>
        <time>2017-08-21T06:23:54Z</time>
      </trkpt>
      <trkpt lat="43.9371" lon="7.24251">
        <ele>1217</ele>
        <time>2017-08-21T06:25:54Z</time>
      </trkpt>
      <trkpt lat="43.93717" lon="7.24239">
        <ele>1215</ele>
        <time>2017-08-21T06:27:54Z</time>
      </trkpt>
      <trkpt lat="43.9373" lon="7.24234">
        <ele>1221</ele>
        <time>2017-08-21T06:29:54Z</time>
      </trkpt>
      <trkpt lat="43.93746" lon="7.24232">
        <ele>1230</ele>
        <time>2017-08-21T06:31:54Z</time>
      </trkpt>
      <trkpt lat="43.93761" lon="7.24221">
        <ele>1237</ele>
        <time>2017-08-21T06:33:54Z</time>
      </trkpt>
      <trkpt lat="43.93779" lon="7.24196">
        <ele>1241</ele>
        <time>2017-08-21T06:35:54Z</time>
      </trkpt>
      <trkpt lat="43.93781" lon="7.24168">
        <ele>1232</ele>
        <time>2017-08-21T06:37:54Z</time>
      </trkpt>
      <trkpt lat="43.938" lon="7.24141">
        <ele>1248</ele>
        <time>2017-08-21T06:39:54Z</time>
      </trkpt>
      <trkpt lat="43.93795" lon="7.24118">
        <ele>1240</ele>
        <time>2017-08-21T06:41:54Z</time>
      </trkpt>
      <trkpt lat="43.93795" lon="7.24071">
        <ele>1234</ele>
        <time>2017-08-21T06:43:54Z</time>
      </trkpt>
      <trkpt lat="43.93787" lon="7.2406">
        <ele>1226</ele>
        <time>2017-08-21T06:45:54Z</time>
      </trkpt>
      <trkpt lat="43.93781" lon="7.24045">
        <ele>1221</ele>
        <time>2017-08-21T06:47:54Z</time>
      </trkpt>
      <trkpt lat="43.9379" lon="7.24023">
        <ele>1227</ele>
        <time>2017-08-21T06:49:54Z</time>
      </trkpt>
      <trkpt lat="43.93792" lon="7.23996">
        <ele>1225</ele>
        <time>2017-08-21T06:51:54Z</time>
      </trkpt>
      <trkpt lat="43.93812" lon="7.23974">
        <ele>1226</ele>
        <time>2017-08-21T06:53:54Z</time>
      </trkpt>
      <trkpt lat="43.93822" lon="7.23982">
        <ele>1237</ele>
        <time>2017-08-21T06:55:54Z</time>
      </trkpt>
      <trkpt lat="43.93836" lon="7.23986">
        <ele>1248</ele>
        <time>2017-08-21T06:57:54Z</time>
      </trkpt>
      <trkpt lat="43.93849" lon="7.23979">
        <ele>1250</ele>
        <time>2017-08-21T06:59:54Z</time>
      </trkpt>
      <trkpt lat="43.93866" lon="7.23986">
        <ele>1263</ele>
        <time>2017-08-21T07:01:54Z</time>
      </trkpt>
      <trkpt lat="43.93881" lon="7.23993">
        <ele>1277</ele>
        <time>2017-08-21T07:03:54Z</time>
      </trkpt>
      <trkpt lat="43.93903" lon="7.23984">
        <ele>1281</ele>
        <time>2017-08-21T07:05:54Z</time>
      </trkpt>
      <trkpt lat="43.93929" lon="7.23973">
        <ele>1280</ele>
        <time>2017-08-21T07:07:54Z</time>
      </trkpt>
      <trkpt lat="43.93961" lon="7.23962">
        <ele>1279</ele>
        <time>2017-08-21T07:09:54Z</time>
      </trkpt>
      <trkpt lat="43.93985" lon="7.23942">
        <ele>1269</ele>
        <time>2017-08-21T07:11:54Z</time>
      </trkpt>
      <trkpt lat="43.94008" lon="7.23946">
        <ele>1280</ele>
        <time>2017-08-21T07:13:54Z</time>
      </trkpt>
      <trkpt lat="43.94037" lon="7.23948">
        <ele>1293</ele>
        <time>2017-08-21T07:15:54Z</time>
      </trkpt>
      <trkpt lat="43.94057" lon="7.2392">
        <ele>1287</ele>
        <time>2017-08-21T07:17:54Z</time>
      </trkpt>
      <trkpt lat="43.94076" lon="7.23906">
        <ele>1291</ele>
        <time>2017-08-21T07:19:54Z</time>
      </trkpt>
      <trkpt lat="43.94076" lon="7.23881">
        <ele>1283</ele>
        <time>2017-08-21T07:21:54Z</time>
      </trkpt>
      <trkpt lat="43.94074" lon="7.23862">
        <ele>1275</ele>
        <time>2017-08-21T07:23:54Z</time>
      </trkpt>
      <trkpt lat="43.9408" lon="7.23847">
        <ele>1273</ele>
        <time>2017-08-21T07:25:54Z</time>
      </trkpt>
      <trkpt lat="43.94091" lon="7.23837">
        <ele>1275</ele>
        <time>2017-08-21T07:27:54Z</time>
      </trkpt>
      <trkpt lat="43.94108" lon="7.23848">
        <ele>1284</ele>
        <time>2017-08-21T07:29:54Z</time>
      </trkpt>
      <trkpt lat="43.94133" lon="7.23861">
        <ele>1299</ele>
        <time>2017-08-21T07:31:54Z</time>
      </trkpt>
      <trkpt lat="43.94162" lon="7.23865">
        <ele>1311</ele>
        <time>2017-08-21T07:33:54Z</time>
      </trkpt>
      <trkpt lat="43.94179" lon="7.23862">
        <ele>1314</ele>
        <time>2017-08-21T07:35:54Z</time>
      </trkpt>
      <trkpt lat="43.94197" lon="7.2386">
        <ele>1316</ele>
        <time>2017-08-21T07:37:54Z</time>
      </trkpt>
      <trkpt lat="43.94218" lon="7.23829">
        <ele>1310</ele>
        <time>2017-08-21T07:39:54Z</time>
      </trkpt>
      <trkpt lat="43.94218" lon="7.23815">
        <ele>1307</ele>
        <time>2017-08-21T07:41:54Z</time>
      </trkpt>
      <trkpt lat="43.94226" lon="7.23799">
        <ele>1306</ele>
        <time>2017-08-21T07:43:54Z</time>
      </trkpt>
      <trkpt lat="43.94238" lon="7.23772">
        <ele>1305</ele>
        <time>2017-08-21T07:45:54Z</time>
      </trkpt>
      <trkpt lat="43.9425" lon="7.23754">
        <ele>1307</ele>
        <time>2017-08-21T07:47:54Z</time>
      </trkpt>
      <trkpt lat="43.94257" lon="7.23725">
        <ele>1301</ele>
        <time>2017-08-21T07:49:54Z</time>
      </trkpt>
      <trkpt lat="43.94269" lon="7.23717">
        <ele>1299</ele>
        <time>2017-08-21T07:51:54Z</time>
      </trkpt>
      <trkpt lat="43.94275" lon="7.23727">
        <ele>1300</ele>
        <time>2017-08-21T07:53:54Z</time>
      </trkpt>
      <trkpt lat="43.9426" lon="7.23763">
        <ele>1307</ele>
        <time>2017-08-21T07:55:54Z</time>
      </trkpt>
      <trkpt lat="43.94249" lon="7.23799">
        <ele>1314</ele>
        <time>2017-08-21T07:57:54Z</time>
      </trkpt>
      <trkpt lat="43.94243" lon="7.23839">
        <ele>1320</ele>
        <time>2017-08-21T07:59:54Z</time>
      </trkpt>
      <trkpt lat="43.9423" lon="7.23895">
        <ele>1333</ele>
        <time>2017-08-21T08:01:54Z</time>
      </trkpt>
      <trkpt lat="43.94232" lon="7.23915">
        <ele>1338</ele>
        <time>2017-08-21T08:03:54Z</time>
      </trkpt>
      <trkpt lat="43.94231" lon="7.2395">
        <ele>1350</ele>
        <time>2017-08-21T08:05:54Z</time>
      </trkpt>
      <trkpt lat="43.94238" lon="7.2397">
        <ele>1357</ele>
        <time>2017-08-21T08:07:54Z</time>
      </trkpt>
      <trkpt lat="43.94257" lon="7.23985">
        <ele>1360</ele>
        <time>2017-08-21T08:09:54Z</time>
      </trkpt>
      <trkpt lat="43.9428" lon="7.23988">
        <ele>1358</ele>
        <time>2017-08-21T08:11:54Z</time>
      </trkpt>
      <trkpt lat="43.94304" lon="7.24">
        <ele>1359</ele>
        <time>2017-08-21T08:13:54Z</time>
      </trkpt>
      <trkpt lat="43.94343" lon="7.24005">
        <ele>1357</ele>
        <time>2017-08-21T08:15:54Z</time>
      </trkpt>
      <trkpt lat="43.94414" lon="7.24009">
        <ele>1358</ele>
        <time>2017-08-21T08:17:54Z</time>
      </trkpt>
      <trkpt lat="43.94431" lon="7.24011">
        <ele>1359</ele>
        <time>2017-08-21T08:19:54Z</time>
      </trkpt>
      <trkpt lat="43.94451" lon="7.2401">
        <ele>1360</ele>
        <time>2017-08-21T08:21:54Z</time>
      </trkpt>
      <trkpt lat="43.94478" lon="7.24006">
        <ele>1359</ele>
        <time>2017-08-21T08:23:54Z</time>
      </trkpt>
      <trkpt lat="43.94512" lon="7.23988">
        <ele>1351</ele>
        <time>2017-08-21T08:25:54Z</time>
      </trkpt>
      <trkpt lat="43.94543" lon="7.23975">
        <ele>1341</ele>
        <time>2017-08-21T08:27:54Z</time>
      </trkpt>
      <trkpt lat="43.94558" lon="7.24032">
        <ele>1357</ele>
        <time>2017-08-21T08:29:54Z</time>
      </trkpt>
      <trkpt lat="43.94553" lon="7.24103">
        <ele>1370</ele>
        <time>2017-08-21T08:31:54Z</time>
      </trkpt>
      <trkpt lat="43.94572" lon="7.24138">
        <ele>1369</ele>
        <time>2017-08-21T08:33:54Z</time>
      </trkpt>
      <trkpt lat="43.94634" lon="7.24263">
        <ele>1360</ele>
        <time>2017-08-21T08:35:54Z</time>
      </trkpt>
      <trkpt lat="43.94652" lon="7.24283">
        <ele>1362</ele>
        <time>2017-08-21T08:37:54Z</time>
      </trkpt>
      <trkpt lat="43.94654" lon="7.24295">
        <ele>1363</ele>
        <time>2017-08-21T08:39:54Z</time>
      </trkpt>
      <trkpt lat="43.94671" lon="7.24313">
        <ele>1371</ele>
        <time>2017-08-21T08:41:54Z</time>
      </trkpt>
      <trkpt lat="43.94686" lon="7.24319">
        <ele>1379</ele>
        <time>2017-08-21T08:43:54Z</time>
      </trkpt>
      <trkpt lat="43.94693" lon="7.2432">
        <ele>1383</ele>
        <time>2017-08-21T08:45:54Z</time>
      </trkpt>
      <trkpt lat="43.94698" lon="7.24334">
        <ele>1387</ele>
        <time>2017-08-21T08:47:54Z</time>
      </trkpt>
      <trkpt lat="43.94699" lon="7.24345">
        <ele>1390</ele>
        <time>2017-08-21T08:49:54Z</time>
      </trkpt>
      <trkpt lat="43.94712" lon="7.24347">
        <ele>1397</ele>
        <time>2017-08-21T08:51:54Z</time>
      </trkpt>
      <trkpt lat="43.94719" lon="7.24356">
        <ele>1403</ele>
        <time>2017-08-21T08:53:54Z</time>
      </trkpt>
      <trkpt lat="43.94729" lon="7.24345">
        <ele>1406</ele>
        <time>2017-08-21T08:55:54Z</time>
      </trkpt>
      <trkpt lat="43.94733" lon="7.2436">
        <ele>1412</ele>
        <time>2017-08-21T08:57:54Z</time>
      </trkpt>
      <trkpt lat="43.94748" lon="7.2435">
        <ele>1417</ele>
        <time>2017-08-21T08:59:54Z</time>
      </trkpt>
      <trkpt lat="43.94756" lon="7.24354">
        <ele>1422</ele>
        <time>2017-08-21T09:01:54Z</time>
      </trkpt>
      <trkpt lat="43.94753" lon="7.24374">
        <ele>1426</ele>
        <time>2017-08-21T09:03:54Z</time>
      </trkpt>
      <trkpt lat="43.94781" lon="7.24365">
        <ele>1436</ele>
        <time>2017-08-21T09:05:54Z</time>
      </trkpt>
      <trkpt lat="43.94775" lon="7.24397">
        <ele>1443</ele>
        <time>2017-08-21T09:07:54Z</time>
      </trkpt>
      <trkpt lat="43.94796" lon="7.24393">
        <ele>1451</ele>
        <time>2017-08-21T09:09:54Z</time>
      </trkpt>
      <trkpt lat="43.94786" lon="7.24425">
        <ele>1457</ele>
        <time>2017-08-21T09:11:54Z</time>
      </trkpt>
      <trkpt lat="43.94797" lon="7.2442">
        <ele>1461</ele>
        <time>2017-08-21T09:13:54Z</time>
      </trkpt>
      <trkpt lat="43.94813" lon="7.24406">
        <ele>1464</ele>
        <time>2017-08-21T09:15:54Z</time>
      </trkpt>
      <trkpt lat="43.94827" lon="7.24392">
        <ele>1465</ele>
        <time>2017-08-21T09:17:54Z</time>
      </trkpt>
      <trkpt lat="43.94853" lon="7.24372">
        <ele>1473</ele>
        <time>2017-08-21T09:19:54Z</time>
      </trkpt>
      <trkpt lat="43.94873" lon="7.24339">
        <ele>1472</ele>
        <time>2017-08-21T09:21:54Z</time>
      </trkpt>
      <trkpt lat="43.94886" lon="7.24349">
        <ele>1484</ele>
        <time>2017-08-21T09:23:54Z</time>
      </trkpt>
      <trkpt lat="43.94883" lon="7.24374">
        <ele>1491</ele>
        <time>2017-08-21T09:25:54Z</time>
      </trkpt>
      <trkpt lat="43.94876" lon="7.24378">
        <ele>1489</ele>
        <time>2017-08-21T09:27:54Z</time>
      </trkpt>
      <trkpt lat="43.94871" lon="7.24395">
        <ele>1492</ele>
        <time>2017-08-21T09:29:54Z</time>
      </trkpt>
      <trkpt lat="43.94881" lon="7.244">
        <ele>1500</ele>
        <time>2017-08-21T09:31:54Z</time>
      </trkpt>
      <trkpt lat="43.94897" lon="7.24389">
        <ele>1505</ele>
        <time>2017-08-21T09:33:54Z</time>
      </trkpt>
      <trkpt lat="43.94922" lon="7.24358">
        <ele>1506</ele>
        <time>2017-08-21T09:35:54Z</time>
      </trkpt>
      <trkpt lat="43.94936" lon="7.24337">
        <ele>1503</ele>
        <time>2017-08-21T09:37:54Z</time>
      </trkpt>
      <trkpt lat="43.94949" lon="7.24344">
        <ele>1510</ele>
        <time>2017-08-21T09:39:54Z</time>
      </trkpt>
      <trkpt lat="43.94966" lon="7.24354">
        <ele>1519</ele>
        <time>2017-08-21T09:41:54Z</time>
      </trkpt>
      <trkpt lat="43.94981" lon="7.24359">
        <ele>1525</ele>
        <time>2017-08-21T09:43:54Z</time>
      </trkpt>
      <trkpt lat="43.95" lon="7.24351">
        <ele>1529</ele>
        <time>2017-08-21T09:45:54Z</time>
      </trkpt>
      <trkpt lat="43.95017" lon="7.24332">
        <ele>1524</ele>
        <time>2017-08-21T09:47:54Z</time>
      </trkpt>
      <trkpt lat="43.95031" lon="7.24327">
        <ele>1521</ele>
        <time>2017-08-21T09:49:54Z</time>
      </trkpt>
      <trkpt lat="43.95045" lon="7.24314">
        <ele>1513</ele>
        <time>2017-08-21T09:51:54Z</time>
      </trkpt>
      <trkpt lat="43.95056" lon="7.24315">
        <ele>1514</ele>
        <time>2017-08-21T09:53:54Z</time>
      </trkpt>
      <trkpt lat="43.95061" lon="7.24339">
        <ele>1524</ele>
        <time>2017-08-21T09:55:54Z</time>
      </trkpt>
      <trkpt lat="43.95072" lon="7.24353">
        <ele>1520</ele>
        <time>2017-08-21T09:57:54Z</time>
      </trkpt>
      <trkpt lat="43.95082" lon="7.24367">
        <ele>1515</ele>
        <time>2017-08-21T09:59:54Z</time>
      </trkpt>
      <trkpt lat="43.95098" lon="7.24371">
        <ele>1506</ele>
        <time>2017-08-21T10:01:54Z</time>
      </trkpt>
      <trkpt lat="43.95111" lon="7.24363">
        <ele>1503</ele>
        <time>2017-08-21T10:03:54Z</time>
      </trkpt>
      <trkpt lat="43.95129" lon="7.24371">
        <ele>1491</ele>
        <time>2017-08-21T10:05:54Z</time>
      </trkpt>
      <trkpt lat="43.95155" lon="7.24351">
        <ele>1488</ele>
        <time>2017-08-21T10:07:54Z</time>
      </trkpt>
      <trkpt lat="43.95159" lon="7.24335">
        <ele>1495</ele>
        <time>2017-08-21T10:09:54Z</time>
      </trkpt>
      <trkpt lat="43.95166" lon="7.24316">
        <ele>1494</ele>
        <time>2017-08-21T10:11:54Z</time>
      </trkpt>
      <trkpt lat="43.9517" lon="7.24325">
        <ele>1492</ele>
        <time>2017-08-21T10:13:54Z</time>
      </trkpt>
      <trkpt lat="43.95177" lon="7.24317">
        <ele>1490</ele>
        <time>2017-08-21T10:15:54Z</time>
      </trkpt>
      <trkpt lat="43.9519" lon="7.24308">
        <ele>1488</ele>
        <time>2017-08-21T10:17:54Z</time>
      </trkpt>
      <trkpt lat="43.95187" lon="7.24287">
        <ele>1492</ele>
        <time>2017-08-21T10:19:54Z</time>
      </trkpt>
      <trkpt lat="43.95208" lon="7.24295">
        <ele>1487</ele>
        <time>2017-08-21T10:21:54Z</time>
      </trkpt>
      <trkpt lat="43.95224" lon="7.24298">
        <ele>1483</ele>
        <time>2017-08-21T10:23:54Z</time>
      </trkpt>
      <trkpt lat="43.95238" lon="7.24297">
        <ele>1481</ele>
        <time>2017-08-21T10:25:54Z</time>
      </trkpt>
      <trkpt lat="43.95253" lon="7.2428">
        <ele>1486</ele>
        <time>2017-08-21T10:27:54Z</time>
      </trkpt>
      <trkpt lat="43.95268" lon="7.24268">
        <ele>1490</ele>
        <time>2017-08-21T10:29:54Z</time>
      </trkpt>
      <trkpt lat="43.95283" lon="7.24273">
        <ele>1485</ele>
        <time>2017-08-21T10:31:54Z</time>
      </trkpt>
      <trkpt lat="43.953" lon="7.24269">
        <ele>1484</ele>
        <time>2017-08-21T10:33:54Z</time>
      </trkpt>
      <trkpt lat="43.95326" lon="7.2427">
        <ele>1479</ele>
        <time>2017-08-21T10:35:54Z</time>
      </trkpt>
      <trkpt lat="43.95368" lon="7.24265">
        <ele>1475</ele>
        <time>2017-08-21T10:37:54Z</time>
      </trkpt>
      <trkpt lat="43.95401" lon="7.24262">
        <ele>1470</ele>
        <time>2017-08-21T10:39:54Z</time>
      </trkpt>
      <trkpt lat="43.95448" lon="7.24197">
        <ele>1463</ele>
        <time>2017-08-21T10:41:54Z</time>
      </trkpt>
      <trkpt lat="43.9546" lon="7.24189">
        <ele>1459</ele>
        <time>2017-08-21T10:43:54Z</time>
      </trkpt>
      <trkpt lat="43.95473" lon="7.24194">
        <ele>1455</ele>
        <time>2017-08-21T10:45:54Z</time>
      </trkpt>
      <trkpt lat="43.95487" lon="7.2419">
        <ele>1451</ele>
        <time>2017-08-21T10:47:54Z</time>
      </trkpt>
      <trkpt lat="43.9551" lon="7.24181">
        <ele>1447</ele>
        <time>2017-08-21T10:49:54Z</time>
      </trkpt>
      <trkpt lat="43.95554" lon="7.24195">
        <ele>1443</ele>
        <time>2017-08-21T10:51:54Z</time>
      </trkpt>
      <trkpt lat="43.95605" lon="7.24211">
        <ele>1436</ele>
        <time>2017-08-21T10:53:54Z</time>
      </trkpt>
      <trkpt lat="43.95611" lon="7.24222">
        <ele>1433</ele>
        <time>2017-08-21T10:55:54Z</time>
      </trkpt>
      <trkpt lat="43.95624" lon="7.24231">
        <ele>1430</ele>
        <time>2017-08-21T10:57:54Z</time>
      </trkpt>
      <trkpt lat="43.95643" lon="7.24247">
        <ele>1425</ele>
        <time>2017-08-21T10:59:54Z</time>
      </trkpt>
      <trkpt lat="43.95674" lon="7.24269">
        <ele>1419</ele>
        <time>2017-08-21T11:01:54Z</time>
      </trkpt>
      <trkpt lat="43.95708" lon="7.24284">
        <ele>1418</ele>
        <time>2017-08-21T11:03:54Z</time>
      </trkpt>
      <trkpt lat="43.95739" lon="7.24293">
        <ele>1418</ele>
        <time>2017-08-21T11:05:54Z</time>
      </trkpt>
      <trkpt lat="43.9577" lon="7.24309">
        <ele>1415</ele>
        <time>2017-08-21T11:07:54Z</time>
      </trkpt>
      <trkpt lat="43.95792" lon="7.24316">
        <ele>1412</ele>
        <time>2017-08-21T11:09:54Z</time>
      </trkpt>
      <trkpt lat="43.95837" lon="7.24319">
        <ele>1411</ele>
        <time>2017-08-21T11:11:54Z</time>
      </trkpt>
      <trkpt lat="43.95866" lon="7.24314">
        <ele>1409</ele>
        <time>2017-08-21T11:13:54Z</time>
      </trkpt>
      <trkpt lat="43.95906" lon="7.24299">
        <ele>1408</ele>
        <time>2017-08-21T11:15:54Z</time>
      </trkpt>
      <trkpt lat="43.9595" lon="7.24286">
        <ele>1404</ele>
        <time>2017-08-21T11:17:54Z</time>
      </trkpt>
      <trkpt lat="43.95972" lon="7.24278">
        <ele>1402</ele>
        <time>2017-08-21T11:19:54Z</time>
      </trkpt>
      <trkpt lat="43.95984" lon="7.2426">
        <ele>1403</ele>
        <time>2017-08-21T11:21:54Z</time>
      </trkpt>
      <trkpt lat="43.95999" lon="7.24248">
        <ele>1403</ele>
        <time>2017-08-21T11:23:54Z</time>
      </trkpt>
      <trkpt lat="43.96029" lon="7.24216">
        <ele>1402</ele>
        <time>2017-08-21T11:25:54Z</time>
      </trkpt>
      <trkpt lat="43.96049" lon="7.24188">
        <ele>1403</ele>
        <time>2017-08-21T11:27:54Z</time>
      </trkpt>
      <trkpt lat="43.96072" lon="7.24181">
        <ele>1399</ele>
        <time>2017-08-21T11:29:54Z</time>
      </trkpt>
      <trkpt lat="43.96094" lon="7.24158">
        <ele>1398</ele>
        <time>2017-08-21T11:31:54Z</time>
      </trkpt>
      <trkpt lat="43.96117" lon="7.2414">
        <ele>1398</ele>
        <time>2017-08-21T11:33:54Z</time>
      </trkpt>
      <trkpt lat="43.96145" lon="7.24126">
        <ele>1396</ele>
        <time>2017-08-21T11:35:54Z</time>
      </trkpt>
      <trkpt lat="43.96174" lon="7.24112">
        <ele>1393</ele>
        <time>2017-08-21T11:37:54Z</time>
      </trkpt>
      <trkpt lat="43.96191" lon="7.24082">
        <ele>1396</ele>
        <time>2017-08-21T11:39:54Z</time>
      </trkpt>
      <trkpt lat="43.96218" lon="7.24044">
        <ele>1401</ele>
        <time>2017-08-21T11:41:54Z</time>
      </trkpt>
      <trkpt lat="43.96239" lon="7.24009">
        <ele>1408</ele>
        <time>2017-08-21T11:43:54Z</time>
      </trkpt>
      <trkpt lat="43.96273" lon="7.23973">
        <ele>1412</ele>
        <time>2017-08-21T11:45:54Z</time>
      </trkpt>
      <trkpt lat="43.96307" lon="7.23936">
        <ele>1416</ele>
        <time>2017-08-21T11:47:54Z</time>
      </trkpt>
      <trkpt lat="43.96365" lon="7.23908">
        <ele>1413</ele>
        <time>2017-08-21T11:49:54Z</time>
      </trkpt>
      <trkpt lat="43.96421" lon="7.23879">
        <ele>1414</ele>
        <time>2017-08-21T11:51:54Z</time>
      </trkpt>
      <trkpt lat="43.96449" lon="7.23861">
        <ele>1416</ele>
        <time>2017-08-21T11:53:54Z</time>
      </trkpt>
      <trkpt lat="43.96496" lon="7.2382">
        <ele>1414</ele>
        <time>2017-08-21T11:55:54Z</time>
      </trkpt>
      <trkpt lat="43.96528" lon="7.23801">
        <ele>1412</ele>
        <time>2017-08-21T11:57:54Z</time>
      </trkpt>
      <trkpt lat="43.96553" lon="7.23788">
        <ele>1410</ele>
        <time>2017-08-21T11:59:54Z</time>
      </trkpt>
      <trkpt lat="43.96572" lon="7.23783">
        <ele>1410</ele>
        <time>2017-08-21T12:01:54Z</time>
      </trkpt>
      <trkpt lat="43.96605" lon="7.23778">
        <ele>1409</ele>
        <time>2017-08-21T12:03:54Z</time>
      </trkpt>
      <trkpt lat="43.9663" lon="7.23782">
        <ele>1408</ele>
        <time>2017-08-21T12:05:54Z</time>
      </trkpt>
      <trkpt lat="43.96654" lon="7.23776">
        <ele>1408</ele>
        <time>2017-08-21T12:07:54Z</time>
      </trkpt>
      <trkpt lat="43.9667" lon="7.2377">
        <ele>1408</ele>
        <time>2017-08-21T12:09:54Z</time>
      </trkpt>
      <trkpt lat="43.96692" lon="7.23765">
        <ele>1408</ele>
        <time>2017-08-21T12:11:54Z</time>
      </trkpt>
      <trkpt lat="43.9673" lon="7.23763">
        <ele>1409</ele>
        <time>2017-08-21T12:13:54Z</time>
      </trkpt>
      <trkpt lat="43.96765" lon="7.23758">
        <ele>1410</ele>
        <time>2017-08-21T12:15:54Z</time>
      </trkpt>
      <trkpt lat="43.96801" lon="7.23747">
        <ele>1414</ele>
        <time>2017-08-21T12:17:54Z</time>
      </trkpt>
      <trkpt lat="43.96845" lon="7.23746">
        <ele>1414</ele>
        <time>2017-08-21T12:19:54Z</time>
      </trkpt>
      <trkpt lat="43.96883" lon="7.2375">
        <ele>1410</ele>
        <time>2017-08-21T12:21:54Z</time>
      </trkpt>
      <trkpt lat="43.96913" lon="7.2375">
        <ele>1408</ele>
        <time>2017-08-21T12:23:54Z</time>
      </trkpt>
      <trkpt lat="43.9694" lon="7.23758">
        <ele>1410</ele>
        <time>2017-08-21T12:25:54Z</time>
      </trkpt>
      <trkpt lat="43.96956" lon="7.23771">
        <ele>1407</ele>
        <time>2017-08-21T12:27:54Z</time>
      </trkpt>
      <trkpt lat="43.96974" lon="7.23777">
        <ele>1408</ele>
        <time>2017-08-21T12:29:54Z</time>
      </trkpt>
      <trkpt lat="43.9699" lon="7.23794">
        <ele>1404</ele>
        <time>2017-08-21T12:31:54Z</time>
      </trkpt>
      <trkpt lat="43.97012" lon="7.23822">
        <ele>1398</ele>
        <time>2017-08-21T12:33:54Z</time>
      </trkpt>
      <trkpt lat="43.97024" lon="7.23831">
        <ele>1400</ele>
        <time>2017-08-21T12:35:54Z</time>
      </trkpt>
      <trkpt lat="43.97037" lon="7.23837">
        <ele>1404</ele>
        <time>2017-08-21T12:37:54Z</time>
      </trkpt>
      <trkpt lat="43.97048" lon="7.23836">
        <ele>1410</ele>
        <time>2017-08-21T12:39:54Z</time>
      </trkpt>
      <trkpt lat="43.97058" lon="7.23842">
        <ele>1412</ele>
        <time>2017-08-21T12:41:54Z</time>
      </trkpt>
      <trkpt lat="43.97075" lon="7.23876">
        <ele>1408</ele>
        <time>2017-08-21T12:43:54Z</time>
      </trkpt>
      <trkpt lat="43.97089" lon="7.23898">
        <ele>1406</ele>
        <time>2017-08-21T12:45:54Z</time>
      </trkpt>
      <trkpt lat="43.97097" lon="7.23921">
        <ele>1398</ele>
        <time>2017-08-21T12:47:54Z</time>
      </trkpt>
      <trkpt lat="43.97106" lon="7.23932">
        <ele>1395</ele>
        <time>2017-08-21T12:49:54Z</time>
      </trkpt>
      <trkpt lat="43.97119" lon="7.2394">
        <ele>1393</ele>
        <time>2017-08-21T12:51:54Z</time>
      </trkpt>
      <trkpt lat="43.97141" lon="7.23938">
        <ele>1398</ele>
        <time>2017-08-21T12:53:54Z</time>
      </trkpt>
      <trkpt lat="43.97167" lon="7.23925">
        <ele>1408</ele>
        <time>2017-08-21T12:55:54Z</time>
      </trkpt>
      <trkpt lat="43.97198" lon="7.23905">
        <ele>1408</ele>
        <time>2017-08-21T12:57:54Z</time>
      </trkpt>
      <trkpt lat="43.97231" lon="7.23878">
        <ele>1411</ele>
        <time>2017-08-21T12:59:54Z</time>
      </trkpt>
      <trkpt lat="43.97263" lon="7.23854">
        <ele>1411</ele>
        <time>2017-08-21T13:01:54Z</time>
      </trkpt>
      <trkpt lat="43.97281" lon="7.23838">
        <ele>1410</ele>
        <time>2017-08-21T13:03:54Z</time>
      </trkpt>
      <trkpt lat="43.97282" lon="7.23821">
        <ele>1415</ele>
        <time>2017-08-21T13:05:54Z</time>
      </trkpt>
      <trkpt lat="43.97288" lon="7.23798">
        <ele>1421</ele>
        <time>2017-08-21T13:07:54Z</time>
      </trkpt>
      <trkpt lat="43.9729" lon="7.23764">
        <ele>1431</ele>
        <time>2017-08-21T13:09:54Z</time>
      </trkpt>
      <trkpt lat="43.97301" lon="7.23753">
        <ele>1430</ele>
        <time>2017-08-21T13:11:54Z</time>
      </trkpt>
      <trkpt lat="43.97326" lon="7.23742">
        <ele>1421</ele>
        <time>2017-08-21T13:13:54Z</time>
      </trkpt>
      <trkpt lat="43.9735" lon="7.23721">
        <ele>1422</ele>
        <time>2017-08-21T13:15:54Z</time>
      </trkpt>
      <trkpt lat="43.97369" lon="7.23719">
        <ele>1419</ele>
        <time>2017-08-21T13:17:54Z</time>
      </trkpt>
      <trkpt lat="43.97397" lon="7.23717">
        <ele>1415</ele>
        <time>2017-08-21T13:19:54Z</time>
      </trkpt>
      <trkpt lat="43.97439" lon="7.23705">
        <ele>1413</ele>
        <time>2017-08-21T13:21:54Z</time>
      </trkpt>
      <trkpt lat="43.97488" lon="7.23685">
        <ele>1415</ele>
        <time>2017-08-21T13:23:54Z</time>
      </trkpt>
      <trkpt lat="43.97519" lon="7.23672">
        <ele>1419</ele>
        <time>2017-08-21T13:25:54Z</time>
      </trkpt>
      <trkpt lat="43.97543" lon="7.23668">
        <ele>1420</ele>
        <time>2017-08-21T13:27:54Z</time>
      </trkpt>
      <trkpt lat="43.97567" lon="7.23669">
        <ele>1418</ele>
        <time>2017-08-21T13:29:54Z</time>
      </trkpt>
      <trkpt lat="43.97584" lon="7.23653">
        <ele>1425</ele>
        <time>2017-08-21T13:31:54Z</time>
      </trkpt>
      <trkpt lat="43.97616" lon="7.23657">
        <ele>1421</ele>
        <time>2017-08-21T13:33:54Z</time>
      </trkpt>
      <trkpt lat="43.97634" lon="7.23664">
        <ele>1418</ele>
        <time>2017-08-21T13:35:54Z</time>
      </trkpt>
      <trkpt lat="43.97654" lon="7.2367">
        <ele>1416</ele>
        <time>2017-08-21T13:37:54Z</time>
      </trkpt>
      <trkpt lat="43.97668" lon="7.23665">
        <ele>1417</ele>
        <time>2017-08-21T13:39:54Z</time>
      </trkpt>
      <trkpt lat="43.97682" lon="7.23647">
        <ele>1415</ele>
        <time>2017-08-21T13:41:54Z</time>
      </trkpt>
      <trkpt lat="43.97696" lon="7.23623">
        <ele>1413</ele>
        <time>2017-08-21T13:43:54Z</time>
      </trkpt>
      <trkpt lat="43.9771" lon="7.23602">
        <ele>1411</ele>
        <time>2017-08-21T13:45:54Z</time>
      </trkpt>
      <trkpt lat="43.9772" lon="7.23576">
        <ele>1411</ele>
        <time>2017-08-21T13:47:54Z</time>
      </trkpt>
      <trkpt lat="43.97733" lon="7.23542">
        <ele>1412</ele>
        <time>2017-08-21T13:49:54Z</time>
      </trkpt>
      <trkpt lat="43.97747" lon="7.23518">
        <ele>1410</ele>
        <time>2017-08-21T13:51:54Z</time>
      </trkpt>
      <trkpt lat="43.97775" lon="7.23495">
        <ele>1407</ele>
        <time>2017-08-21T13:53:54Z</time>
      </trkpt>
      <trkpt lat="43.97804" lon="7.23478">
        <ele>1403</ele>
        <time>2017-08-21T13:55:54Z</time>
      </trkpt>
      <trkpt lat="43.97838" lon="7.23461">
        <ele>1399</ele>
        <time>2017-08-21T13:57:54Z</time>
      </trkpt>
      <trkpt lat="43.97867" lon="7.23433">
        <ele>1400</ele>
        <time>2017-08-21T13:59:54Z</time>
      </trkpt>
      <trkpt lat="43.97892" lon="7.2342">
        <ele>1398</ele>
        <time>2017-08-21T14:01:54Z</time>
      </trkpt>
      <trkpt lat="43.97909" lon="7.23415">
        <ele>1395</ele>
        <time>2017-08-21T14:03:54Z</time>
      </trkpt>
      <trkpt lat="43.9793" lon="7.23417">
        <ele>1395</ele>
        <time>2017-08-21T14:05:54Z</time>
      </trkpt>
      <trkpt lat="43.97953" lon="7.23421">
        <ele>1396</ele>
        <time>2017-08-21T14:07:54Z</time>
      </trkpt>
      <trkpt lat="43.97971" lon="7.23433">
        <ele>1395</ele>
        <time>2017-08-21T14:09:54Z</time>
      </trkpt>
      <trkpt lat="43.97992" lon="7.2345">
        <ele>1391</ele>
        <time>2017-08-21T14:11:54Z</time>
      </trkpt>
      <trkpt lat="43.98022" lon="7.23471">
        <ele>1390</ele>
        <time>2017-08-21T14:13:54Z</time>
      </trkpt>
      <trkpt lat="43.98042" lon="7.23488">
        <ele>1389</ele>
        <time>2017-08-21T14:15:54Z</time>
      </trkpt>
      <trkpt lat="43.98057" lon="7.23504">
        <ele>1388</ele>
        <time>2017-08-21T14:17:54Z</time>
      </trkpt>
      <trkpt lat="43.98077" lon="7.23529">
        <ele>1385</ele>
        <time>2017-08-21T14:19:54Z</time>
      </trkpt>
      <trkpt lat="43.98103" lon="7.23549">
        <ele>1383</ele>
        <time>2017-08-21T14:21:54Z</time>
      </trkpt>
      <trkpt lat="43.98132" lon="7.23564">
        <ele>1383</ele>
        <time>2017-08-21T14:23:54Z</time>
      </trkpt>
      <trkpt lat="43.98154" lon="7.23568">
        <ele>1386</ele>
        <time>2017-08-21T14:25:54Z</time>
      </trkpt>
      <trkpt lat="43.98167" lon="7.23587">
        <ele>1382</ele>
        <time>2017-08-21T14:27:54Z</time>
      </trkpt>
      <trkpt lat="43.9818" lon="7.23601">
        <ele>1376</ele>
        <time>2017-08-21T14:29:54Z</time>
      </trkpt>
      <trkpt lat="43.98197" lon="7.236">
        <ele>1375</ele>
        <time>2017-08-21T14:31:54Z</time>
      </trkpt>
      <trkpt lat="43.98221" lon="7.23592">
        <ele>1377</ele>
        <time>2017-08-21T14:33:54Z</time>
      </trkpt>
      <trkpt lat="43.98243" lon="7.23581">
        <ele>1379</ele>
        <time>2017-08-21T14:35:54Z</time>
      </trkpt>
      <trkpt lat="43.98262" lon="7.23566">
        <ele>1383</ele>
        <time>2017-08-21T14:37:54Z</time>
      </trkpt>
      <trkpt lat="43.98288" lon="7.23551">
        <ele>1384</ele>
        <time>2017-08-21T14:39:54Z</time>
      </trkpt>
      <trkpt lat="43.98326" lon="7.23528">
        <ele>1385</ele>
        <time>2017-08-21T14:41:54Z</time>
      </trkpt>
      <trkpt lat="43.98358" lon="7.23508">
        <ele>1384</ele>
        <time>2017-08-21T14:43:54Z</time>
      </trkpt>
      <trkpt lat="43.98388" lon="7.23485">
        <ele>1383</ele>
        <time>2017-08-21T14:45:54Z</time>
      </trkpt>
      <trkpt lat="43.98413" lon="7.23475">
        <ele>1378</ele>
        <time>2017-08-21T14:47:54Z</time>
      </trkpt>
      <trkpt lat="43.98424" lon="7.23467">
        <ele>1376</ele>
        <time>2017-08-21T14:49:54Z</time>
      </trkpt>
      <trkpt lat="43.98433" lon="7.23456">
        <ele>1375</ele>
        <time>2017-08-21T14:51:54Z</time>
      </trkpt>
      <trkpt lat="43.98438" lon="7.23439">
        <ele>1376</ele>
        <time>2017-08-21T14:53:54Z</time>
      </trkpt>
      <trkpt lat="43.98442" lon="7.23423">
        <ele>1377</ele>
        <time>2017-08-21T14:55:54Z</time>
      </trkpt>
      <trkpt lat="43.98454" lon="7.23407">
        <ele>1375</ele>
        <time>2017-08-21T14:57:54Z</time>
      </trkpt>
      <trkpt lat="43.98468" lon="7.23389">
        <ele>1372</ele>
        <time>2017-08-21T14:59:54Z</time>
      </trkpt>
      <trkpt lat="43.98482" lon="7.23377">
        <ele>1368</ele>
        <time>2017-08-21T15:01:54Z</time>
      </trkpt>
      <trkpt lat="43.98487" lon="7.23362">
        <ele>1368</ele>
        <time>2017-08-21T15:03:54Z</time>
      </trkpt>
      <trkpt lat="43.98496" lon="7.23355">
        <ele>1365</ele>
        <time>2017-08-21T15:05:54Z</time>
      </trkpt>
      <trkpt lat="43.98515" lon="7.23341">
        <ele>1360</ele>
        <time>2017-08-21T15:07:54Z</time>
      </trkpt>
      <trkpt lat="43.98534" lon="7.23313">
        <ele>1356</ele>
        <time>2017-08-21T15:09:54Z</time>
      </trkpt>
      <trkpt lat="43.98557" lon="7.23279">
        <ele>1354</ele>
        <time>2017-08-21T15:11:54Z</time>
      </trkpt>
      <trkpt lat="43.98589" lon="7.23243">
        <ele>1353</ele>
        <time>2017-08-21T15:13:54Z</time>
      </trkpt>
      <trkpt lat="43.98619" lon="7.23227">
        <ele>1351</ele>
        <time>2017-08-21T15:15:54Z</time>
      </trkpt>
      <trkpt lat="43.98644" lon="7.23215">
        <ele>1352</ele>
        <time>2017-08-21T15:17:54Z</time>
      </trkpt>
      <trkpt lat="43.98664" lon="7.23198">
        <ele>1353</ele>
        <time>2017-08-21T15:19:54Z</time>
      </trkpt>
      <trkpt lat="43.98685" lon="7.23179">
        <ele>1359</ele>
        <time>2017-08-21T15:21:54Z</time>
      </trkpt>
      <trkpt lat="43.98726" lon="7.23141">
        <ele>1361</ele>
        <time>2017-08-21T15:23:54Z</time>
      </trkpt>
      <trkpt lat="43.98764" lon="7.23114">
        <ele>1364</ele>
        <time>2017-08-21T15:25:54Z</time>
      </trkpt>
      <trkpt lat="43.98744" lon="7.23159">
        <ele>1373</ele>
        <time>2017-08-21T15:27:54Z</time>
      </trkpt>
      <trkpt lat="43.98768" lon="7.23143">
        <ele>1376</ele>
        <time>2017-08-21T15:29:54Z</time>
      </trkpt>
      <trkpt lat="43.98788" lon="7.23132">
        <ele>1379</ele>
        <time>2017-08-21T15:31:54Z</time>
      </trkpt>
      <trkpt lat="43.98812" lon="7.23121">
        <ele>1384</ele>
        <time>2017-08-21T15:33:54Z</time>
      </trkpt>
      <trkpt lat="43.98842" lon="7.23106">
        <ele>1391</ele>
        <time>2017-08-21T15:35:54Z</time>
      </trkpt>
      <trkpt lat="43.98869" lon="7.23103">
        <ele>1398</ele>
        <time>2017-08-21T15:37:54Z</time>
      </trkpt>
      <trkpt lat="43.989" lon="7.23098">
        <ele>1407</ele>
        <time>2017-08-21T15:39:54Z</time>
      </trkpt>
      <trkpt lat="43.98878" lon="7.23136">
        <ele>1411</ele>
        <time>2017-08-21T15:41:54Z</time>
      </trkpt>
      <trkpt lat="43.98932" lon="7.23125">
        <ele>1425</ele>
        <time>2017-08-21T15:43:54Z</time>
      </trkpt>
      <trkpt lat="43.99003" lon="7.23112">
        <ele>1442</ele>
        <time>2017-08-21T15:45:54Z</time>
      </trkpt>
      <trkpt lat="43.98979" lon="7.23152">
        <ele>1449</ele>
        <time>2017-08-21T15:47:54Z</time>
      </trkpt>
      <trkpt lat="43.99027" lon="7.23154">
        <ele>1463</ele>
        <time>2017-08-21T15:49:54Z</time>
      </trkpt>
      <trkpt lat="43.99023" lon="7.23175">
        <ele>1465</ele>
        <time>2017-08-21T15:51:54Z</time>
      </trkpt>
      <trkpt lat="43.99047" lon="7.23179">
        <ele>1469</ele>
        <time>2017-08-21T15:53:54Z</time>
      </trkpt>
      <trkpt lat="43.99095" lon="7.23168">
        <ele>1479</ele>
        <time>2017-08-21T15:55:54Z</time>
      </trkpt>
      <trkpt lat="43.99174" lon="7.23156">
        <ele>1497</ele>
        <time>2017-08-21T15:57:54Z</time>
      </trkpt>
      <trkpt lat="43.99188" lon="7.23151">
        <ele>1502</ele>
        <time>2017-08-21T15:59:54Z</time>
      </trkpt>
      <trkpt lat="43.99203" lon="7.2316">
        <ele>1505</ele>
        <time>2017-08-21T16:01:54Z</time>
      </trkpt>
      <trkpt lat="43.99217" lon="7.23173">
        <ele>1508</ele>
        <time>2017-08-21T16:03:54Z</time>
      </trkpt>
      <trkpt lat="43.99226" lon="7.23169">
        <ele>1511</ele>
        <time>2017-08-21T16:05:54Z</time>
      </trkpt>
      <trkpt lat="43.99305" lon="7.23185">
        <ele>1535</ele>
        <time>2017-08-21T16:07:54Z</time>
      </trkpt>
      <trkpt lat="43.99334" lon="7.23225">
        <ele>1539</ele>
        <time>2017-08-21T16:09:54Z</time>
      </trkpt>
      <trkpt lat="43.99347" lon="7.23237">
        <ele>1543</ele>
        <time>2017-08-21T16:11:54Z</time>
      </trkpt>
      <trkpt lat="43.99364" lon="7.2326">
        <ele>1548</ele>
        <time>2017-08-21T16:13:54Z</time>
      </trkpt>
      <trkpt lat="43.99388" lon="7.23278">
        <ele>1557</ele>
        <time>2017-08-21T16:15:54Z</time>
      </trkpt>
      <trkpt lat="43.99409" lon="7.23292">
        <ele>1563</ele>
        <time>2017-08-21T16:17:54Z</time>
      </trkpt>
      <trkpt lat="43.99424" lon="7.23319">
        <ele>1565</ele>
        <time>2017-08-21T16:19:54Z</time>
      </trkpt>
      <trkpt lat="43.99446" lon="7.23323">
        <ele>1571</ele>
        <time>2017-08-21T16:21:54Z</time>
      </trkpt>
      <trkpt lat="43.99478" lon="7.23338">
        <ele>1578</ele>
        <time>2017-08-21T16:23:54Z</time>
      </trkpt>
      <trkpt lat="43.99497" lon="7.23349">
        <ele>1583</ele>
        <time>2017-08-21T16:25:54Z</time>
      </trkpt>
      <trkpt lat="43.99537" lon="7.23375">
        <ele>1588</ele>
        <time>2017-08-21T16:27:54Z</time>
      </trkpt>
      <trkpt lat="43.99555" lon="7.23385">
        <ele>1590</ele>
        <time>2017-08-21T16:29:54Z</time>
      </trkpt>
      <trkpt lat="43.99564" lon="7.23397">
        <ele>1590</ele>
        <time>2017-08-21T16:31:54Z</time>
      </trkpt>
      <trkpt lat="43.99562" lon="7.23412">
        <ele>1589</ele>
        <time>2017-08-21T16:33:54Z</time>
      </trkpt>
      <trkpt lat="43.99548" lon="7.23436">
        <ele>1591</ele>
        <time>2017-08-21T16:35:54Z</time>
      </trkpt>
      <trkpt lat="43.99571" lon="7.23429">
        <ele>1593</ele>
        <time>2017-08-21T16:37:54Z</time>
      </trkpt>
      <trkpt lat="43.99585" lon="7.23427">
        <ele>1594</ele>
        <time>2017-08-21T16:39:54Z</time>
      </trkpt>
      <trkpt lat="43.99621" lon="7.23423">
        <ele>1603</ele>
        <time>2017-08-21T16:41:54Z</time>
      </trkpt>
      <trkpt lat="43.99632" lon="7.23429">
        <ele>1607</ele>
        <time>2017-08-21T16:43:54Z</time>
      </trkpt>
      <trkpt lat="43.99651" lon="7.23428">
        <ele>1611</ele>
        <time>2017-08-21T16:45:54Z</time>
      </trkpt>
      <trkpt lat="43.99662" lon="7.23436">
        <ele>1615</ele>
        <time>2017-08-21T16:47:54Z</time>
      </trkpt>
      <trkpt lat="43.99666" lon="7.23448">
        <ele>1617</ele>
        <time>2017-08-21T16:49:54Z</time>
      </trkpt>
      <trkpt lat="43.99673" lon="7.23468">
        <ele>1622</ele>
        <time>2017-08-21T16:51:54Z</time>
      </trkpt>
      <trkpt lat="43.99689" lon="7.23478">
        <ele>1628</ele>
        <time>2017-08-21T16:53:54Z</time>
      </trkpt>
      <trkpt lat="43.9971" lon="7.23478">
        <ele>1635</ele>
        <time>2017-08-21T16:55:54Z</time>
      </trkpt>
      <trkpt lat="43.99737" lon="7.23486">
        <ele>1644</ele>
        <time>2017-08-21T16:57:54Z</time>
      </trkpt>
      <trkpt lat="43.99754" lon="7.23506">
        <ele>1652</ele>
        <time>2017-08-21T16:59:54Z</time>
      </trkpt>
      <trkpt lat="43.99771" lon="7.23525">
        <ele>1661</ele>
        <time>2017-08-21T17:01:54Z</time>
      </trkpt>
      <trkpt lat="43.99785" lon="7.23529">
        <ele>1666</ele>
        <time>2017-08-21T17:03:54Z</time>
      </trkpt>
      <trkpt lat="43.99807" lon="7.23538">
        <ele>1673</ele>
        <time>2017-08-21T17:05:54Z</time>
      </trkpt>
      <trkpt lat="43.99835" lon="7.23562">
        <ele>1683</ele>
        <time>2017-08-21T17:07:54Z</time>
      </trkpt>
      <trkpt lat="43.99867" lon="7.23587">
        <ele>1691</ele>
        <time>2017-08-21T17:09:54Z</time>
      </trkpt>
      <trkpt lat="43.99884" lon="7.23603">
        <ele>1691</ele>
        <time>2017-08-21T17:11:54Z</time>
      </trkpt>
      <trkpt lat="43.99917" lon="7.2362">
        <ele>1692</ele>
        <time>2017-08-21T17:13:54Z</time>
      </trkpt>
      <trkpt lat="43.99939" lon="7.23637">
        <ele>1690</ele>
        <time>2017-08-21T17:15:54Z</time>
      </trkpt>
      <trkpt lat="43.99961" lon="7.2364">
        <ele>1692</ele>
        <time>2017-08-21T17:17:54Z</time>
      </trkpt>
      <trkpt lat="43.99984" lon="7.23647">
        <ele>1692</ele>
        <time>2017-08-21T17:19:54Z</time>
      </trkpt>
      <trkpt lat="44.00011" lon="7.23659">
        <ele>1687</ele>
        <time>2017-08-21T17:21:54Z</time>
      </trkpt>
      <trkpt lat="44.00034" lon="7.23677">
        <ele>1674</ele>
        <time>2017-08-21T17:23:54Z</time>
      </trkpt>
      <trkpt lat="44.00044" lon="7.23677">
        <ele>1672</ele>
        <time>2017-08-21T17:25:54Z</time>
      </trkpt>
      <trkpt lat="44.0006" lon="7.23656">
        <ele>1678</ele>
        <time>2017-08-21T17:27:54Z</time>
      </trkpt>
      <trkpt lat="44.0008" lon="7.23635">
        <ele>1682</ele>
        <time>2017-08-21T17:29:54Z</time>
      </trkpt>
      <trkpt lat="44.0009" lon="7.23603">
        <ele>1691</ele>
        <time>2017-08-21T17:31:54Z</time>
      </trkpt>
      <trkpt lat="44.00101" lon="7.23584">
        <ele>1695</ele>
        <time>2017-08-21T17:33:54Z</time>
      </trkpt>
      <trkpt lat="44.00125" lon="7.23574">
        <ele>1690</ele>
        <time>2017-08-21T17:35:54Z</time>
      </trkpt>
      <trkpt lat="44.00146" lon="7.2357">
        <ele>1685</ele>
        <time>2017-08-21T17:37:54Z</time>
      </trkpt>
      <trkpt lat="44.00167" lon="7.23551">
        <ele>1686</ele>
        <time>2017-08-21T17:39:54Z</time>
      </trkpt>
      <trkpt lat="44.00186" lon="7.23533">
        <ele>1689</ele>
        <time>2017-08-21T17:41:54Z</time>
      </trkpt>
      <trkpt lat="44.00232" lon="7.2352">
        <ele>1685</ele>
        <time>2017-08-21T17:43:54Z</time>
      </trkpt>
      <trkpt lat="44.00288" lon="7.23507">
        <ele>1682</ele>
        <time>2017-08-21T17:45:54Z</time>
      </trkpt>
      <trkpt lat="44.0032" lon="7.23509">
        <ele>1676</ele>
        <time>2017-08-21T17:47:54Z</time>
      </trkpt>
      <trkpt lat="44.00363" lon="7.23508">
        <ele>1677</ele>
        <time>2017-08-21T17:49:54Z</time>
      </trkpt>
      <trkpt lat="44.00396" lon="7.23512">
        <ele>1678</ele>
        <time>2017-08-21T17:51:54Z</time>
      </trkpt>
      <trkpt lat="44.00443" lon="7.23519">
        <ele>1680</ele>
        <time>2017-08-21T17:53:54Z</time>
      </trkpt>
      <trkpt lat="44.00476" lon="7.2353">
        <ele>1681</ele>
        <time>2017-08-21T17:55:54Z</time>
      </trkpt>
      <trkpt lat="44.00498" lon="7.23541">
        <ele>1681</ele>
        <time>2017-08-21T17:57:54Z</time>
      </trkpt>
      <trkpt lat="44.00508" lon="7.23564">
        <ele>1676</ele>
        <time>2017-08-21T17:59:54Z</time>
      </trkpt>
      <trkpt lat="44.00524" lon="7.23581">
        <ele>1674</ele>
        <time>2017-08-21T18:01:54Z</time>
      </trkpt>
      <trkpt lat="44.00539" lon="7.23609">
        <ele>1668</ele>
        <time>2017-08-21T18:03:54Z</time>
      </trkpt>
      <trkpt lat="44.00555" lon="7.2362">
        <ele>1668</ele>
        <time>2017-08-21T18:05:54Z</time>
      </trkpt>
      <trkpt lat="44.00592" lon="7.23626">
        <ele>1674</ele>
        <time>2017-08-21T18:07:54Z</time>
      </trkpt>
      <trkpt lat="44.00629" lon="7.23636">
        <ele>1674</ele>
        <time>2017-08-21T18:09:54Z</time>
      </trkpt>
      <trkpt lat="44.00674" lon="7.23644">
        <ele>1675</ele>
        <time>2017-08-21T18:11:54Z</time>
      </trkpt>
      <trkpt lat="44.00743" lon="7.2365">
        <ele>1673</ele>
        <time>2017-08-21T18:13:54Z</time>
      </trkpt>
      <trkpt lat="44.00775" lon="7.23644">
        <ele>1675</ele>
        <time>2017-08-21T18:15:54Z</time>
      </trkpt>
      <trkpt lat="44.00809" lon="7.23637">
        <ele>1678</ele>
        <time>2017-08-21T18:17:54Z</time>
      </trkpt>
      <trkpt lat="44.00842" lon="7.23635">
        <ele>1679</ele>
        <time>2017-08-21T18:19:54Z</time>
      </trkpt>
      <trkpt lat="44.00876" lon="7.23631">
        <ele>1684</ele>
        <time>2017-08-21T18:21:54Z</time>
      </trkpt>
      <trkpt lat="44.00945" lon="7.23696">
        <ele>1684</ele>
        <time>2017-08-21T18:23:54Z</time>
      </trkpt>
      <trkpt lat="44.00996" lon="7.2374">
        <ele>1687</ele>
        <time>2017-08-21T18:25:54Z</time>
      </trkpt>
      <trkpt lat="44.01006" lon="7.23763">
        <ele>1687</ele>
        <time>2017-08-21T18:27:54Z</time>
      </trkpt>
      <trkpt lat="44.01012" lon="7.23791">
        <ele>1687</ele>
        <time>2017-08-21T18:29:54Z</time>
      </trkpt>
      <trkpt lat="44.01018" lon="7.23857">
        <ele>1686</ele>
        <time>2017-08-21T18:31:54Z</time>
      </trkpt>
      <trkpt lat="44.01014" lon="7.23906">
        <ele>1681</ele>
        <time>2017-08-21T18:33:54Z</time>
      </trkpt>
      <trkpt lat="44.01018" lon="7.2394">
        <ele>1683</ele>
        <time>2017-08-21T18:35:54Z</time>
      </trkpt>
      <trkpt lat="44.01011" lon="7.23993">
        <ele>1680</ele>
        <time>2017-08-21T18:37:54Z</time>
      </trkpt>
      <trkpt lat="44.01004" lon="7.24042">
        <ele>1682</ele>
        <time>2017-08-21T18:39:54Z</time>
      </trkpt>
      <trkpt lat="44.00971" lon="7.24137">
        <ele>1680</ele>
        <time>2017-08-21T18:41:54Z</time>
      </trkpt>
      <trkpt lat="44.00952" lon="7.24195">
        <ele>1680</ele>
        <time>2017-08-21T18:43:54Z</time>
      </trkpt>
      <trkpt lat="44.00927" lon="7.24302">
        <ele>1683</ele>
        <time>2017-08-21T18:45:54Z</time>
      </trkpt>
      <trkpt lat="44.00905" lon="7.24379">
        <ele>1686</ele>
        <time>2017-08-21T18:47:54Z</time>
      </trkpt>
      <trkpt lat="44.00898" lon="7.24437">
        <ele>1688</ele>
        <time>2017-08-21T18:49:54Z</time>
      </trkpt>
      <trkpt lat="44.00896" lon="7.24484">
        <ele>1688</ele>
        <time>2017-08-21T18:51:54Z</time>
      </trkpt>
      <trkpt lat="44.009" lon="7.24521">
        <ele>1689</ele>
        <time>2017-08-21T18:53:54Z</time>
      </trkpt>
      <trkpt lat="44.00913" lon="7.24607">
        <ele>1690</ele>
        <time>2017-08-21T18:55:54Z</time>
      </trkpt>
      <trkpt lat="44.00924" lon="7.24687">
        <ele>1692</ele>
        <time>2017-08-21T18:57:54Z</time>
      </trkpt>
      <trkpt lat="44.00929" lon="7.24717">
        <ele>1692</ele>
        <time>2017-08-21T18:59:54Z</time>
      </trkpt>
      <trkpt lat="44.00925" lon="7.24743">
        <ele>1690</ele>
        <time>2017-08-21T19:01:54Z</time>
      </trkpt>
      <trkpt lat="44.00914" lon="7.24779">
        <ele>1689</ele>
        <time>2017-08-21T19:03:54Z</time>
      </trkpt>
      <trkpt lat="44.00907" lon="7.24824">
        <ele>1691</ele>
        <time>2017-08-21T19:05:54Z</time>
      </trkpt>
      <trkpt lat="44.00903" lon="7.24873">
        <ele>1692</ele>
        <time>2017-08-21T19:07:54Z</time>
      </trkpt>
      <trkpt lat="44.00907" lon="7.24948">
        <ele>1692</ele>
        <time>2017-08-21T19:09:54Z</time>
      </trkpt>
      <trkpt lat="44.00911" lon="7.24998">
        <ele>1692</ele>
        <time>2017-08-21T19:11:54Z</time>
      </trkpt>
      <trkpt lat="44.00907" lon="7.25059">
        <ele>1690</ele>
        <time>2017-08-21T19:13:54Z</time>
      </trkpt>
      <trkpt lat="44.0092" lon="7.25051">
        <ele>1692</ele>
        <time>2017-08-21T19:15:54Z</time>
      </trkpt>
      <trkpt lat="44.00936" lon="7.25027">
        <ele>1697</ele>
        <time>2017-08-21T19:17:54Z</time>
      </trkpt>
      <trkpt lat="44.00951" lon="7.25004">
        <ele>1703</ele>
        <time>2017-08-21T19:19:54Z</time>
      </trkpt>
      <trkpt lat="44.00963" lon="7.25011">
        <ele>1706</ele>
        <time>2017-08-21T19:21:54Z</time>
      </trkpt>
      <trkpt lat="44.00964" lon="7.25044">
        <ele>1704</ele>
        <time>2017-08-21T19:23:54Z</time>
      </trkpt>
      <trkpt lat="44.00969" lon="7.25067">
        <ele>1704</ele>
        <time>2017-08-21T19:25:54Z</time>
      </trkpt>
      <trkpt lat="44.00978" lon="7.25083">
        <ele>1706</ele>
        <time>2017-08-21T19:27:54Z</time>
      </trkpt>
      <trkpt lat="44.00987" lon="7.25074">
        <ele>1709</ele>
        <time>2017-08-21T19:29:54Z</time>
      </trkpt>
      <trkpt lat="44.00987" lon="7.25027">
        <ele>1712</ele>
        <time>2017-08-21T19:31:54Z</time>
      </trkpt>
      <trkpt lat="44.00991" lon="7.25005">
        <ele>1715</ele>
        <time>2017-08-21T19:33:54Z</time>
      </trkpt>
      <trkpt lat="44.00998" lon="7.2498">
        <ele>1717</ele>
        <time>2017-08-21T19:35:54Z</time>
      </trkpt>
      <trkpt lat="44.01025" lon="7.24939">
        <ele>1725</ele>
        <time>2017-08-21T19:37:54Z</time>
      </trkpt>
      <trkpt lat="44.01054" lon="7.24901">
        <ele>1733</ele>
        <time>2017-08-21T19:39:54Z</time>
      </trkpt>
      <trkpt lat="44.01065" lon="7.24869">
        <ele>1735</ele>
        <time>2017-08-21T19:41:54Z</time>
      </trkpt>
      <trkpt lat="44.01079" lon="7.24846">
        <ele>1738</ele>
        <time>2017-08-21T19:43:54Z</time>
      </trkpt>
      <trkpt lat="44.01086" lon="7.24842">
        <ele>1740</ele>
        <time>2017-08-21T19:45:54Z</time>
      </trkpt>
      <trkpt lat="44.01093" lon="7.24845">
        <ele>1743</ele>
        <time>2017-08-21T19:47:54Z</time>
      </trkpt>
      <trkpt lat="44.01108" lon="7.2485">
        <ele>1747</ele>
        <time>2017-08-21T19:49:54Z</time>
      </trkpt>
      <trkpt lat="44.01111" lon="7.24846">
        <ele>1748</ele>
        <time>2017-08-21T19:51:54Z</time>
      </trkpt>
      <trkpt lat="44.01117" lon="7.24847">
        <ele>1750</ele>
        <time>2017-08-21T19:53:54Z</time>
      </trkpt>
      <trkpt lat="44.01123" lon="7.24846">
        <ele>1752</ele>
        <time>2017-08-21T19:55:54Z</time>
      </trkpt>
      <trkpt lat="44.01135" lon="7.24851">
        <ele>1756</ele>
        <time>2017-08-21T19:57:54Z</time>
      </trkpt>
      <trkpt lat="44.01145" lon="7.24838">
        <ele>1758</ele>
        <time>2017-08-21T19:59:54Z</time>
      </trkpt>
      <trkpt lat="44.01152" lon="7.24823">
        <ele>1759</ele>
        <time>2017-08-21T20:01:54Z</time>
      </trkpt>
      <trkpt lat="44.01162" lon="7.24816">
        <ele>1762</ele>
        <time>2017-08-21T20:03:54Z</time>
      </trkpt>
      <trkpt lat="44.01166" lon="7.24807">
        <ele>1763</ele>
        <time>2017-08-21T20:05:54Z</time>
      </trkpt>
      <trkpt lat="44.01171" lon="7.24791">
        <ele>1764</ele>
        <time>2017-08-21T20:07:54Z</time>
      </trkpt>
      <trkpt lat="44.01176" lon="7.24741">
        <ele>1764</ele>
        <time>2017-08-21T20:09:54Z</time>
      </trkpt>
      <trkpt lat="44.01179" lon="7.24732">
        <ele>1764</ele>
        <time>2017-08-21T20:11:54Z</time>
      </trkpt>
      <trkpt lat="44.01187" lon="7.24723">
        <ele>1766</ele>
        <time>2017-08-21T20:13:54Z</time>
      </trkpt>
      <trkpt lat="44.01196" lon="7.24724">
        <ele>1768</ele>
        <time>2017-08-21T20:15:54Z</time>
      </trkpt>
      <trkpt lat="44.01207" lon="7.24719">
        <ele>1771</ele>
        <time>2017-08-21T20:17:54Z</time>
      </trkpt>
      <trkpt lat="44.01218" lon="7.24717">
        <ele>1774</ele>
        <time>2017-08-21T20:19:54Z</time>
      </trkpt>
      <trkpt lat="44.0122" lon="7.24704">
        <ele>1774</ele>
        <time>2017-08-21T20:21:54Z</time>
      </trkpt>
      <trkpt lat="44.01234" lon="7.24665">
        <ele>1776</ele>
        <time>2017-08-21T20:23:54Z</time>
      </trkpt>
      <trkpt lat="44.01243" lon="7.24636">
        <ele>1779</ele>
        <time>2017-08-21T20:25:54Z</time>
      </trkpt>
      <trkpt lat="44.01237" lon="7.24617">
        <ele>1778</ele>
        <time>2017-08-21T20:27:54Z</time>
      </trkpt>
      <trkpt lat="44.01227" lon="7.24596">
        <ele>1776</ele>
        <time>2017-08-21T20:29:54Z</time>
      </trkpt>
      <trkpt lat="44.01225" lon="7.24577">
        <ele>1776</ele>
        <time>2017-08-21T20:31:54Z</time>
      </trkpt>
      <trkpt lat="44.01229" lon="7.24565">
        <ele>1777</ele>
        <time>2017-08-21T20:33:54Z</time>
      </trkpt>
      <trkpt lat="44.0124" lon="7.24554">
        <ele>1780</ele>
        <time>2017-08-21T20:35:54Z</time>
      </trkpt>
      <trkpt lat="44.01257" lon="7.24555">
        <ele>1785</ele>
        <time>2017-08-21T20:37:54Z</time>
      </trkpt>
      <trkpt lat="44.01274" lon="7.2458">
        <ele>1791</ele>
        <time>2017-08-21T20:39:54Z</time>
      </trkpt>
      <trkpt lat="44.01283" lon="7.24613">
        <ele>1794</ele>
        <time>2017-08-21T20:41:54Z</time>
      </trkpt>
      <trkpt lat="44.01279" lon="7.24658">
        <ele>1792</ele>
        <time>2017-08-21T20:43:54Z</time>
      </trkpt>
      <trkpt lat="44.01278" lon="7.247">
        <ele>1794</ele>
        <time>2017-08-21T20:45:54Z</time>
      </trkpt>
      <trkpt lat="44.01286" lon="7.24746">
        <ele>1799</ele>
        <time>2017-08-21T20:47:54Z</time>
      </trkpt>
      <trkpt lat="44.01291" lon="7.24779">
        <ele>1802</ele>
        <time>2017-08-21T20:49:54Z</time>
      </trkpt>
      <trkpt lat="44.01297" lon="7.2479">
        <ele>1805</ele>
        <time>2017-08-21T20:51:54Z</time>
      </trkpt>
      <trkpt lat="44.01303" lon="7.24803">
        <ele>1808</ele>
        <time>2017-08-21T20:53:54Z</time>
      </trkpt>
      <trkpt lat="44.01315" lon="7.24824">
        <ele>1813</ele>
        <time>2017-08-21T20:55:54Z</time>
      </trkpt>
      <trkpt lat="44.01325" lon="7.24837">
        <ele>1817</ele>
        <time>2017-08-21T20:57:54Z</time>
      </trkpt>
      <trkpt lat="44.01338" lon="7.24841">
        <ele>1822</ele>
        <time>2017-08-21T20:59:54Z</time>
      </trkpt>
      <trkpt lat="44.01344" lon="7.24856">
        <ele>1825</ele>
        <time>2017-08-21T21:01:54Z</time>
      </trkpt>
      <trkpt lat="44.0135" lon="7.24864">
        <ele>1828</ele>
        <time>2017-08-21T21:03:54Z</time>
      </trkpt>
      <trkpt lat="44.01359" lon="7.24883">
        <ele>1833</ele>
        <time>2017-08-21T21:05:54Z</time>
      </trkpt>
      <trkpt lat="44.01362" lon="7.24897">
        <ele>1835</ele>
        <time>2017-08-21T21:07:54Z</time>
      </trkpt>
      <trkpt lat="44.01369" lon="7.24906">
        <ele>1838</ele>
        <time>2017-08-21T21:09:54Z</time>
      </trkpt>
      <trkpt lat="44.01373" lon="7.24899">
        <ele>1839</ele>
        <time>2017-08-21T21:11:54Z</time>
      </trkpt>
      <trkpt lat="44.01379" lon="7.24896">
        <ele>1841</ele>
        <time>2017-08-21T21:13:54Z</time>
      </trkpt>
      <trkpt lat="44.01395" lon="7.2489">
        <ele>1847</ele>
        <time>2017-08-21T21:15:54Z</time>
      </trkpt>
      <trkpt lat="44.01404" lon="7.24887">
        <ele>1850</ele>
        <time>2017-08-21T21:17:54Z</time>
      </trkpt>
      <trkpt lat="44.01413" lon="7.24868">
        <ele>1853</ele>
        <time>2017-08-21T21:19:54Z</time>
      </trkpt>
      <trkpt lat="44.01418" lon="7.24851">
        <ele>1854</ele>
        <time>2017-08-21T21:21:54Z</time>
      </trkpt>
      <trkpt lat="44.01422" lon="7.24842">
        <ele>1855</ele>
        <time>2017-08-21T21:23:54Z</time>
      </trkpt>
      <trkpt lat="44.01431" lon="7.24839">
        <ele>1859</ele>
        <time>2017-08-21T21:25:54Z</time>
      </trkpt>
      <trkpt lat="44.01435" lon="7.24827">
        <ele>1860</ele>
        <time>2017-08-21T21:27:54Z</time>
      </trkpt>
      <trkpt lat="44.01444" lon="7.24821">
        <ele>1864</ele>
        <time>2017-08-21T21:29:54Z</time>
      </trkpt>
      <trkpt lat="44.01451" lon="7.24818">
        <ele>1867</ele>
        <time>2017-08-21T21:31:54Z</time>
      </trkpt>
      <trkpt lat="44.01459" lon="7.2482">
        <ele>1871</ele>
        <time>2017-08-21T21:33:54Z</time>
      </trkpt>
      <trkpt lat="44.01465" lon="7.24812">
        <ele>1873</ele>
        <time>2017-08-21T21:35:54Z</time>
      </trkpt>
      <trkpt lat="44.01472" lon="7.24803">
        <ele>1876</ele>
        <time>2017-08-21T21:37:54Z</time>
      </trkpt>
      <trkpt lat="44.01481" lon="7.248">
        <ele>1880</ele>
        <time>2017-08-21T21:39:54Z</time>
      </trkpt>
      <trkpt lat="44.01486" lon="7.24791">
        <ele>1881</ele>
        <time>2017-08-21T21:41:54Z</time>
      </trkpt>
      <trkpt lat="44.01502" lon="7.2477">
        <ele>1887</ele>
        <time>2017-08-21T21:43:54Z</time>
      </trkpt>
      <trkpt lat="44.01512" lon="7.24729">
        <ele>1890</ele>
        <time>2017-08-21T21:45:54Z</time>
      </trkpt>
      <trkpt lat="44.01535" lon="7.24705">
        <ele>1899</ele>
        <time>2017-08-21T21:47:54Z</time>
      </trkpt>
      <trkpt lat="44.01555" lon="7.24689">
        <ele>1906</ele>
        <time>2017-08-21T21:49:54Z</time>
      </trkpt>
      <trkpt lat="44.01558" lon="7.24668">
        <ele>1906</ele>
        <time>2017-08-21T21:51:54Z</time>
      </trkpt>
      <trkpt lat="44.01565" lon="7.2466">
        <ele>1908</ele>
        <time>2017-08-21T21:53:54Z</time>
      </trkpt>
      <trkpt lat="44.01573" lon="7.2465">
        <ele>1911</ele>
        <time>2017-08-21T21:55:54Z</time>
      </trkpt>
      <trkpt lat="44.01582" lon="7.24637">
        <ele>1913</ele>
        <time>2017-08-21T21:57:54Z</time>
      </trkpt>
      <trkpt lat="44.01584" lon="7.24621">
        <ele>1914</ele>
        <time>2017-08-21T21:59:54Z</time>
      </trkpt>
      <trkpt lat="44.0159" lon="7.24594">
        <ele>1915</ele>
        <time>2017-08-21T22:01:54Z</time>
      </trkpt>
      <trkpt lat="44.01608" lon="7.24555">
        <ele>1920</ele>
        <time>2017-08-21T22:03:54Z</time>
      </trkpt>
      <trkpt lat="44.01624" lon="7.24489">
        <ele>1925</ele>
        <time>2017-08-21T22:05:54Z</time>
      </trkpt>
      <trkpt lat="44.01649" lon="7.24465">
        <ele>1933</ele>
        <time>2017-08-21T22:07:54Z</time>
      </trkpt>
      <trkpt lat="44.0167" lon="7.24394">
        <ele>1942</ele>
        <time>2017-08-21T22:09:54Z</time>
      </trkpt>
      <trkpt lat="44.01666" lon="7.2433">
        <ele>1944</ele>
        <time>2017-08-21T22:11:54Z</time>
      </trkpt>
      <trkpt lat="44.01698" lon="7.24301">
        <ele>1953</ele>
        <time>2017-08-21T22:13:54Z</time>
      </trkpt>
      <trkpt lat="44.01708" lon="7.24272">
        <ele>1957</ele>
        <time>2017-08-21T22:15:54Z</time>
      </trkpt>
      <trkpt lat="44.01727" lon="7.24235">
        <ele>1966</ele>
        <time>2017-08-21T22:17:54Z</time>
      </trkpt>
      <trkpt lat="44.01732" lon="7.24217">
        <ele>1969</ele>
        <time>2017-08-21T22:19:54Z</time>
      </trkpt>
      <trkpt lat="44.01731" lon="7.24197">
        <ele>1971</ele>
        <time>2017-08-21T22:21:54Z</time>
      </trkpt>
      <trkpt lat="44.0173" lon="7.24143">
        <ele>1975</ele>
        <time>2017-08-21T22:23:54Z</time>
      </trkpt>
      <trkpt lat="44.01748" lon="7.24013">
        <ele>1986</ele>
        <time>2017-08-21T22:25:54Z</time>
      </trkpt>
      <trkpt lat="44.01754" lon="7.23938">
        <ele>1986</ele>
        <time>2017-08-21T22:27:54Z</time>
      </trkpt>
      <trkpt lat="44.01748" lon="7.2388">
        <ele>1983</ele>
        <time>2017-08-21T22:29:54Z</time>
      </trkpt>
      <trkpt lat="44.01744" lon="7.23828">
        <ele>1979</ele>
        <time>2017-08-21T22:31:54Z</time>
      </trkpt>
      <trkpt lat="44.01738" lon="7.23765">
        <ele>1977</ele>
        <time>2017-08-21T22:33:54Z</time>
      </trkpt>
      <trkpt lat="44.01738" lon="7.23711">
        <ele>1977</ele>
        <time>2017-08-21T22:35:54Z</time>
      </trkpt>
      <trkpt lat="44.01731" lon="7.23646">
        <ele>1981</ele>
        <time>2017-08-21T22:37:54Z</time>
      </trkpt>
      <trkpt lat="44.01738" lon="7.23615">
        <ele>1986</ele>
        <time>2017-08-21T22:39:54Z</time>
      </trkpt>
      <trkpt lat="44.01751" lon="7.23574">
        <ele>1991</ele>
        <time>2017-08-21T22:41:54Z</time>
      </trkpt>
      <trkpt lat="44.0175" lon="7.23548">
        <ele>1998</ele>
        <time>2017-08-21T22:43:54Z</time>
      </trkpt>
      <trkpt lat="44.01761" lon="7.235">
        <ele>2004</ele>
        <time>2017-08-21T22:45:54Z</time>
      </trkpt>
      <trkpt lat="44.01786" lon="7.23454">
        <ele>2001</ele>
        <time>2017-08-21T22:47:54Z</time>
      </trkpt>
      <trkpt lat="44.01814" lon="7.23406">
        <ele>1997</ele>
        <time>2017-08-21T22:49:54Z</time>
      </trkpt>
      <trkpt lat="44.01834" lon="7.23385">
        <ele>1992</ele>
        <time>2017-08-21T22:51:54Z</time>
      </trkpt>
      <trkpt lat="44.01856" lon="7.23374">
        <ele>1981</ele>
        <time>2017-08-21T22:53:54Z</time>
      </trkpt>
      <trkpt lat="44.01859" lon="7.2335">
        <ele>1988</ele>
        <time>2017-08-21T22:55:54Z</time>
      </trkpt>
      <trkpt lat="44.01865" lon="7.23332">
        <ele>1990</ele>
        <time>2017-08-21T22:57:54Z</time>
      </trkpt>
      <trkpt lat="44.01885" lon="7.23307">
        <ele>1977</ele>
        <time>2017-08-21T22:59:54Z</time>
      </trkpt>
      <trkpt lat="44.01899" lon="7.23275">
        <ele>1971</ele>
        <time>2017-08-21T23:01:54Z</time>
      </trkpt>
      <trkpt lat="44.0192" lon="7.23265">
        <ele>1965</ele>
        <time>2017-08-21T23:03:54Z</time>
      </trkpt>
      <trkpt lat="44.01939" lon="7.23244">
        <ele>1961</ele>
        <time>2017-08-21T23:05:54Z</time>
      </trkpt>
      <trkpt lat="44.01964" lon="7.23224">
        <ele>1949</ele>
        <time>2017-08-21T23:07:54Z</time>
      </trkpt>
      <trkpt lat="44.0197" lon="7.23209">
        <ele>1944</ele>
        <time>2017-08-21T23:09:54Z</time>
      </trkpt>
      <trkpt lat="44.01987" lon="7.23195">
        <ele>1939</ele>
        <time>2017-08-21T23:11:54Z</time>
      </trkpt>
      <trkpt lat="44.01987" lon="7.23181">
        <ele>1935</ele>
        <time>2017-08-21T23:13:54Z</time>
      </trkpt>
      <trkpt lat="44.0197" lon="7.23161">
        <ele>1929</ele>
        <time>2017-08-21T23:15:54Z</time>
      </trkpt>
      <trkpt lat="44.01986" lon="7.23156">
        <ele>1927</ele>
        <time>2017-08-21T23:17:54Z</time>
      </trkpt>
      <trkpt lat="44.02025" lon="7.2316">
        <ele>1931</ele>
        <time>2017-08-21T23:19:54Z</time>
      </trkpt>
      <trkpt lat="44.02052" lon="7.23157">
        <ele>1933</ele>
        <time>2017-08-21T23:21:54Z</time>
      </trkpt>
      <trkpt lat="44.021" lon="7.23122">
        <ele>1926</ele>
        <time>2017-08-21T23:23:54Z</time>
      </trkpt>
      <trkpt lat="44.02123" lon="7.23111">
        <ele>1925</ele>
        <time>2017-08-21T23:25:54Z</time>
      </trkpt>
      <trkpt lat="44.02153" lon="7.23103">
        <ele>1927</ele>
        <time>2017-08-21T23:27:54Z</time>
      </trkpt>
      <trkpt lat="44.02212" lon="7.23082">
        <ele>1933</ele>
        <time>2017-08-21T23:29:54Z</time>
      </trkpt>
      <trkpt lat="44.02251" lon="7.23063">
        <ele>1935</ele>
        <time>2017-08-21T23:31:54Z</time>
      </trkpt>
      <trkpt lat="44.02272" lon="7.2304">
        <ele>1930</ele>
        <time>2017-08-21T23:33:54Z</time>
      </trkpt>
      <trkpt lat="44.02289" lon="7.23019">
        <ele>1931</ele>
        <time>2017-08-21T23:35:54Z</time>
      </trkpt>
      <trkpt lat="44.02301" lon="7.22992">
        <ele>1935</ele>
        <time>2017-08-21T23:37:54Z</time>
      </trkpt>
      <trkpt lat="44.02308" lon="7.22958">
        <ele>1933</ele>
        <time>2017-08-21T23:39:54Z</time>
      </trkpt>
      <trkpt lat="44.02326" lon="7.22947">
        <ele>1938</ele>
        <time>2017-08-21T23:41:54Z</time>
      </trkpt>
      <trkpt lat="44.02343" lon="7.22922">
        <ele>1940</ele>
        <time>2017-08-21T23:43:54Z</time>
      </trkpt>
      <trkpt lat="44.02372" lon="7.22893">
        <ele>1935</ele>
        <time>2017-08-21T23:45:54Z</time>
      </trkpt>
      <trkpt lat="44.02386" lon="7.2287">
        <ele>1935</ele>
        <time>2017-08-21T23:47:54Z</time>
      </trkpt>
      <trkpt lat="44.02394" lon="7.22836">
        <ele>1937</ele>
        <time>2017-08-21T23:49:54Z</time>
      </trkpt>
      <trkpt lat="44.02412" lon="7.22797">
        <ele>1938</ele>
        <time>2017-08-21T23:51:54Z</time>
      </trkpt>
      <trkpt lat="44.02431" lon="7.22768">
        <ele>1933</ele>
        <time>2017-08-21T23:53:54Z</time>
      </trkpt>
      <trkpt lat="44.02454" lon="7.22725">
        <ele>1928</ele>
        <time>2017-08-21T23:55:54Z</time>
      </trkpt>
      <trkpt lat="44.02464" lon="7.22691">
        <ele>1930</ele>
        <time>2017-08-21T23:57:54Z</time>
      </trkpt>
      <trkpt lat="44.0248" lon="7.22624">
        <ele>1934</ele>
        <time>2017-08-21T23:59:54Z</time>
      </trkpt>
      <trkpt lat="44.02494" lon="7.22581">
        <ele>1939</ele>
        <time>2017-08-22T00:01:54Z</time>
      </trkpt>
      <trkpt lat="44.02501" lon="7.22531">
        <ele>1937</ele>
        <time>2017-08-22T00:03:54Z</time>
      </trkpt>
      <trkpt lat="44.02501" lon="7.22495">
        <ele>1933</ele>
        <time>2017-08-22T00:05:54Z</time>
      </trkpt>
      <trkpt lat="44.02503" lon="7.22458">
        <ele>1929</ele>
        <time>2017-08-22T00:07:54Z</time>
      </trkpt>
      <trkpt lat="44.02511" lon="7.22423">
        <ele>1927</ele>
        <time>2017-08-22T00:09:54Z</time>
      </trkpt>
      <trkpt lat="44.0253" lon="7.22405">
        <ele>1928</ele>
        <time>2017-08-22T00:11:54Z</time>
      </trkpt>
      <trkpt lat="44.02587" lon="7.22351">
        <ele>1923</ele>
        <time>2017-08-22T00:13:54Z</time>
      </trkpt>
      <trkpt lat="44.02612" lon="7.22336">
        <ele>1918</ele>
        <time>2017-08-22T00:15:54Z</time>
      </trkpt>
      <trkpt lat="44.02626" lon="7.22328">
        <ele>1916</ele>
        <time>2017-08-22T00:17:54Z</time>
      </trkpt>
      <trkpt lat="44.02643" lon="7.22316">
        <ele>1914</ele>
        <time>2017-08-22T00:19:54Z</time>
      </trkpt>
      <trkpt lat="44.02655" lon="7.22298">
        <ele>1911</ele>
        <time>2017-08-22T00:21:54Z</time>
      </trkpt>
      <trkpt lat="44.02663" lon="7.22271">
        <ele>1907</ele>
        <time>2017-08-22T00:23:54Z</time>
      </trkpt>
      <trkpt lat="44.02677" lon="7.22243">
        <ele>1905</ele>
        <time>2017-08-22T00:25:54Z</time>
      </trkpt>
      <trkpt lat="44.02683" lon="7.22222">
        <ele>1906</ele>
        <time>2017-08-22T00:27:54Z</time>
      </trkpt>
      <trkpt lat="44.0268" lon="7.22184">
        <ele>1909</ele>
        <time>2017-08-22T00:29:54Z</time>
      </trkpt>
      <trkpt lat="44.02682" lon="7.22156">
        <ele>1910</ele>
        <time>2017-08-22T00:31:54Z</time>
      </trkpt>
      <trkpt lat="44.0269" lon="7.22131">
        <ele>1913</ele>
        <time>2017-08-22T00:33:54Z</time>
      </trkpt>
      <trkpt lat="44.02695" lon="7.22087">
        <ele>1917</ele>
        <time>2017-08-22T00:35:54Z</time>
      </trkpt>
      <trkpt lat="44.027" lon="7.22064">
        <ele>1915</ele>
        <time>2017-08-22T00:37:54Z</time>
      </trkpt>
      <trkpt lat="44.02742" lon="7.22011">
        <ele>1921</ele>
        <time>2017-08-22T00:39:54Z</time>
      </trkpt>
      <trkpt lat="44.02755" lon="7.21999">
        <ele>1923</ele>
        <time>2017-08-22T00:41:54Z</time>
      </trkpt>
      <trkpt lat="44.02771" lon="7.21974">
        <ele>1923</ele>
        <time>2017-08-22T00:43:54Z</time>
      </trkpt>
      <trkpt lat="44.02794" lon="7.21932">
        <ele>1923</ele>
        <time>2017-08-22T00:45:54Z</time>
      </trkpt>
      <trkpt lat="44.02812" lon="7.2188">
        <ele>1918</ele>
        <time>2017-08-22T00:47:54Z</time>
      </trkpt>
      <trkpt lat="44.02822" lon="7.21861">
        <ele>1918</ele>
        <time>2017-08-22T00:49:54Z</time>
      </trkpt>
      <trkpt lat="44.02838" lon="7.21854">
        <ele>1925</ele>
        <time>2017-08-22T00:51:54Z</time>
      </trkpt>
      <trkpt lat="44.02866" lon="7.21841">
        <ele>1935</ele>
        <time>2017-08-22T00:53:54Z</time>
      </trkpt>
      <trkpt lat="44.02879" lon="7.21827">
        <ele>1937</ele>
        <time>2017-08-22T00:55:54Z</time>
      </trkpt>
      <trkpt lat="44.0289" lon="7.21807">
        <ele>1936</ele>
        <time>2017-08-22T00:57:54Z</time>
      </trkpt>
      <trkpt lat="44.02893" lon="7.2177">
        <ele>1926</ele>
        <time>2017-08-22T00:59:54Z</time>
      </trkpt>
      <trkpt lat="44.02897" lon="7.21761">
        <ele>1925</ele>
        <time>2017-08-22T01:01:54Z</time>
      </trkpt>
      <trkpt lat="44.02902" lon="7.21754">
        <ele>1926</ele>
        <time>2017-08-22T01:03:54Z</time>
      </trkpt>
      <trkpt lat="44.02919" lon="7.21753">
        <ele>1935</ele>
        <time>2017-08-22T01:05:54Z</time>
      </trkpt>
      <trkpt lat="44.02944" lon="7.21748">
        <ele>1941</ele>
        <time>2017-08-22T01:07:54Z</time>
      </trkpt>
      <trkpt lat="44.02966" lon="7.21733">
        <ele>1941</ele>
        <time>2017-08-22T01:09:54Z</time>
      </trkpt>
      <trkpt lat="44.02977" lon="7.21719">
        <ele>1937</ele>
        <time>2017-08-22T01:11:54Z</time>
      </trkpt>
      <trkpt lat="44.02987" lon="7.21718">
        <ele>1940</ele>
        <time>2017-08-22T01:13:54Z</time>
      </trkpt>
      <trkpt lat="44.02998" lon="7.21714">
        <ele>1942</ele>
        <time>2017-08-22T01:15:54Z</time>
      </trkpt>
      <trkpt lat="44.03016" lon="7.21704">
        <ele>1945</ele>
        <time>2017-08-22T01:17:54Z</time>
      </trkpt>
      <trkpt lat="44.03023" lon="7.21681">
        <ele>1937</ele>
        <time>2017-08-22T01:19:54Z</time>
      </trkpt>
      <trkpt lat="44.03031" lon="7.21663">
        <ele>1932</ele>
        <time>2017-08-22T01:21:54Z</time>
      </trkpt>
      <trkpt lat="44.03044" lon="7.21648">
        <ele>1931</ele>
        <time>2017-08-22T01:23:54Z</time>
      </trkpt>
      <trkpt lat="44.03065" lon="7.21643">
        <ele>1940</ele>
        <time>2017-08-22T01:25:54Z</time>
      </trkpt>
      <trkpt lat="44.03088" lon="7.21637">
        <ele>1948</ele>
        <time>2017-08-22T01:27:54Z</time>
      </trkpt>
      <trkpt lat="44.0312" lon="7.21599">
        <ele>1939</ele>
        <time>2017-08-22T01:29:54Z</time>
      </trkpt>
      <trkpt lat="44.03159" lon="7.21563">
        <ele>1944</ele>
        <time>2017-08-22T01:31:54Z</time>
      </trkpt>
      <trkpt lat="44.03182" lon="7.21538">
        <ele>1942</ele>
        <time>2017-08-22T01:33:54Z</time>
      </trkpt>
      <trkpt lat="44.03182" lon="7.21521">
        <ele>1941</ele>
        <time>2017-08-22T01:35:54Z</time>
      </trkpt>
      <trkpt lat="44.03197" lon="7.21503">
        <ele>1942</ele>
        <time>2017-08-22T01:37:54Z</time>
      </trkpt>
      <trkpt lat="44.0321" lon="7.21481">
        <ele>1949</ele>
        <time>2017-08-22T01:39:54Z</time>
      </trkpt>
      <trkpt lat="44.03207" lon="7.21449">
        <ele>1955</ele>
        <time>2017-08-22T01:41:54Z</time>
      </trkpt>
      <trkpt lat="44.03207" lon="7.21423">
        <ele>1960</ele>
        <time>2017-08-22T01:43:54Z</time>
      </trkpt>
      <trkpt lat="44.03213" lon="7.21397">
        <ele>1970</ele>
        <time>2017-08-22T01:45:54Z</time>
      </trkpt>
      <trkpt lat="44.03213" lon="7.21353">
        <ele>1980</ele>
        <time>2017-08-22T01:47:54Z</time>
      </trkpt>
      <trkpt lat="44.03211" lon="7.21301">
        <ele>1987</ele>
        <time>2017-08-22T01:49:54Z</time>
      </trkpt>
      <trkpt lat="44.03206" lon="7.21252">
        <ele>1989</ele>
        <time>2017-08-22T01:51:54Z</time>
      </trkpt>
      <trkpt lat="44.03204" lon="7.21225">
        <ele>1986</ele>
        <time>2017-08-22T01:53:54Z</time>
      </trkpt>
      <trkpt lat="44.03212" lon="7.21197">
        <ele>1990</ele>
        <time>2017-08-22T01:55:54Z</time>
      </trkpt>
      <trkpt lat="44.03223" lon="7.21174">
        <ele>1995</ele>
        <time>2017-08-22T01:57:54Z</time>
      </trkpt>
      <trkpt lat="44.03237" lon="7.21148">
        <ele>1998</ele>
        <time>2017-08-22T01:59:54Z</time>
      </trkpt>
      <trkpt lat="44.03256" lon="7.21122">
        <ele>1997</ele>
        <time>2017-08-22T02:01:54Z</time>
      </trkpt>
      <trkpt lat="44.0328" lon="7.21107">
        <ele>1996</ele>
        <time>2017-08-22T02:03:54Z</time>
      </trkpt>
      <trkpt lat="44.03297" lon="7.21097">
        <ele>1994</ele>
        <time>2017-08-22T02:05:54Z</time>
      </trkpt>
      <trkpt lat="44.0332" lon="7.21101">
        <ele>2000</ele>
        <time>2017-08-22T02:07:54Z</time>
      </trkpt>
      <trkpt lat="44.03334" lon="7.21114">
        <ele>2011</ele>
        <time>2017-08-22T02:09:54Z</time>
      </trkpt>
      <trkpt lat="44.03351" lon="7.21123">
        <ele>2018</ele>
        <time>2017-08-22T02:11:54Z</time>
      </trkpt>
      <trkpt lat="44.03375" lon="7.21119">
        <ele>2018</ele>
        <time>2017-08-22T02:13:54Z</time>
      </trkpt>
      <trkpt lat="44.03401" lon="7.211">
        <ele>2008</ele>
        <time>2017-08-22T02:15:54Z</time>
      </trkpt>
      <trkpt lat="44.03415" lon="7.21094">
        <ele>2005</ele>
        <time>2017-08-22T02:17:54Z</time>
      </trkpt>
      <trkpt lat="44.03447" lon="7.21075">
        <ele>1999</ele>
        <time>2017-08-22T02:19:54Z</time>
      </trkpt>
      <trkpt lat="44.03472" lon="7.21063">
        <ele>1996</ele>
        <time>2017-08-22T02:21:54Z</time>
      </trkpt>
      <trkpt lat="44.03497" lon="7.21049">
        <ele>1992</ele>
        <time>2017-08-22T02:23:54Z</time>
      </trkpt>
      <trkpt lat="44.03523" lon="7.2103">
        <ele>1987</ele>
        <time>2017-08-22T02:25:54Z</time>
      </trkpt>
      <trkpt lat="44.03545" lon="7.21022">
        <ele>1989</ele>
        <time>2017-08-22T02:27:54Z</time>
      </trkpt>
      <trkpt lat="44.0356" lon="7.21004">
        <ele>1985</ele>
        <time>2017-08-22T02:29:54Z</time>
      </trkpt>
      <trkpt lat="44.03578" lon="7.20996">
        <ele>1988</ele>
        <time>2017-08-22T02:31:54Z</time>
      </trkpt>
      <trkpt lat="44.03586" lon="7.2099">
        <ele>1988</ele>
        <time>2017-08-22T02:33:54Z</time>
      </trkpt>
      <trkpt lat="44.036" lon="7.20978">
        <ele>1987</ele>
        <time>2017-08-22T02:35:54Z</time>
      </trkpt>
      <trkpt lat="44.03602" lon="7.20957">
        <ele>1976</ele>
        <time>2017-08-22T02:37:54Z</time>
      </trkpt>
      <trkpt lat="44.03611" lon="7.20922">
        <ele>1961</ele>
        <time>2017-08-22T02:39:54Z</time>
      </trkpt>
      <trkpt lat="44.03643" lon="7.20909">
        <ele>1967</ele>
        <time>2017-08-22T02:41:54Z</time>
      </trkpt>
      <trkpt lat="44.03673" lon="7.20902">
        <ele>1975</ele>
        <time>2017-08-22T02:43:54Z</time>
      </trkpt>
      <trkpt lat="44.03687" lon="7.20895">
        <ele>1975</ele>
        <time>2017-08-22T02:45:54Z</time>
      </trkpt>
      <trkpt lat="44.03704" lon="7.20885">
        <ele>1974</ele>
        <time>2017-08-22T02:47:54Z</time>
      </trkpt>
      <trkpt lat="44.03724" lon="7.20889">
        <ele>1980</ele>
        <time>2017-08-22T02:49:54Z</time>
      </trkpt>
      <trkpt lat="44.03739" lon="7.20889">
        <ele>1984</ele>
        <time>2017-08-22T02:51:54Z</time>
      </trkpt>
      <trkpt lat="44.0376" lon="7.20871">
        <ele>1982</ele>
        <time>2017-08-22T02:53:54Z</time>
      </trkpt>
      <trkpt lat="44.03778" lon="7.20839">
        <ele>1974</ele>
        <time>2017-08-22T02:55:54Z</time>
      </trkpt>
      <trkpt lat="44.03804" lon="7.20795">
        <ele>1970</ele>
        <time>2017-08-22T02:57:54Z</time>
      </trkpt>
      <trkpt lat="44.03823" lon="7.20753">
        <ele>1967</ele>
        <time>2017-08-22T02:59:54Z</time>
      </trkpt>
      <trkpt lat="44.03833" lon="7.20711">
        <ele>1961</ele>
        <time>2017-08-22T03:01:54Z</time>
      </trkpt>
      <trkpt lat="44.03851" lon="7.20662">
        <ele>1957</ele>
        <time>2017-08-22T03:03:54Z</time>
      </trkpt>
      <trkpt lat="44.03867" lon="7.20619">
        <ele>1955</ele>
        <time>2017-08-22T03:05:54Z</time>
      </trkpt>
      <trkpt lat="44.03894" lon="7.20558">
        <ele>1956</ele>
        <time>2017-08-22T03:07:54Z</time>
      </trkpt>
      <trkpt lat="44.03924" lon="7.20502">
        <ele>1957</ele>
        <time>2017-08-22T03:09:54Z</time>
      </trkpt>
      <trkpt lat="44.03924" lon="7.20473">
        <ele>1952</ele>
        <time>2017-08-22T03:11:54Z</time>
      </trkpt>
      <trkpt lat="44.0393" lon="7.2044">
        <ele>1945</ele>
        <time>2017-08-22T03:13:54Z</time>
      </trkpt>
      <trkpt lat="44.03936" lon="7.20415">
        <ele>1940</ele>
        <time>2017-08-22T03:15:54Z</time>
      </trkpt>
      <trkpt lat="44.03948" lon="7.20408">
        <ele>1937</ele>
        <time>2017-08-22T03:17:54Z</time>
      </trkpt>
      <trkpt lat="44.03969" lon="7.20421">
        <ele>1939</ele>
        <time>2017-08-22T03:19:54Z</time>
      </trkpt>
      <trkpt lat="44.04037" lon="7.20453">
        <ele>1934</ele>
        <time>2017-08-22T03:21:54Z</time>
      </trkpt>
      <trkpt lat="44.04061" lon="7.20461">
        <ele>1929</ele>
        <time>2017-08-22T03:23:54Z</time>
      </trkpt>
      <trkpt lat="44.04089" lon="7.20487">
        <ele>1933</ele>
        <time>2017-08-22T03:25:54Z</time>
      </trkpt>
      <trkpt lat="44.04117" lon="7.2048">
        <ele>1924</ele>
        <time>2017-08-22T03:27:54Z</time>
      </trkpt>
      <trkpt lat="44.04143" lon="7.20488">
        <ele>1923</ele>
        <time>2017-08-22T03:29:54Z</time>
      </trkpt>
      <trkpt lat="44.04154" lon="7.20487">
        <ele>1920</ele>
        <time>2017-08-22T03:31:54Z</time>
      </trkpt>
      <trkpt lat="44.04174" lon="7.20478">
        <ele>1913</ele>
        <time>2017-08-22T03:33:54Z</time>
      </trkpt>
      <trkpt lat="44.04197" lon="7.20472">
        <ele>1909</ele>
        <time>2017-08-22T03:35:54Z</time>
      </trkpt>
      <trkpt lat="44.04225" lon="7.20476">
        <ele>1909</ele>
        <time>2017-08-22T03:37:54Z</time>
      </trkpt>
      <trkpt lat="44.04252" lon="7.20481">
        <ele>1909</ele>
        <time>2017-08-22T03:39:54Z</time>
      </trkpt>
      <trkpt lat="44.04281" lon="7.20481">
        <ele>1907</ele>
        <time>2017-08-22T03:41:54Z</time>
      </trkpt>
      <trkpt lat="44.04302" lon="7.20464">
        <ele>1898</ele>
        <time>2017-08-22T03:43:54Z</time>
      </trkpt>
      <trkpt lat="44.04327" lon="7.20448">
        <ele>1890</ele>
        <time>2017-08-22T03:45:54Z</time>
      </trkpt>
      <trkpt lat="44.0436" lon="7.20435">
        <ele>1892</ele>
        <time>2017-08-22T03:47:54Z</time>
      </trkpt>
      <trkpt lat="44.044" lon="7.20408">
        <ele>1892</ele>
        <time>2017-08-22T03:49:54Z</time>
      </trkpt>
      <trkpt lat="44.04436" lon="7.20376">
        <ele>1890</ele>
        <time>2017-08-22T03:51:54Z</time>
      </trkpt>
      <trkpt lat="44.04468" lon="7.2034">
        <ele>1889</ele>
        <time>2017-08-22T03:53:54Z</time>
      </trkpt>
      <trkpt lat="44.04481" lon="7.20316">
        <ele>1887</ele>
        <time>2017-08-22T03:55:54Z</time>
      </trkpt>
      <trkpt lat="44.04484" lon="7.20302">
        <ele>1883</ele>
        <time>2017-08-22T03:57:54Z</time>
      </trkpt>
      <trkpt lat="44.04506" lon="7.20269">
        <ele>1882</ele>
        <time>2017-08-22T03:59:54Z</time>
      </trkpt>
      <trkpt lat="44.04531" lon="7.20241">
        <ele>1882</ele>
        <time>2017-08-22T04:01:54Z</time>
      </trkpt>
      <trkpt lat="44.04557" lon="7.20225">
        <ele>1885</ele>
        <time>2017-08-22T04:03:54Z</time>
      </trkpt>
      <trkpt lat="44.04588" lon="7.202">
        <ele>1885</ele>
        <time>2017-08-22T04:05:54Z</time>
      </trkpt>
      <trkpt lat="44.04599" lon="7.20196">
        <ele>1887</ele>
        <time>2017-08-22T04:07:54Z</time>
      </trkpt>
      <trkpt lat="44.04612" lon="7.20185">
        <ele>1886</ele>
        <time>2017-08-22T04:09:54Z</time>
      </trkpt>
      <trkpt lat="44.04628" lon="7.2018">
        <ele>1890</ele>
        <time>2017-08-22T04:11:54Z</time>
      </trkpt>
      <trkpt lat="44.04656" lon="7.20172">
        <ele>1897</ele>
        <time>2017-08-22T04:13:54Z</time>
      </trkpt>
      <trkpt lat="44.04696" lon="7.20167">
        <ele>1895</ele>
        <time>2017-08-22T04:15:54Z</time>
      </trkpt>
      <trkpt lat="44.04703" lon="7.20164">
        <ele>1894</ele>
        <time>2017-08-22T04:17:54Z</time>
      </trkpt>
      <trkpt lat="44.0471" lon="7.20144">
        <ele>1893</ele>
        <time>2017-08-22T04:19:54Z</time>
      </trkpt>
      <trkpt lat="44.04717" lon="7.20117">
        <ele>1892</ele>
        <time>2017-08-22T04:21:54Z</time>
      </trkpt>
      <trkpt lat="44.04717" lon="7.20154">
        <ele>1892</ele>
        <time>2017-08-22T04:23:54Z</time>
      </trkpt>
      <trkpt lat="44.04719" lon="7.20176">
        <ele>1894</ele>
        <time>2017-08-22T04:25:54Z</time>
      </trkpt>
      <trkpt lat="44.04727" lon="7.2019">
        <ele>1896</ele>
        <time>2017-08-22T04:27:54Z</time>
      </trkpt>
      <trkpt lat="44.04733" lon="7.20182">
        <ele>1893</ele>
        <time>2017-08-22T04:29:54Z</time>
      </trkpt>
      <trkpt lat="44.04738" lon="7.20137">
        <ele>1891</ele>
        <time>2017-08-22T04:31:54Z</time>
      </trkpt>
      <trkpt lat="44.0475" lon="7.2018">
        <ele>1890</ele>
        <time>2017-08-22T04:33:54Z</time>
      </trkpt>
      <trkpt lat="44.04755" lon="7.20187">
        <ele>1888</ele>
        <time>2017-08-22T04:35:54Z</time>
      </trkpt>
      <trkpt lat="44.04761" lon="7.20159">
        <ele>1881</ele>
        <time>2017-08-22T04:37:54Z</time>
      </trkpt>
      <trkpt lat="44.04782" lon="7.20202">
        <ele>1872</ele>
        <time>2017-08-22T04:39:54Z</time>
      </trkpt>
      <trkpt lat="44.04809" lon="7.20216">
        <ele>1857</ele>
        <time>2017-08-22T04:41:54Z</time>
      </trkpt>
      <trkpt lat="44.04821" lon="7.20226">
        <ele>1851</ele>
        <time>2017-08-22T04:43:54Z</time>
      </trkpt>
      <trkpt lat="44.04834" lon="7.20267">
        <ele>1852</ele>
        <time>2017-08-22T04:45:54Z</time>
      </trkpt>
      <trkpt lat="44.04846" lon="7.2029">
        <ele>1850</ele>
        <time>2017-08-22T04:47:54Z</time>
      </trkpt>
      <trkpt lat="44.04858" lon="7.20312">
        <ele>1847</ele>
        <time>2017-08-22T04:49:54Z</time>
      </trkpt>
      <trkpt lat="44.04876" lon="7.20332">
        <ele>1840</ele>
        <time>2017-08-22T04:51:54Z</time>
      </trkpt>
      <trkpt lat="44.04887" lon="7.20356">
        <ele>1836</ele>
        <time>2017-08-22T04:53:54Z</time>
      </trkpt>
      <trkpt lat="44.04919" lon="7.20419">
        <ele>1819</ele>
        <time>2017-08-22T04:55:54Z</time>
      </trkpt>
      <trkpt lat="44.04927" lon="7.20458">
        <ele>1823</ele>
        <time>2017-08-22T04:57:54Z</time>
      </trkpt>
      <trkpt lat="44.04952" lon="7.20497">
        <ele>1817</ele>
        <time>2017-08-22T04:59:54Z</time>
      </trkpt>
      <trkpt lat="44.04975" lon="7.20525">
        <ele>1810</ele>
        <time>2017-08-22T05:01:54Z</time>
      </trkpt>
      <trkpt lat="44.04996" lon="7.20568">
        <ele>1809</ele>
        <time>2017-08-22T05:03:54Z</time>
      </trkpt>
      <trkpt lat="44.05074" lon="7.20619">
        <ele>1790</ele>
        <time>2017-08-22T05:05:54Z</time>
      </trkpt>
      <trkpt lat="44.05096" lon="7.2063">
        <ele>1783</ele>
        <time>2017-08-22T05:07:54Z</time>
      </trkpt>
      <trkpt lat="44.05128" lon="7.20661">
        <ele>1779</ele>
        <time>2017-08-22T05:09:54Z</time>
      </trkpt>
      <trkpt lat="44.05151" lon="7.20684">
        <ele>1772</ele>
        <time>2017-08-22T05:11:54Z</time>
      </trkpt>
      <trkpt lat="44.05169" lon="7.20736">
        <ele>1769</ele>
        <time>2017-08-22T05:13:54Z</time>
      </trkpt>
      <trkpt lat="44.05171" lon="7.2076">
        <ele>1768</ele>
        <time>2017-08-22T05:15:54Z</time>
      </trkpt>
      <trkpt lat="44.05168" lon="7.20781">
        <ele>1768</ele>
        <time>2017-08-22T05:17:54Z</time>
      </trkpt>
      <trkpt lat="44.05156" lon="7.208">
        <ele>1774</ele>
        <time>2017-08-22T05:19:54Z</time>
      </trkpt>
      <trkpt lat="44.05138" lon="7.20828">
        <ele>1786</ele>
        <time>2017-08-22T05:21:54Z</time>
      </trkpt>
      <trkpt lat="44.05121" lon="7.20867">
        <ele>1791</ele>
        <time>2017-08-22T05:23:54Z</time>
      </trkpt>
      <trkpt lat="44.05114" lon="7.20886">
        <ele>1792</ele>
        <time>2017-08-22T05:25:54Z</time>
      </trkpt>
      <trkpt lat="44.05109" lon="7.20915">
        <ele>1789</ele>
        <time>2017-08-22T05:27:54Z</time>
      </trkpt>
      <trkpt lat="44.05114" lon="7.20935">
        <ele>1781</ele>
        <time>2017-08-22T05:29:54Z</time>
      </trkpt>
      <trkpt lat="44.05121" lon="7.2096">
        <ele>1770</ele>
        <time>2017-08-22T05:31:54Z</time>
      </trkpt>
      <trkpt lat="44.05121" lon="7.20977">
        <ele>1766</ele>
        <time>2017-08-22T05:33:54Z</time>
      </trkpt>
      <trkpt lat="44.05113" lon="7.21007">
        <ele>1762</ele>
        <time>2017-08-22T05:35:54Z</time>
      </trkpt>
      <trkpt lat="44.05107" lon="7.21032">
        <ele>1756</ele>
        <time>2017-08-22T05:37:54Z</time>
      </trkpt>
      <trkpt lat="44.05111" lon="7.21052">
        <ele>1748</ele>
        <time>2017-08-22T05:39:54Z</time>
      </trkpt>
      <trkpt lat="44.05118" lon="7.21077">
        <ele>1739</ele>
        <time>2017-08-22T05:41:54Z</time>
      </trkpt>
      <trkpt lat="44.05111" lon="7.21104">
        <ele>1732</ele>
        <time>2017-08-22T05:43:54Z</time>
      </trkpt>
      <trkpt lat="44.05141" lon="7.21105">
        <ele>1730</ele>
        <time>2017-08-22T05:45:54Z</time>
      </trkpt>
      <trkpt lat="44.05155" lon="7.21132">
        <ele>1725</ele>
        <time>2017-08-22T05:47:54Z</time>
      </trkpt>
      <trkpt lat="44.05182" lon="7.21151">
        <ele>1718</ele>
        <time>2017-08-22T05:49:54Z</time>
      </trkpt>
      <trkpt lat="44.05204" lon="7.21176">
        <ele>1711</ele>
        <time>2017-08-22T05:51:54Z</time>
      </trkpt>
      <trkpt lat="44.05234" lon="7.21215">
        <ele>1707</ele>
        <time>2017-08-22T05:53:54Z</time>
      </trkpt>
      <trkpt lat="44.05257" lon="7.21241">
        <ele>1710</ele>
        <time>2017-08-22T05:55:54Z</time>
      </trkpt>
      <trkpt lat="44.05269" lon="7.21271">
        <ele>1709</ele>
        <time>2017-08-22T05:57:54Z</time>
      </trkpt>
      <trkpt lat="44.05294" lon="7.21283">
        <ele>1712</ele>
        <time>2017-08-22T05:59:54Z</time>
      </trkpt>
      <trkpt lat="44.05327" lon="7.21272">
        <ele>1718</ele>
        <time>2017-08-22T06:01:54Z</time>
      </trkpt>
      <trkpt lat="44.0536" lon="7.21271">
        <ele>1719</ele>
        <time>2017-08-22T06:03:54Z</time>
      </trkpt>
      <trkpt lat="44.05394" lon="7.21268">
        <ele>1719</ele>
        <time>2017-08-22T06:05:54Z</time>
      </trkpt>
      <trkpt lat="44.05439" lon="7.21255">
        <ele>1713</ele>
        <time>2017-08-22T06:07:54Z</time>
      </trkpt>
      <trkpt lat="44.05478" lon="7.21251">
        <ele>1710</ele>
        <time>2017-08-22T06:09:54Z</time>
      </trkpt>
      <trkpt lat="44.05502" lon="7.21251">
        <ele>1707</ele>
        <time>2017-08-22T06:11:54Z</time>
      </trkpt>
      <trkpt lat="44.0552" lon="7.21263">
        <ele>1702</ele>
        <time>2017-08-22T06:13:54Z</time>
      </trkpt>
      <trkpt lat="44.05528" lon="7.21272">
        <ele>1701</ele>
        <time>2017-08-22T06:15:54Z</time>
      </trkpt>
      <trkpt lat="44.0553" lon="7.21287">
        <ele>1704</ele>
        <time>2017-08-22T06:17:54Z</time>
      </trkpt>
      <trkpt lat="44.05533" lon="7.21307">
        <ele>1708</ele>
        <time>2017-08-22T06:19:54Z</time>
      </trkpt>
      <trkpt lat="44.05534" lon="7.2133">
        <ele>1714</ele>
        <time>2017-08-22T06:21:54Z</time>
      </trkpt>
      <trkpt lat="44.05543" lon="7.21342">
        <ele>1713</ele>
        <time>2017-08-22T06:23:54Z</time>
      </trkpt>
      <trkpt lat="44.05556" lon="7.2135">
        <ele>1710</ele>
        <time>2017-08-22T06:25:54Z</time>
      </trkpt>
      <trkpt lat="44.05576" lon="7.21364">
        <ele>1706</ele>
        <time>2017-08-22T06:27:54Z</time>
      </trkpt>
      <trkpt lat="44.05603" lon="7.21366">
        <ele>1695</ele>
        <time>2017-08-22T06:29:54Z</time>
      </trkpt>
      <trkpt lat="44.05621" lon="7.21368">
        <ele>1688</ele>
        <time>2017-08-22T06:31:54Z</time>
      </trkpt>
      <trkpt lat="44.05643" lon="7.21381">
        <ele>1683</ele>
        <time>2017-08-22T06:33:54Z</time>
      </trkpt>
      <trkpt lat="44.05653" lon="7.21395">
        <ele>1684</ele>
        <time>2017-08-22T06:35:54Z</time>
      </trkpt>
      <trkpt lat="44.05666" lon="7.21422">
        <ele>1688</ele>
        <time>2017-08-22T06:37:54Z</time>
      </trkpt>
      <trkpt lat="44.05682" lon="7.21434">
        <ele>1685</ele>
        <time>2017-08-22T06:39:54Z</time>
      </trkpt>
      <trkpt lat="44.05715" lon="7.21452">
        <ele>1679</ele>
        <time>2017-08-22T06:41:54Z</time>
      </trkpt>
      <trkpt lat="44.0574" lon="7.2146">
        <ele>1673</ele>
        <time>2017-08-22T06:43:54Z</time>
      </trkpt>
      <trkpt lat="44.05761" lon="7.2146">
        <ele>1669</ele>
        <time>2017-08-22T06:45:54Z</time>
      </trkpt>
      <trkpt lat="44.05778" lon="7.21442">
        <ele>1661</ele>
        <time>2017-08-22T06:47:54Z</time>
      </trkpt>
      <trkpt lat="44.05794" lon="7.21417">
        <ele>1650</ele>
        <time>2017-08-22T06:49:54Z</time>
      </trkpt>
      <trkpt lat="44.0583" lon="7.21384">
        <ele>1634</ele>
        <time>2017-08-22T06:51:54Z</time>
      </trkpt>
      <trkpt lat="44.05855" lon="7.21362">
        <ele>1626</ele>
        <time>2017-08-22T06:53:54Z</time>
      </trkpt>
      <trkpt lat="44.05848" lon="7.21343">
        <ele>1618</ele>
        <time>2017-08-22T06:55:54Z</time>
      </trkpt>
      <trkpt lat="44.05853" lon="7.21319">
        <ele>1610</ele>
        <time>2017-08-22T06:57:54Z</time>
      </trkpt>
      <trkpt lat="44.05866" lon="7.21284">
        <ele>1601</ele>
        <time>2017-08-22T06:59:54Z</time>
      </trkpt>
      <trkpt lat="44.05882" lon="7.21241">
        <ele>1591</ele>
        <time>2017-08-22T07:01:54Z</time>
      </trkpt>
      <trkpt lat="44.05913" lon="7.2121">
        <ele>1585</ele>
        <time>2017-08-22T07:03:54Z</time>
      </trkpt>
      <trkpt lat="44.05934" lon="7.21166">
        <ele>1570</ele>
        <time>2017-08-22T07:05:54Z</time>
      </trkpt>
      <trkpt lat="44.05963" lon="7.21099">
        <ele>1552</ele>
        <time>2017-08-22T07:07:54Z</time>
      </trkpt>
      <trkpt lat="44.05997" lon="7.21025">
        <ele>1529</ele>
        <time>2017-08-22T07:09:54Z</time>
      </trkpt>
      <trkpt lat="44.06007" lon="7.20995">
        <ele>1516</ele>
        <time>2017-08-22T07:11:54Z</time>
      </trkpt>
      <trkpt lat="44.0604" lon="7.20955">
        <ele>1498</ele>
        <time>2017-08-22T07:13:54Z</time>
      </trkpt>
      <trkpt lat="44.0604" lon="7.20943">
        <ele>1492</ele>
        <time>2017-08-22T07:15:54Z</time>
      </trkpt>
      <trkpt lat="44.06013" lon="7.20949">
        <ele>1494</ele>
        <time>2017-08-22T07:17:54Z</time>
      </trkpt>
      <trkpt lat="44.06043" lon="7.20932">
        <ele>1488</ele>
        <time>2017-08-22T07:19:54Z</time>
      </trkpt>
      <trkpt lat="44.06062" lon="7.20917">
        <ele>1483</ele>
        <time>2017-08-22T07:21:54Z</time>
      </trkpt>
      <trkpt lat="44.06063" lon="7.20906">
        <ele>1480</ele>
        <time>2017-08-22T07:23:54Z</time>
      </trkpt>
      <trkpt lat="44.06053" lon="7.20879">
        <ele>1472</ele>
        <time>2017-08-22T07:25:54Z</time>
      </trkpt>
      <trkpt lat="44.06038" lon="7.20851">
        <ele>1464</ele>
        <time>2017-08-22T07:27:54Z</time>
      </trkpt>
      <trkpt lat="44.0603" lon="7.20826">
        <ele>1458</ele>
        <time>2017-08-22T07:29:54Z</time>
      </trkpt>
      <trkpt lat="44.06046" lon="7.20815">
        <ele>1457</ele>
        <time>2017-08-22T07:31:54Z</time>
      </trkpt>
      <trkpt lat="44.06051" lon="7.20791">
        <ele>1454</ele>
        <time>2017-08-22T07:33:54Z</time>
      </trkpt>
      <trkpt lat="44.0607" lon="7.20781">
        <ele>1454</ele>
        <time>2017-08-22T07:35:54Z</time>
      </trkpt>
      <trkpt lat="44.0609" lon="7.20756">
        <ele>1451</ele>
        <time>2017-08-22T07:37:54Z</time>
      </trkpt>
      <trkpt lat="44.06178" lon="7.20639">
        <ele>1416</ele>
        <time>2017-08-22T07:39:54Z</time>
      </trkpt>
      <trkpt lat="44.06192" lon="7.20613">
        <ele>1407</ele>
        <time>2017-08-22T07:41:54Z</time>
      </trkpt>
      <trkpt lat="44.06199" lon="7.20582">
        <ele>1400</ele>
        <time>2017-08-22T07:43:54Z</time>
      </trkpt>
      <trkpt lat="44.06201" lon="7.20549">
        <ele>1393</ele>
        <time>2017-08-22T07:45:54Z</time>
      </trkpt>
      <trkpt lat="44.06195" lon="7.20521">
        <ele>1391</ele>
        <time>2017-08-22T07:47:54Z</time>
      </trkpt>
      <trkpt lat="44.06196" lon="7.20491">
        <ele>1384</ele>
        <time>2017-08-22T07:49:54Z</time>
      </trkpt>
      <trkpt lat="44.06212" lon="7.20463">
        <ele>1373</ele>
        <time>2017-08-22T07:51:54Z</time>
      </trkpt>
      <trkpt lat="44.06254" lon="7.20435">
        <ele>1357</ele>
        <time>2017-08-22T07:53:54Z</time>
      </trkpt>
      <trkpt lat="44.06292" lon="7.20404">
        <ele>1343</ele>
        <time>2017-08-22T07:55:54Z</time>
      </trkpt>
      <trkpt lat="44.06355" lon="7.20377">
        <ele>1328</ele>
        <time>2017-08-22T07:57:54Z</time>
      </trkpt>
      <trkpt lat="44.06387" lon="7.20361">
        <ele>1322</ele>
        <time>2017-08-22T07:59:54Z</time>
      </trkpt>
      <trkpt lat="44.06414" lon="7.20364">
        <ele>1319</ele>
        <time>2017-08-22T08:01:54Z</time>
      </trkpt>
      <trkpt lat="44.06438" lon="7.20361">
        <ele>1315</ele>
        <time>2017-08-22T08:03:54Z</time>
      </trkpt>
      <trkpt lat="44.06484" lon="7.20365">
        <ele>1307</ele>
        <time>2017-08-22T08:05:54Z</time>
      </trkpt>
      <trkpt lat="44.06505" lon="7.20371">
        <ele>1304</ele>
        <time>2017-08-22T08:07:54Z</time>
      </trkpt>
      <trkpt lat="44.06525" lon="7.20364">
        <ele>1302</ele>
        <time>2017-08-22T08:09:54Z</time>
      </trkpt>
      <trkpt lat="44.0653" lon="7.20343">
        <ele>1300</ele>
        <time>2017-08-22T08:11:54Z</time>
      </trkpt>
      <trkpt lat="44.06546" lon="7.20323">
        <ele>1298</ele>
        <time>2017-08-22T08:13:54Z</time>
      </trkpt>
      <trkpt lat="44.06555" lon="7.20314">
        <ele>1296</ele>
        <time>2017-08-22T08:15:54Z</time>
      </trkpt>
      <trkpt lat="44.06564" lon="7.20314">
        <ele>1295</ele>
        <time>2017-08-22T08:17:54Z</time>
      </trkpt>
      <trkpt lat="44.06596" lon="7.20343">
        <ele>1294</ele>
        <time>2017-08-22T08:19:54Z</time>
      </trkpt>
      <trkpt lat="44.06627" lon="7.20376">
        <ele>1294</ele>
        <time>2017-08-22T08:21:54Z</time>
      </trkpt>
      <trkpt lat="44.06641" lon="7.20349">
        <ele>1293</ele>
        <time>2017-08-22T08:23:54Z</time>
      </trkpt>
      <trkpt lat="44.06643" lon="7.20318">
        <ele>1293</ele>
        <time>2017-08-22T08:25:54Z</time>
      </trkpt>
      <trkpt lat="44.06653" lon="7.20302">
        <ele>1292</ele>
        <time>2017-08-22T08:27:54Z</time>
      </trkpt>
      <trkpt lat="44.06653" lon="7.20275">
        <ele>1291</ele>
        <time>2017-08-22T08:29:54Z</time>
      </trkpt>
      <trkpt lat="44.06646" lon="7.20238">
        <ele>1290</ele>
        <time>2017-08-22T08:31:54Z</time>
      </trkpt>
      <trkpt lat="44.06646" lon="7.20186">
        <ele>1286</ele>
        <time>2017-08-22T08:33:54Z</time>
      </trkpt>
      <trkpt lat="44.06648" lon="7.20158">
        <ele>1284</ele>
        <time>2017-08-22T08:35:54Z</time>
      </trkpt>
      <trkpt lat="44.0666" lon="7.20139">
        <ele>1283</ele>
        <time>2017-08-22T08:37:54Z</time>
      </trkpt>
      <trkpt lat="44.06668" lon="7.20118">
        <ele>1282</ele>
        <time>2017-08-22T08:39:54Z</time>
      </trkpt>
      <trkpt lat="44.06666" lon="7.20094">
        <ele>1280</ele>
        <time>2017-08-22T08:41:54Z</time>
      </trkpt>
      <trkpt lat="44.06661" lon="7.20039">
        <ele>1278</ele>
        <time>2017-08-22T08:43:54Z</time>
      </trkpt>
      <trkpt lat="44.06653" lon="7.19988">
        <ele>1275</ele>
        <time>2017-08-22T08:45:54Z</time>
      </trkpt>
      <trkpt lat="44.06639" lon="7.19942">
        <ele>1272</ele>
        <time>2017-08-22T08:47:54Z</time>
      </trkpt>
      <trkpt lat="44.066" lon="7.19825">
        <ele>1264</ele>
        <time>2017-08-22T08:49:54Z</time>
      </trkpt>
      <trkpt lat="44.06575" lon="7.19741">
        <ele>1260</ele>
        <time>2017-08-22T08:51:54Z</time>
      </trkpt>
      <trkpt lat="44.06557" lon="7.19672">
        <ele>1256</ele>
        <time>2017-08-22T08:53:54Z</time>
      </trkpt>
      <trkpt lat="44.06559" lon="7.19624">
        <ele>1253</ele>
        <time>2017-08-22T08:55:54Z</time>
      </trkpt>
      <trkpt lat="44.06557" lon="7.19581">
        <ele>1251</ele>
        <time>2017-08-22T08:57:54Z</time>
      </trkpt>
      <trkpt lat="44.06546" lon="7.19492">
        <ele>1244</ele>
        <time>2017-08-22T08:59:54Z</time>
      </trkpt>
      <trkpt lat="44.06535" lon="7.19425">
        <ele>1238</ele>
        <time>2017-08-22T09:01:54Z</time>
      </trkpt>
      <trkpt lat="44.0655" lon="7.1934">
        <ele>1235</ele>
        <time>2017-08-22T09:03:54Z</time>
      </trkpt>
      <trkpt lat="44.06559" lon="7.19278">
        <ele>1233</ele>
        <time>2017-08-22T09:05:54Z</time>
      </trkpt>
      <trkpt lat="44.06564" lon="7.19236">
        <ele>1232</ele>
        <time>2017-08-22T09:07:54Z</time>
      </trkpt>
      <trkpt lat="44.06557" lon="7.19212">
        <ele>1229</ele>
        <time>2017-08-22T09:09:54Z</time>
      </trkpt>
      <trkpt lat="44.06531" lon="7.19073">
        <ele>1214</ele>
        <time>2017-08-22T09:11:54Z</time>
      </trkpt>
      <trkpt lat="44.06518" lon="7.1899">
        <ele>1205</ele>
        <time>2017-08-22T09:13:54Z</time>
      </trkpt>
      <trkpt lat="44.06521" lon="7.18972">
        <ele>1204</ele>
        <time>2017-08-22T09:15:54Z</time>
      </trkpt>
      <trkpt lat="44.06521" lon="7.18924">
        <ele>1200</ele>
        <time>2017-08-22T09:17:54Z</time>
      </trkpt>
      <trkpt lat="44.06526" lon="7.18891">
        <ele>1199</ele>
        <time>2017-08-22T09:19:54Z</time>
      </trkpt>
      <trkpt lat="44.0651" lon="7.18854">
        <ele>1194</ele>
        <time>2017-08-22T09:21:54Z</time>
      </trkpt>
      <trkpt lat="44.06504" lon="7.18837">
        <ele>1192</ele>
        <time>2017-08-22T09:23:54Z</time>
      </trkpt>
      <trkpt lat="44.06507" lon="7.18795">
        <ele>1189</ele>
        <time>2017-08-22T09:25:54Z</time>
      </trkpt>
      <trkpt lat="44.06504" lon="7.18735">
        <ele>1183</ele>
        <time>2017-08-22T09:27:54Z</time>
      </trkpt>
      <trkpt lat="44.06507" lon="7.18709">
        <ele>1180</ele>
        <time>2017-08-22T09:29:54Z</time>
      </trkpt>
      <trkpt lat="44.06503" lon="7.18676">
        <ele>1176</ele>
        <time>2017-08-22T09:31:54Z</time>
      </trkpt>
      <trkpt lat="44.06498" lon="7.18643">
        <ele>1172</ele>
        <time>2017-08-22T09:33:54Z</time>
      </trkpt>
      <trkpt lat="44.06501" lon="7.18607">
        <ele>1168</ele>
        <time>2017-08-22T09:35:54Z</time>
      </trkpt>
      <trkpt lat="44.06516" lon="7.18566">
        <ele>1167</ele>
        <time>2017-08-22T09:37:54Z</time>
      </trkpt>
      <trkpt lat="44.06525" lon="7.18533">
        <ele>1165</ele>
        <time>2017-08-22T09:39:54Z</time>
      </trkpt>
      <trkpt lat="44.06538" lon="7.18501">
        <ele>1164</ele>
        <time>2017-08-22T09:41:54Z</time>
      </trkpt>
      <trkpt lat="44.06554" lon="7.18481">
        <ele>1162</ele>
        <time>2017-08-22T09:43:54Z</time>
      </trkpt>
      <trkpt lat="44.06555" lon="7.18448">
        <ele>1158</ele>
        <time>2017-08-22T09:45:54Z</time>
      </trkpt>
      <trkpt lat="44.06554" lon="7.18406">
        <ele>1153</ele>
        <time>2017-08-22T09:47:54Z</time>
      </trkpt>
      <trkpt lat="44.06562" lon="7.1836">
        <ele>1150</ele>
        <time>2017-08-22T09:49:54Z</time>
      </trkpt>
      <trkpt lat="44.06568" lon="7.18332">
        <ele>1148</ele>
        <time>2017-08-22T09:51:54Z</time>
      </trkpt>
      <trkpt lat="44.06577" lon="7.18314">
        <ele>1146</ele>
        <time>2017-08-22T09:53:54Z</time>
      </trkpt>
      <trkpt lat="44.06584" lon="7.18287">
        <ele>1143</ele>
        <time>2017-08-22T09:55:54Z</time>
      </trkpt>
      <trkpt lat="44.06598" lon="7.18257">
        <ele>1140</ele>
        <time>2017-08-22T09:57:54Z</time>
      </trkpt>
      <trkpt lat="44.066" lon="7.18232">
        <ele>1137</ele>
        <time>2017-08-22T09:59:54Z</time>
      </trkpt>
      <trkpt lat="44.06608" lon="7.18192">
        <ele>1133</ele>
        <time>2017-08-22T10:01:54Z</time>
      </trkpt>
      <trkpt lat="44.06646" lon="7.18148">
        <ele>1131</ele>
        <time>2017-08-22T10:03:54Z</time>
      </trkpt>
      <trkpt lat="44.06673" lon="7.18111">
        <ele>1129</ele>
        <time>2017-08-22T10:05:54Z</time>
      </trkpt>
      <trkpt lat="44.06687" lon="7.18078">
        <ele>1127</ele>
        <time>2017-08-22T10:07:54Z</time>
      </trkpt>
      <trkpt lat="44.06703" lon="7.18045">
        <ele>1125</ele>
        <time>2017-08-22T10:09:54Z</time>
      </trkpt>
      <trkpt lat="44.06712" lon="7.17994">
        <ele>1119</ele>
        <time>2017-08-22T10:11:54Z</time>
      </trkpt>
      <trkpt lat="44.06717" lon="7.1795">
        <ele>1116</ele>
        <time>2017-08-22T10:13:54Z</time>
      </trkpt>
      <trkpt lat="44.06743" lon="7.179">
        <ele>1116</ele>
        <time>2017-08-22T10:15:54Z</time>
      </trkpt>
      <trkpt lat="44.06764" lon="7.17864">
        <ele>1118</ele>
        <time>2017-08-22T10:17:54Z</time>
      </trkpt>
      <trkpt lat="44.06772" lon="7.17826">
        <ele>1117</ele>
        <time>2017-08-22T10:19:54Z</time>
      </trkpt>
      <trkpt lat="44.06795" lon="7.17762">
        <ele>1114</ele>
        <time>2017-08-22T10:21:54Z</time>
      </trkpt>
      <trkpt lat="44.06808" lon="7.17714">
        <ele>1111</ele>
        <time>2017-08-22T10:23:54Z</time>
      </trkpt>
      <trkpt lat="44.06824" lon="7.17703">
        <ele>1114</ele>
        <time>2017-08-22T10:25:54Z</time>
      </trkpt>
      <trkpt lat="44.0686" lon="7.1768">
        <ele>1116</ele>
        <time>2017-08-22T10:27:54Z</time>
      </trkpt>
      <trkpt lat="44.06865" lon="7.17667">
        <ele>1115</ele>
        <time>2017-08-22T10:29:54Z</time>
      </trkpt>
      <trkpt lat="44.06845" lon="7.17664">
        <ele>1113</ele>
        <time>2017-08-22T10:31:54Z</time>
      </trkpt>
      <trkpt lat="44.06835" lon="7.17664">
        <ele>1112</ele>
        <time>2017-08-22T10:33:54Z</time>
      </trkpt>
      <trkpt lat="44.06821" lon="7.1768">
        <ele>1111</ele>
        <time>2017-08-22T10:35:54Z</time>
      </trkpt>
      <trkpt lat="44.06811" lon="7.1769">
        <ele>1110</ele>
        <time>2017-08-22T10:37:54Z</time>
      </trkpt>
      <trkpt lat="44.06811" lon="7.17661">
        <ele>1107</ele>
        <time>2017-08-22T10:39:54Z</time>
      </trkpt>
      <trkpt lat="44.06814" lon="7.17639">
        <ele>1106</ele>
        <time>2017-08-22T10:41:54Z</time>
      </trkpt>
      <trkpt lat="44.06818" lon="7.17615">
        <ele>1104</ele>
        <time>2017-08-22T10:43:54Z</time>
      </trkpt>
      <trkpt lat="44.06831" lon="7.17587">
        <ele>1103</ele>
        <time>2017-08-22T10:45:54Z</time>
      </trkpt>
      <trkpt lat="44.06846" lon="7.17573">
        <ele>1102</ele>
        <time>2017-08-22T10:47:54Z</time>
      </trkpt>
      <trkpt lat="44.06864" lon="7.17556">
        <ele>1100</ele>
        <time>2017-08-22T10:49:54Z</time>
      </trkpt>
      <trkpt lat="44.0688" lon="7.17541">
        <ele>1098</ele>
        <time>2017-08-22T10:51:54Z</time>
      </trkpt>
      <trkpt lat="44.06894" lon="7.1748">
        <ele>1088</ele>
        <time>2017-08-22T10:53:54Z</time>
      </trkpt>
      <trkpt lat="44.06898" lon="7.17445">
        <ele>1082</ele>
        <time>2017-08-22T10:55:54Z</time>
      </trkpt>
      <trkpt lat="44.06915" lon="7.17437">
        <ele>1081</ele>
        <time>2017-08-22T10:57:54Z</time>
      </trkpt>
      <trkpt lat="44.0692" lon="7.17417">
        <ele>1078</ele>
        <time>2017-08-22T10:59:54Z</time>
      </trkpt>
      <trkpt lat="44.06932" lon="7.17402">
        <ele>1078</ele>
        <time>2017-08-22T11:01:54Z</time>
      </trkpt>
      <trkpt lat="44.06956" lon="7.17385">
        <ele>1078</ele>
        <time>2017-08-22T11:03:54Z</time>
      </trkpt>
      <trkpt lat="44.06976" lon="7.17375">
        <ele>1078</ele>
        <time>2017-08-22T11:05:54Z</time>
      </trkpt>
      <trkpt lat="44.06984" lon="7.17357">
        <ele>1076</ele>
        <time>2017-08-22T11:07:54Z</time>
      </trkpt>
      <trkpt lat="44.06972" lon="7.17332">
        <ele>1071</ele>
        <time>2017-08-22T11:09:54Z</time>
      </trkpt>
      <trkpt lat="44.06944" lon="7.17308">
        <ele>1065</ele>
        <time>2017-08-22T11:11:54Z</time>
      </trkpt>
      <trkpt lat="44.06926" lon="7.1724">
        <ele>1053</ele>
        <time>2017-08-22T11:13:54Z</time>
      </trkpt>
      <trkpt lat="44.06914" lon="7.17211">
        <ele>1048</ele>
        <time>2017-08-22T11:15:54Z</time>
      </trkpt>
      <trkpt lat="44.06912" lon="7.17181">
        <ele>1043</ele>
        <time>2017-08-22T11:17:54Z</time>
      </trkpt>
      <trkpt lat="44.06904" lon="7.17122">
        <ele>1037</ele>
        <time>2017-08-22T11:19:54Z</time>
      </trkpt>
      <trkpt lat="44.06898" lon="7.171">
        <ele>1034</ele>
        <time>2017-08-22T11:21:54Z</time>
      </trkpt>
      <trkpt lat="44.06897" lon="7.1704">
        <ele>1027</ele>
        <time>2017-08-22T11:23:54Z</time>
      </trkpt>
      <trkpt lat="44.06894" lon="7.16978">
        <ele>1017</ele>
        <time>2017-08-22T11:25:54Z</time>
      </trkpt>
      <trkpt lat="44.06888" lon="7.16927">
        <ele>1007</ele>
        <time>2017-08-22T11:27:54Z</time>
      </trkpt>
      <trkpt lat="44.0688" lon="7.16875">
        <ele>998</ele>
        <time>2017-08-22T11:29:54Z</time>
      </trkpt>
      <trkpt lat="44.06871" lon="7.16824">
        <ele>989</ele>
        <time>2017-08-22T11:31:54Z</time>
      </trkpt>
      <trkpt lat="44.06872" lon="7.16786">
        <ele>986</ele>
        <time>2017-08-22T11:33:54Z</time>
      </trkpt>
      <trkpt lat="44.06885" lon="7.16731">
        <ele>985</ele>
        <time>2017-08-22T11:35:54Z</time>
      </trkpt>
      <trkpt lat="44.06902" lon="7.16649">
        <ele>981</ele>
        <time>2017-08-22T11:37:54Z</time>
      </trkpt>
      <trkpt lat="44.0691" lon="7.16624">
        <ele>981</ele>
        <time>2017-08-22T11:39:54Z</time>
      </trkpt>
      <trkpt lat="44.06918" lon="7.16607">
        <ele>982</ele>
        <time>2017-08-22T11:41:54Z</time>
      </trkpt>
      <trkpt lat="44.06912" lon="7.16567">
        <ele>978</ele>
        <time>2017-08-22T11:43:54Z</time>
      </trkpt>
      <trkpt lat="44.06912" lon="7.16544">
        <ele>977</ele>
        <time>2017-08-22T11:45:54Z</time>
      </trkpt>
      <trkpt lat="44.06908" lon="7.16516">
        <ele>976</ele>
        <time>2017-08-22T11:47:54Z</time>
      </trkpt>
      <trkpt lat="44.06894" lon="7.16489">
        <ele>972</ele>
        <time>2017-08-22T11:49:54Z</time>
      </trkpt>
      <trkpt lat="44.06898" lon="7.16458">
        <ele>972</ele>
        <time>2017-08-22T11:51:54Z</time>
      </trkpt>
      <trkpt lat="44.06892" lon="7.16345">
        <ele>964</ele>
        <time>2017-08-22T11:53:54Z</time>
      </trkpt>
      <trkpt lat="44.069" lon="7.16299">
        <ele>964</ele>
        <time>2017-08-22T11:55:54Z</time>
      </trkpt>
      <trkpt lat="44.06911" lon="7.16267">
        <ele>966</ele>
        <time>2017-08-22T11:57:54Z</time>
      </trkpt>
      <trkpt lat="44.06917" lon="7.16249">
        <ele>967</ele>
        <time>2017-08-22T11:59:54Z</time>
      </trkpt>
      <trkpt lat="44.06922" lon="7.16195">
        <ele>964</ele>
        <time>2017-08-22T12:01:54Z</time>
      </trkpt>
      <trkpt lat="44.06928" lon="7.16118">
        <ele>959</ele>
        <time>2017-08-22T12:03:54Z</time>
      </trkpt>
      <trkpt lat="44.06933" lon="7.1609">
        <ele>956</ele>
        <time>2017-08-22T12:05:54Z</time>
      </trkpt>
      <trkpt lat="44.06932" lon="7.16013">
        <ele>946</ele>
        <time>2017-08-22T12:07:54Z</time>
      </trkpt>
      <trkpt lat="44.06915" lon="7.15932">
        <ele>938</ele>
        <time>2017-08-22T12:09:54Z</time>
      </trkpt>
      <trkpt lat="44.0691" lon="7.15882">
        <ele>931</ele>
        <time>2017-08-22T12:11:54Z</time>
      </trkpt>
      <trkpt lat="44.06915" lon="7.15835">
        <ele>929</ele>
        <time>2017-08-22T12:13:54Z</time>
      </trkpt>
      <trkpt lat="44.06924" lon="7.15772">
        <ele>923</ele>
        <time>2017-08-22T12:15:54Z</time>
      </trkpt>
      <trkpt lat="44.06925" lon="7.15712">
        <ele>919</ele>
        <time>2017-08-22T12:17:54Z</time>
      </trkpt>
      <trkpt lat="44.06918" lon="7.15693">
        <ele>921</ele>
        <time>2017-08-22T12:19:54Z</time>
      </trkpt>
      <trkpt lat="44.06917" lon="7.15642">
        <ele>918</ele>
        <time>2017-08-22T12:21:54Z</time>
      </trkpt>
      <trkpt lat="44.06919" lon="7.1561">
        <ele>916</ele>
        <time>2017-08-22T12:23:54Z</time>
      </trkpt>
      <trkpt lat="44.06926" lon="7.15579">
        <ele>913</ele>
        <time>2017-08-22T12:25:54Z</time>
      </trkpt>
      <trkpt lat="44.06949" lon="7.15544">
        <ele>906</ele>
        <time>2017-08-22T12:27:54Z</time>
      </trkpt>
      <trkpt lat="44.06972" lon="7.1551">
        <ele>899</ele>
        <time>2017-08-22T12:29:54Z</time>
      </trkpt>
      <trkpt lat="44.06993" lon="7.15476">
        <ele>890</ele>
        <time>2017-08-22T12:31:54Z</time>
      </trkpt>
      <trkpt lat="44.0701" lon="7.15437">
        <ele>881</ele>
        <time>2017-08-22T12:33:54Z</time>
      </trkpt>
      <trkpt lat="44.07012" lon="7.15416">
        <ele>878</ele>
        <time>2017-08-22T12:35:54Z</time>
      </trkpt>
      <trkpt lat="44.07005" lon="7.15402">
        <ele>876</ele>
        <time>2017-08-22T12:37:54Z</time>
      </trkpt>
      <trkpt lat="44.06989" lon="7.15369">
        <ele>872</ele>
        <time>2017-08-22T12:39:54Z</time>
      </trkpt>
      <trkpt lat="44.06961" lon="7.15321">
        <ele>867</ele>
        <time>2017-08-22T12:41:54Z</time>
      </trkpt>
      <trkpt lat="44.06958" lon="7.15289">
        <ele>856</ele>
        <time>2017-08-22T12:43:54Z</time>
      </trkpt>
      <trkpt lat="44.06898" lon="7.15213">
        <ele>839</ele>
        <time>2017-08-22T12:45:54Z</time>
      </trkpt>
      <trkpt lat="44.06934" lon="7.15205">
        <ele>832</ele>
        <time>2017-08-22T12:47:54Z</time>
      </trkpt>
      <trkpt lat="44.06949" lon="7.15198">
        <ele>831</ele>
        <time>2017-08-22T12:49:54Z</time>
      </trkpt>
      <trkpt lat="44.06964" lon="7.15189">
        <ele>832</ele>
        <time>2017-08-22T12:51:54Z</time>
      </trkpt>
      <trkpt lat="44.0697" lon="7.15173">
        <ele>830</ele>
        <time>2017-08-22T12:53:54Z</time>
      </trkpt>
      <trkpt lat="44.06969" lon="7.15145">
        <ele>834</ele>
        <time>2017-08-22T12:55:54Z</time>
      </trkpt>
      <trkpt lat="44.06942" lon="7.15142">
        <ele>827</ele>
        <time>2017-08-22T12:57:54Z</time>
      </trkpt>
      <trkpt lat="44.06921" lon="7.15137">
        <ele>821</ele>
        <time>2017-08-22T12:59:54Z</time>
      </trkpt>
      <trkpt lat="44.06906" lon="7.15103">
        <ele>820</ele>
        <time>2017-08-22T13:01:54Z</time>
      </trkpt>
      <trkpt lat="44.06897" lon="7.1507">
        <ele>820</ele>
        <time>2017-08-22T13:03:54Z</time>
      </trkpt>
      <trkpt lat="44.06896" lon="7.15032">
        <ele>822</ele>
        <time>2017-08-22T13:05:54Z</time>
      </trkpt>
      <trkpt lat="44.06883" lon="7.15024">
        <ele>818</ele>
        <time>2017-08-22T13:07:54Z</time>
      </trkpt>
      <trkpt lat="44.06871" lon="7.15004">
        <ele>814</ele>
        <time>2017-08-22T13:09:54Z</time>
      </trkpt>
      <trkpt lat="44.06872" lon="7.14987">
        <ele>816</ele>
        <time>2017-08-22T13:11:54Z</time>
      </trkpt>
      <trkpt lat="44.06876" lon="7.14965">
        <ele>819</ele>
        <time>2017-08-22T13:13:54Z</time>
      </trkpt>
      <trkpt lat="44.06885" lon="7.1495">
        <ele>824</ele>
        <time>2017-08-22T13:15:54Z</time>
      </trkpt>
      <trkpt lat="44.06891" lon="7.14941">
        <ele>827</ele>
        <time>2017-08-22T13:17:54Z</time>
      </trkpt>
      <trkpt lat="44.06893" lon="7.14924">
        <ele>829</ele>
        <time>2017-08-22T13:19:54Z</time>
      </trkpt>
      <trkpt lat="44.06872" lon="7.14916">
        <ele>823</ele>
        <time>2017-08-22T13:21:54Z</time>
      </trkpt>
      <trkpt lat="44.06861" lon="7.14909">
        <ele>820</ele>
        <time>2017-08-22T13:23:54Z</time>
      </trkpt>
      <trkpt lat="44.06861" lon="7.14873">
        <ele>826</ele>
        <time>2017-08-22T13:25:54Z</time>
      </trkpt>
      <trkpt lat="44.06858" lon="7.14844">
        <ele>830</ele>
        <time>2017-08-22T13:27:54Z</time>
      </trkpt>
      <trkpt lat="44.06848" lon="7.14814">
        <ele>831</ele>
        <time>2017-08-22T13:29:54Z</time>
      </trkpt>
      <trkpt lat="44.06838" lon="7.14795">
        <ele>829</ele>
        <time>2017-08-22T13:31:54Z</time>
      </trkpt>
      <trkpt lat="44.06832" lon="7.1477">
        <ele>830</ele>
        <time>2017-08-22T13:33:54Z</time>
      </trkpt>
      <trkpt lat="44.0682" lon="7.14742">
        <ele>830</ele>
        <time>2017-08-22T13:35:54Z</time>
      </trkpt>
      <trkpt lat="44.06804" lon="7.14714">
        <ele>830</ele>
        <time>2017-08-22T13:37:54Z</time>
      </trkpt>
      <trkpt lat="44.06798" lon="7.14696">
        <ele>830</ele>
        <time>2017-08-22T13:39:54Z</time>
      </trkpt>
      <trkpt lat="44.06797" lon="7.14658">
        <ele>834</ele>
        <time>2017-08-22T13:41:54Z</time>
      </trkpt>
      <trkpt lat="44.06794" lon="7.1463">
        <ele>834</ele>
        <time>2017-08-22T13:43:54Z</time>
      </trkpt>
      <trkpt lat="44.06794" lon="7.14601">
        <ele>836</ele>
        <time>2017-08-22T13:45:54Z</time>
      </trkpt>
      <trkpt lat="44.06799" lon="7.14583">
        <ele>839</ele>
        <time>2017-08-22T13:47:54Z</time>
      </trkpt>
      <trkpt lat="44.06807" lon="7.14582">
        <ele>841</ele>
        <time>2017-08-22T13:49:54Z</time>
      </trkpt>
      <trkpt lat="44.0681" lon="7.14568">
        <ele>843</ele>
        <time>2017-08-22T13:51:54Z</time>
      </trkpt>
      <trkpt lat="44.0682" lon="7.14545">
        <ele>847</ele>
        <time>2017-08-22T13:53:54Z</time>
      </trkpt>
      <trkpt lat="44.06835" lon="7.14527">
        <ele>851</ele>
        <time>2017-08-22T13:55:54Z</time>
      </trkpt>
      <trkpt lat="44.06852" lon="7.14518">
        <ele>856</ele>
        <time>2017-08-22T13:57:54Z</time>
      </trkpt>
      <trkpt lat="44.06855" lon="7.14503">
        <ele>856</ele>
        <time>2017-08-22T13:59:54Z</time>
      </trkpt>
      <trkpt lat="44.06833" lon="7.14498">
        <ele>851</ele>
        <time>2017-08-22T14:01:54Z</time>
      </trkpt>
      <trkpt lat="44.06803" lon="7.14491">
        <ele>850</ele>
        <time>2017-08-22T14:03:54Z</time>
      </trkpt>
      <trkpt lat="44.06783" lon="7.14487">
        <ele>850</ele>
        <time>2017-08-22T14:05:54Z</time>
      </trkpt>
      <trkpt lat="44.06771" lon="7.145">
        <ele>846</ele>
        <time>2017-08-22T14:07:54Z</time>
      </trkpt>
      <trkpt lat="44.06758" lon="7.145">
        <ele>845</ele>
        <time>2017-08-22T14:09:54Z</time>
      </trkpt>
      <trkpt lat="44.06747" lon="7.14498">
        <ele>844</ele>
        <time>2017-08-22T14:11:54Z</time>
      </trkpt>
      <trkpt lat="44.06702" lon="7.1447">
        <ele>847</ele>
        <time>2017-08-22T14:13:54Z</time>
      </trkpt>
      <trkpt lat="44.06692" lon="7.14464">
        <ele>846</ele>
        <time>2017-08-22T14:15:54Z</time>
      </trkpt>
      <trkpt lat="44.067" lon="7.1445">
        <ele>850</ele>
        <time>2017-08-22T14:17:54Z</time>
      </trkpt>
      <trkpt lat="44.06717" lon="7.1445">
        <ele>853</ele>
        <time>2017-08-22T14:19:54Z</time>
      </trkpt>
      <trkpt lat="44.06735" lon="7.14441">
        <ele>858</ele>
        <time>2017-08-22T14:21:54Z</time>
      </trkpt>
      <trkpt lat="44.06756" lon="7.14424">
        <ele>866</ele>
        <time>2017-08-22T14:23:54Z</time>
      </trkpt>
      <trkpt lat="44.06774" lon="7.14412">
        <ele>871</ele>
        <time>2017-08-22T14:25:54Z</time>
      </trkpt>
      <trkpt lat="44.06789" lon="7.14398">
        <ele>875</ele>
        <time>2017-08-22T14:27:54Z</time>
      </trkpt>
      <trkpt lat="44.06793" lon="7.14376">
        <ele>880</ele>
        <time>2017-08-22T14:29:54Z</time>
      </trkpt>
      <trkpt lat="44.06793" lon="7.14355">
        <ele>884</ele>
        <time>2017-08-22T14:31:54Z</time>
      </trkpt>
      <trkpt lat="44.06788" lon="7.14333">
        <ele>887</ele>
        <time>2017-08-22T14:33:54Z</time>
      </trkpt>
      <trkpt lat="44.06777" lon="7.14318">
        <ele>890</ele>
        <time>2017-08-22T14:35:54Z</time>
      </trkpt>
      <trkpt lat="44.06764" lon="7.14303">
        <ele>893</ele>
        <time>2017-08-22T14:37:54Z</time>
      </trkpt>
      <trkpt lat="44.06746" lon="7.1428">
        <ele>896</ele>
        <time>2017-08-22T14:39:54Z</time>
      </trkpt>
      <trkpt lat="44.06729" lon="7.14256">
        <ele>900</ele>
        <time>2017-08-22T14:41:54Z</time>
      </trkpt>
      <trkpt lat="44.0672" lon="7.14236">
        <ele>903</ele>
        <time>2017-08-22T14:43:54Z</time>
      </trkpt>
      <trkpt lat="44.06715" lon="7.14204">
        <ele>911</ele>
        <time>2017-08-22T14:45:54Z</time>
      </trkpt>
      <trkpt lat="44.06706" lon="7.14168">
        <ele>918</ele>
        <time>2017-08-22T14:47:54Z</time>
      </trkpt>
      <trkpt lat="44.0671" lon="7.14161">
        <ele>921</ele>
        <time>2017-08-22T14:49:54Z</time>
      </trkpt>
      <trkpt lat="44.06707" lon="7.14141">
        <ele>921</ele>
        <time>2017-08-22T14:51:54Z</time>
      </trkpt>
      <trkpt lat="44.06707" lon="7.14102">
        <ele>925</ele>
        <time>2017-08-22T14:53:54Z</time>
      </trkpt>
      <trkpt lat="44.06707" lon="7.14071">
        <ele>928</ele>
        <time>2017-08-22T14:55:54Z</time>
      </trkpt>
      <trkpt lat="44.06707" lon="7.14039">
        <ele>931</ele>
        <time>2017-08-22T14:57:54Z</time>
      </trkpt>
      <trkpt lat="44.06706" lon="7.14017">
        <ele>932</ele>
        <time>2017-08-22T14:59:54Z</time>
      </trkpt>
      <trkpt lat="44.06707" lon="7.13981">
        <ele>936</ele>
        <time>2017-08-22T15:01:54Z</time>
      </trkpt>
      <trkpt lat="44.06699" lon="7.13959">
        <ele>932</ele>
        <time>2017-08-22T15:03:54Z</time>
      </trkpt>
      <trkpt lat="44.06689" lon="7.13912">
        <ele>929</ele>
        <time>2017-08-22T15:05:54Z</time>
      </trkpt>
      <trkpt lat="44.06689" lon="7.13895">
        <ele>930</ele>
        <time>2017-08-22T15:07:54Z</time>
      </trkpt>
      <trkpt lat="44.06693" lon="7.13869">
        <ele>935</ele>
        <time>2017-08-22T15:09:54Z</time>
      </trkpt>
      <trkpt lat="44.06701" lon="7.13852">
        <ele>939</ele>
        <time>2017-08-22T15:11:54Z</time>
      </trkpt>
      <trkpt lat="44.0671" lon="7.13832">
        <ele>945</ele>
        <time>2017-08-22T15:13:54Z</time>
      </trkpt>
      <trkpt lat="44.06711" lon="7.13817">
        <ele>948</ele>
        <time>2017-08-22T15:15:54Z</time>
      </trkpt>
      <trkpt lat="44.06704" lon="7.13804">
        <ele>949</ele>
        <time>2017-08-22T15:17:54Z</time>
      </trkpt>
      <trkpt lat="44.06689" lon="7.13804">
        <ele>943</ele>
        <time>2017-08-22T15:19:54Z</time>
      </trkpt>
      <trkpt lat="44.06678" lon="7.13805">
        <ele>939</ele>
        <time>2017-08-22T15:21:54Z</time>
      </trkpt>
      <trkpt lat="44.06671" lon="7.13797">
        <ele>938</ele>
        <time>2017-08-22T15:23:54Z</time>
      </trkpt>
      <trkpt lat="44.06604" lon="7.13698">
        <ele>950</ele>
        <time>2017-08-22T15:25:54Z</time>
      </trkpt>
      <trkpt lat="44.06565" lon="7.13645">
        <ele>960</ele>
        <time>2017-08-22T15:27:54Z</time>
      </trkpt>
      <trkpt lat="44.06525" lon="7.13617">
        <ele>959</ele>
        <time>2017-08-22T15:29:54Z</time>
      </trkpt>
      <trkpt lat="44.06504" lon="7.13599">
        <ele>958</ele>
        <time>2017-08-22T15:31:54Z</time>
      </trkpt>
      <trkpt lat="44.06496" lon="7.13591">
        <ele>958</ele>
        <time>2017-08-22T15:33:54Z</time>
      </trkpt>
      <trkpt lat="44.06489" lon="7.13577">
        <ele>958</ele>
        <time>2017-08-22T15:35:54Z</time>
      </trkpt>
      <trkpt lat="44.06485" lon="7.13542">
        <ele>965</ele>
        <time>2017-08-22T15:37:54Z</time>
      </trkpt>
      <trkpt lat="44.0648" lon="7.13511">
        <ele>969</ele>
        <time>2017-08-22T15:39:54Z</time>
      </trkpt>
      <trkpt lat="44.06468" lon="7.13436">
        <ele>982</ele>
        <time>2017-08-22T15:41:54Z</time>
      </trkpt>
      <trkpt lat="44.06459" lon="7.13397">
        <ele>989</ele>
        <time>2017-08-22T15:43:54Z</time>
      </trkpt>
      <trkpt lat="44.06432" lon="7.1335">
        <ele>992</ele>
        <time>2017-08-22T15:45:54Z</time>
      </trkpt>
      <trkpt lat="44.06418" lon="7.1332">
        <ele>995</ele>
        <time>2017-08-22T15:47:54Z</time>
      </trkpt>
      <trkpt lat="44.06413" lon="7.13291">
        <ele>999</ele>
        <time>2017-08-22T15:49:54Z</time>
      </trkpt>
      <trkpt lat="44.064" lon="7.13245">
        <ele>1005</ele>
        <time>2017-08-22T15:51:54Z</time>
      </trkpt>
      <trkpt lat="44.06392" lon="7.13193">
        <ele>1010</ele>
        <time>2017-08-22T15:53:54Z</time>
      </trkpt>
      <trkpt lat="44.06385" lon="7.13171">
        <ele>1013</ele>
        <time>2017-08-22T15:55:54Z</time>
      </trkpt>
      <trkpt lat="44.06359" lon="7.13136">
        <ele>1012</ele>
        <time>2017-08-22T15:57:54Z</time>
      </trkpt>
      <trkpt lat="44.06346" lon="7.13114">
        <ele>1013</ele>
        <time>2017-08-22T15:59:54Z</time>
      </trkpt>
      <trkpt lat="44.0634" lon="7.13099">
        <ele>1014</ele>
        <time>2017-08-22T16:01:54Z</time>
      </trkpt>
      <trkpt lat="44.06343" lon="7.13077">
        <ele>1014</ele>
        <time>2017-08-22T16:03:54Z</time>
      </trkpt>
      <trkpt lat="44.0635" lon="7.13054">
        <ele>1009</ele>
        <time>2017-08-22T16:05:54Z</time>
      </trkpt>
      <trkpt lat="44.06369" lon="7.13073">
        <ele>1012</ele>
        <time>2017-08-22T16:07:54Z</time>
      </trkpt>
      <trkpt lat="44.06382" lon="7.13078">
        <ele>1013</ele>
        <time>2017-08-22T16:09:54Z</time>
      </trkpt>
      <trkpt lat="44.064" lon="7.13071">
        <ele>1010</ele>
        <time>2017-08-22T16:11:54Z</time>
      </trkpt>
      <trkpt lat="44.06417" lon="7.13059">
        <ele>1006</ele>
        <time>2017-08-22T16:13:54Z</time>
      </trkpt>
      <trkpt lat="44.06431" lon="7.13037">
        <ele>1001</ele>
        <time>2017-08-22T16:15:54Z</time>
      </trkpt>
      <trkpt lat="44.06451" lon="7.13005">
        <ele>991</ele>
        <time>2017-08-22T16:17:54Z</time>
      </trkpt>
      <trkpt lat="44.06466" lon="7.12994">
        <ele>985</ele>
        <time>2017-08-22T16:19:54Z</time>
      </trkpt>
      <trkpt lat="44.06483" lon="7.13001">
        <ele>989</ele>
        <time>2017-08-22T16:21:54Z</time>
      </trkpt>
      <trkpt lat="44.06508" lon="7.1301">
        <ele>988</ele>
        <time>2017-08-22T16:23:54Z</time>
      </trkpt>
      <trkpt lat="44.06524" lon="7.13011">
        <ele>980</ele>
        <time>2017-08-22T16:25:54Z</time>
      </trkpt>
      <trkpt lat="44.06541" lon="7.13016">
        <ele>974</ele>
        <time>2017-08-22T16:27:54Z</time>
      </trkpt>
      <trkpt lat="44.06562" lon="7.1304">
        <ele>985</ele>
        <time>2017-08-22T16:29:54Z</time>
      </trkpt>
      <trkpt lat="44.0659" lon="7.13065">
        <ele>999</ele>
        <time>2017-08-22T16:31:54Z</time>
      </trkpt>
      <trkpt lat="44.06605" lon="7.13082">
        <ele>1004</ele>
        <time>2017-08-22T16:33:54Z</time>
      </trkpt>
      <trkpt lat="44.06626" lon="7.13091">
        <ele>993</ele>
        <time>2017-08-22T16:35:54Z</time>
      </trkpt>
      <trkpt lat="44.0665" lon="7.13106">
        <ele>986</ele>
        <time>2017-08-22T16:37:54Z</time>
      </trkpt>
      <trkpt lat="44.06659" lon="7.13128">
        <ele>998</ele>
        <time>2017-08-22T16:39:54Z</time>
      </trkpt>
      <trkpt lat="44.06668" lon="7.13144">
        <ele>1007</ele>
        <time>2017-08-22T16:41:54Z</time>
      </trkpt>
      <trkpt lat="44.06683" lon="7.13154">
        <ele>1012</ele>
        <time>2017-08-22T16:43:54Z</time>
      </trkpt>
      <trkpt lat="44.06698" lon="7.13145">
        <ele>1001</ele>
        <time>2017-08-22T16:45:54Z</time>
      </trkpt>
      <trkpt lat="44.06718" lon="7.13142">
        <ele>995</ele>
        <time>2017-08-22T16:47:54Z</time>
      </trkpt>
      <trkpt lat="44.06731" lon="7.13137">
        <ele>988</ele>
        <time>2017-08-22T16:49:54Z</time>
      </trkpt>
      <trkpt lat="44.0675" lon="7.13148">
        <ele>991</ele>
        <time>2017-08-22T16:51:54Z</time>
      </trkpt>
      <trkpt lat="44.06764" lon="7.1315">
        <ele>997</ele>
        <time>2017-08-22T16:53:54Z</time>
      </trkpt>
      <trkpt lat="44.06775" lon="7.13139">
        <ele>996</ele>
        <time>2017-08-22T16:55:54Z</time>
      </trkpt>
      <trkpt lat="44.06777" lon="7.13124">
        <ele>989</ele>
        <time>2017-08-22T16:57:54Z</time>
      </trkpt>
      <trkpt lat="44.06776" lon="7.13086">
        <ele>969</ele>
        <time>2017-08-22T16:59:54Z</time>
      </trkpt>
      <trkpt lat="44.0678" lon="7.13068">
        <ele>962</ele>
        <time>2017-08-22T17:01:54Z</time>
      </trkpt>
      <trkpt lat="44.06796" lon="7.13046">
        <ele>960</ele>
        <time>2017-08-22T17:03:54Z</time>
      </trkpt>
      <trkpt lat="44.06813" lon="7.13025">
        <ele>960</ele>
        <time>2017-08-22T17:05:54Z</time>
      </trkpt>
      <trkpt lat="44.06865" lon="7.12936">
        <ele>937</ele>
        <time>2017-08-22T17:07:54Z</time>
      </trkpt>
      <trkpt lat="44.06874" lon="7.12934">
        <ele>941</ele>
        <time>2017-08-22T17:09:54Z</time>
      </trkpt>
      <trkpt lat="44.06888" lon="7.12939">
        <ele>952</ele>
        <time>2017-08-22T17:11:54Z</time>
      </trkpt>
      <trkpt lat="44.06919" lon="7.12934">
        <ele>966</ele>
        <time>2017-08-22T17:13:54Z</time>
      </trkpt>
      <trkpt lat="44.06939" lon="7.12929">
        <ele>974</ele>
        <time>2017-08-22T17:15:54Z</time>
      </trkpt>
      <trkpt lat="44.06942" lon="7.1292">
        <ele>971</ele>
        <time>2017-08-22T17:17:54Z</time>
      </trkpt>
      <trkpt lat="44.06943" lon="7.12909">
        <ele>967</ele>
        <time>2017-08-22T17:19:54Z</time>
      </trkpt>
      <trkpt lat="44.06935" lon="7.12895">
        <ele>957</ele>
        <time>2017-08-22T17:21:54Z</time>
      </trkpt>
      <trkpt lat="44.06935" lon="7.12883">
        <ele>953</ele>
        <time>2017-08-22T17:23:54Z</time>
      </trkpt>
      <trkpt lat="44.06937" lon="7.12864">
        <ele>947</ele>
        <time>2017-08-22T17:25:54Z</time>
      </trkpt>
      <trkpt lat="44.06943" lon="7.12845">
        <ele>945</ele>
        <time>2017-08-22T17:27:54Z</time>
      </trkpt>
      <trkpt lat="44.06945" lon="7.12805">
        <ele>933</ele>
        <time>2017-08-22T17:29:54Z</time>
      </trkpt>
      <trkpt lat="44.06946" lon="7.12777">
        <ele>925</ele>
        <time>2017-08-22T17:31:54Z</time>
      </trkpt>
      <trkpt lat="44.06929" lon="7.12746">
        <ele>900</ele>
        <time>2017-08-22T17:33:54Z</time>
      </trkpt>
      <trkpt lat="44.0693" lon="7.1272">
        <ele>896</ele>
        <time>2017-08-22T17:35:54Z</time>
      </trkpt>
      <trkpt lat="44.0693" lon="7.12703">
        <ele>893</ele>
        <time>2017-08-22T17:37:54Z</time>
      </trkpt>
      <trkpt lat="44.06969" lon="7.12626">
        <ele>898</ele>
        <time>2017-08-22T17:39:54Z</time>
      </trkpt>
      <trkpt lat="44.06998" lon="7.1261">
        <ele>910</ele>
        <time>2017-08-22T17:41:54Z</time>
      </trkpt>
      <trkpt lat="44.0701" lon="7.12602">
        <ele>914</ele>
        <time>2017-08-22T17:43:54Z</time>
      </trkpt>
      <trkpt lat="44.07016" lon="7.12588">
        <ele>912</ele>
        <time>2017-08-22T17:45:54Z</time>
      </trkpt>
      <trkpt lat="44.07019" lon="7.1255">
        <ele>907</ele>
        <time>2017-08-22T17:47:54Z</time>
      </trkpt>
      <trkpt lat="44.07011" lon="7.12506">
        <ele>894</ele>
        <time>2017-08-22T17:49:54Z</time>
      </trkpt>
      <trkpt lat="44.07012" lon="7.12479">
        <ele>896</ele>
        <time>2017-08-22T17:51:54Z</time>
      </trkpt>
      <trkpt lat="44.07005" lon="7.12454">
        <ele>893</ele>
        <time>2017-08-22T17:53:54Z</time>
      </trkpt>
      <trkpt lat="44.06985" lon="7.1242">
        <ele>880</ele>
        <time>2017-08-22T17:55:54Z</time>
      </trkpt>
      <trkpt lat="44.06979" lon="7.12401">
        <ele>875</ele>
        <time>2017-08-22T17:57:54Z</time>
      </trkpt>
      <trkpt lat="44.0698" lon="7.12378">
        <ele>875</ele>
        <time>2017-08-22T17:59:54Z</time>
      </trkpt>
      <trkpt lat="44.06985" lon="7.12342">
        <ele>877</ele>
        <time>2017-08-22T18:01:54Z</time>
      </trkpt>
      <trkpt lat="44.06989" lon="7.12317">
        <ele>876</ele>
        <time>2017-08-22T18:03:54Z</time>
      </trkpt>
      <trkpt lat="44.07002" lon="7.12261">
        <ele>874</ele>
        <time>2017-08-22T18:05:54Z</time>
      </trkpt>
      <trkpt lat="44.07013" lon="7.12232">
        <ele>875</ele>
        <time>2017-08-22T18:07:54Z</time>
      </trkpt>
      <trkpt lat="44.07017" lon="7.12203">
        <ele>874</ele>
        <time>2017-08-22T18:09:54Z</time>
      </trkpt>
      <trkpt lat="44.07013" lon="7.12127">
        <ele>867</ele>
        <time>2017-08-22T18:11:54Z</time>
      </trkpt>
      <trkpt lat="44.07005" lon="7.121">
        <ele>863</ele>
        <time>2017-08-22T18:13:54Z</time>
      </trkpt>
      <trkpt lat="44.06993" lon="7.12019">
        <ele>848</ele>
        <time>2017-08-22T18:15:54Z</time>
      </trkpt>
      <trkpt lat="44.06998" lon="7.12006">
        <ele>850</ele>
        <time>2017-08-22T18:17:54Z</time>
      </trkpt>
      <trkpt lat="44.07019" lon="7.11989">
        <ele>853</ele>
        <time>2017-08-22T18:19:54Z</time>
      </trkpt>
      <trkpt lat="44.07046" lon="7.11969">
        <ele>857</ele>
        <time>2017-08-22T18:21:54Z</time>
      </trkpt>
      <trkpt lat="44.07064" lon="7.11951">
        <ele>857</ele>
        <time>2017-08-22T18:23:54Z</time>
      </trkpt>
      <trkpt lat="44.07081" lon="7.11943">
        <ele>862</ele>
        <time>2017-08-22T18:25:54Z</time>
      </trkpt>
      <trkpt lat="44.07094" lon="7.11925">
        <ele>860</ele>
        <time>2017-08-22T18:27:54Z</time>
      </trkpt>
      <trkpt lat="44.07096" lon="7.11877">
        <ele>841</ele>
        <time>2017-08-22T18:29:54Z</time>
      </trkpt>
      <trkpt lat="44.07104" lon="7.11858">
        <ele>836</ele>
        <time>2017-08-22T18:31:54Z</time>
      </trkpt>
      <trkpt lat="44.07117" lon="7.11836">
        <ele>834</ele>
        <time>2017-08-22T18:33:54Z</time>
      </trkpt>
      <trkpt lat="44.07141" lon="7.11811">
        <ele>836</ele>
        <time>2017-08-22T18:35:54Z</time>
      </trkpt>
      <trkpt lat="44.07155" lon="7.11794">
        <ele>837</ele>
        <time>2017-08-22T18:37:54Z</time>
      </trkpt>
      <trkpt lat="44.07164" lon="7.11764">
        <ele>829</ele>
        <time>2017-08-22T18:39:54Z</time>
      </trkpt>
      <trkpt lat="44.07172" lon="7.11749">
        <ele>825</ele>
        <time>2017-08-22T18:41:54Z</time>
      </trkpt>
      <trkpt lat="44.0719" lon="7.11742">
        <ele>823</ele>
        <time>2017-08-22T18:43:54Z</time>
      </trkpt>
      <trkpt lat="44.07208" lon="7.11743">
        <ele>823</ele>
        <time>2017-08-22T18:45:54Z</time>
      </trkpt>
      <trkpt lat="44.07239" lon="7.11755">
        <ele>828</ele>
        <time>2017-08-22T18:47:54Z</time>
      </trkpt>
      <trkpt lat="44.07283" lon="7.11789">
        <ele>824</ele>
        <time>2017-08-22T18:49:54Z</time>
      </trkpt>
      <trkpt lat="44.07322" lon="7.11822">
        <ele>820</ele>
        <time>2017-08-22T18:51:54Z</time>
      </trkpt>
      <trkpt lat="44.07346" lon="7.11868">
        <ele>824</ele>
        <time>2017-08-22T18:53:54Z</time>
      </trkpt>
      <trkpt lat="44.07366" lon="7.11921">
        <ele>830</ele>
        <time>2017-08-22T18:55:54Z</time>
      </trkpt>
      <trkpt lat="44.07379" lon="7.11944">
        <ele>830</ele>
        <time>2017-08-22T18:57:54Z</time>
      </trkpt>
      <trkpt lat="44.07461" lon="7.12011">
        <ele>829</ele>
        <time>2017-08-22T18:59:54Z</time>
      </trkpt>
      <trkpt lat="44.07469" lon="7.12">
        <ele>824</ele>
        <time>2017-08-22T19:01:54Z</time>
      </trkpt>
      <trkpt lat="44.07469" lon="7.11966">
        <ele>813</ele>
        <time>2017-08-22T19:03:54Z</time>
      </trkpt>
      <trkpt lat="44.07475" lon="7.11951">
        <ele>808</ele>
        <time>2017-08-22T19:05:54Z</time>
      </trkpt>
      <trkpt lat="44.07508" lon="7.11932">
        <ele>805</ele>
        <time>2017-08-22T19:07:54Z</time>
      </trkpt>
      <trkpt lat="44.07504" lon="7.11912">
        <ele>797</ele>
        <time>2017-08-22T19:09:54Z</time>
      </trkpt>
      <trkpt lat="44.07501" lon="7.11891">
        <ele>790</ele>
        <time>2017-08-22T19:11:54Z</time>
      </trkpt>
      <trkpt lat="44.07513" lon="7.11875">
        <ele>791</ele>
        <time>2017-08-22T19:13:54Z</time>
      </trkpt>
      <trkpt lat="44.07523" lon="7.11846">
        <ele>788</ele>
        <time>2017-08-22T19:15:54Z</time>
      </trkpt>
      <trkpt lat="44.07537" lon="7.1179">
        <ele>783</ele>
        <time>2017-08-22T19:17:54Z</time>
      </trkpt>
      <trkpt lat="44.07536" lon="7.11768">
        <ele>778</ele>
        <time>2017-08-22T19:19:54Z</time>
      </trkpt>
      <trkpt lat="44.0754" lon="7.11739">
        <ele>774</ele>
        <time>2017-08-22T19:21:54Z</time>
      </trkpt>
      <trkpt lat="44.07551" lon="7.11693">
        <ele>772</ele>
        <time>2017-08-22T19:23:54Z</time>
      </trkpt>
      <trkpt lat="44.07557" lon="7.11657">
        <ele>769</ele>
        <time>2017-08-22T19:25:54Z</time>
      </trkpt>
      <trkpt lat="44.07564" lon="7.11613">
        <ele>765</ele>
        <time>2017-08-22T19:27:54Z</time>
      </trkpt>
      <trkpt lat="44.0756" lon="7.11581">
        <ele>756</ele>
        <time>2017-08-22T19:29:54Z</time>
      </trkpt>
      <trkpt lat="44.07565" lon="7.11565">
        <ele>757</ele>
        <time>2017-08-22T19:31:54Z</time>
      </trkpt>
      <trkpt lat="44.07564" lon="7.11529">
        <ele>748</ele>
        <time>2017-08-22T19:33:54Z</time>
      </trkpt>
      <trkpt lat="44.07567" lon="7.11496">
        <ele>742</ele>
        <time>2017-08-22T19:35:54Z</time>
      </trkpt>
      <trkpt lat="44.07578" lon="7.11478">
        <ele>745</ele>
        <time>2017-08-22T19:37:54Z</time>
      </trkpt>
      <trkpt lat="44.07595" lon="7.11433">
        <ele>740</ele>
        <time>2017-08-22T19:39:54Z</time>
      </trkpt>
      <trkpt lat="44.07611" lon="7.11403">
        <ele>739</ele>
        <time>2017-08-22T19:41:54Z</time>
      </trkpt>
      <trkpt lat="44.07629" lon="7.11381">
        <ele>742</ele>
        <time>2017-08-22T19:43:54Z</time>
      </trkpt>
      <trkpt lat="44.07642" lon="7.11362">
        <ele>743</ele>
        <time>2017-08-22T19:45:54Z</time>
      </trkpt>
      <trkpt lat="44.07643" lon="7.11335">
        <ele>733</ele>
        <time>2017-08-22T19:47:54Z</time>
      </trkpt>
      <trkpt lat="44.07652" lon="7.11309">
        <ele>730</ele>
        <time>2017-08-22T19:49:54Z</time>
      </trkpt>
      <trkpt lat="44.07663" lon="7.11276">
        <ele>725</ele>
        <time>2017-08-22T19:51:54Z</time>
      </trkpt>
      <trkpt lat="44.07669" lon="7.11247">
        <ele>719</ele>
        <time>2017-08-22T19:53:54Z</time>
      </trkpt>
      <trkpt lat="44.07649" lon="7.11275">
        <ele>719</ele>
        <time>2017-08-22T19:55:54Z</time>
      </trkpt>
      <trkpt lat="44.07631" lon="7.11285">
        <ele>715</ele>
        <time>2017-08-22T19:57:54Z</time>
      </trkpt>
      <trkpt lat="44.07619" lon="7.11277">
        <ele>708</ele>
        <time>2017-08-22T19:59:54Z</time>
      </trkpt>
      <trkpt lat="44.07602" lon="7.11279">
        <ele>702</ele>
        <time>2017-08-22T20:01:54Z</time>
      </trkpt>
      <trkpt lat="44.07591" lon="7.11285">
        <ele>698</ele>
        <time>2017-08-22T20:03:54Z</time>
      </trkpt>
      <trkpt lat="44.07563" lon="7.11301">
        <ele>686</ele>
        <time>2017-08-22T20:05:54Z</time>
      </trkpt>
      <trkpt lat="44.07558" lon="7.11314">
        <ele>684</ele>
        <time>2017-08-22T20:07:54Z</time>
      </trkpt>
      <trkpt lat="44.07561" lon="7.11341">
        <ele>691</ele>
        <time>2017-08-22T20:09:54Z</time>
      </trkpt>
      <trkpt lat="44.07554" lon="7.11352">
        <ele>689</ele>
        <time>2017-08-22T20:11:54Z</time>
      </trkpt>
      <trkpt lat="44.07552" lon="7.11336">
        <ele>684</ele>
        <time>2017-08-22T20:13:54Z</time>
      </trkpt>
      <trkpt lat="44.07545" lon="7.11316">
        <ele>677</ele>
        <time>2017-08-22T20:15:54Z</time>
      </trkpt>
      <trkpt lat="44.07555" lon="7.11279">
        <ele>678</ele>
        <time>2017-08-22T20:17:54Z</time>
      </trkpt>
      <trkpt lat="44.07558" lon="7.11235">
        <ele>671</ele>
        <time>2017-08-22T20:19:54Z</time>
      </trkpt>
      <trkpt lat="44.07586" lon="7.11199">
        <ele>675</ele>
        <time>2017-08-22T20:21:54Z</time>
      </trkpt>
      <trkpt lat="44.07592" lon="7.11183">
        <ele>672</ele>
        <time>2017-08-22T20:23:54Z</time>
      </trkpt>
      <trkpt lat="44.07604" lon="7.11156">
        <ele>669</ele>
        <time>2017-08-22T20:25:54Z</time>
      </trkpt>
      <trkpt lat="44.07627" lon="7.11146">
        <ele>675</ele>
        <time>2017-08-22T20:27:54Z</time>
      </trkpt>
      <trkpt lat="44.07626" lon="7.11122">
        <ele>667</ele>
        <time>2017-08-22T20:29:54Z</time>
      </trkpt>
      <trkpt lat="44.07626" lon="7.11102">
        <ele>660</ele>
        <time>2017-08-22T20:31:54Z</time>
      </trkpt>
      <trkpt lat="44.07629" lon="7.11091">
        <ele>658</ele>
        <time>2017-08-22T20:33:54Z</time>
      </trkpt>
      <trkpt lat="44.07628" lon="7.11052">
        <ele>643</ele>
        <time>2017-08-22T20:35:54Z</time>
      </trkpt>
      <trkpt lat="44.07643" lon="7.11022">
        <ele>638</ele>
        <time>2017-08-22T20:37:54Z</time>
      </trkpt>
      <trkpt lat="44.07674" lon="7.1099">
        <ele>635</ele>
        <time>2017-08-22T20:39:54Z</time>
      </trkpt>
      <trkpt lat="44.07719" lon="7.10962">
        <ele>632</ele>
        <time>2017-08-22T20:41:54Z</time>
      </trkpt>
      <trkpt lat="44.07763" lon="7.10941">
        <ele>632</ele>
        <time>2017-08-22T20:43:54Z</time>
      </trkpt>
      <trkpt lat="44.07807" lon="7.10923">
        <ele>628</ele>
        <time>2017-08-22T20:45:54Z</time>
      </trkpt>
      <trkpt lat="44.07835" lon="7.10905">
        <ele>625</ele>
        <time>2017-08-22T20:47:54Z</time>
      </trkpt>
      <trkpt lat="44.07853" lon="7.10874">
        <ele>618</ele>
        <time>2017-08-22T20:49:54Z</time>
      </trkpt>
      <trkpt lat="44.07871" lon="7.10859">
        <ele>615</ele>
        <time>2017-08-22T20:51:54Z</time>
      </trkpt>
      <trkpt lat="44.07893" lon="7.10854">
        <ele>615</ele>
        <time>2017-08-22T20:53:54Z</time>
      </trkpt>
      <trkpt lat="44.07908" lon="7.10862">
        <ele>617</ele>
        <time>2017-08-22T20:55:54Z</time>
      </trkpt>
      <trkpt lat="44.07912" lon="7.10863">
        <ele>617</ele>
        <time>2017-08-22T20:57:54Z</time>
      </trkpt>
      <trkpt lat="44.07931" lon="7.10851">
        <ele>611</ele>
        <time>2017-08-22T20:59:54Z</time>
      </trkpt>
      <trkpt lat="44.07938" lon="7.10837">
        <ele>606</ele>
        <time>2017-08-22T21:01:54Z</time>
      </trkpt>
      <trkpt lat="44.07941" lon="7.10809">
        <ele>604</ele>
        <time>2017-08-22T21:03:54Z</time>
      </trkpt>
      <trkpt lat="44.07948" lon="7.10786">
        <ele>600</ele>
        <time>2017-08-22T21:05:54Z</time>
      </trkpt>
      <trkpt lat="44.07951" lon="7.10777">
        <ele>598</ele>
        <time>2017-08-22T21:07:54Z</time>
      </trkpt>
      <trkpt lat="44.07962" lon="7.10752">
        <ele>590</ele>
        <time>2017-08-22T21:09:54Z</time>
      </trkpt>
      <trkpt lat="44.07972" lon="7.10728">
        <ele>580</ele>
        <time>2017-08-22T21:11:54Z</time>
      </trkpt>
      <trkpt lat="44.07996" lon="7.1073">
        <ele>566</ele>
        <time>2017-08-22T21:13:54Z</time>
      </trkpt>
      <trkpt lat="44.08008" lon="7.10727">
        <ele>560</ele>
        <time>2017-08-22T21:15:54Z</time>
      </trkpt>
      <trkpt lat="44.08039" lon="7.10764">
        <ele>561</ele>
        <time>2017-08-22T21:17:54Z</time>
      </trkpt>
      <trkpt lat="44.0805" lon="7.10758">
        <ele>556</ele>
        <time>2017-08-22T21:19:54Z</time>
      </trkpt>
      <trkpt lat="44.08066" lon="7.10741">
        <ele>544</ele>
        <time>2017-08-22T21:21:54Z</time>
      </trkpt>
      <trkpt lat="44.08092" lon="7.10716">
        <ele>526</ele>
        <time>2017-08-22T21:23:54Z</time>
      </trkpt>
      <trkpt lat="44.08072" lon="7.10714">
        <ele>530</ele>
        <time>2017-08-22T21:25:54Z</time>
      </trkpt>
      <trkpt lat="44.08072" lon="7.10704">
        <ele>525</ele>
        <time>2017-08-22T21:27:54Z</time>
      </trkpt>
      <trkpt lat="44.08094" lon="7.10703">
        <ele>520</ele>
        <time>2017-08-22T21:29:54Z</time>
      </trkpt>
      <trkpt lat="44.08121" lon="7.10691">
        <ele>515</ele>
        <time>2017-08-22T21:31:54Z</time>
      </trkpt>
      <trkpt lat="44.08157" lon="7.10674">
        <ele>509</ele>
        <time>2017-08-22T21:33:54Z</time>
      </trkpt>
      <trkpt lat="44.08176" lon="7.10654">
        <ele>503</ele>
        <time>2017-08-22T21:35:54Z</time>
      </trkpt>
      <trkpt lat="44.0819" lon="7.10641">
        <ele>501</ele>
        <time>2017-08-22T21:37:54Z</time>
      </trkpt>
      <trkpt lat="44.08268" lon="7.10578">
        <ele>495</ele>
        <time>2017-08-22T21:39:54Z</time>
      </trkpt>
      <trkpt lat="44.08303" lon="7.10549">
        <ele>496</ele>
        <time>2017-08-22T21:41:54Z</time>
      </trkpt>
      <trkpt lat="44.08323" lon="7.10534">
        <ele>497</ele>
        <time>2017-08-22T21:43:54Z</time>
      </trkpt>
      <trkpt lat="44.08371" lon="7.10499">
        <ele>493</ele>
        <time>2017-08-22T21:45:54Z</time>
      </trkpt>
      <trkpt lat="44.08388" lon="7.10487">
        <ele>492</ele>
        <time>2017-08-22T21:47:54Z</time>
      </trkpt>
      <trkpt lat="44.08404" lon="7.10493">
        <ele>492</ele>
        <time>2017-08-22T21:49:54Z</time>
      </trkpt>
      <trkpt lat="44.08413" lon="7.10498">
        <ele>493</ele>
        <time>2017-08-22T21:51:54Z</time>
      </trkpt>
      <trkpt lat="44.08431" lon="7.1054">
        <ele>500</ele>
        <time>2017-08-22T21:53:54Z</time>
      </trkpt>
      <trkpt lat="44.08445" lon="7.10553">
        <ele>500</ele>
        <time>2017-08-22T21:55:54Z</time>
      </trkpt>
      <trkpt lat="44.08456" lon="7.10547">
        <ele>498</ele>
        <time>2017-08-22T21:57:54Z</time>
      </trkpt>
      <trkpt lat="44.08471" lon="7.10539">
        <ele>495</ele>
        <time>2017-08-22T21:59:54Z</time>
      </trkpt>
      <trkpt lat="44.08478" lon="7.10536">
        <ele>494</ele>
        <time>2017-08-22T22:01:54Z</time>
      </trkpt>
      <trkpt lat="44.08484" lon="7.10527">
        <ele>492</ele>
        <time>2017-08-22T22:03:54Z</time>
      </trkpt>
      <trkpt lat="44.08498" lon="7.1048">
        <ele>491</ele>
        <time>2017-08-22T22:05:54Z</time>
      </trkpt>
      <trkpt lat="44.08507" lon="7.10483">
        <ele>491</ele>
        <time>2017-08-22T22:07:54Z</time>
      </trkpt>
      <trkpt lat="44.08509" lon="7.1048">
        <ele>492</ele>
        <time>2017-08-22T22:09:54Z</time>
      </trkpt>
      <trkpt lat="44.08527" lon="7.10476">
        <ele>494</ele>
        <time>2017-08-22T22:11:54Z</time>
      </trkpt>
      <trkpt lat="44.08543" lon="7.10472">
        <ele>496</ele>
        <time>2017-08-22T22:13:54Z</time>
      </trkpt>
      <trkpt lat="44.08559" lon="7.10461">
        <ele>500</ele>
        <time>2017-08-22T22:15:54Z</time>
      </trkpt>
      <trkpt lat="44.08563" lon="7.10447">
        <ele>503</ele>
        <time>2017-08-22T22:17:54Z</time>
      </trkpt>
      <trkpt lat="44.08551" lon="7.10438">
        <ele>503</ele>
        <time>2017-08-22T22:19:54Z</time>
      </trkpt>
      <trkpt lat="44.08547" lon="7.10425">
        <ele>505</ele>
        <time>2017-08-22T22:21:54Z</time>
      </trkpt>
      <trkpt lat="44.0854" lon="7.10394">
        <ele>509</ele>
        <time>2017-08-22T22:23:54Z</time>
      </trkpt>
      <trkpt lat="44.08549" lon="7.10367">
        <ele>518</ele>
        <time>2017-08-22T22:25:54Z</time>
      </trkpt>
      <trkpt lat="44.08552" lon="7.10331">
        <ele>528</ele>
        <time>2017-08-22T22:27:54Z</time>
      </trkpt>
      <trkpt lat="44.08556" lon="7.10324">
        <ele>532</ele>
        <time>2017-08-22T22:29:54Z</time>
      </trkpt>
      <trkpt lat="44.08554" lon="7.10302">
        <ele>536</ele>
        <time>2017-08-22T22:31:54Z</time>
      </trkpt>
      <trkpt lat="44.08565" lon="7.10322">
        <ele>537</ele>
        <time>2017-08-22T22:33:54Z</time>
      </trkpt>
      <trkpt lat="44.0857" lon="7.10314">
        <ele>541</ele>
        <time>2017-08-22T22:35:54Z</time>
      </trkpt>
      <trkpt lat="44.0858" lon="7.10272">
        <ele>558</ele>
        <time>2017-08-22T22:37:54Z</time>
      </trkpt>
      <trkpt lat="44.08596" lon="7.10251">
        <ele>572</ele>
        <time>2017-08-22T22:39:54Z</time>
      </trkpt>
      <trkpt lat="44.08598" lon="7.10269">
        <ele>567</ele>
        <time>2017-08-22T22:41:54Z</time>
      </trkpt>
      <trkpt lat="44.08605" lon="7.10285">
        <ele>565</ele>
        <time>2017-08-22T22:43:54Z</time>
      </trkpt>
      <trkpt lat="44.08627" lon="7.10304">
        <ele>566</ele>
        <time>2017-08-22T22:45:54Z</time>
      </trkpt>
      <trkpt lat="44.08646" lon="7.10285">
        <ele>581</ele>
        <time>2017-08-22T22:47:54Z</time>
      </trkpt>
      <trkpt lat="44.08662" lon="7.10278">
        <ele>591</ele>
        <time>2017-08-22T22:49:54Z</time>
      </trkpt>
      <trkpt lat="44.08675" lon="7.10274">
        <ele>595</ele>
        <time>2017-08-22T22:51:54Z</time>
      </trkpt>
      <trkpt lat="44.08679" lon="7.10263">
        <ele>601</ele>
        <time>2017-08-22T22:53:54Z</time>
      </trkpt>
      <trkpt lat="44.08672" lon="7.10245">
        <ele>609</ele>
        <time>2017-08-22T22:55:54Z</time>
      </trkpt>
      <trkpt lat="44.08658" lon="7.10221">
        <ele>612</ele>
        <time>2017-08-22T22:57:54Z</time>
      </trkpt>
      <trkpt lat="44.08665" lon="7.10186">
        <ele>628</ele>
        <time>2017-08-22T22:59:54Z</time>
      </trkpt>
      <trkpt lat="44.08677" lon="7.10168">
        <ele>636</ele>
        <time>2017-08-22T23:01:54Z</time>
      </trkpt>
      <trkpt lat="44.08684" lon="7.10139">
        <ele>644</ele>
        <time>2017-08-22T23:03:54Z</time>
      </trkpt>
      <trkpt lat="44.0868" lon="7.10098">
        <ele>653</ele>
        <time>2017-08-22T23:05:54Z</time>
      </trkpt>
      <trkpt lat="44.08681" lon="7.10049">
        <ele>667</ele>
        <time>2017-08-22T23:07:54Z</time>
      </trkpt>
      <trkpt lat="44.08689" lon="7.10024">
        <ele>675</ele>
        <time>2017-08-22T23:09:54Z</time>
      </trkpt>
      <trkpt lat="44.08699" lon="7.10008">
        <ele>682</ele>
        <time>2017-08-22T23:11:54Z</time>
      </trkpt>
      <trkpt lat="44.08707" lon="7.09993">
        <ele>690</ele>
        <time>2017-08-22T23:13:54Z</time>
      </trkpt>
      <trkpt lat="44.08705" lon="7.09966">
        <ele>700</ele>
        <time>2017-08-22T23:15:54Z</time>
      </trkpt>
      <trkpt lat="44.08688" lon="7.09923">
        <ele>715</ele>
        <time>2017-08-22T23:17:54Z</time>
      </trkpt>
      <trkpt lat="44.08676" lon="7.09915">
        <ele>716</ele>
        <time>2017-08-22T23:19:54Z</time>
      </trkpt>
      <trkpt lat="44.08659" lon="7.09911">
        <ele>714</ele>
        <time>2017-08-22T23:21:54Z</time>
      </trkpt>
      <trkpt lat="44.0867" lon="7.09907">
        <ele>719</ele>
        <time>2017-08-22T23:23:54Z</time>
      </trkpt>
      <trkpt lat="44.08663" lon="7.09902">
        <ele>719</ele>
        <time>2017-08-22T23:25:54Z</time>
      </trkpt>
      <trkpt lat="44.08669" lon="7.09889">
        <ele>726</ele>
        <time>2017-08-22T23:27:54Z</time>
      </trkpt>
      <trkpt lat="44.08658" lon="7.09877">
        <ele>728</ele>
        <time>2017-08-22T23:29:54Z</time>
      </trkpt>
      <trkpt lat="44.08653" lon="7.09856">
        <ele>735</ele>
        <time>2017-08-22T23:31:54Z</time>
      </trkpt>
      <trkpt lat="44.08656" lon="7.0983">
        <ele>747</ele>
        <time>2017-08-22T23:33:54Z</time>
      </trkpt>
      <trkpt lat="44.08641" lon="7.09801">
        <ele>751</ele>
        <time>2017-08-22T23:35:54Z</time>
      </trkpt>
      <trkpt lat="44.08642" lon="7.09784">
        <ele>756</ele>
        <time>2017-08-22T23:37:54Z</time>
      </trkpt>
      <trkpt lat="44.08625" lon="7.09754">
        <ele>759</ele>
        <time>2017-08-22T23:39:54Z</time>
      </trkpt>
      <trkpt lat="44.08616" lon="7.09718">
        <ele>757</ele>
        <time>2017-08-22T23:41:54Z</time>
      </trkpt>
      <trkpt lat="44.08621" lon="7.09694">
        <ele>759</ele>
        <time>2017-08-22T23:43:54Z</time>
      </trkpt>
      <trkpt lat="44.08643" lon="7.09676">
        <ele>772</ele>
        <time>2017-08-22T23:45:54Z</time>
      </trkpt>
      <trkpt lat="44.0866" lon="7.0965">
        <ele>777</ele>
        <time>2017-08-22T23:47:54Z</time>
      </trkpt>
      <trkpt lat="44.08671" lon="7.09615">
        <ele>772</ele>
        <time>2017-08-22T23:49:54Z</time>
      </trkpt>
      <trkpt lat="44.08708" lon="7.09565">
        <ele>784</ele>
        <time>2017-08-22T23:51:54Z</time>
      </trkpt>
      <trkpt lat="44.08731" lon="7.09533">
        <ele>790</ele>
        <time>2017-08-22T23:53:54Z</time>
      </trkpt>
      <trkpt lat="44.08756" lon="7.0951">
        <ele>801</ele>
        <time>2017-08-22T23:55:54Z</time>
      </trkpt>
      <trkpt lat="44.08783" lon="7.09481">
        <ele>813</ele>
        <time>2017-08-22T23:57:54Z</time>
      </trkpt>
      <trkpt lat="44.08801" lon="7.09451">
        <ele>817</ele>
        <time>2017-08-22T23:59:54Z</time>
      </trkpt>
      <trkpt lat="44.08816" lon="7.09409">
        <ele>818</ele>
        <time>2017-08-23T00:01:54Z</time>
      </trkpt>
      <trkpt lat="44.08826" lon="7.09375">
        <ele>827</ele>
        <time>2017-08-23T00:03:54Z</time>
      </trkpt>
      <trkpt lat="44.08825" lon="7.09411">
        <ele>825</ele>
        <time>2017-08-23T00:05:54Z</time>
      </trkpt>
      <trkpt lat="44.08819" lon="7.09464">
        <ele>834</ele>
        <time>2017-08-23T00:07:54Z</time>
      </trkpt>
      <trkpt lat="44.08789" lon="7.0953">
        <ele>830</ele>
        <time>2017-08-23T00:09:54Z</time>
      </trkpt>
      <trkpt lat="44.08782" lon="7.09569">
        <ele>835</ele>
        <time>2017-08-23T00:11:54Z</time>
      </trkpt>
      <trkpt lat="44.08773" lon="7.09614">
        <ele>834</ele>
        <time>2017-08-23T00:13:54Z</time>
      </trkpt>
      <trkpt lat="44.08781" lon="7.09633">
        <ele>836</ele>
        <time>2017-08-23T00:15:54Z</time>
      </trkpt>
      <trkpt lat="44.08825" lon="7.09646">
        <ele>850</ele>
        <time>2017-08-23T00:17:54Z</time>
      </trkpt>
      <trkpt lat="44.08856" lon="7.0965">
        <ele>863</ele>
        <time>2017-08-23T00:19:54Z</time>
      </trkpt>
      <trkpt lat="44.08842" lon="7.09624">
        <ele>862</ele>
        <time>2017-08-23T00:21:54Z</time>
      </trkpt>
      <trkpt lat="44.0884" lon="7.09602">
        <ele>865</ele>
        <time>2017-08-23T00:23:54Z</time>
      </trkpt>
      <trkpt lat="44.08833" lon="7.09583">
        <ele>866</ele>
        <time>2017-08-23T00:25:54Z</time>
      </trkpt>
      <trkpt lat="44.08833" lon="7.09564">
        <ele>863</ele>
        <time>2017-08-23T00:27:54Z</time>
      </trkpt>
      <trkpt lat="44.0884" lon="7.09544">
        <ele>865</ele>
        <time>2017-08-23T00:29:54Z</time>
      </trkpt>
      <trkpt lat="44.08848" lon="7.09526">
        <ele>868</ele>
        <time>2017-08-23T00:31:54Z</time>
      </trkpt>
      <trkpt lat="44.08852" lon="7.09505">
        <ele>869</ele>
        <time>2017-08-23T00:33:54Z</time>
      </trkpt>
      <trkpt lat="44.08865" lon="7.09492">
        <ele>876</ele>
        <time>2017-08-23T00:35:54Z</time>
      </trkpt>
      <trkpt lat="44.08877" lon="7.09485">
        <ele>882</ele>
        <time>2017-08-23T00:37:54Z</time>
      </trkpt>
      <trkpt lat="44.08881" lon="7.09467">
        <ele>881</ele>
        <time>2017-08-23T00:39:54Z</time>
      </trkpt>
      <trkpt lat="44.08893" lon="7.09447">
        <ele>885</ele>
        <time>2017-08-23T00:41:54Z</time>
      </trkpt>
      <trkpt lat="44.08905" lon="7.09423">
        <ele>890</ele>
        <time>2017-08-23T00:43:54Z</time>
      </trkpt>
      <trkpt lat="44.08905" lon="7.09393">
        <ele>890</ele>
        <time>2017-08-23T00:45:54Z</time>
      </trkpt>
      <trkpt lat="44.08912" lon="7.09412">
        <ele>895</ele>
        <time>2017-08-23T00:47:54Z</time>
      </trkpt>
      <trkpt lat="44.08912" lon="7.0943">
        <ele>897</ele>
        <time>2017-08-23T00:49:54Z</time>
      </trkpt>
      <trkpt lat="44.08901" lon="7.09455">
        <ele>893</ele>
        <time>2017-08-23T00:51:54Z</time>
      </trkpt>
      <trkpt lat="44.08902" lon="7.09503">
        <ele>903</ele>
        <time>2017-08-23T00:53:54Z</time>
      </trkpt>
      <trkpt lat="44.08916" lon="7.09543">
        <ele>910</ele>
        <time>2017-08-23T00:55:54Z</time>
      </trkpt>
      <trkpt lat="44.0892" lon="7.09587">
        <ele>909</ele>
        <time>2017-08-23T00:57:54Z</time>
      </trkpt>
      <trkpt lat="44.08924" lon="7.09601">
        <ele>908</ele>
        <time>2017-08-23T00:59:54Z</time>
      </trkpt>
      <trkpt lat="44.08939" lon="7.09614">
        <ele>911</ele>
        <time>2017-08-23T01:01:54Z</time>
      </trkpt>
      <trkpt lat="44.08962" lon="7.09619">
        <ele>919</ele>
        <time>2017-08-23T01:03:54Z</time>
      </trkpt>
      <trkpt lat="44.09011" lon="7.09624">
        <ele>936</ele>
        <time>2017-08-23T01:05:54Z</time>
      </trkpt>
      <trkpt lat="44.09043" lon="7.09636">
        <ele>939</ele>
        <time>2017-08-23T01:07:54Z</time>
      </trkpt>
      <trkpt lat="44.09027" lon="7.09614">
        <ele>943</ele>
        <time>2017-08-23T01:09:54Z</time>
      </trkpt>
      <trkpt lat="44.08997" lon="7.09584">
        <ele>945</ele>
        <time>2017-08-23T01:11:54Z</time>
      </trkpt>
      <trkpt lat="44.08986" lon="7.09564">
        <ele>944</ele>
        <time>2017-08-23T01:13:54Z</time>
      </trkpt>
      <trkpt lat="44.08975" lon="7.09521">
        <ele>945</ele>
        <time>2017-08-23T01:15:54Z</time>
      </trkpt>
      <trkpt lat="44.08975" lon="7.09498">
        <ele>948</ele>
        <time>2017-08-23T01:17:54Z</time>
      </trkpt>
      <trkpt lat="44.08996" lon="7.09556">
        <ele>950</ele>
        <time>2017-08-23T01:19:54Z</time>
      </trkpt>
      <trkpt lat="44.09038" lon="7.09585">
        <ele>956</ele>
        <time>2017-08-23T01:21:54Z</time>
      </trkpt>
      <trkpt lat="44.09011" lon="7.09552">
        <ele>956</ele>
        <time>2017-08-23T01:23:54Z</time>
      </trkpt>
      <trkpt lat="44.08997" lon="7.09501">
        <ele>961</ele>
        <time>2017-08-23T01:25:54Z</time>
      </trkpt>
      <trkpt lat="44.08986" lon="7.09464">
        <ele>954</ele>
        <time>2017-08-23T01:27:54Z</time>
      </trkpt>
      <trkpt lat="44.08993" lon="7.09459">
        <ele>959</ele>
        <time>2017-08-23T01:29:54Z</time>
      </trkpt>
      <trkpt lat="44.09006" lon="7.09492">
        <ele>966</ele>
        <time>2017-08-23T01:31:54Z</time>
      </trkpt>
      <trkpt lat="44.0903" lon="7.09538">
        <ele>966</ele>
        <time>2017-08-23T01:33:54Z</time>
      </trkpt>
      <trkpt lat="44.09042" lon="7.09555">
        <ele>965</ele>
        <time>2017-08-23T01:35:54Z</time>
      </trkpt>
      <trkpt lat="44.09086" lon="7.09569">
        <ele>974</ele>
        <time>2017-08-23T01:37:54Z</time>
      </trkpt>
      <trkpt lat="44.09103" lon="7.09563">
        <ele>976</ele>
        <time>2017-08-23T01:39:54Z</time>
      </trkpt>
      <trkpt lat="44.09074" lon="7.09536">
        <ele>981</ele>
        <time>2017-08-23T01:41:54Z</time>
      </trkpt>
      <trkpt lat="44.09063" lon="7.09524">
        <ele>981</ele>
        <time>2017-08-23T01:43:54Z</time>
      </trkpt>
      <trkpt lat="44.09056" lon="7.09494">
        <ele>986</ele>
        <time>2017-08-23T01:45:54Z</time>
      </trkpt>
      <trkpt lat="44.09053" lon="7.09468">
        <ele>989</ele>
        <time>2017-08-23T01:47:54Z</time>
      </trkpt>
      <trkpt lat="44.09037" lon="7.09427">
        <ele>986</ele>
        <time>2017-08-23T01:49:54Z</time>
      </trkpt>
      <trkpt lat="44.09038" lon="7.09406">
        <ele>988</ele>
        <time>2017-08-23T01:51:54Z</time>
      </trkpt>
      <trkpt lat="44.09047" lon="7.09374">
        <ele>996</ele>
        <time>2017-08-23T01:53:54Z</time>
      </trkpt>
      <trkpt lat="44.09053" lon="7.09335">
        <ele>1004</ele>
        <time>2017-08-23T01:55:54Z</time>
      </trkpt>
      <trkpt lat="44.09064" lon="7.0932">
        <ele>1014</ele>
        <time>2017-08-23T01:57:54Z</time>
      </trkpt>
      <trkpt lat="44.09067" lon="7.09294">
        <ele>1021</ele>
        <time>2017-08-23T01:59:54Z</time>
      </trkpt>
      <trkpt lat="44.09065" lon="7.09246">
        <ele>1030</ele>
        <time>2017-08-23T02:01:54Z</time>
      </trkpt>
      <trkpt lat="44.09058" lon="7.09215">
        <ele>1034</ele>
        <time>2017-08-23T02:03:54Z</time>
      </trkpt>
      <trkpt lat="44.09043" lon="7.09194">
        <ele>1029</ele>
        <time>2017-08-23T02:05:54Z</time>
      </trkpt>
      <trkpt lat="44.09034" lon="7.0917">
        <ele>1029</ele>
        <time>2017-08-23T02:07:54Z</time>
      </trkpt>
      <trkpt lat="44.09036" lon="7.09141">
        <ele>1036</ele>
        <time>2017-08-23T02:09:54Z</time>
      </trkpt>
      <trkpt lat="44.09032" lon="7.09089">
        <ele>1042</ele>
        <time>2017-08-23T02:11:54Z</time>
      </trkpt>
      <trkpt lat="44.09018" lon="7.09056">
        <ele>1040</ele>
        <time>2017-08-23T02:13:54Z</time>
      </trkpt>
      <trkpt lat="44.09003" lon="7.09048">
        <ele>1033</ele>
        <time>2017-08-23T02:15:54Z</time>
      </trkpt>
      <trkpt lat="44.0901" lon="7.09008">
        <ele>1046</ele>
        <time>2017-08-23T02:17:54Z</time>
      </trkpt>
      <trkpt lat="44.09006" lon="7.08986">
        <ele>1048</ele>
        <time>2017-08-23T02:19:54Z</time>
      </trkpt>
      <trkpt lat="44.09006" lon="7.08951">
        <ele>1053</ele>
        <time>2017-08-23T02:21:54Z</time>
      </trkpt>
      <trkpt lat="44.09001" lon="7.08921">
        <ele>1054</ele>
        <time>2017-08-23T02:23:54Z</time>
      </trkpt>
      <trkpt lat="44.09001" lon="7.0888">
        <ele>1064</ele>
        <time>2017-08-23T02:25:54Z</time>
      </trkpt>
      <trkpt lat="44.08992" lon="7.08857">
        <ele>1068</ele>
        <time>2017-08-23T02:27:54Z</time>
      </trkpt>
      <trkpt lat="44.08983" lon="7.08835">
        <ele>1073</ele>
        <time>2017-08-23T02:29:54Z</time>
      </trkpt>
      <trkpt lat="44.08965" lon="7.08818">
        <ele>1075</ele>
        <time>2017-08-23T02:31:54Z</time>
      </trkpt>
      <trkpt lat="44.08966" lon="7.08792">
        <ele>1079</ele>
        <time>2017-08-23T02:33:54Z</time>
      </trkpt>
      <trkpt lat="44.08964" lon="7.08758">
        <ele>1083</ele>
        <time>2017-08-23T02:35:54Z</time>
      </trkpt>
      <trkpt lat="44.08958" lon="7.08748">
        <ele>1083</ele>
        <time>2017-08-23T02:37:54Z</time>
      </trkpt>
      <trkpt lat="44.08957" lon="7.08735">
        <ele>1084</ele>
        <time>2017-08-23T02:39:54Z</time>
      </trkpt>
      <trkpt lat="44.08947" lon="7.08704">
        <ele>1083</ele>
        <time>2017-08-23T02:41:54Z</time>
      </trkpt>
      <trkpt lat="44.08949" lon="7.08675">
        <ele>1088</ele>
        <time>2017-08-23T02:43:54Z</time>
      </trkpt>
      <trkpt lat="44.08959" lon="7.08667">
        <ele>1094</ele>
        <time>2017-08-23T02:45:54Z</time>
      </trkpt>
      <trkpt lat="44.08965" lon="7.08659">
        <ele>1098</ele>
        <time>2017-08-23T02:47:54Z</time>
      </trkpt>
      <trkpt lat="44.08957" lon="7.08651">
        <ele>1095</ele>
        <time>2017-08-23T02:49:54Z</time>
      </trkpt>
      <trkpt lat="44.08952" lon="7.08633">
        <ele>1094</ele>
        <time>2017-08-23T02:51:54Z</time>
      </trkpt>
      <trkpt lat="44.08964" lon="7.08599">
        <ele>1106</ele>
        <time>2017-08-23T02:53:54Z</time>
      </trkpt>
      <trkpt lat="44.08972" lon="7.08574">
        <ele>1110</ele>
        <time>2017-08-23T02:55:54Z</time>
      </trkpt>
      <trkpt lat="44.08985" lon="7.08537">
        <ele>1106</ele>
        <time>2017-08-23T02:57:54Z</time>
      </trkpt>
      <trkpt lat="44.08997" lon="7.08524">
        <ele>1109</ele>
        <time>2017-08-23T02:59:54Z</time>
      </trkpt>
      <trkpt lat="44.09006" lon="7.08521">
        <ele>1112</ele>
        <time>2017-08-23T03:01:54Z</time>
      </trkpt>
      <trkpt lat="44.0902" lon="7.08524">
        <ele>1118</ele>
        <time>2017-08-23T03:03:54Z</time>
      </trkpt>
      <trkpt lat="44.09034" lon="7.08541">
        <ele>1127</ele>
        <time>2017-08-23T03:05:54Z</time>
      </trkpt>
      <trkpt lat="44.09042" lon="7.08555">
        <ele>1133</ele>
        <time>2017-08-23T03:07:54Z</time>
      </trkpt>
      <trkpt lat="44.09053" lon="7.08562">
        <ele>1138</ele>
        <time>2017-08-23T03:09:54Z</time>
      </trkpt>
      <trkpt lat="44.09078" lon="7.08559">
        <ele>1143</ele>
        <time>2017-08-23T03:11:54Z</time>
      </trkpt>
      <trkpt lat="44.09104" lon="7.08572">
        <ele>1153</ele>
        <time>2017-08-23T03:13:54Z</time>
      </trkpt>
      <trkpt lat="44.09141" lon="7.08555">
        <ele>1159</ele>
        <time>2017-08-23T03:15:54Z</time>
      </trkpt>
      <trkpt lat="44.09151" lon="7.08554">
        <ele>1161</ele>
        <time>2017-08-23T03:17:54Z</time>
      </trkpt>
      <trkpt lat="44.09147" lon="7.08567">
        <ele>1163</ele>
        <time>2017-08-23T03:19:54Z</time>
      </trkpt>
      <trkpt lat="44.09127" lon="7.08588">
        <ele>1162</ele>
        <time>2017-08-23T03:21:54Z</time>
      </trkpt>
      <trkpt lat="44.0914" lon="7.08593">
        <ele>1166</ele>
        <time>2017-08-23T03:23:54Z</time>
      </trkpt>
      <trkpt lat="44.0915" lon="7.0863">
        <ele>1171</ele>
        <time>2017-08-23T03:25:54Z</time>
      </trkpt>
      <trkpt lat="44.0915" lon="7.08645">
        <ele>1172</ele>
        <time>2017-08-23T03:27:54Z</time>
      </trkpt>
      <trkpt lat="44.09157" lon="7.08673">
        <ele>1175</ele>
        <time>2017-08-23T03:29:54Z</time>
      </trkpt>
      <trkpt lat="44.09174" lon="7.08705">
        <ele>1180</ele>
        <time>2017-08-23T03:31:54Z</time>
      </trkpt>
      <trkpt lat="44.0919" lon="7.08744">
        <ele>1185</ele>
        <time>2017-08-23T03:33:54Z</time>
      </trkpt>
      <trkpt lat="44.09214" lon="7.08775">
        <ele>1193</ele>
        <time>2017-08-23T03:35:54Z</time>
      </trkpt>
      <trkpt lat="44.09236" lon="7.08812">
        <ele>1198</ele>
        <time>2017-08-23T03:37:54Z</time>
      </trkpt>
      <trkpt lat="44.09254" lon="7.08839">
        <ele>1201</ele>
        <time>2017-08-23T03:39:54Z</time>
      </trkpt>
      <trkpt lat="44.09268" lon="7.08845">
        <ele>1205</ele>
        <time>2017-08-23T03:41:54Z</time>
      </trkpt>
      <trkpt lat="44.09285" lon="7.08859">
        <ele>1207</ele>
        <time>2017-08-23T03:43:54Z</time>
      </trkpt>
      <trkpt lat="44.09305" lon="7.08871">
        <ele>1211</ele>
        <time>2017-08-23T03:45:54Z</time>
      </trkpt>
      <trkpt lat="44.09331" lon="7.08871">
        <ele>1219</ele>
        <time>2017-08-23T03:47:54Z</time>
      </trkpt>
      <trkpt lat="44.09355" lon="7.08877">
        <ele>1227</ele>
        <time>2017-08-23T03:49:54Z</time>
      </trkpt>
      <trkpt lat="44.09377" lon="7.08901">
        <ele>1229</ele>
        <time>2017-08-23T03:51:54Z</time>
      </trkpt>
      <trkpt lat="44.09402" lon="7.08918">
        <ele>1235</ele>
        <time>2017-08-23T03:53:54Z</time>
      </trkpt>
      <trkpt lat="44.09419" lon="7.0893">
        <ele>1238</ele>
        <time>2017-08-23T03:55:54Z</time>
      </trkpt>
      <trkpt lat="44.09439" lon="7.08935">
        <ele>1246</ele>
        <time>2017-08-23T03:57:54Z</time>
      </trkpt>
      <trkpt lat="44.09449" lon="7.08949">
        <ele>1246</ele>
        <time>2017-08-23T03:59:54Z</time>
      </trkpt>
      <trkpt lat="44.09468" lon="7.08965">
        <ele>1251</ele>
        <time>2017-08-23T04:01:54Z</time>
      </trkpt>
      <trkpt lat="44.0948" lon="7.08986">
        <ele>1251</ele>
        <time>2017-08-23T04:03:54Z</time>
      </trkpt>
      <trkpt lat="44.09498" lon="7.09017">
        <ele>1251</ele>
        <time>2017-08-23T04:05:54Z</time>
      </trkpt>
      <trkpt lat="44.09518" lon="7.09032">
        <ele>1253</ele>
        <time>2017-08-23T04:07:54Z</time>
      </trkpt>
      <trkpt lat="44.09541" lon="7.09037">
        <ele>1258</ele>
        <time>2017-08-23T04:09:54Z</time>
      </trkpt>
      <trkpt lat="44.09564" lon="7.09035">
        <ele>1266</ele>
        <time>2017-08-23T04:11:54Z</time>
      </trkpt>
      <trkpt lat="44.0959" lon="7.09038">
        <ele>1271</ele>
        <time>2017-08-23T04:13:54Z</time>
      </trkpt>
      <trkpt lat="44.09611" lon="7.09033">
        <ele>1274</ele>
        <time>2017-08-23T04:15:54Z</time>
      </trkpt>
      <trkpt lat="44.09641" lon="7.09017">
        <ele>1280</ele>
        <time>2017-08-23T04:17:54Z</time>
      </trkpt>
      <trkpt lat="44.09676" lon="7.08996">
        <ele>1287</ele>
        <time>2017-08-23T04:19:54Z</time>
      </trkpt>
      <trkpt lat="44.09715" lon="7.08969">
        <ele>1292</ele>
        <time>2017-08-23T04:21:54Z</time>
      </trkpt>
      <trkpt lat="44.09758" lon="7.08929">
        <ele>1302</ele>
        <time>2017-08-23T04:23:54Z</time>
      </trkpt>
      <trkpt lat="44.09787" lon="7.08895">
        <ele>1313</ele>
        <time>2017-08-23T04:25:54Z</time>
      </trkpt>
      <trkpt lat="44.09806" lon="7.08886">
        <ele>1315</ele>
        <time>2017-08-23T04:27:54Z</time>
      </trkpt>
      <trkpt lat="44.09861" lon="7.08879">
        <ele>1318</ele>
        <time>2017-08-23T04:29:54Z</time>
      </trkpt>
      <trkpt lat="44.09876" lon="7.08863">
        <ele>1327</ele>
        <time>2017-08-23T04:31:54Z</time>
      </trkpt>
      <trkpt lat="44.09886" lon="7.08856">
        <ele>1331</ele>
        <time>2017-08-23T04:33:54Z</time>
      </trkpt>
      <trkpt lat="44.09914" lon="7.08837">
        <ele>1342</ele>
        <time>2017-08-23T04:35:54Z</time>
      </trkpt>
      <trkpt lat="44.0993" lon="7.08853">
        <ele>1337</ele>
        <time>2017-08-23T04:37:54Z</time>
      </trkpt>
      <trkpt lat="44.09945" lon="7.08858">
        <ele>1337</ele>
        <time>2017-08-23T04:39:54Z</time>
      </trkpt>
      <trkpt lat="44.09964" lon="7.08859">
        <ele>1339</ele>
        <time>2017-08-23T04:41:54Z</time>
      </trkpt>
      <trkpt lat="44.09994" lon="7.0885">
        <ele>1346</ele>
        <time>2017-08-23T04:43:54Z</time>
      </trkpt>
      <trkpt lat="44.10021" lon="7.0883">
        <ele>1357</ele>
        <time>2017-08-23T04:45:54Z</time>
      </trkpt>
      <trkpt lat="44.1005" lon="7.08807">
        <ele>1367</ele>
        <time>2017-08-23T04:47:54Z</time>
      </trkpt>
      <trkpt lat="44.10071" lon="7.08794">
        <ele>1372</ele>
        <time>2017-08-23T04:49:54Z</time>
      </trkpt>
      <trkpt lat="44.10092" lon="7.08795">
        <ele>1371</ele>
        <time>2017-08-23T04:51:54Z</time>
      </trkpt>
      <trkpt lat="44.10117" lon="7.088">
        <ele>1370</ele>
        <time>2017-08-23T04:53:54Z</time>
      </trkpt>
      <trkpt lat="44.10138" lon="7.08805">
        <ele>1370</ele>
        <time>2017-08-23T04:55:54Z</time>
      </trkpt>
      <trkpt lat="44.10153" lon="7.08805">
        <ele>1370</ele>
        <time>2017-08-23T04:57:54Z</time>
      </trkpt>
      <trkpt lat="44.10175" lon="7.08785">
        <ele>1374</ele>
        <time>2017-08-23T04:59:54Z</time>
      </trkpt>
      <trkpt lat="44.10191" lon="7.08754">
        <ele>1377</ele>
        <time>2017-08-23T05:01:54Z</time>
      </trkpt>
      <trkpt lat="44.10204" lon="7.08717">
        <ele>1384</ele>
        <time>2017-08-23T05:03:54Z</time>
      </trkpt>
      <trkpt lat="44.10225" lon="7.08676">
        <ele>1388</ele>
        <time>2017-08-23T05:05:54Z</time>
      </trkpt>
      <trkpt lat="44.10233" lon="7.08652">
        <ele>1392</ele>
        <time>2017-08-23T05:07:54Z</time>
      </trkpt>
      <trkpt lat="44.10248" lon="7.08636">
        <ele>1393</ele>
        <time>2017-08-23T05:09:54Z</time>
      </trkpt>
      <trkpt lat="44.10253" lon="7.08613">
        <ele>1400</ele>
        <time>2017-08-23T05:11:54Z</time>
      </trkpt>
      <trkpt lat="44.10269" lon="7.08603">
        <ele>1401</ele>
        <time>2017-08-23T05:13:54Z</time>
      </trkpt>
      <trkpt lat="44.10295" lon="7.08598">
        <ele>1399</ele>
        <time>2017-08-23T05:15:54Z</time>
      </trkpt>
      <trkpt lat="44.10325" lon="7.08583">
        <ele>1401</ele>
        <time>2017-08-23T05:17:54Z</time>
      </trkpt>
      <trkpt lat="44.10357" lon="7.08553">
        <ele>1406</ele>
        <time>2017-08-23T05:19:54Z</time>
      </trkpt>
      <trkpt lat="44.10401" lon="7.08508">
        <ele>1409</ele>
        <time>2017-08-23T05:21:54Z</time>
      </trkpt>
      <trkpt lat="44.1045" lon="7.08431">
        <ele>1417</ele>
        <time>2017-08-23T05:23:54Z</time>
      </trkpt>
      <trkpt lat="44.10469" lon="7.08392">
        <ele>1422</ele>
        <time>2017-08-23T05:25:54Z</time>
      </trkpt>
      <trkpt lat="44.10473" lon="7.08367">
        <ele>1429</ele>
        <time>2017-08-23T05:27:54Z</time>
      </trkpt>
      <trkpt lat="44.10503" lon="7.0833">
        <ele>1429</ele>
        <time>2017-08-23T05:29:54Z</time>
      </trkpt>
      <trkpt lat="44.10527" lon="7.083">
        <ele>1433</ele>
        <time>2017-08-23T05:31:54Z</time>
      </trkpt>
      <trkpt lat="44.10554" lon="7.08244">
        <ele>1443</ele>
        <time>2017-08-23T05:33:54Z</time>
      </trkpt>
      <trkpt lat="44.10573" lon="7.08198">
        <ele>1447</ele>
        <time>2017-08-23T05:35:54Z</time>
      </trkpt>
      <trkpt lat="44.10583" lon="7.08168">
        <ele>1451</ele>
        <time>2017-08-23T05:37:54Z</time>
      </trkpt>
      <trkpt lat="44.10632" lon="7.08061">
        <ele>1453</ele>
        <time>2017-08-23T05:39:54Z</time>
      </trkpt>
      <trkpt lat="44.10713" lon="7.07871">
        <ele>1454</ele>
        <time>2017-08-23T05:41:54Z</time>
      </trkpt>
      <trkpt lat="44.10735" lon="7.07813">
        <ele>1452</ele>
        <time>2017-08-23T05:43:54Z</time>
      </trkpt>
      <trkpt lat="44.10743" lon="7.07757">
        <ele>1459</ele>
        <time>2017-08-23T05:45:54Z</time>
      </trkpt>
      <trkpt lat="44.1075" lon="7.07725">
        <ele>1463</ele>
        <time>2017-08-23T05:47:54Z</time>
      </trkpt>
      <trkpt lat="44.10765" lon="7.07702">
        <ele>1461</ele>
        <time>2017-08-23T05:49:54Z</time>
      </trkpt>
      <trkpt lat="44.10786" lon="7.07688">
        <ele>1453</ele>
        <time>2017-08-23T05:51:54Z</time>
      </trkpt>
      <trkpt lat="44.10802" lon="7.0766">
        <ele>1452</ele>
        <time>2017-08-23T05:53:54Z</time>
      </trkpt>
      <trkpt lat="44.10824" lon="7.07635">
        <ele>1449</ele>
        <time>2017-08-23T05:55:54Z</time>
      </trkpt>
      <trkpt lat="44.10841" lon="7.07616">
        <ele>1448</ele>
        <time>2017-08-23T05:57:54Z</time>
      </trkpt>
      <trkpt lat="44.10856" lon="7.07595">
        <ele>1450</ele>
        <time>2017-08-23T05:59:54Z</time>
      </trkpt>
      <trkpt lat="44.10893" lon="7.07543">
        <ele>1455</ele>
        <time>2017-08-23T06:01:54Z</time>
      </trkpt>
      <trkpt lat="44.10933" lon="7.07482">
        <ele>1460</ele>
        <time>2017-08-23T06:03:54Z</time>
      </trkpt>
      <trkpt lat="44.10962" lon="7.0743">
        <ele>1465</ele>
        <time>2017-08-23T06:05:54Z</time>
      </trkpt>
      <trkpt lat="44.10979" lon="7.07406">
        <ele>1467</ele>
        <time>2017-08-23T06:07:54Z</time>
      </trkpt>
      <trkpt lat="44.10999" lon="7.07398">
        <ele>1464</ele>
        <time>2017-08-23T06:09:54Z</time>
      </trkpt>
      <trkpt lat="44.11035" lon="7.07396">
        <ele>1465</ele>
        <time>2017-08-23T06:11:54Z</time>
      </trkpt>
      <trkpt lat="44.11073" lon="7.07399">
        <ele>1465</ele>
        <time>2017-08-23T06:13:54Z</time>
      </trkpt>
      <trkpt lat="44.11124" lon="7.07403">
        <ele>1465</ele>
        <time>2017-08-23T06:15:54Z</time>
      </trkpt>
      <trkpt lat="44.11144" lon="7.07413">
        <ele>1463</ele>
        <time>2017-08-23T06:17:54Z</time>
      </trkpt>
      <trkpt lat="44.11159" lon="7.07405">
        <ele>1466</ele>
        <time>2017-08-23T06:19:54Z</time>
      </trkpt>
      <trkpt lat="44.11191" lon="7.07393">
        <ele>1464</ele>
        <time>2017-08-23T06:21:54Z</time>
      </trkpt>
      <trkpt lat="44.11209" lon="7.07377">
        <ele>1464</ele>
        <time>2017-08-23T06:23:54Z</time>
      </trkpt>
      <trkpt lat="44.11239" lon="7.0733">
        <ele>1470</ele>
        <time>2017-08-23T06:25:54Z</time>
      </trkpt>
      <trkpt lat="44.11259" lon="7.07296">
        <ele>1472</ele>
        <time>2017-08-23T06:27:54Z</time>
      </trkpt>
      <trkpt lat="44.11268" lon="7.07272">
        <ele>1475</ele>
        <time>2017-08-23T06:29:54Z</time>
      </trkpt>
      <trkpt lat="44.11283" lon="7.07263">
        <ele>1473</ele>
        <time>2017-08-23T06:31:54Z</time>
      </trkpt>
      <trkpt lat="44.11293" lon="7.07233">
        <ele>1480</ele>
        <time>2017-08-23T06:33:54Z</time>
      </trkpt>
      <trkpt lat="44.11309" lon="7.07226">
        <ele>1479</ele>
        <time>2017-08-23T06:35:54Z</time>
      </trkpt>
      <trkpt lat="44.11328" lon="7.07239">
        <ele>1468</ele>
        <time>2017-08-23T06:37:54Z</time>
      </trkpt>
      <trkpt lat="44.11352" lon="7.07241">
        <ele>1462</ele>
        <time>2017-08-23T06:39:54Z</time>
      </trkpt>
      <trkpt lat="44.11376" lon="7.07261">
        <ele>1452</ele>
        <time>2017-08-23T06:41:54Z</time>
      </trkpt>
      <trkpt lat="44.1139" lon="7.07254">
        <ele>1451</ele>
        <time>2017-08-23T06:43:54Z</time>
      </trkpt>
      <trkpt lat="44.11416" lon="7.0719">
        <ele>1463</ele>
        <time>2017-08-23T06:45:54Z</time>
      </trkpt>
      <trkpt lat="44.11423" lon="7.07175">
        <ele>1462</ele>
        <time>2017-08-23T06:47:54Z</time>
      </trkpt>
      <trkpt lat="44.11417" lon="7.07155">
        <ele>1470</ele>
        <time>2017-08-23T06:49:54Z</time>
      </trkpt>
      <trkpt lat="44.1141" lon="7.07127">
        <ele>1475</ele>
        <time>2017-08-23T06:51:54Z</time>
      </trkpt>
      <trkpt lat="44.11407" lon="7.07096">
        <ele>1479</ele>
        <time>2017-08-23T06:53:54Z</time>
      </trkpt>
      <trkpt lat="44.11415" lon="7.07076">
        <ele>1479</ele>
        <time>2017-08-23T06:55:54Z</time>
      </trkpt>
      <trkpt lat="44.11429" lon="7.07063">
        <ele>1477</ele>
        <time>2017-08-23T06:57:54Z</time>
      </trkpt>
      <trkpt lat="44.11468" lon="7.07045">
        <ele>1466</ele>
        <time>2017-08-23T06:59:54Z</time>
      </trkpt>
      <trkpt lat="44.11489" lon="7.07027">
        <ele>1463</ele>
        <time>2017-08-23T07:01:54Z</time>
      </trkpt>
      <trkpt lat="44.11506" lon="7.06999">
        <ele>1465</ele>
        <time>2017-08-23T07:03:54Z</time>
      </trkpt>
      <trkpt lat="44.11516" lon="7.06974">
        <ele>1465</ele>
        <time>2017-08-23T07:05:54Z</time>
      </trkpt>
      <trkpt lat="44.11524" lon="7.06946">
        <ele>1467</ele>
        <time>2017-08-23T07:07:54Z</time>
      </trkpt>
      <trkpt lat="44.11539" lon="7.06928">
        <ele>1462</ele>
        <time>2017-08-23T07:09:54Z</time>
      </trkpt>
      <trkpt lat="44.11542" lon="7.06896">
        <ele>1462</ele>
        <time>2017-08-23T07:11:54Z</time>
      </trkpt>
      <trkpt lat="44.11538" lon="7.0687">
        <ele>1465</ele>
        <time>2017-08-23T07:13:54Z</time>
      </trkpt>
      <trkpt lat="44.11526" lon="7.06829">
        <ele>1473</ele>
        <time>2017-08-23T07:15:54Z</time>
      </trkpt>
      <trkpt lat="44.11514" lon="7.06803">
        <ele>1483</ele>
        <time>2017-08-23T07:17:54Z</time>
      </trkpt>
      <trkpt lat="44.11519" lon="7.06783">
        <ele>1482</ele>
        <time>2017-08-23T07:19:54Z</time>
      </trkpt>
      <trkpt lat="44.11537" lon="7.06755">
        <ele>1474</ele>
        <time>2017-08-23T07:21:54Z</time>
      </trkpt>
      <trkpt lat="44.1155" lon="7.06734">
        <ele>1469</ele>
        <time>2017-08-23T07:23:54Z</time>
      </trkpt>
      <trkpt lat="44.1156" lon="7.06699">
        <ele>1469</ele>
        <time>2017-08-23T07:25:54Z</time>
      </trkpt>
      <trkpt lat="44.11563" lon="7.06658">
        <ele>1475</ele>
        <time>2017-08-23T07:27:54Z</time>
      </trkpt>
      <trkpt lat="44.1157" lon="7.06619">
        <ele>1479</ele>
        <time>2017-08-23T07:29:54Z</time>
      </trkpt>
      <trkpt lat="44.11581" lon="7.06565">
        <ele>1484</ele>
        <time>2017-08-23T07:31:54Z</time>
      </trkpt>
      <trkpt lat="44.11599" lon="7.06511">
        <ele>1487</ele>
        <time>2017-08-23T07:33:54Z</time>
      </trkpt>
      <trkpt lat="44.11617" lon="7.06482">
        <ele>1484</ele>
        <time>2017-08-23T07:35:54Z</time>
      </trkpt>
      <trkpt lat="44.11647" lon="7.06422">
        <ele>1481</ele>
        <time>2017-08-23T07:37:54Z</time>
      </trkpt>
      <trkpt lat="44.11667" lon="7.06398">
        <ele>1475</ele>
        <time>2017-08-23T07:39:54Z</time>
      </trkpt>
      <trkpt lat="44.11699" lon="7.06324">
        <ele>1481</ele>
        <time>2017-08-23T07:41:54Z</time>
      </trkpt>
      <trkpt lat="44.11706" lon="7.06294">
        <ele>1483</ele>
        <time>2017-08-23T07:43:54Z</time>
      </trkpt>
      <trkpt lat="44.11706" lon="7.0627">
        <ele>1486</ele>
        <time>2017-08-23T07:45:54Z</time>
      </trkpt>
      <trkpt lat="44.11725" lon="7.06287">
        <ele>1477</ele>
        <time>2017-08-23T07:47:54Z</time>
      </trkpt>
      <trkpt lat="44.11738" lon="7.06332">
        <ele>1467</ele>
        <time>2017-08-23T07:49:54Z</time>
      </trkpt>
      <trkpt lat="44.11737" lon="7.06382">
        <ele>1459</ele>
        <time>2017-08-23T07:51:54Z</time>
      </trkpt>
      <trkpt lat="44.11746" lon="7.06388">
        <ele>1455</ele>
        <time>2017-08-23T07:53:54Z</time>
      </trkpt>
      <trkpt lat="44.11763" lon="7.06365">
        <ele>1457</ele>
        <time>2017-08-23T07:55:54Z</time>
      </trkpt>
      <trkpt lat="44.11772" lon="7.0637">
        <ele>1455</ele>
        <time>2017-08-23T07:57:54Z</time>
      </trkpt>
      <trkpt lat="44.11782" lon="7.06366">
        <ele>1455</ele>
        <time>2017-08-23T07:59:54Z</time>
      </trkpt>
      <trkpt lat="44.11791" lon="7.06356">
        <ele>1456</ele>
        <time>2017-08-23T08:01:54Z</time>
      </trkpt>
      <trkpt lat="44.11806" lon="7.06333">
        <ele>1458</ele>
        <time>2017-08-23T08:03:54Z</time>
      </trkpt>
      <trkpt lat="44.11824" lon="7.06319">
        <ele>1459</ele>
        <time>2017-08-23T08:05:54Z</time>
      </trkpt>
      <trkpt lat="44.11843" lon="7.06323">
        <ele>1457</ele>
        <time>2017-08-23T08:07:54Z</time>
      </trkpt>
      <trkpt lat="44.11862" lon="7.0632">
        <ele>1456</ele>
        <time>2017-08-23T08:09:54Z</time>
      </trkpt>
      <trkpt lat="44.1188" lon="7.06304">
        <ele>1458</ele>
        <time>2017-08-23T08:11:54Z</time>
      </trkpt>
      <trkpt lat="44.11895" lon="7.06283">
        <ele>1461</ele>
        <time>2017-08-23T08:13:54Z</time>
      </trkpt>
      <trkpt lat="44.1191" lon="7.06279">
        <ele>1460</ele>
        <time>2017-08-23T08:15:54Z</time>
      </trkpt>
      <trkpt lat="44.11944" lon="7.06272">
        <ele>1463</ele>
        <time>2017-08-23T08:17:54Z</time>
      </trkpt>
      <trkpt lat="44.11979" lon="7.06273">
        <ele>1465</ele>
        <time>2017-08-23T08:19:54Z</time>
      </trkpt>
      <trkpt lat="44.12005" lon="7.0628">
        <ele>1465</ele>
        <time>2017-08-23T08:21:54Z</time>
      </trkpt>
      <trkpt lat="44.12058" lon="7.0628">
        <ele>1465</ele>
        <time>2017-08-23T08:23:54Z</time>
      </trkpt>
      <trkpt lat="44.12078" lon="7.06288">
        <ele>1464</ele>
        <time>2017-08-23T08:25:54Z</time>
      </trkpt>
      <trkpt lat="44.12095" lon="7.06282">
        <ele>1465</ele>
        <time>2017-08-23T08:27:54Z</time>
      </trkpt>
      <trkpt lat="44.12118" lon="7.06267">
        <ele>1466</ele>
        <time>2017-08-23T08:29:54Z</time>
      </trkpt>
      <trkpt lat="44.12162" lon="7.06251">
        <ele>1466</ele>
        <time>2017-08-23T08:31:54Z</time>
      </trkpt>
      <trkpt lat="44.12204" lon="7.06221">
        <ele>1467</ele>
        <time>2017-08-23T08:33:54Z</time>
      </trkpt>
      <trkpt lat="44.12237" lon="7.06189">
        <ele>1468</ele>
        <time>2017-08-23T08:35:54Z</time>
      </trkpt>
      <trkpt lat="44.12245" lon="7.0618">
        <ele>1468</ele>
        <time>2017-08-23T08:37:54Z</time>
      </trkpt>
      <trkpt lat="44.12271" lon="7.06187">
        <ele>1465</ele>
        <time>2017-08-23T08:39:54Z</time>
      </trkpt>
      <trkpt lat="44.12294" lon="7.06189">
        <ele>1462</ele>
        <time>2017-08-23T08:41:54Z</time>
      </trkpt>
      <trkpt lat="44.12314" lon="7.0618">
        <ele>1460</ele>
        <time>2017-08-23T08:43:54Z</time>
      </trkpt>
      <trkpt lat="44.12344" lon="7.06166">
        <ele>1457</ele>
        <time>2017-08-23T08:45:54Z</time>
      </trkpt>
      <trkpt lat="44.12378" lon="7.06148">
        <ele>1454</ele>
        <time>2017-08-23T08:47:54Z</time>
      </trkpt>
      <trkpt lat="44.12397" lon="7.06133">
        <ele>1455</ele>
        <time>2017-08-23T08:49:54Z</time>
      </trkpt>
      <trkpt lat="44.12415" lon="7.06093">
        <ele>1468</ele>
        <time>2017-08-23T08:51:54Z</time>
      </trkpt>
      <trkpt lat="44.1243" lon="7.06073">
        <ele>1471</ele>
        <time>2017-08-23T08:53:54Z</time>
      </trkpt>
      <trkpt lat="44.12451" lon="7.06041">
        <ele>1477</ele>
        <time>2017-08-23T08:55:54Z</time>
      </trkpt>
      <trkpt lat="44.12464" lon="7.06036">
        <ele>1475</ele>
        <time>2017-08-23T08:57:54Z</time>
      </trkpt>
      <trkpt lat="44.12467" lon="7.06055">
        <ele>1465</ele>
        <time>2017-08-23T08:59:54Z</time>
      </trkpt>
      <trkpt lat="44.12478" lon="7.06062">
        <ele>1457</ele>
        <time>2017-08-23T09:01:54Z</time>
      </trkpt>
      <trkpt lat="44.12497" lon="7.06067">
        <ele>1447</ele>
        <time>2017-08-23T09:03:54Z</time>
      </trkpt>
      <trkpt lat="44.12509" lon="7.06063">
        <ele>1446</ele>
        <time>2017-08-23T09:05:54Z</time>
      </trkpt>
      <trkpt lat="44.12516" lon="7.06045">
        <ele>1454</ele>
        <time>2017-08-23T09:07:54Z</time>
      </trkpt>
      <trkpt lat="44.12525" lon="7.06027">
        <ele>1461</ele>
        <time>2017-08-23T09:09:54Z</time>
      </trkpt>
      <trkpt lat="44.12547" lon="7.06023">
        <ele>1457</ele>
        <time>2017-08-23T09:11:54Z</time>
      </trkpt>
      <trkpt lat="44.12567" lon="7.06009">
        <ele>1457</ele>
        <time>2017-08-23T09:13:54Z</time>
      </trkpt>
      <trkpt lat="44.12585" lon="7.05971">
        <ele>1475</ele>
        <time>2017-08-23T09:15:54Z</time>
      </trkpt>
      <trkpt lat="44.12603" lon="7.05948">
        <ele>1491</ele>
        <time>2017-08-23T09:17:54Z</time>
      </trkpt>
      <trkpt lat="44.12616" lon="7.05949">
        <ele>1491</ele>
        <time>2017-08-23T09:19:54Z</time>
      </trkpt>
      <trkpt lat="44.12632" lon="7.05942">
        <ele>1494</ele>
        <time>2017-08-23T09:21:54Z</time>
      </trkpt>
      <trkpt lat="44.12659" lon="7.05926">
        <ele>1494</ele>
        <time>2017-08-23T09:23:54Z</time>
      </trkpt>
      <trkpt lat="44.12678" lon="7.05949">
        <ele>1501</ele>
        <time>2017-08-23T09:25:54Z</time>
      </trkpt>
      <trkpt lat="44.12676" lon="7.0596">
        <ele>1500</ele>
        <time>2017-08-23T09:27:54Z</time>
      </trkpt>
      <trkpt lat="44.12661" lon="7.05968">
        <ele>1492</ele>
        <time>2017-08-23T09:29:54Z</time>
      </trkpt>
      <trkpt lat="44.12653" lon="7.05986">
        <ele>1489</ele>
        <time>2017-08-23T09:31:54Z</time>
      </trkpt>
      <trkpt lat="44.12653" lon="7.06002">
        <ele>1488</ele>
        <time>2017-08-23T09:33:54Z</time>
      </trkpt>
      <trkpt lat="44.12646" lon="7.06024">
        <ele>1484</ele>
        <time>2017-08-23T09:35:54Z</time>
      </trkpt>
      <trkpt lat="44.12655" lon="7.06047">
        <ele>1490</ele>
        <time>2017-08-23T09:37:54Z</time>
      </trkpt>
      <trkpt lat="44.12651" lon="7.06078">
        <ele>1488</ele>
        <time>2017-08-23T09:39:54Z</time>
      </trkpt>
      <trkpt lat="44.12646" lon="7.06133">
        <ele>1487</ele>
        <time>2017-08-23T09:41:54Z</time>
      </trkpt>
      <trkpt lat="44.12635" lon="7.06166">
        <ele>1479</ele>
        <time>2017-08-23T09:43:54Z</time>
      </trkpt>
      <trkpt lat="44.12635" lon="7.06184">
        <ele>1479</ele>
        <time>2017-08-23T09:45:54Z</time>
      </trkpt>
      <trkpt lat="44.12626" lon="7.06207">
        <ele>1472</ele>
        <time>2017-08-23T09:47:54Z</time>
      </trkpt>
      <trkpt lat="44.12634" lon="7.06236">
        <ele>1479</ele>
        <time>2017-08-23T09:49:54Z</time>
      </trkpt>
      <trkpt lat="44.12636" lon="7.06261">
        <ele>1478</ele>
        <time>2017-08-23T09:51:54Z</time>
      </trkpt>
      <trkpt lat="44.12644" lon="7.06267">
        <ele>1481</ele>
        <time>2017-08-23T09:53:54Z</time>
      </trkpt>
      <trkpt lat="44.12659" lon="7.06261">
        <ele>1491</ele>
        <time>2017-08-23T09:55:54Z</time>
      </trkpt>
      <trkpt lat="44.12692" lon="7.06232">
        <ele>1499</ele>
        <time>2017-08-23T09:57:54Z</time>
      </trkpt>
      <trkpt lat="44.12736" lon="7.06195">
        <ele>1513</ele>
        <time>2017-08-23T09:59:54Z</time>
      </trkpt>
      <trkpt lat="44.12774" lon="7.06171">
        <ele>1527</ele>
        <time>2017-08-23T10:01:54Z</time>
      </trkpt>
      <trkpt lat="44.12793" lon="7.06158">
        <ele>1532</ele>
        <time>2017-08-23T10:03:54Z</time>
      </trkpt>
      <trkpt lat="44.12813" lon="7.0615">
        <ele>1536</ele>
        <time>2017-08-23T10:05:54Z</time>
      </trkpt>
      <trkpt lat="44.12843" lon="7.06136">
        <ele>1543</ele>
        <time>2017-08-23T10:07:54Z</time>
      </trkpt>
      <trkpt lat="44.12884" lon="7.06108">
        <ele>1555</ele>
        <time>2017-08-23T10:09:54Z</time>
      </trkpt>
      <trkpt lat="44.12904" lon="7.06098">
        <ele>1558</ele>
        <time>2017-08-23T10:11:54Z</time>
      </trkpt>
      <trkpt lat="44.12935" lon="7.06091">
        <ele>1559</ele>
        <time>2017-08-23T10:13:54Z</time>
      </trkpt>
      <trkpt lat="44.12955" lon="7.0609">
        <ele>1558</ele>
        <time>2017-08-23T10:15:54Z</time>
      </trkpt>
      <trkpt lat="44.12972" lon="7.0608">
        <ele>1561</ele>
        <time>2017-08-23T10:17:54Z</time>
      </trkpt>
      <trkpt lat="44.12996" lon="7.06051">
        <ele>1574</ele>
        <time>2017-08-23T10:19:54Z</time>
      </trkpt>
      <trkpt lat="44.13016" lon="7.06031">
        <ele>1583</ele>
        <time>2017-08-23T10:21:54Z</time>
      </trkpt>
      <trkpt lat="44.13034" lon="7.06017">
        <ele>1588</ele>
        <time>2017-08-23T10:23:54Z</time>
      </trkpt>
      <trkpt lat="44.13068" lon="7.05994">
        <ele>1595</ele>
        <time>2017-08-23T10:25:54Z</time>
      </trkpt>
      <trkpt lat="44.13106" lon="7.05966">
        <ele>1605</ele>
        <time>2017-08-23T10:27:54Z</time>
      </trkpt>
      <trkpt lat="44.13129" lon="7.0595">
        <ele>1610</ele>
        <time>2017-08-23T10:29:54Z</time>
      </trkpt>
      <trkpt lat="44.13162" lon="7.05947">
        <ele>1608</ele>
        <time>2017-08-23T10:31:54Z</time>
      </trkpt>
      <trkpt lat="44.13187" lon="7.05934">
        <ele>1609</ele>
        <time>2017-08-23T10:33:54Z</time>
      </trkpt>
      <trkpt lat="44.13196" lon="7.05918">
        <ele>1613</ele>
        <time>2017-08-23T10:35:54Z</time>
      </trkpt>
      <trkpt lat="44.13206" lon="7.05893">
        <ele>1621</ele>
        <time>2017-08-23T10:37:54Z</time>
      </trkpt>
      <trkpt lat="44.13212" lon="7.05858">
        <ele>1632</ele>
        <time>2017-08-23T10:39:54Z</time>
      </trkpt>
      <trkpt lat="44.13237" lon="7.05833">
        <ele>1637</ele>
        <time>2017-08-23T10:41:54Z</time>
      </trkpt>
      <trkpt lat="44.13269" lon="7.05797">
        <ele>1644</ele>
        <time>2017-08-23T10:43:54Z</time>
      </trkpt>
      <trkpt lat="44.13307" lon="7.0575">
        <ele>1655</ele>
        <time>2017-08-23T10:45:54Z</time>
      </trkpt>
      <trkpt lat="44.13349" lon="7.05696">
        <ele>1667</ele>
        <time>2017-08-23T10:47:54Z</time>
      </trkpt>
      <trkpt lat="44.13375" lon="7.05676">
        <ele>1669</ele>
        <time>2017-08-23T10:49:54Z</time>
      </trkpt>
      <trkpt lat="44.13406" lon="7.05632">
        <ele>1683</ele>
        <time>2017-08-23T10:51:54Z</time>
      </trkpt>
      <trkpt lat="44.13415" lon="7.05604">
        <ele>1695</ele>
        <time>2017-08-23T10:53:54Z</time>
      </trkpt>
      <trkpt lat="44.13433" lon="7.05591">
        <ele>1700</ele>
        <time>2017-08-23T10:55:54Z</time>
      </trkpt>
      <trkpt lat="44.13493" lon="7.05575">
        <ele>1708</ele>
        <time>2017-08-23T10:57:54Z</time>
      </trkpt>
      <trkpt lat="44.13518" lon="7.05567">
        <ele>1715</ele>
        <time>2017-08-23T10:59:54Z</time>
      </trkpt>
      <trkpt lat="44.13542" lon="7.05544">
        <ele>1731</ele>
        <time>2017-08-23T11:01:54Z</time>
      </trkpt>
      <trkpt lat="44.13572" lon="7.0555">
        <ele>1729</ele>
        <time>2017-08-23T11:03:54Z</time>
      </trkpt>
      <trkpt lat="44.13601" lon="7.05543">
        <ele>1733</ele>
        <time>2017-08-23T11:05:54Z</time>
      </trkpt>
      <trkpt lat="44.1362" lon="7.05537">
        <ele>1736</ele>
        <time>2017-08-23T11:07:54Z</time>
      </trkpt>
      <trkpt lat="44.13635" lon="7.05531">
        <ele>1738</ele>
        <time>2017-08-23T11:09:54Z</time>
      </trkpt>
      <trkpt lat="44.13651" lon="7.05514">
        <ele>1743</ele>
        <time>2017-08-23T11:11:54Z</time>
      </trkpt>
      <trkpt lat="44.13667" lon="7.05494">
        <ele>1749</ele>
        <time>2017-08-23T11:13:54Z</time>
      </trkpt>
      <trkpt lat="44.1367" lon="7.05478">
        <ele>1758</ele>
        <time>2017-08-23T11:15:54Z</time>
      </trkpt>
      <trkpt lat="44.1371" lon="7.05431">
        <ele>1786</ele>
        <time>2017-08-23T11:17:54Z</time>
      </trkpt>
      <trkpt lat="44.13723" lon="7.05429">
        <ele>1788</ele>
        <time>2017-08-23T11:19:54Z</time>
      </trkpt>
      <trkpt lat="44.13747" lon="7.05403">
        <ele>1801</ele>
        <time>2017-08-23T11:21:54Z</time>
      </trkpt>
      <trkpt lat="44.13767" lon="7.05434">
        <ele>1802</ele>
        <time>2017-08-23T11:23:54Z</time>
      </trkpt>
      <trkpt lat="44.13777" lon="7.05446">
        <ele>1806</ele>
        <time>2017-08-23T11:25:54Z</time>
      </trkpt>
      <trkpt lat="44.13779" lon="7.05433">
        <ele>1811</ele>
        <time>2017-08-23T11:27:54Z</time>
      </trkpt>
      <trkpt lat="44.13781" lon="7.05378">
        <ele>1831</ele>
        <time>2017-08-23T11:29:54Z</time>
      </trkpt>
      <trkpt lat="44.13796" lon="7.05338">
        <ele>1852</ele>
        <time>2017-08-23T11:31:54Z</time>
      </trkpt>
      <trkpt lat="44.13807" lon="7.05306">
        <ele>1865</ele>
        <time>2017-08-23T11:33:54Z</time>
      </trkpt>
      <trkpt lat="44.13809" lon="7.05289">
        <ele>1869</ele>
        <time>2017-08-23T11:35:54Z</time>
      </trkpt>
      <trkpt lat="44.13819" lon="7.05273">
        <ele>1874</ele>
        <time>2017-08-23T11:37:54Z</time>
      </trkpt>
      <trkpt lat="44.13827" lon="7.05252">
        <ele>1878</ele>
        <time>2017-08-23T11:39:54Z</time>
      </trkpt>
      <trkpt lat="44.13831" lon="7.05227">
        <ele>1880</ele>
        <time>2017-08-23T11:41:54Z</time>
      </trkpt>
      <trkpt lat="44.13838" lon="7.05202">
        <ele>1883</ele>
        <time>2017-08-23T11:43:54Z</time>
      </trkpt>
      <trkpt lat="44.13835" lon="7.05179">
        <ele>1884</ele>
        <time>2017-08-23T11:45:54Z</time>
      </trkpt>
      <trkpt lat="44.13838" lon="7.05142">
        <ele>1886</ele>
        <time>2017-08-23T11:47:54Z</time>
      </trkpt>
      <trkpt lat="44.13839" lon="7.05114">
        <ele>1887</ele>
        <time>2017-08-23T11:49:54Z</time>
      </trkpt>
      <trkpt lat="44.1384" lon="7.05095">
        <ele>1888</ele>
        <time>2017-08-23T11:51:54Z</time>
      </trkpt>
      <trkpt lat="44.13854" lon="7.05078">
        <ele>1890</ele>
        <time>2017-08-23T11:53:54Z</time>
      </trkpt>
      <trkpt lat="44.13867" lon="7.05058">
        <ele>1892</ele>
        <time>2017-08-23T11:55:54Z</time>
      </trkpt>
      <trkpt lat="44.13867" lon="7.05029">
        <ele>1894</ele>
        <time>2017-08-23T11:57:54Z</time>
      </trkpt>
      <trkpt lat="44.13885" lon="7.04959">
        <ele>1896</ele>
        <time>2017-08-23T11:59:54Z</time>
      </trkpt>
      <trkpt lat="44.13892" lon="7.04898">
        <ele>1896</ele>
        <time>2017-08-23T12:01:54Z</time>
      </trkpt>
      <trkpt lat="44.13902" lon="7.04859">
        <ele>1895</ele>
        <time>2017-08-23T12:03:54Z</time>
      </trkpt>
      <trkpt lat="44.13902" lon="7.04824">
        <ele>1894</ele>
        <time>2017-08-23T12:05:54Z</time>
      </trkpt>
      <trkpt lat="44.13902" lon="7.04778">
        <ele>1894</ele>
        <time>2017-08-23T12:07:54Z</time>
      </trkpt>
      <trkpt lat="44.13912" lon="7.04731">
        <ele>1892</ele>
        <time>2017-08-23T12:09:54Z</time>
      </trkpt>
      <trkpt lat="44.13913" lon="7.04716">
        <ele>1893</ele>
        <time>2017-08-23T12:11:54Z</time>
      </trkpt>
      <trkpt lat="44.13922" lon="7.04672">
        <ele>1895</ele>
        <time>2017-08-23T12:13:54Z</time>
      </trkpt>
      <trkpt lat="44.13924" lon="7.04649">
        <ele>1896</ele>
        <time>2017-08-23T12:15:54Z</time>
      </trkpt>
      <trkpt lat="44.13933" lon="7.04638">
        <ele>1898</ele>
        <time>2017-08-23T12:17:54Z</time>
      </trkpt>
      <trkpt lat="44.13945" lon="7.04621">
        <ele>1900</ele>
        <time>2017-08-23T12:19:54Z</time>
      </trkpt>
      <trkpt lat="44.13965" lon="7.04599">
        <ele>1902</ele>
        <time>2017-08-23T12:21:54Z</time>
      </trkpt>
      <trkpt lat="44.1398" lon="7.0458">
        <ele>1902</ele>
        <time>2017-08-23T12:23:54Z</time>
      </trkpt>
      <trkpt lat="44.13998" lon="7.04569">
        <ele>1903</ele>
        <time>2017-08-23T12:25:54Z</time>
      </trkpt>
      <trkpt lat="44.14007" lon="7.04543">
        <ele>1906</ele>
        <time>2017-08-23T12:27:54Z</time>
      </trkpt>
      <trkpt lat="44.14011" lon="7.04515">
        <ele>1908</ele>
        <time>2017-08-23T12:29:54Z</time>
      </trkpt>
      <trkpt lat="44.14013" lon="7.04484">
        <ele>1910</ele>
        <time>2017-08-23T12:31:54Z</time>
      </trkpt>
      <trkpt lat="44.14005" lon="7.04444">
        <ele>1909</ele>
        <time>2017-08-23T12:33:54Z</time>
      </trkpt>
      <trkpt lat="44.14003" lon="7.04416">
        <ele>1910</ele>
        <time>2017-08-23T12:35:54Z</time>
      </trkpt>
      <trkpt lat="44.14015" lon="7.044">
        <ele>1913</ele>
        <time>2017-08-23T12:37:54Z</time>
      </trkpt>
      <trkpt lat="44.14017" lon="7.04385">
        <ele>1913</ele>
        <time>2017-08-23T12:39:54Z</time>
      </trkpt>
      <trkpt lat="44.14018" lon="7.04356">
        <ele>1914</ele>
        <time>2017-08-23T12:41:54Z</time>
      </trkpt>
      <trkpt lat="44.14021" lon="7.04333">
        <ele>1915</ele>
        <time>2017-08-23T12:43:54Z</time>
      </trkpt>
      <trkpt lat="44.14028" lon="7.04308">
        <ele>1917</ele>
        <time>2017-08-23T12:45:54Z</time>
      </trkpt>
      <trkpt lat="44.1404" lon="7.04286">
        <ele>1918</ele>
        <time>2017-08-23T12:47:54Z</time>
      </trkpt>
      <trkpt lat="44.1405" lon="7.04275">
        <ele>1919</ele>
        <time>2017-08-23T12:49:54Z</time>
      </trkpt>
      <trkpt lat="44.14061" lon="7.04243">
        <ele>1919</ele>
        <time>2017-08-23T12:51:54Z</time>
      </trkpt>
      <trkpt lat="44.14073" lon="7.04225">
        <ele>1918</ele>
        <time>2017-08-23T12:53:54Z</time>
      </trkpt>
      <trkpt lat="44.14092" lon="7.04165">
        <ele>1914</ele>
        <time>2017-08-23T12:55:54Z</time>
      </trkpt>
      <trkpt lat="44.14098" lon="7.04138">
        <ele>1915</ele>
        <time>2017-08-23T12:57:54Z</time>
      </trkpt>
      <trkpt lat="44.14105" lon="7.04113">
        <ele>1916</ele>
        <time>2017-08-23T12:59:54Z</time>
      </trkpt>
      <trkpt lat="44.14119" lon="7.04091">
        <ele>1916</ele>
        <time>2017-08-23T13:01:54Z</time>
      </trkpt>
      <trkpt lat="44.14127" lon="7.04066">
        <ele>1915</ele>
        <time>2017-08-23T13:03:54Z</time>
      </trkpt>
      <trkpt lat="44.14132" lon="7.04027">
        <ele>1914</ele>
        <time>2017-08-23T13:05:54Z</time>
      </trkpt>
      <trkpt lat="44.14139" lon="7.04006">
        <ele>1914</ele>
        <time>2017-08-23T13:07:54Z</time>
      </trkpt>
      <trkpt lat="44.14138" lon="7.03989">
        <ele>1914</ele>
        <time>2017-08-23T13:09:54Z</time>
      </trkpt>
      <trkpt lat="44.14141" lon="7.03966">
        <ele>1916</ele>
        <time>2017-08-23T13:11:54Z</time>
      </trkpt>
      <trkpt lat="44.14145" lon="7.03943">
        <ele>1916</ele>
        <time>2017-08-23T13:13:54Z</time>
      </trkpt>
      <trkpt lat="44.14149" lon="7.03914">
        <ele>1917</ele>
        <time>2017-08-23T13:15:54Z</time>
      </trkpt>
      <trkpt lat="44.1415" lon="7.0388">
        <ele>1917</ele>
        <time>2017-08-23T13:17:54Z</time>
      </trkpt>
      <trkpt lat="44.14148" lon="7.0384">
        <ele>1917</ele>
        <time>2017-08-23T13:19:54Z</time>
      </trkpt>
      <trkpt lat="44.14147" lon="7.03802">
        <ele>1918</ele>
        <time>2017-08-23T13:21:54Z</time>
      </trkpt>
      <trkpt lat="44.14139" lon="7.0377">
        <ele>1919</ele>
        <time>2017-08-23T13:23:54Z</time>
      </trkpt>
      <trkpt lat="44.14138" lon="7.03739">
        <ele>1921</ele>
        <time>2017-08-23T13:25:54Z</time>
      </trkpt>
      <trkpt lat="44.14144" lon="7.03712">
        <ele>1922</ele>
        <time>2017-08-23T13:27:54Z</time>
      </trkpt>
      <trkpt lat="44.14156" lon="7.03676">
        <ele>1922</ele>
        <time>2017-08-23T13:29:54Z</time>
      </trkpt>
      <trkpt lat="44.14173" lon="7.03655">
        <ele>1922</ele>
        <time>2017-08-23T13:31:54Z</time>
      </trkpt>
      <trkpt lat="44.14185" lon="7.03621">
        <ele>1925</ele>
        <time>2017-08-23T13:33:54Z</time>
      </trkpt>
      <trkpt lat="44.14206" lon="7.03575">
        <ele>1927</ele>
        <time>2017-08-23T13:35:54Z</time>
      </trkpt>
      <trkpt lat="44.14228" lon="7.0353">
        <ele>1927</ele>
        <time>2017-08-23T13:37:54Z</time>
      </trkpt>
      <trkpt lat="44.14238" lon="7.0349">
        <ele>1928</ele>
        <time>2017-08-23T13:39:54Z</time>
      </trkpt>
      <trkpt lat="44.14249" lon="7.03444">
        <ele>1928</ele>
        <time>2017-08-23T13:41:54Z</time>
      </trkpt>
      <trkpt lat="44.1427" lon="7.03377">
        <ele>1932</ele>
        <time>2017-08-23T13:43:54Z</time>
      </trkpt>
      <trkpt lat="44.14279" lon="7.0334">
        <ele>1934</ele>
        <time>2017-08-23T13:45:54Z</time>
      </trkpt>
      <trkpt lat="44.1429" lon="7.03281">
        <ele>1937</ele>
        <time>2017-08-23T13:47:54Z</time>
      </trkpt>
      <trkpt lat="44.14306" lon="7.03224">
        <ele>1938</ele>
        <time>2017-08-23T13:49:54Z</time>
      </trkpt>
      <trkpt lat="44.14319" lon="7.03167">
        <ele>1939</ele>
        <time>2017-08-23T13:51:54Z</time>
      </trkpt>
      <trkpt lat="44.14328" lon="7.03091">
        <ele>1941</ele>
        <time>2017-08-23T13:53:54Z</time>
      </trkpt>
      <trkpt lat="44.14338" lon="7.0303">
        <ele>1940</ele>
        <time>2017-08-23T13:55:54Z</time>
      </trkpt>
      <trkpt lat="44.1435" lon="7.02986">
        <ele>1943</ele>
        <time>2017-08-23T13:57:54Z</time>
      </trkpt>
      <trkpt lat="44.14353" lon="7.02935">
        <ele>1950</ele>
        <time>2017-08-23T13:59:54Z</time>
      </trkpt>
      <trkpt lat="44.14358" lon="7.02897">
        <ele>1953</ele>
        <time>2017-08-23T14:01:54Z</time>
      </trkpt>
      <trkpt lat="44.14361" lon="7.02862">
        <ele>1954</ele>
        <time>2017-08-23T14:03:54Z</time>
      </trkpt>
      <trkpt lat="44.14367" lon="7.02828">
        <ele>1954</ele>
        <time>2017-08-23T14:05:54Z</time>
      </trkpt>
      <trkpt lat="44.14364" lon="7.02762">
        <ele>1954</ele>
        <time>2017-08-23T14:07:54Z</time>
      </trkpt>
      <trkpt lat="44.14362" lon="7.02715">
        <ele>1954</ele>
        <time>2017-08-23T14:09:54Z</time>
      </trkpt>
      <trkpt lat="44.14358" lon="7.0268">
        <ele>1955</ele>
        <time>2017-08-23T14:11:54Z</time>
      </trkpt>
      <trkpt lat="44.14362" lon="7.02632">
        <ele>1955</ele>
        <time>2017-08-23T14:13:54Z</time>
      </trkpt>
      <trkpt lat="44.14367" lon="7.02577">
        <ele>1955</ele>
        <time>2017-08-23T14:15:54Z</time>
      </trkpt>
      <trkpt lat="44.14372" lon="7.02512">
        <ele>1955</ele>
        <time>2017-08-23T14:17:54Z</time>
      </trkpt>
      <trkpt lat="44.14373" lon="7.02421">
        <ele>1957</ele>
        <time>2017-08-23T14:19:54Z</time>
      </trkpt>
      <trkpt lat="44.14365" lon="7.02346">
        <ele>1960</ele>
        <time>2017-08-23T14:21:54Z</time>
      </trkpt>
      <trkpt lat="44.1436" lon="7.02296">
        <ele>1959</ele>
        <time>2017-08-23T14:23:54Z</time>
      </trkpt>
      <trkpt lat="44.1435" lon="7.02233">
        <ele>1956</ele>
        <time>2017-08-23T14:25:54Z</time>
      </trkpt>
      <trkpt lat="44.14341" lon="7.02194">
        <ele>1952</ele>
        <time>2017-08-23T14:27:54Z</time>
      </trkpt>
      <trkpt lat="44.14327" lon="7.02156">
        <ele>1951</ele>
        <time>2017-08-23T14:29:54Z</time>
      </trkpt>
      <trkpt lat="44.14317" lon="7.02146">
        <ele>1954</ele>
        <time>2017-08-23T14:31:54Z</time>
      </trkpt>
      <trkpt lat="44.14309" lon="7.02101">
        <ele>1954</ele>
        <time>2017-08-23T14:33:54Z</time>
      </trkpt>
      <trkpt lat="44.14306" lon="7.02055">
        <ele>1952</ele>
        <time>2017-08-23T14:35:54Z</time>
      </trkpt>
      <trkpt lat="44.14304" lon="7.02027">
        <ele>1950</ele>
        <time>2017-08-23T14:37:54Z</time>
      </trkpt>
      <trkpt lat="44.14293" lon="7.01984">
        <ele>1948</ele>
        <time>2017-08-23T14:39:54Z</time>
      </trkpt>
      <trkpt lat="44.14283" lon="7.01963">
        <ele>1946</ele>
        <time>2017-08-23T14:41:54Z</time>
      </trkpt>
      <trkpt lat="44.14281" lon="7.01945">
        <ele>1943</ele>
        <time>2017-08-23T14:43:54Z</time>
      </trkpt>
      <trkpt lat="44.1427" lon="7.01913">
        <ele>1937</ele>
        <time>2017-08-23T14:45:54Z</time>
      </trkpt>
      <trkpt lat="44.14253" lon="7.01893">
        <ele>1932</ele>
        <time>2017-08-23T14:47:54Z</time>
      </trkpt>
      <trkpt lat="44.14243" lon="7.01875">
        <ele>1931</ele>
        <time>2017-08-23T14:49:54Z</time>
      </trkpt>
      <trkpt lat="44.14238" lon="7.01845">
        <ele>1927</ele>
        <time>2017-08-23T14:51:54Z</time>
      </trkpt>
      <trkpt lat="44.14198" lon="7.01816">
        <ele>1926</ele>
        <time>2017-08-23T14:53:54Z</time>
      </trkpt>
      <trkpt lat="44.14225" lon="7.01791">
        <ele>1926</ele>
        <time>2017-08-23T14:55:54Z</time>
      </trkpt>
      <trkpt lat="44.14236" lon="7.0179">
        <ele>1926</ele>
        <time>2017-08-23T14:57:54Z</time>
      </trkpt>
      <trkpt lat="44.14246" lon="7.01786">
        <ele>1926</ele>
        <time>2017-08-23T14:59:54Z</time>
      </trkpt>
      <trkpt lat="44.14257" lon="7.01782">
        <ele>1927</ele>
        <time>2017-08-23T15:01:54Z</time>
      </trkpt>
      <trkpt lat="44.14256" lon="7.01772">
        <ele>1926</ele>
        <time>2017-08-23T15:03:54Z</time>
      </trkpt>
      <trkpt lat="44.14244" lon="7.01762">
        <ele>1926</ele>
        <time>2017-08-23T15:05:54Z</time>
      </trkpt>
      <trkpt lat="44.14238" lon="7.01746">
        <ele>1918</ele>
        <time>2017-08-23T15:07:54Z</time>
      </trkpt>
      <trkpt lat="44.14226" lon="7.01735">
        <ele>1918</ele>
        <time>2017-08-23T15:09:54Z</time>
      </trkpt>
      <trkpt lat="44.14216" lon="7.01699">
        <ele>1918</ele>
        <time>2017-08-23T15:11:54Z</time>
      </trkpt>
      <trkpt lat="44.14191" lon="7.01668">
        <ele>1918</ele>
        <time>2017-08-23T15:13:54Z</time>
      </trkpt>
      <trkpt lat="44.14167" lon="7.01647">
        <ele>1887</ele>
        <time>2017-08-23T15:15:54Z</time>
      </trkpt>
      <trkpt lat="44.14159" lon="7.01623">
        <ele>1878</ele>
        <time>2017-08-23T15:17:54Z</time>
      </trkpt>
      <trkpt lat="44.14163" lon="7.01592">
        <ele>1877</ele>
        <time>2017-08-23T15:19:54Z</time>
      </trkpt>
      <trkpt lat="44.14165" lon="7.01572">
        <ele>1877</ele>
        <time>2017-08-23T15:21:54Z</time>
      </trkpt>
      <trkpt lat="44.14159" lon="7.01537">
        <ele>1871</ele>
        <time>2017-08-23T15:23:54Z</time>
      </trkpt>
      <trkpt lat="44.14149" lon="7.01516">
        <ele>1862</ele>
        <time>2017-08-23T15:25:54Z</time>
      </trkpt>
      <trkpt lat="44.14133" lon="7.01496">
        <ele>1849</ele>
        <time>2017-08-23T15:27:54Z</time>
      </trkpt>
      <trkpt lat="44.14126" lon="7.01468">
        <ele>1838</ele>
        <time>2017-08-23T15:29:54Z</time>
      </trkpt>
      <trkpt lat="44.14133" lon="7.01444">
        <ele>1839</ele>
        <time>2017-08-23T15:31:54Z</time>
      </trkpt>
      <trkpt lat="44.14143" lon="7.01429">
        <ele>1842</ele>
        <time>2017-08-23T15:33:54Z</time>
      </trkpt>
      <trkpt lat="44.14143" lon="7.01375">
        <ele>1829</ele>
        <time>2017-08-23T15:35:54Z</time>
      </trkpt>
      <trkpt lat="44.14165" lon="7.01324">
        <ele>1827</ele>
        <time>2017-08-23T15:37:54Z</time>
      </trkpt>
      <trkpt lat="44.14199" lon="7.01275">
        <ele>1827</ele>
        <time>2017-08-23T15:39:54Z</time>
      </trkpt>
      <trkpt lat="44.14219" lon="7.01247">
        <ele>1823</ele>
        <time>2017-08-23T15:41:54Z</time>
      </trkpt>
      <trkpt lat="44.14239" lon="7.01234">
        <ele>1823</ele>
        <time>2017-08-23T15:43:54Z</time>
      </trkpt>
      <trkpt lat="44.14266" lon="7.01224">
        <ele>1826</ele>
        <time>2017-08-23T15:45:54Z</time>
      </trkpt>
      <trkpt lat="44.14285" lon="7.01216">
        <ele>1829</ele>
        <time>2017-08-23T15:47:54Z</time>
      </trkpt>
      <trkpt lat="44.14297" lon="7.01198">
        <ele>1826</ele>
        <time>2017-08-23T15:49:54Z</time>
      </trkpt>
      <trkpt lat="44.14303" lon="7.01181">
        <ele>1822</ele>
        <time>2017-08-23T15:51:54Z</time>
      </trkpt>
      <trkpt lat="44.14306" lon="7.01158">
        <ele>1815</ele>
        <time>2017-08-23T15:53:54Z</time>
      </trkpt>
      <trkpt lat="44.14315" lon="7.01136">
        <ele>1811</ele>
        <time>2017-08-23T15:55:54Z</time>
      </trkpt>
      <trkpt lat="44.14329" lon="7.01118">
        <ele>1811</ele>
        <time>2017-08-23T15:57:54Z</time>
      </trkpt>
      <trkpt lat="44.1434" lon="7.01093">
        <ele>1807</ele>
        <time>2017-08-23T15:59:54Z</time>
      </trkpt>
      <trkpt lat="44.14364" lon="7.01062">
        <ele>1807</ele>
        <time>2017-08-23T16:01:54Z</time>
      </trkpt>
      <trkpt lat="44.14401" lon="7.00983">
        <ele>1800</ele>
        <time>2017-08-23T16:03:54Z</time>
      </trkpt>
      <trkpt lat="44.14405" lon="7.00968">
        <ele>1799</ele>
        <time>2017-08-23T16:05:54Z</time>
      </trkpt>
      <trkpt lat="44.14379" lon="7.00977">
        <ele>1793</ele>
        <time>2017-08-23T16:07:54Z</time>
      </trkpt>
      <trkpt lat="44.14363" lon="7.00991">
        <ele>1789</ele>
        <time>2017-08-23T16:09:54Z</time>
      </trkpt>
      <trkpt lat="44.14319" lon="7.01021">
        <ele>1781</ele>
        <time>2017-08-23T16:11:54Z</time>
      </trkpt>
      <trkpt lat="44.1434" lon="7.00969">
        <ele>1782</ele>
        <time>2017-08-23T16:13:54Z</time>
      </trkpt>
      <trkpt lat="44.14331" lon="7.00969">
        <ele>1780</ele>
        <time>2017-08-23T16:15:54Z</time>
      </trkpt>
      <trkpt lat="44.14312" lon="7.00978">
        <ele>1775</ele>
        <time>2017-08-23T16:17:54Z</time>
      </trkpt>
      <trkpt lat="44.14289" lon="7.0099">
        <ele>1768</ele>
        <time>2017-08-23T16:19:54Z</time>
      </trkpt>
      <trkpt lat="44.14283" lon="7.00984">
        <ele>1766</ele>
        <time>2017-08-23T16:21:54Z</time>
      </trkpt>
      <trkpt lat="44.14283" lon="7.00972">
        <ele>1768</ele>
        <time>2017-08-23T16:23:54Z</time>
      </trkpt>
      <trkpt lat="44.14269" lon="7.00959">
        <ele>1765</ele>
        <time>2017-08-23T16:25:54Z</time>
      </trkpt>
      <trkpt lat="44.1426" lon="7.00954">
        <ele>1764</ele>
        <time>2017-08-23T16:27:54Z</time>
      </trkpt>
      <trkpt lat="44.14246" lon="7.00941">
        <ele>1763</ele>
        <time>2017-08-23T16:29:54Z</time>
      </trkpt>
      <trkpt lat="44.14222" lon="7.00942">
        <ele>1759</ele>
        <time>2017-08-23T16:31:54Z</time>
      </trkpt>
      <trkpt lat="44.1421" lon="7.00931">
        <ele>1759</ele>
        <time>2017-08-23T16:33:54Z</time>
      </trkpt>
      <trkpt lat="44.14193" lon="7.00927">
        <ele>1757</ele>
        <time>2017-08-23T16:35:54Z</time>
      </trkpt>
      <trkpt lat="44.14173" lon="7.00919">
        <ele>1755</ele>
        <time>2017-08-23T16:37:54Z</time>
      </trkpt>
      <trkpt lat="44.1416" lon="7.00912">
        <ele>1755</ele>
        <time>2017-08-23T16:39:54Z</time>
      </trkpt>
      <trkpt lat="44.1415" lon="7.00888">
        <ele>1757</ele>
        <time>2017-08-23T16:41:54Z</time>
      </trkpt>
      <trkpt lat="44.1414" lon="7.00872">
        <ele>1759</ele>
        <time>2017-08-23T16:43:54Z</time>
      </trkpt>
      <trkpt lat="44.14119" lon="7.00868">
        <ele>1756</ele>
        <time>2017-08-23T16:45:54Z</time>
      </trkpt>
      <trkpt lat="44.14094" lon="7.00868">
        <ele>1751</ele>
        <time>2017-08-23T16:47:54Z</time>
      </trkpt>
      <trkpt lat="44.14072" lon="7.00853">
        <ele>1749</ele>
        <time>2017-08-23T16:49:54Z</time>
      </trkpt>
      <trkpt lat="44.14062" lon="7.0084">
        <ele>1748</ele>
        <time>2017-08-23T16:51:54Z</time>
      </trkpt>
      <trkpt lat="44.14059" lon="7.00801">
        <ele>1755</ele>
        <time>2017-08-23T16:53:54Z</time>
      </trkpt>
      <trkpt lat="44.14051" lon="7.00779">
        <ele>1757</ele>
        <time>2017-08-23T16:55:54Z</time>
      </trkpt>
      <trkpt lat="44.14043" lon="7.00733">
        <ele>1764</ele>
        <time>2017-08-23T16:57:54Z</time>
      </trkpt>
      <trkpt lat="44.14046" lon="7.00697">
        <ele>1771</ele>
        <time>2017-08-23T16:59:54Z</time>
      </trkpt>
      <trkpt lat="44.14034" lon="7.0068">
        <ele>1774</ele>
        <time>2017-08-23T17:01:54Z</time>
      </trkpt>
      <trkpt lat="44.14014" lon="7.00679">
        <ele>1773</ele>
        <time>2017-08-23T17:03:54Z</time>
      </trkpt>
      <trkpt lat="44.13993" lon="7.00694">
        <ele>1768</ele>
        <time>2017-08-23T17:05:54Z</time>
      </trkpt>
      <trkpt lat="44.13972" lon="7.00724">
        <ele>1761</ele>
        <time>2017-08-23T17:07:54Z</time>
      </trkpt>
      <trkpt lat="44.13955" lon="7.00727">
        <ele>1762</ele>
        <time>2017-08-23T17:09:54Z</time>
      </trkpt>
      <trkpt lat="44.13938" lon="7.00735">
        <ele>1761</ele>
        <time>2017-08-23T17:11:54Z</time>
      </trkpt>
      <trkpt lat="44.13912" lon="7.00746">
        <ele>1759</ele>
        <time>2017-08-23T17:13:54Z</time>
      </trkpt>
      <trkpt lat="44.13893" lon="7.0074">
        <ele>1755</ele>
        <time>2017-08-23T17:15:54Z</time>
      </trkpt>
      <trkpt lat="44.1388" lon="7.00727">
        <ele>1754</ele>
        <time>2017-08-23T17:17:54Z</time>
      </trkpt>
      <trkpt lat="44.13883" lon="7.00694">
        <ele>1764</ele>
        <time>2017-08-23T17:19:54Z</time>
      </trkpt>
      <trkpt lat="44.13875" lon="7.00672">
        <ele>1766</ele>
        <time>2017-08-23T17:21:54Z</time>
      </trkpt>
      <trkpt lat="44.13861" lon="7.00644">
        <ele>1766</ele>
        <time>2017-08-23T17:23:54Z</time>
      </trkpt>
      <trkpt lat="44.13862" lon="7.00619">
        <ele>1772</ele>
        <time>2017-08-23T17:25:54Z</time>
      </trkpt>
      <trkpt lat="44.13855" lon="7.00607">
        <ele>1771</ele>
        <time>2017-08-23T17:27:54Z</time>
      </trkpt>
      <trkpt lat="44.13848" lon="7.00573">
        <ele>1776</ele>
        <time>2017-08-23T17:29:54Z</time>
      </trkpt>
      <trkpt lat="44.1384" lon="7.00542">
        <ele>1781</ele>
        <time>2017-08-23T17:31:54Z</time>
      </trkpt>
      <trkpt lat="44.13802" lon="7.005">
        <ele>1778</ele>
        <time>2017-08-23T17:33:54Z</time>
      </trkpt>
      <trkpt lat="44.1379" lon="7.00488">
        <ele>1777</ele>
        <time>2017-08-23T17:35:54Z</time>
      </trkpt>
      <trkpt lat="44.13781" lon="7.00463">
        <ele>1780</ele>
        <time>2017-08-23T17:37:54Z</time>
      </trkpt>
      <trkpt lat="44.13765" lon="7.00422">
        <ele>1783</ele>
        <time>2017-08-23T17:39:54Z</time>
      </trkpt>
      <trkpt lat="44.13758" lon="7.0038">
        <ele>1787</ele>
        <time>2017-08-23T17:41:54Z</time>
      </trkpt>
      <trkpt lat="44.13753" lon="7.00334">
        <ele>1791</ele>
        <time>2017-08-23T17:43:54Z</time>
      </trkpt>
      <trkpt lat="44.13749" lon="7.00312">
        <ele>1792</ele>
        <time>2017-08-23T17:45:54Z</time>
      </trkpt>
      <trkpt lat="44.13727" lon="7.00291">
        <ele>1787</ele>
        <time>2017-08-23T17:47:54Z</time>
      </trkpt>
      <trkpt lat="44.13721" lon="7.00273">
        <ele>1787</ele>
        <time>2017-08-23T17:49:54Z</time>
      </trkpt>
      <trkpt lat="44.13726" lon="7.00246">
        <ele>1792</ele>
        <time>2017-08-23T17:51:54Z</time>
      </trkpt>
      <trkpt lat="44.1373" lon="7.00222">
        <ele>1795</ele>
        <time>2017-08-23T17:53:54Z</time>
      </trkpt>
      <trkpt lat="44.1372" lon="7.00177">
        <ele>1795</ele>
        <time>2017-08-23T17:55:54Z</time>
      </trkpt>
      <trkpt lat="44.13698" lon="7.00095">
        <ele>1796</ele>
        <time>2017-08-23T17:57:54Z</time>
      </trkpt>
      <trkpt lat="44.13679" lon="7.00016">
        <ele>1798</ele>
        <time>2017-08-23T17:59:54Z</time>
      </trkpt>
      <trkpt lat="44.13667" lon="6.99987">
        <ele>1797</ele>
        <time>2017-08-23T18:01:54Z</time>
      </trkpt>
      <trkpt lat="44.13662" lon="6.99948">
        <ele>1800</ele>
        <time>2017-08-23T18:03:54Z</time>
      </trkpt>
      <trkpt lat="44.13657" lon="6.99883">
        <ele>1804</ele>
        <time>2017-08-23T18:05:54Z</time>
      </trkpt>
      <trkpt lat="44.13655" lon="6.99838">
        <ele>1808</ele>
        <time>2017-08-23T18:07:54Z</time>
      </trkpt>
      <trkpt lat="44.13648" lon="6.99821">
        <ele>1808</ele>
        <time>2017-08-23T18:09:54Z</time>
      </trkpt>
      <trkpt lat="44.1364" lon="6.99807">
        <ele>1807</ele>
        <time>2017-08-23T18:11:54Z</time>
      </trkpt>
      <trkpt lat="44.1363" lon="6.99782">
        <ele>1805</ele>
        <time>2017-08-23T18:13:54Z</time>
      </trkpt>
      <trkpt lat="44.13634" lon="6.99747">
        <ele>1807</ele>
        <time>2017-08-23T18:15:54Z</time>
      </trkpt>
      <trkpt lat="44.13647" lon="6.99714">
        <ele>1808</ele>
        <time>2017-08-23T18:17:54Z</time>
      </trkpt>
      <trkpt lat="44.13653" lon="6.99672">
        <ele>1808</ele>
        <time>2017-08-23T18:19:54Z</time>
      </trkpt>
      <trkpt lat="44.13657" lon="6.99617">
        <ele>1806</ele>
        <time>2017-08-23T18:21:54Z</time>
      </trkpt>
      <trkpt lat="44.13655" lon="6.99568">
        <ele>1803</ele>
        <time>2017-08-23T18:23:54Z</time>
      </trkpt>
      <trkpt lat="44.1368" lon="6.9949">
        <ele>1807</ele>
        <time>2017-08-23T18:25:54Z</time>
      </trkpt>
      <trkpt lat="44.13714" lon="6.99453">
        <ele>1812</ele>
        <time>2017-08-23T18:27:54Z</time>
      </trkpt>
      <trkpt lat="44.13724" lon="6.99438">
        <ele>1812</ele>
        <time>2017-08-23T18:29:54Z</time>
      </trkpt>
      <trkpt lat="44.13705" lon="6.99415">
        <ele>1808</ele>
        <time>2017-08-23T18:31:54Z</time>
      </trkpt>
      <trkpt lat="44.13693" lon="6.99413">
        <ele>1807</ele>
        <time>2017-08-23T18:33:54Z</time>
      </trkpt>
      <trkpt lat="44.13671" lon="6.99392">
        <ele>1805</ele>
        <time>2017-08-23T18:35:54Z</time>
      </trkpt>
      <trkpt lat="44.13666" lon="6.99371">
        <ele>1806</ele>
        <time>2017-08-23T18:37:54Z</time>
      </trkpt>
      <trkpt lat="44.13674" lon="6.99362">
        <ele>1808</ele>
        <time>2017-08-23T18:39:54Z</time>
      </trkpt>
      <trkpt lat="44.1369" lon="6.99358">
        <ele>1811</ele>
        <time>2017-08-23T18:41:54Z</time>
      </trkpt>
      <trkpt lat="44.13697" lon="6.99348">
        <ele>1813</ele>
        <time>2017-08-23T18:43:54Z</time>
      </trkpt>
      <trkpt lat="44.13694" lon="6.99329">
        <ele>1815</ele>
        <time>2017-08-23T18:45:54Z</time>
      </trkpt>
      <trkpt lat="44.13686" lon="6.99302">
        <ele>1818</ele>
        <time>2017-08-23T18:47:54Z</time>
      </trkpt>
      <trkpt lat="44.13677" lon="6.99262">
        <ele>1822</ele>
        <time>2017-08-23T18:49:54Z</time>
      </trkpt>
      <trkpt lat="44.13664" lon="6.99228">
        <ele>1824</ele>
        <time>2017-08-23T18:51:54Z</time>
      </trkpt>
      <trkpt lat="44.13654" lon="6.99196">
        <ele>1829</ele>
        <time>2017-08-23T18:53:54Z</time>
      </trkpt>
      <trkpt lat="44.13632" lon="6.9916">
        <ele>1831</ele>
        <time>2017-08-23T18:55:54Z</time>
      </trkpt>
      <trkpt lat="44.13624" lon="6.99145">
        <ele>1831</ele>
        <time>2017-08-23T18:57:54Z</time>
      </trkpt>
      <trkpt lat="44.13627" lon="6.99107">
        <ele>1836</ele>
        <time>2017-08-23T18:59:54Z</time>
      </trkpt>
      <trkpt lat="44.13628" lon="6.99085">
        <ele>1838</ele>
        <time>2017-08-23T19:01:54Z</time>
      </trkpt>
      <trkpt lat="44.13615" lon="6.99084">
        <ele>1836</ele>
        <time>2017-08-23T19:03:54Z</time>
      </trkpt>
      <trkpt lat="44.13606" lon="6.99091">
        <ele>1834</ele>
        <time>2017-08-23T19:05:54Z</time>
      </trkpt>
      <trkpt lat="44.13594" lon="6.99113">
        <ele>1829</ele>
        <time>2017-08-23T19:07:54Z</time>
      </trkpt>
      <trkpt lat="44.13574" lon="6.99113">
        <ele>1831</ele>
        <time>2017-08-23T19:09:54Z</time>
      </trkpt>
      <trkpt lat="44.13584" lon="6.99069">
        <ele>1833</ele>
        <time>2017-08-23T19:11:54Z</time>
      </trkpt>
      <trkpt lat="44.1355" lon="6.99058">
        <ele>1845</ele>
        <time>2017-08-23T19:13:54Z</time>
      </trkpt>
      <trkpt lat="44.13535" lon="6.99047">
        <ele>1851</ele>
        <time>2017-08-23T19:15:54Z</time>
      </trkpt>
      <trkpt lat="44.13533" lon="6.99033">
        <ele>1853</ele>
        <time>2017-08-23T19:17:54Z</time>
      </trkpt>
      <trkpt lat="44.13534" lon="6.98986">
        <ele>1857</ele>
        <time>2017-08-23T19:19:54Z</time>
      </trkpt>
      <trkpt lat="44.13514" lon="6.98982">
        <ele>1862</ele>
        <time>2017-08-23T19:21:54Z</time>
      </trkpt>
      <trkpt lat="44.13519" lon="6.98971">
        <ele>1861</ele>
        <time>2017-08-23T19:23:54Z</time>
      </trkpt>
      <trkpt lat="44.13519" lon="6.98952">
        <ele>1862</ele>
        <time>2017-08-23T19:25:54Z</time>
      </trkpt>
      <trkpt lat="44.13511" lon="6.98944">
        <ele>1864</ele>
        <time>2017-08-23T19:27:54Z</time>
      </trkpt>
      <trkpt lat="44.13493" lon="6.98956">
        <ele>1870</ele>
        <time>2017-08-23T19:29:54Z</time>
      </trkpt>
      <trkpt lat="44.13496" lon="6.98932">
        <ele>1869</ele>
        <time>2017-08-23T19:31:54Z</time>
      </trkpt>
      <trkpt lat="44.13485" lon="6.98932">
        <ele>1875</ele>
        <time>2017-08-23T19:33:54Z</time>
      </trkpt>
      <trkpt lat="44.13476" lon="6.98912">
        <ele>1880</ele>
        <time>2017-08-23T19:35:54Z</time>
      </trkpt>
      <trkpt lat="44.13463" lon="6.98905">
        <ele>1886</ele>
        <time>2017-08-23T19:37:54Z</time>
      </trkpt>
      <trkpt lat="44.13456" lon="6.98934">
        <ele>1889</ele>
        <time>2017-08-23T19:39:54Z</time>
      </trkpt>
      <trkpt lat="44.13441" lon="6.98967">
        <ele>1899</ele>
        <time>2017-08-23T19:41:54Z</time>
      </trkpt>
      <trkpt lat="44.13431" lon="6.99034">
        <ele>1907</ele>
        <time>2017-08-23T19:43:54Z</time>
      </trkpt>
      <trkpt lat="44.1342" lon="6.99072">
        <ele>1914</ele>
        <time>2017-08-23T19:45:54Z</time>
      </trkpt>
      <trkpt lat="44.13419" lon="6.99113">
        <ele>1915</ele>
        <time>2017-08-23T19:47:54Z</time>
      </trkpt>
      <trkpt lat="44.13394" lon="6.99251">
        <ele>1927</ele>
        <time>2017-08-23T19:49:54Z</time>
      </trkpt>
      <trkpt lat="44.13389" lon="6.99229">
        <ele>1931</ele>
        <time>2017-08-23T19:51:54Z</time>
      </trkpt>
      <trkpt lat="44.13387" lon="6.99201">
        <ele>1934</ele>
        <time>2017-08-23T19:53:54Z</time>
      </trkpt>
      <trkpt lat="44.13366" lon="6.99265">
        <ele>1941</ele>
        <time>2017-08-23T19:55:54Z</time>
      </trkpt>
      <trkpt lat="44.13353" lon="6.99297">
        <ele>1945</ele>
        <time>2017-08-23T19:57:54Z</time>
      </trkpt>
      <trkpt lat="44.13336" lon="6.9931">
        <ele>1952</ele>
        <time>2017-08-23T19:59:54Z</time>
      </trkpt>
      <trkpt lat="44.13319" lon="6.99334">
        <ele>1957</ele>
        <time>2017-08-23T20:01:54Z</time>
      </trkpt>
      <trkpt lat="44.13286" lon="6.99371">
        <ele>1964</ele>
        <time>2017-08-23T20:03:54Z</time>
      </trkpt>
      <trkpt lat="44.13254" lon="6.99397">
        <ele>1972</ele>
        <time>2017-08-23T20:05:54Z</time>
      </trkpt>
      <trkpt lat="44.13228" lon="6.99412">
        <ele>1967</ele>
        <time>2017-08-23T20:07:54Z</time>
      </trkpt>
      <trkpt lat="44.13224" lon="6.99382">
        <ele>1973</ele>
        <time>2017-08-23T20:09:54Z</time>
      </trkpt>
      <trkpt lat="44.13203" lon="6.99333">
        <ele>1981</ele>
        <time>2017-08-23T20:11:54Z</time>
      </trkpt>
      <trkpt lat="44.13192" lon="6.99302">
        <ele>1988</ele>
        <time>2017-08-23T20:13:54Z</time>
      </trkpt>
      <trkpt lat="44.13166" lon="6.99285">
        <ele>1990</ele>
        <time>2017-08-23T20:15:54Z</time>
      </trkpt>
      <trkpt lat="44.1315" lon="6.99262">
        <ele>1990</ele>
        <time>2017-08-23T20:17:54Z</time>
      </trkpt>
      <trkpt lat="44.13138" lon="6.99237">
        <ele>1990</ele>
        <time>2017-08-23T20:19:54Z</time>
      </trkpt>
      <trkpt lat="44.13128" lon="6.99207">
        <ele>1991</ele>
        <time>2017-08-23T20:21:54Z</time>
      </trkpt>
      <trkpt lat="44.13128" lon="6.99182">
        <ele>1995</ele>
        <time>2017-08-23T20:23:54Z</time>
      </trkpt>
      <trkpt lat="44.13146" lon="6.99132">
        <ele>2009</ele>
        <time>2017-08-23T20:25:54Z</time>
      </trkpt>
      <trkpt lat="44.13168" lon="6.99091">
        <ele>2017</ele>
        <time>2017-08-23T20:27:54Z</time>
      </trkpt>
      <trkpt lat="44.13182" lon="6.99059">
        <ele>2018</ele>
        <time>2017-08-23T20:29:54Z</time>
      </trkpt>
      <trkpt lat="44.1318" lon="6.99017">
        <ele>2019</ele>
        <time>2017-08-23T20:31:54Z</time>
      </trkpt>
      <trkpt lat="44.13175" lon="6.98991">
        <ele>2022</ele>
        <time>2017-08-23T20:33:54Z</time>
      </trkpt>
      <trkpt lat="44.13178" lon="6.98968">
        <ele>2023</ele>
        <time>2017-08-23T20:35:54Z</time>
      </trkpt>
      <trkpt lat="44.13168" lon="6.98937">
        <ele>2031</ele>
        <time>2017-08-23T20:37:54Z</time>
      </trkpt>
      <trkpt lat="44.13167" lon="6.98893">
        <ele>2035</ele>
        <time>2017-08-23T20:39:54Z</time>
      </trkpt>
      <trkpt lat="44.13166" lon="6.98863">
        <ele>2037</ele>
        <time>2017-08-23T20:41:54Z</time>
      </trkpt>
      <trkpt lat="44.13155" lon="6.98816">
        <ele>2044</ele>
        <time>2017-08-23T20:43:54Z</time>
      </trkpt>
      <trkpt lat="44.13154" lon="6.9879">
        <ele>2045</ele>
        <time>2017-08-23T20:45:54Z</time>
      </trkpt>
      <trkpt lat="44.13148" lon="6.98772">
        <ele>2047</ele>
        <time>2017-08-23T20:47:54Z</time>
      </trkpt>
      <trkpt lat="44.13153" lon="6.98722">
        <ele>2050</ele>
        <time>2017-08-23T20:49:54Z</time>
      </trkpt>
      <trkpt lat="44.13148" lon="6.98692">
        <ele>2054</ele>
        <time>2017-08-23T20:51:54Z</time>
      </trkpt>
      <trkpt lat="44.13149" lon="6.98658">
        <ele>2059</ele>
        <time>2017-08-23T20:53:54Z</time>
      </trkpt>
      <trkpt lat="44.13152" lon="6.98639">
        <ele>2063</ele>
        <time>2017-08-23T20:55:54Z</time>
      </trkpt>
      <trkpt lat="44.13149" lon="6.98621">
        <ele>2066</ele>
        <time>2017-08-23T20:57:54Z</time>
      </trkpt>
      <trkpt lat="44.13148" lon="6.986">
        <ele>2070</ele>
        <time>2017-08-23T20:59:54Z</time>
      </trkpt>
      <trkpt lat="44.13161" lon="6.98585">
        <ele>2075</ele>
        <time>2017-08-23T21:01:54Z</time>
      </trkpt>
      <trkpt lat="44.13171" lon="6.98568">
        <ele>2079</ele>
        <time>2017-08-23T21:03:54Z</time>
      </trkpt>
      <trkpt lat="44.13185" lon="6.98528">
        <ele>2086</ele>
        <time>2017-08-23T21:05:54Z</time>
      </trkpt>
      <trkpt lat="44.13198" lon="6.98513">
        <ele>2089</ele>
        <time>2017-08-23T21:07:54Z</time>
      </trkpt>
      <trkpt lat="44.13219" lon="6.98489">
        <ele>2093</ele>
        <time>2017-08-23T21:09:54Z</time>
      </trkpt>
      <trkpt lat="44.13239" lon="6.98472">
        <ele>2097</ele>
        <time>2017-08-23T21:11:54Z</time>
      </trkpt>
      <trkpt lat="44.13252" lon="6.98459">
        <ele>2100</ele>
        <time>2017-08-23T21:13:54Z</time>
      </trkpt>
      <trkpt lat="44.13254" lon="6.98436">
        <ele>2104</ele>
        <time>2017-08-23T21:15:54Z</time>
      </trkpt>
      <trkpt lat="44.1326" lon="6.98417">
        <ele>2108</ele>
        <time>2017-08-23T21:17:54Z</time>
      </trkpt>
      <trkpt lat="44.13267" lon="6.98396">
        <ele>2110</ele>
        <time>2017-08-23T21:19:54Z</time>
      </trkpt>
      <trkpt lat="44.13277" lon="6.98361">
        <ele>2113</ele>
        <time>2017-08-23T21:21:54Z</time>
      </trkpt>
      <trkpt lat="44.13276" lon="6.98332">
        <ele>2117</ele>
        <time>2017-08-23T21:23:54Z</time>
      </trkpt>
      <trkpt lat="44.13265" lon="6.98304">
        <ele>2119</ele>
        <time>2017-08-23T21:25:54Z</time>
      </trkpt>
      <trkpt lat="44.13249" lon="6.98265">
        <ele>2121</ele>
        <time>2017-08-23T21:27:54Z</time>
      </trkpt>
      <trkpt lat="44.13243" lon="6.98249">
        <ele>2121</ele>
        <time>2017-08-23T21:29:54Z</time>
      </trkpt>
      <trkpt lat="44.13246" lon="6.9823">
        <ele>2119</ele>
        <time>2017-08-23T21:31:54Z</time>
      </trkpt>
      <trkpt lat="44.13253" lon="6.98212">
        <ele>2118</ele>
        <time>2017-08-23T21:33:54Z</time>
      </trkpt>
      <trkpt lat="44.1327" lon="6.98185">
        <ele>2119</ele>
        <time>2017-08-23T21:35:54Z</time>
      </trkpt>
      <trkpt lat="44.13289" lon="6.98159">
        <ele>2122</ele>
        <time>2017-08-23T21:37:54Z</time>
      </trkpt>
      <trkpt lat="44.13309" lon="6.98145">
        <ele>2126</ele>
        <time>2017-08-23T21:39:54Z</time>
      </trkpt>
      <trkpt lat="44.13325" lon="6.98132">
        <ele>2130</ele>
        <time>2017-08-23T21:41:54Z</time>
      </trkpt>
      <trkpt lat="44.13349" lon="6.98109">
        <ele>2132</ele>
        <time>2017-08-23T21:43:54Z</time>
      </trkpt>
      <trkpt lat="44.13374" lon="6.98084">
        <ele>2135</ele>
        <time>2017-08-23T21:45:54Z</time>
      </trkpt>
      <trkpt lat="44.13396" lon="6.98066">
        <ele>2140</ele>
        <time>2017-08-23T21:47:54Z</time>
      </trkpt>
      <trkpt lat="44.13405" lon="6.98037">
        <ele>2144</ele>
        <time>2017-08-23T21:49:54Z</time>
      </trkpt>
      <trkpt lat="44.13407" lon="6.98012">
        <ele>2148</ele>
        <time>2017-08-23T21:51:54Z</time>
      </trkpt>
      <trkpt lat="44.134" lon="6.97993">
        <ele>2150</ele>
        <time>2017-08-23T21:53:54Z</time>
      </trkpt>
      <trkpt lat="44.13401" lon="6.97972">
        <ele>2154</ele>
        <time>2017-08-23T21:55:54Z</time>
      </trkpt>
      <trkpt lat="44.13388" lon="6.97959">
        <ele>2157</ele>
        <time>2017-08-23T21:57:54Z</time>
      </trkpt>
      <trkpt lat="44.13379" lon="6.97942">
        <ele>2160</ele>
        <time>2017-08-23T21:59:54Z</time>
      </trkpt>
      <trkpt lat="44.13371" lon="6.97928">
        <ele>2163</ele>
        <time>2017-08-23T22:01:54Z</time>
      </trkpt>
      <trkpt lat="44.13376" lon="6.97915">
        <ele>2166</ele>
        <time>2017-08-23T22:03:54Z</time>
      </trkpt>
      <trkpt lat="44.13388" lon="6.97904">
        <ele>2168</ele>
        <time>2017-08-23T22:05:54Z</time>
      </trkpt>
      <trkpt lat="44.1339" lon="6.97892">
        <ele>2171</ele>
        <time>2017-08-23T22:07:54Z</time>
      </trkpt>
      <trkpt lat="44.1338" lon="6.97886">
        <ele>2172</ele>
        <time>2017-08-23T22:09:54Z</time>
      </trkpt>
      <trkpt lat="44.13371" lon="6.97871">
        <ele>2175</ele>
        <time>2017-08-23T22:11:54Z</time>
      </trkpt>
      <trkpt lat="44.13385" lon="6.97852">
        <ele>2179</ele>
        <time>2017-08-23T22:13:54Z</time>
      </trkpt>
      <trkpt lat="44.13384" lon="6.97822">
        <ele>2186</ele>
        <time>2017-08-23T22:15:54Z</time>
      </trkpt>
      <trkpt lat="44.13393" lon="6.9781">
        <ele>2189</ele>
        <time>2017-08-23T22:17:54Z</time>
      </trkpt>
      <trkpt lat="44.13419" lon="6.97796">
        <ele>2193</ele>
        <time>2017-08-23T22:19:54Z</time>
      </trkpt>
      <trkpt lat="44.13446" lon="6.97781">
        <ele>2195</ele>
        <time>2017-08-23T22:21:54Z</time>
      </trkpt>
      <trkpt lat="44.13466" lon="6.97762">
        <ele>2199</ele>
        <time>2017-08-23T22:23:54Z</time>
      </trkpt>
      <trkpt lat="44.13487" lon="6.97734">
        <ele>2203</ele>
        <time>2017-08-23T22:25:54Z</time>
      </trkpt>
      <trkpt lat="44.13462" lon="6.97727">
        <ele>2206</ele>
        <time>2017-08-23T22:27:54Z</time>
      </trkpt>
      <trkpt lat="44.13445" lon="6.97713">
        <ele>2210</ele>
        <time>2017-08-23T22:29:54Z</time>
      </trkpt>
      <trkpt lat="44.13429" lon="6.97683">
        <ele>2215</ele>
        <time>2017-08-23T22:31:54Z</time>
      </trkpt>
      <trkpt lat="44.1345" lon="6.97672">
        <ele>2217</ele>
        <time>2017-08-23T22:33:54Z</time>
      </trkpt>
      <trkpt lat="44.13477" lon="6.97657">
        <ele>2221</ele>
        <time>2017-08-23T22:35:54Z</time>
      </trkpt>
      <trkpt lat="44.13445" lon="6.97604">
        <ele>2233</ele>
        <time>2017-08-23T22:37:54Z</time>
      </trkpt>
      <trkpt lat="44.13443" lon="6.97594">
        <ele>2236</ele>
        <time>2017-08-23T22:39:54Z</time>
      </trkpt>
      <trkpt lat="44.13474" lon="6.9758">
        <ele>2241</ele>
        <time>2017-08-23T22:41:54Z</time>
      </trkpt>
      <trkpt lat="44.13502" lon="6.97562">
        <ele>2246</ele>
        <time>2017-08-23T22:43:54Z</time>
      </trkpt>
      <trkpt lat="44.13486" lon="6.97546">
        <ele>2249</ele>
        <time>2017-08-23T22:45:54Z</time>
      </trkpt>
      <trkpt lat="44.13474" lon="6.97528">
        <ele>2252</ele>
        <time>2017-08-23T22:47:54Z</time>
      </trkpt>
      <trkpt lat="44.13483" lon="6.97523">
        <ele>2254</ele>
        <time>2017-08-23T22:49:54Z</time>
      </trkpt>
      <trkpt lat="44.13496" lon="6.97521">
        <ele>2256</ele>
        <time>2017-08-23T22:51:54Z</time>
      </trkpt>
      <trkpt lat="44.13477" lon="6.97491">
        <ele>2260</ele>
        <time>2017-08-23T22:53:54Z</time>
      </trkpt>
      <trkpt lat="44.1348" lon="6.97468">
        <ele>2264</ele>
        <time>2017-08-23T22:55:54Z</time>
      </trkpt>
      <trkpt lat="44.13503" lon="6.97466">
        <ele>2267</ele>
        <time>2017-08-23T22:57:54Z</time>
      </trkpt>
      <trkpt lat="44.1351" lon="6.97458">
        <ele>2268</ele>
        <time>2017-08-23T22:59:54Z</time>
      </trkpt>
      <trkpt lat="44.13521" lon="6.97447">
        <ele>2270</ele>
        <time>2017-08-23T23:01:54Z</time>
      </trkpt>
      <trkpt lat="44.1353" lon="6.9743">
        <ele>2274</ele>
        <time>2017-08-23T23:03:54Z</time>
      </trkpt>
      <trkpt lat="44.13514" lon="6.97416">
        <ele>2276</ele>
        <time>2017-08-23T23:05:54Z</time>
      </trkpt>
      <trkpt lat="44.13515" lon="6.974">
        <ele>2278</ele>
        <time>2017-08-23T23:07:54Z</time>
      </trkpt>
      <trkpt lat="44.13535" lon="6.97363">
        <ele>2285</ele>
        <time>2017-08-23T23:09:54Z</time>
      </trkpt>
      <trkpt lat="44.13548" lon="6.97346">
        <ele>2288</ele>
        <time>2017-08-23T23:11:54Z</time>
      </trkpt>
      <trkpt lat="44.13554" lon="6.97307">
        <ele>2297</ele>
        <time>2017-08-23T23:13:54Z</time>
      </trkpt>
      <trkpt lat="44.13552" lon="6.97278">
        <ele>2303</ele>
        <time>2017-08-23T23:15:54Z</time>
      </trkpt>
      <trkpt lat="44.13559" lon="6.97264">
        <ele>2307</ele>
        <time>2017-08-23T23:17:54Z</time>
      </trkpt>
      <trkpt lat="44.13552" lon="6.9726">
        <ele>2308</ele>
        <time>2017-08-23T23:19:54Z</time>
      </trkpt>
      <trkpt lat="44.13553" lon="6.9723">
        <ele>2317</ele>
        <time>2017-08-23T23:21:54Z</time>
      </trkpt>
      <trkpt lat="44.13567" lon="6.97227">
        <ele>2319</ele>
        <time>2017-08-23T23:23:54Z</time>
      </trkpt>
      <trkpt lat="44.1356" lon="6.97215">
        <ele>2323</ele>
        <time>2017-08-23T23:25:54Z</time>
      </trkpt>
      <trkpt lat="44.13543" lon="6.97213">
        <ele>2322</ele>
        <time>2017-08-23T23:27:54Z</time>
      </trkpt>
      <trkpt lat="44.13552" lon="6.972">
        <ele>2327</ele>
        <time>2017-08-23T23:29:54Z</time>
      </trkpt>
      <trkpt lat="44.13584" lon="6.97188">
        <ele>2333</ele>
        <time>2017-08-23T23:31:54Z</time>
      </trkpt>
      <trkpt lat="44.13587" lon="6.97178">
        <ele>2337</ele>
        <time>2017-08-23T23:33:54Z</time>
      </trkpt>
      <trkpt lat="44.13572" lon="6.97173">
        <ele>2338</ele>
        <time>2017-08-23T23:35:54Z</time>
      </trkpt>
      <trkpt lat="44.13554" lon="6.97163">
        <ele>2340</ele>
        <time>2017-08-23T23:37:54Z</time>
      </trkpt>
      <trkpt lat="44.1354" lon="6.97157">
        <ele>2341</ele>
        <time>2017-08-23T23:39:54Z</time>
      </trkpt>
      <trkpt lat="44.13535" lon="6.97144">
        <ele>2345</ele>
        <time>2017-08-23T23:41:54Z</time>
      </trkpt>
      <trkpt lat="44.13535" lon="6.97128">
        <ele>2349</ele>
        <time>2017-08-23T23:43:54Z</time>
      </trkpt>
      <trkpt lat="44.13552" lon="6.9713">
        <ele>2350</ele>
        <time>2017-08-23T23:45:54Z</time>
      </trkpt>
      <trkpt lat="44.13566" lon="6.97123">
        <ele>2354</ele>
        <time>2017-08-23T23:47:54Z</time>
      </trkpt>
      <trkpt lat="44.13567" lon="6.97109">
        <ele>2358</ele>
        <time>2017-08-23T23:49:54Z</time>
      </trkpt>
      <trkpt lat="44.1358" lon="6.97105">
        <ele>2361</ele>
        <time>2017-08-23T23:51:54Z</time>
      </trkpt>
      <trkpt lat="44.13579" lon="6.97096">
        <ele>2363</ele>
        <time>2017-08-23T23:53:54Z</time>
      </trkpt>
      <trkpt lat="44.13599" lon="6.97092">
        <ele>2365</ele>
        <time>2017-08-23T23:55:54Z</time>
      </trkpt>
      <trkpt lat="44.13618" lon="6.97082">
        <ele>2369</ele>
        <time>2017-08-23T23:57:54Z</time>
      </trkpt>
      <trkpt lat="44.13639" lon="6.97066">
        <ele>2374</ele>
        <time>2017-08-23T23:59:54Z</time>
      </trkpt>
      <trkpt lat="44.13652" lon="6.97057">
        <ele>2377</ele>
        <time>2017-08-24T00:01:54Z</time>
      </trkpt>
      <trkpt lat="44.13664" lon="6.97045">
        <ele>2381</ele>
        <time>2017-08-24T00:03:54Z</time>
      </trkpt>
      <trkpt lat="44.13686" lon="6.9703">
        <ele>2383</ele>
        <time>2017-08-24T00:05:54Z</time>
      </trkpt>
      <trkpt lat="44.13703" lon="6.97014">
        <ele>2386</ele>
        <time>2017-08-24T00:07:54Z</time>
      </trkpt>
      <trkpt lat="44.13734" lon="6.96991">
        <ele>2390</ele>
        <time>2017-08-24T00:09:54Z</time>
      </trkpt>
      <trkpt lat="44.13738" lon="6.96973">
        <ele>2393</ele>
        <time>2017-08-24T00:11:54Z</time>
      </trkpt>
      <trkpt lat="44.13732" lon="6.96928">
        <ele>2402</ele>
        <time>2017-08-24T00:13:54Z</time>
      </trkpt>
      <trkpt lat="44.13734" lon="6.969">
        <ele>2406</ele>
        <time>2017-08-24T00:15:54Z</time>
      </trkpt>
      <trkpt lat="44.13741" lon="6.96863">
        <ele>2410</ele>
        <time>2017-08-24T00:17:54Z</time>
      </trkpt>
      <trkpt lat="44.13754" lon="6.96822">
        <ele>2414</ele>
        <time>2017-08-24T00:19:54Z</time>
      </trkpt>
      <trkpt lat="44.13759" lon="6.96786">
        <ele>2417</ele>
        <time>2017-08-24T00:21:54Z</time>
      </trkpt>
      <trkpt lat="44.13757" lon="6.96758">
        <ele>2421</ele>
        <time>2017-08-24T00:23:54Z</time>
      </trkpt>
      <trkpt lat="44.13758" lon="6.9673">
        <ele>2424</ele>
        <time>2017-08-24T00:25:54Z</time>
      </trkpt>
      <trkpt lat="44.13744" lon="6.96693">
        <ele>2429</ele>
        <time>2017-08-24T00:27:54Z</time>
      </trkpt>
      <trkpt lat="44.13769" lon="6.96685">
        <ele>2429</ele>
        <time>2017-08-24T00:29:54Z</time>
      </trkpt>
      <trkpt lat="44.13789" lon="6.96678">
        <ele>2429</ele>
        <time>2017-08-24T00:31:54Z</time>
      </trkpt>
      <trkpt lat="44.13797" lon="6.96655">
        <ele>2431</ele>
        <time>2017-08-24T00:33:54Z</time>
      </trkpt>
      <trkpt lat="44.13808" lon="6.96612">
        <ele>2434</ele>
        <time>2017-08-24T00:35:54Z</time>
      </trkpt>
      <trkpt lat="44.13821" lon="6.9656">
        <ele>2437</ele>
        <time>2017-08-24T00:37:54Z</time>
      </trkpt>
      <trkpt lat="44.13819" lon="6.96538">
        <ele>2438</ele>
        <time>2017-08-24T00:39:54Z</time>
      </trkpt>
      <trkpt lat="44.13828" lon="6.96517">
        <ele>2438</ele>
        <time>2017-08-24T00:41:54Z</time>
      </trkpt>
      <trkpt lat="44.13845" lon="6.96468">
        <ele>2437</ele>
        <time>2017-08-24T00:43:54Z</time>
      </trkpt>
      <trkpt lat="44.13861" lon="6.96427">
        <ele>2437</ele>
        <time>2017-08-24T00:45:54Z</time>
      </trkpt>
      <trkpt lat="44.13869" lon="6.96394">
        <ele>2438</ele>
        <time>2017-08-24T00:47:54Z</time>
      </trkpt>
      <trkpt lat="44.13886" lon="6.96354">
        <ele>2439</ele>
        <time>2017-08-24T00:49:54Z</time>
      </trkpt>
      <trkpt lat="44.13898" lon="6.96328">
        <ele>2438</ele>
        <time>2017-08-24T00:51:54Z</time>
      </trkpt>
      <trkpt lat="44.1391" lon="6.96307">
        <ele>2438</ele>
        <time>2017-08-24T00:53:54Z</time>
      </trkpt>
      <trkpt lat="44.13914" lon="6.96285">
        <ele>2439</ele>
        <time>2017-08-24T00:55:54Z</time>
      </trkpt>
      <trkpt lat="44.13923" lon="6.9627">
        <ele>2437</ele>
        <time>2017-08-24T00:57:54Z</time>
      </trkpt>
      <trkpt lat="44.13931" lon="6.96237">
        <ele>2438</ele>
        <time>2017-08-24T00:59:54Z</time>
      </trkpt>
      <trkpt lat="44.13952" lon="6.96179">
        <ele>2437</ele>
        <time>2017-08-24T01:01:54Z</time>
      </trkpt>
      <trkpt lat="44.13975" lon="6.96114">
        <ele>2435</ele>
        <time>2017-08-24T01:03:54Z</time>
      </trkpt>
      <trkpt lat="44.13996" lon="6.96065">
        <ele>2433</ele>
        <time>2017-08-24T01:05:54Z</time>
      </trkpt>
      <trkpt lat="44.14007" lon="6.96034">
        <ele>2432</ele>
        <time>2017-08-24T01:07:54Z</time>
      </trkpt>
      <trkpt lat="44.14018" lon="6.96007">
        <ele>2433</ele>
        <time>2017-08-24T01:09:54Z</time>
      </trkpt>
      <trkpt lat="44.14021" lon="6.9599">
        <ele>2433</ele>
        <time>2017-08-24T01:11:54Z</time>
      </trkpt>
      <trkpt lat="44.1403" lon="6.95963">
        <ele>2432</ele>
        <time>2017-08-24T01:13:54Z</time>
      </trkpt>
      <trkpt lat="44.14059" lon="6.95917">
        <ele>2430</ele>
        <time>2017-08-24T01:15:54Z</time>
      </trkpt>
      <trkpt lat="44.14073" lon="6.95884">
        <ele>2430</ele>
        <time>2017-08-24T01:17:54Z</time>
      </trkpt>
      <trkpt lat="44.14088" lon="6.95865">
        <ele>2430</ele>
        <time>2017-08-24T01:19:54Z</time>
      </trkpt>
      <trkpt lat="44.141" lon="6.95832">
        <ele>2432</ele>
        <time>2017-08-24T01:21:54Z</time>
      </trkpt>
      <trkpt lat="44.14122" lon="6.95794">
        <ele>2435</ele>
        <time>2017-08-24T01:23:54Z</time>
      </trkpt>
      <trkpt lat="44.14156" lon="6.95715">
        <ele>2448</ele>
        <time>2017-08-24T01:25:54Z</time>
      </trkpt>
      <trkpt lat="44.14176" lon="6.95681">
        <ele>2455</ele>
        <time>2017-08-24T01:27:54Z</time>
      </trkpt>
      <trkpt lat="44.14192" lon="6.95651">
        <ele>2458</ele>
        <time>2017-08-24T01:29:54Z</time>
      </trkpt>
      <trkpt lat="44.14215" lon="6.95604">
        <ele>2466</ele>
        <time>2017-08-24T01:31:54Z</time>
      </trkpt>
      <trkpt lat="44.14238" lon="6.95558">
        <ele>2475</ele>
        <time>2017-08-24T01:33:54Z</time>
      </trkpt>
      <trkpt lat="44.1426" lon="6.95516">
        <ele>2482</ele>
        <time>2017-08-24T01:35:54Z</time>
      </trkpt>
      <trkpt lat="44.14283" lon="6.95482">
        <ele>2488</ele>
        <time>2017-08-24T01:37:54Z</time>
      </trkpt>
      <trkpt lat="44.14298" lon="6.95477">
        <ele>2492</ele>
        <time>2017-08-24T01:39:54Z</time>
      </trkpt>
      <trkpt lat="44.14321" lon="6.95455">
        <ele>2501</ele>
        <time>2017-08-24T01:41:54Z</time>
      </trkpt>
      <trkpt lat="44.1431" lon="6.95447">
        <ele>2499</ele>
        <time>2017-08-24T01:43:54Z</time>
      </trkpt>
      <trkpt lat="44.14316" lon="6.95432">
        <ele>2503</ele>
        <time>2017-08-24T01:45:54Z</time>
      </trkpt>
      <trkpt lat="44.14353" lon="6.95414">
        <ele>2517</ele>
        <time>2017-08-24T01:47:54Z</time>
      </trkpt>
      <trkpt lat="44.14375" lon="6.95395">
        <ele>2525</ele>
        <time>2017-08-24T01:49:54Z</time>
      </trkpt>
      <trkpt lat="44.14394" lon="6.9538">
        <ele>2533</ele>
        <time>2017-08-24T01:51:54Z</time>
      </trkpt>
      <trkpt lat="44.14414" lon="6.95359">
        <ele>2546</ele>
        <time>2017-08-24T01:53:54Z</time>
      </trkpt>
      <trkpt lat="44.1445" lon="6.95349">
        <ele>2555</ele>
        <time>2017-08-24T01:55:54Z</time>
      </trkpt>
      <trkpt lat="44.14501" lon="6.95336">
        <ele>2566</ele>
        <time>2017-08-24T01:57:54Z</time>
      </trkpt>
      <trkpt lat="44.14551" lon="6.95337">
        <ele>2570</ele>
        <time>2017-08-24T01:59:54Z</time>
      </trkpt>
      <trkpt lat="44.14504" lon="6.95299">
        <ele>2565</ele>
        <time>2017-08-24T02:01:54Z</time>
      </trkpt>
      <trkpt lat="44.14478" lon="6.95294">
        <ele>2562</ele>
        <time>2017-08-24T02:03:54Z</time>
      </trkpt>
      <trkpt lat="44.14461" lon="6.95281">
        <ele>2560</ele>
        <time>2017-08-24T02:05:54Z</time>
      </trkpt>
      <trkpt lat="44.14453" lon="6.95269">
        <ele>2559</ele>
        <time>2017-08-24T02:07:54Z</time>
      </trkpt>
      <trkpt lat="44.1447" lon="6.95257">
        <ele>2560</ele>
        <time>2017-08-24T02:09:54Z</time>
      </trkpt>
      <trkpt lat="44.14511" lon="6.95239">
        <ele>2556</ele>
        <time>2017-08-24T02:11:54Z</time>
      </trkpt>
      <trkpt lat="44.14551" lon="6.95224">
        <ele>2548</ele>
        <time>2017-08-24T02:13:54Z</time>
      </trkpt>
      <trkpt lat="44.14618" lon="6.95206">
        <ele>2538</ele>
        <time>2017-08-24T02:15:54Z</time>
      </trkpt>
      <trkpt lat="44.14683" lon="6.95184">
        <ele>2530</ele>
        <time>2017-08-24T02:17:54Z</time>
      </trkpt>
      <trkpt lat="44.14719" lon="6.9517">
        <ele>2523</ele>
        <time>2017-08-24T02:19:54Z</time>
      </trkpt>
      <trkpt lat="44.14761" lon="6.95148">
        <ele>2509</ele>
        <time>2017-08-24T02:21:54Z</time>
      </trkpt>
      <trkpt lat="44.14795" lon="6.95123">
        <ele>2493</ele>
        <time>2017-08-24T02:23:54Z</time>
      </trkpt>
      <trkpt lat="44.14851" lon="6.95094">
        <ele>2481</ele>
        <time>2017-08-24T02:25:54Z</time>
      </trkpt>
      <trkpt lat="44.14905" lon="6.95053">
        <ele>2478</ele>
        <time>2017-08-24T02:27:54Z</time>
      </trkpt>
      <trkpt lat="44.14922" lon="6.9504">
        <ele>2476</ele>
        <time>2017-08-24T02:29:54Z</time>
      </trkpt>
      <trkpt lat="44.14933" lon="6.95041">
        <ele>2472</ele>
        <time>2017-08-24T02:31:54Z</time>
      </trkpt>
      <trkpt lat="44.14936" lon="6.95062">
        <ele>2474</ele>
        <time>2017-08-24T02:33:54Z</time>
      </trkpt>
      <trkpt lat="44.14945" lon="6.95068">
        <ele>2471</ele>
        <time>2017-08-24T02:35:54Z</time>
      </trkpt>
      <trkpt lat="44.14953" lon="6.95049">
        <ele>2465</ele>
        <time>2017-08-24T02:37:54Z</time>
      </trkpt>
      <trkpt lat="44.14962" lon="6.95066">
        <ele>2463</ele>
        <time>2017-08-24T02:39:54Z</time>
      </trkpt>
      <trkpt lat="44.14968" lon="6.95049">
        <ele>2459</ele>
        <time>2017-08-24T02:41:54Z</time>
      </trkpt>
      <trkpt lat="44.14979" lon="6.95052">
        <ele>2455</ele>
        <time>2017-08-24T02:43:54Z</time>
      </trkpt>
      <trkpt lat="44.15006" lon="6.95071">
        <ele>2445</ele>
        <time>2017-08-24T02:45:54Z</time>
      </trkpt>
      <trkpt lat="44.15053" lon="6.95103">
        <ele>2433</ele>
        <time>2017-08-24T02:47:54Z</time>
      </trkpt>
      <trkpt lat="44.15103" lon="6.95145">
        <ele>2429</ele>
        <time>2017-08-24T02:49:54Z</time>
      </trkpt>
      <trkpt lat="44.15132" lon="6.95168">
        <ele>2425</ele>
        <time>2017-08-24T02:51:54Z</time>
      </trkpt>
      <trkpt lat="44.15164" lon="6.95171">
        <ele>2413</ele>
        <time>2017-08-24T02:53:54Z</time>
      </trkpt>
      <trkpt lat="44.15189" lon="6.95171">
        <ele>2405</ele>
        <time>2017-08-24T02:55:54Z</time>
      </trkpt>
      <trkpt lat="44.15211" lon="6.95182">
        <ele>2401</ele>
        <time>2017-08-24T02:57:54Z</time>
      </trkpt>
      <trkpt lat="44.15226" lon="6.95199">
        <ele>2399</ele>
        <time>2017-08-24T02:59:54Z</time>
      </trkpt>
      <trkpt lat="44.15244" lon="6.95225">
        <ele>2397</ele>
        <time>2017-08-24T03:01:54Z</time>
      </trkpt>
      <trkpt lat="44.15254" lon="6.95256">
        <ele>2400</ele>
        <time>2017-08-24T03:03:54Z</time>
      </trkpt>
      <trkpt lat="44.15315" lon="6.95318">
        <ele>2398</ele>
        <time>2017-08-24T03:05:54Z</time>
      </trkpt>
      <trkpt lat="44.15348" lon="6.95344">
        <ele>2393</ele>
        <time>2017-08-24T03:07:54Z</time>
      </trkpt>
      <trkpt lat="44.15371" lon="6.95346">
        <ele>2388</ele>
        <time>2017-08-24T03:09:54Z</time>
      </trkpt>
      <trkpt lat="44.15396" lon="6.9535">
        <ele>2382</ele>
        <time>2017-08-24T03:11:54Z</time>
      </trkpt>
      <trkpt lat="44.15393" lon="6.95373">
        <ele>2382</ele>
        <time>2017-08-24T03:13:54Z</time>
      </trkpt>
      <trkpt lat="44.15415" lon="6.95364">
        <ele>2377</ele>
        <time>2017-08-24T03:15:54Z</time>
      </trkpt>
      <trkpt lat="44.15427" lon="6.95363">
        <ele>2373</ele>
        <time>2017-08-24T03:17:54Z</time>
      </trkpt>
      <trkpt lat="44.15424" lon="6.95383">
        <ele>2372</ele>
        <time>2017-08-24T03:19:54Z</time>
      </trkpt>
      <trkpt lat="44.15447" lon="6.95374">
        <ele>2366</ele>
        <time>2017-08-24T03:21:54Z</time>
      </trkpt>
      <trkpt lat="44.15449" lon="6.95384">
        <ele>2364</ele>
        <time>2017-08-24T03:23:54Z</time>
      </trkpt>
      <trkpt lat="44.15434" lon="6.95405">
        <ele>2366</ele>
        <time>2017-08-24T03:25:54Z</time>
      </trkpt>
      <trkpt lat="44.15437" lon="6.95419">
        <ele>2364</ele>
        <time>2017-08-24T03:27:54Z</time>
      </trkpt>
      <trkpt lat="44.15475" lon="6.95421">
        <ele>2353</ele>
        <time>2017-08-24T03:29:54Z</time>
      </trkpt>
      <trkpt lat="44.15511" lon="6.95421">
        <ele>2343</ele>
        <time>2017-08-24T03:31:54Z</time>
      </trkpt>
      <trkpt lat="44.15515" lon="6.95403">
        <ele>2344</ele>
        <time>2017-08-24T03:33:54Z</time>
      </trkpt>
      <trkpt lat="44.15565" lon="6.95401">
        <ele>2334</ele>
        <time>2017-08-24T03:35:54Z</time>
      </trkpt>
      <trkpt lat="44.15576" lon="6.95414">
        <ele>2331</ele>
        <time>2017-08-24T03:37:54Z</time>
      </trkpt>
      <trkpt lat="44.15588" lon="6.95399">
        <ele>2329</ele>
        <time>2017-08-24T03:39:54Z</time>
      </trkpt>
      <trkpt lat="44.15601" lon="6.95406">
        <ele>2324</ele>
        <time>2017-08-24T03:41:54Z</time>
      </trkpt>
      <trkpt lat="44.15612" lon="6.95389">
        <ele>2323</ele>
        <time>2017-08-24T03:43:54Z</time>
      </trkpt>
      <trkpt lat="44.15628" lon="6.95405">
        <ele>2315</ele>
        <time>2017-08-24T03:45:54Z</time>
      </trkpt>
      <trkpt lat="44.15641" lon="6.9538">
        <ele>2315</ele>
        <time>2017-08-24T03:47:54Z</time>
      </trkpt>
      <trkpt lat="44.15651" lon="6.95384">
        <ele>2311</ele>
        <time>2017-08-24T03:49:54Z</time>
      </trkpt>
      <trkpt lat="44.15658" lon="6.95403">
        <ele>2305</ele>
        <time>2017-08-24T03:51:54Z</time>
      </trkpt>
      <trkpt lat="44.15658" lon="6.95427">
        <ele>2301</ele>
        <time>2017-08-24T03:53:54Z</time>
      </trkpt>
      <trkpt lat="44.15661" lon="6.95456">
        <ele>2298</ele>
        <time>2017-08-24T03:55:54Z</time>
      </trkpt>
      <trkpt lat="44.15686" lon="6.95457">
        <ele>2288</ele>
        <time>2017-08-24T03:57:54Z</time>
      </trkpt>
      <trkpt lat="44.15692" lon="6.9543">
        <ele>2289</ele>
        <time>2017-08-24T03:59:54Z</time>
      </trkpt>
      <trkpt lat="44.15708" lon="6.9542">
        <ele>2285</ele>
        <time>2017-08-24T04:01:54Z</time>
      </trkpt>
      <trkpt lat="44.15728" lon="6.95412">
        <ele>2280</ele>
        <time>2017-08-24T04:03:54Z</time>
      </trkpt>
      <trkpt lat="44.15743" lon="6.95394">
        <ele>2279</ele>
        <time>2017-08-24T04:05:54Z</time>
      </trkpt>
      <trkpt lat="44.15758" lon="6.95381">
        <ele>2277</ele>
        <time>2017-08-24T04:07:54Z</time>
      </trkpt>
      <trkpt lat="44.15775" lon="6.95376">
        <ele>2275</ele>
        <time>2017-08-24T04:09:54Z</time>
      </trkpt>
      <trkpt lat="44.15808" lon="6.95369">
        <ele>2270</ele>
        <time>2017-08-24T04:11:54Z</time>
      </trkpt>
      <trkpt lat="44.15821" lon="6.95372">
        <ele>2267</ele>
        <time>2017-08-24T04:13:54Z</time>
      </trkpt>
      <trkpt lat="44.15811" lon="6.95387">
        <ele>2266</ele>
        <time>2017-08-24T04:15:54Z</time>
      </trkpt>
      <trkpt lat="44.15813" lon="6.95397">
        <ele>2263</ele>
        <time>2017-08-24T04:17:54Z</time>
      </trkpt>
      <trkpt lat="44.15854" lon="6.95396">
        <ele>2259</ele>
        <time>2017-08-24T04:19:54Z</time>
      </trkpt>
      <trkpt lat="44.15885" lon="6.95403">
        <ele>2258</ele>
        <time>2017-08-24T04:21:54Z</time>
      </trkpt>
      <trkpt lat="44.15922" lon="6.95411">
        <ele>2257</ele>
        <time>2017-08-24T04:23:54Z</time>
      </trkpt>
      <trkpt lat="44.15954" lon="6.95414">
        <ele>2256</ele>
        <time>2017-08-24T04:25:54Z</time>
      </trkpt>
      <trkpt lat="44.15989" lon="6.95418">
        <ele>2254</ele>
        <time>2017-08-24T04:27:54Z</time>
      </trkpt>
      <trkpt lat="44.16031" lon="6.95424">
        <ele>2253</ele>
        <time>2017-08-24T04:29:54Z</time>
      </trkpt>
      <trkpt lat="44.16049" lon="6.95421">
        <ele>2253</ele>
        <time>2017-08-24T04:31:54Z</time>
      </trkpt>
      <trkpt lat="44.16089" lon="6.95396">
        <ele>2254</ele>
        <time>2017-08-24T04:33:54Z</time>
      </trkpt>
      <trkpt lat="44.16121" lon="6.95372">
        <ele>2252</ele>
        <time>2017-08-24T04:35:54Z</time>
      </trkpt>
      <trkpt lat="44.16139" lon="6.95359">
        <ele>2251</ele>
        <time>2017-08-24T04:37:54Z</time>
      </trkpt>
      <trkpt lat="44.16163" lon="6.95359">
        <ele>2248</ele>
        <time>2017-08-24T04:39:54Z</time>
      </trkpt>
      <trkpt lat="44.16179" lon="6.95364">
        <ele>2246</ele>
        <time>2017-08-24T04:41:54Z</time>
      </trkpt>
      <trkpt lat="44.16196" lon="6.95365">
        <ele>2244</ele>
        <time>2017-08-24T04:43:54Z</time>
      </trkpt>
      <trkpt lat="44.16207" lon="6.95374">
        <ele>2243</ele>
        <time>2017-08-24T04:45:54Z</time>
      </trkpt>
      <trkpt lat="44.16221" lon="6.9538">
        <ele>2242</ele>
        <time>2017-08-24T04:47:54Z</time>
      </trkpt>
      <trkpt lat="44.16238" lon="6.9539">
        <ele>2242</ele>
        <time>2017-08-24T04:49:54Z</time>
      </trkpt>
      <trkpt lat="44.16248" lon="6.95401">
        <ele>2242</ele>
        <time>2017-08-24T04:51:54Z</time>
      </trkpt>
      <trkpt lat="44.16258" lon="6.95401">
        <ele>2244</ele>
        <time>2017-08-24T04:53:54Z</time>
      </trkpt>
      <trkpt lat="44.16266" lon="6.95389">
        <ele>2245</ele>
        <time>2017-08-24T04:55:54Z</time>
      </trkpt>
      <trkpt lat="44.16276" lon="6.95373">
        <ele>2245</ele>
        <time>2017-08-24T04:57:54Z</time>
      </trkpt>
      <trkpt lat="44.16289" lon="6.95366">
        <ele>2247</ele>
        <time>2017-08-24T04:59:54Z</time>
      </trkpt>
      <trkpt lat="44.16307" lon="6.95365">
        <ele>2250</ele>
        <time>2017-08-24T05:01:54Z</time>
      </trkpt>
      <trkpt lat="44.16331" lon="6.95328">
        <ele>2243</ele>
        <time>2017-08-24T05:03:54Z</time>
      </trkpt>
      <trkpt lat="44.16372" lon="6.95298">
        <ele>2240</ele>
        <time>2017-08-24T05:05:54Z</time>
      </trkpt>
      <trkpt lat="44.16383" lon="6.95279">
        <ele>2235</ele>
        <time>2017-08-24T05:07:54Z</time>
      </trkpt>
      <trkpt lat="44.16373" lon="6.95265">
        <ele>2229</ele>
        <time>2017-08-24T05:09:54Z</time>
      </trkpt>
      <trkpt lat="44.16383" lon="6.95242">
        <ele>2221</ele>
        <time>2017-08-24T05:11:54Z</time>
      </trkpt>
      <trkpt lat="44.16393" lon="6.95228">
        <ele>2216</ele>
        <time>2017-08-24T05:13:54Z</time>
      </trkpt>
      <trkpt lat="44.16377" lon="6.95221">
        <ele>2213</ele>
        <time>2017-08-24T05:15:54Z</time>
      </trkpt>
      <trkpt lat="44.16391" lon="6.95203">
        <ele>2206</ele>
        <time>2017-08-24T05:17:54Z</time>
      </trkpt>
      <trkpt lat="44.16411" lon="6.95177">
        <ele>2196</ele>
        <time>2017-08-24T05:19:54Z</time>
      </trkpt>
      <trkpt lat="44.16412" lon="6.95156">
        <ele>2186</ele>
        <time>2017-08-24T05:21:54Z</time>
      </trkpt>
      <trkpt lat="44.16426" lon="6.95159">
        <ele>2188</ele>
        <time>2017-08-24T05:23:54Z</time>
      </trkpt>
      <trkpt lat="44.16436" lon="6.95168">
        <ele>2192</ele>
        <time>2017-08-24T05:25:54Z</time>
      </trkpt>
      <trkpt lat="44.16445" lon="6.95156">
        <ele>2187</ele>
        <time>2017-08-24T05:27:54Z</time>
      </trkpt>
      <trkpt lat="44.16456" lon="6.95142">
        <ele>2179</ele>
        <time>2017-08-24T05:29:54Z</time>
      </trkpt>
      <trkpt lat="44.16471" lon="6.95124">
        <ele>2170</ele>
        <time>2017-08-24T05:31:54Z</time>
      </trkpt>
      <trkpt lat="44.16496" lon="6.95117">
        <ele>2166</ele>
        <time>2017-08-24T05:33:54Z</time>
      </trkpt>
      <trkpt lat="44.16515" lon="6.9511">
        <ele>2164</ele>
        <time>2017-08-24T05:35:54Z</time>
      </trkpt>
      <trkpt lat="44.16534" lon="6.9509">
        <ele>2157</ele>
        <time>2017-08-24T05:37:54Z</time>
      </trkpt>
      <trkpt lat="44.16557" lon="6.95078">
        <ele>2156</ele>
        <time>2017-08-24T05:39:54Z</time>
      </trkpt>
      <trkpt lat="44.16553" lon="6.95068">
        <ele>2150</ele>
        <time>2017-08-24T05:41:54Z</time>
      </trkpt>
      <trkpt lat="44.16567" lon="6.95064">
        <ele>2150</ele>
        <time>2017-08-24T05:43:54Z</time>
      </trkpt>
      <trkpt lat="44.16583" lon="6.9505">
        <ele>2147</ele>
        <time>2017-08-24T05:45:54Z</time>
      </trkpt>
      <trkpt lat="44.16598" lon="6.9504">
        <ele>2145</ele>
        <time>2017-08-24T05:47:54Z</time>
      </trkpt>
      <trkpt lat="44.16598" lon="6.95021">
        <ele>2136</ele>
        <time>2017-08-24T05:49:54Z</time>
      </trkpt>
      <trkpt lat="44.16611" lon="6.9501">
        <ele>2134</ele>
        <time>2017-08-24T05:51:54Z</time>
      </trkpt>
      <trkpt lat="44.16598" lon="6.94998">
        <ele>2124</ele>
        <time>2017-08-24T05:53:54Z</time>
      </trkpt>
      <trkpt lat="44.1661" lon="6.94994">
        <ele>2126</ele>
        <time>2017-08-24T05:55:54Z</time>
      </trkpt>
      <trkpt lat="44.16595" lon="6.94983">
        <ele>2119</ele>
        <time>2017-08-24T05:57:54Z</time>
      </trkpt>
      <trkpt lat="44.16587" lon="6.94986">
        <ele>2118</ele>
        <time>2017-08-24T05:59:54Z</time>
      </trkpt>
      <trkpt lat="44.1659" lon="6.94966">
        <ele>2113</ele>
        <time>2017-08-24T06:01:54Z</time>
      </trkpt>
      <trkpt lat="44.16602" lon="6.94949">
        <ele>2110</ele>
        <time>2017-08-24T06:03:54Z</time>
      </trkpt>
      <trkpt lat="44.16585" lon="6.94949">
        <ele>2106</ele>
        <time>2017-08-24T06:05:54Z</time>
      </trkpt>
      <trkpt lat="44.16575" lon="6.94954">
        <ele>2106</ele>
        <time>2017-08-24T06:07:54Z</time>
      </trkpt>
      <trkpt lat="44.1656" lon="6.94949">
        <ele>2102</ele>
        <time>2017-08-24T06:09:54Z</time>
      </trkpt>
      <trkpt lat="44.16564" lon="6.9494">
        <ele>2100</ele>
        <time>2017-08-24T06:11:54Z</time>
      </trkpt>
      <trkpt lat="44.16554" lon="6.94936">
        <ele>2097</ele>
        <time>2017-08-24T06:13:54Z</time>
      </trkpt>
      <trkpt lat="44.1656" lon="6.94921">
        <ele>2094</ele>
        <time>2017-08-24T06:15:54Z</time>
      </trkpt>
      <trkpt lat="44.16541" lon="6.94923">
        <ele>2092</ele>
        <time>2017-08-24T06:17:54Z</time>
      </trkpt>
      <trkpt lat="44.16523" lon="6.94926">
        <ele>2090</ele>
        <time>2017-08-24T06:19:54Z</time>
      </trkpt>
      <trkpt lat="44.16522" lon="6.94903">
        <ele>2082</ele>
        <time>2017-08-24T06:21:54Z</time>
      </trkpt>
      <trkpt lat="44.16541" lon="6.94876">
        <ele>2076</ele>
        <time>2017-08-24T06:23:54Z</time>
      </trkpt>
      <trkpt lat="44.16528" lon="6.94872">
        <ele>2072</ele>
        <time>2017-08-24T06:25:54Z</time>
      </trkpt>
      <trkpt lat="44.16506" lon="6.94871">
        <ele>2067</ele>
        <time>2017-08-24T06:27:54Z</time>
      </trkpt>
      <trkpt lat="44.16507" lon="6.94852">
        <ele>2060</ele>
        <time>2017-08-24T06:29:54Z</time>
      </trkpt>
      <trkpt lat="44.16531" lon="6.94839">
        <ele>2060</ele>
        <time>2017-08-24T06:31:54Z</time>
      </trkpt>
      <trkpt lat="44.16541" lon="6.9482">
        <ele>2055</ele>
        <time>2017-08-24T06:33:54Z</time>
      </trkpt>
      <trkpt lat="44.16553" lon="6.94809">
        <ele>2054</ele>
        <time>2017-08-24T06:35:54Z</time>
      </trkpt>
      <trkpt lat="44.16572" lon="6.94791">
        <ele>2053</ele>
        <time>2017-08-24T06:37:54Z</time>
      </trkpt>
      <trkpt lat="44.16578" lon="6.94774">
        <ele>2048</ele>
        <time>2017-08-24T06:39:54Z</time>
      </trkpt>
      <trkpt lat="44.16588" lon="6.94755">
        <ele>2045</ele>
        <time>2017-08-24T06:41:54Z</time>
      </trkpt>
      <trkpt lat="44.1659" lon="6.94739">
        <ele>2041</ele>
        <time>2017-08-24T06:43:54Z</time>
      </trkpt>
      <trkpt lat="44.16599" lon="6.94721">
        <ele>2039</ele>
        <time>2017-08-24T06:45:54Z</time>
      </trkpt>
      <trkpt lat="44.16586" lon="6.94715">
        <ele>2032</ele>
        <time>2017-08-24T06:47:54Z</time>
      </trkpt>
      <trkpt lat="44.16583" lon="6.94705">
        <ele>2028</ele>
        <time>2017-08-24T06:49:54Z</time>
      </trkpt>
      <trkpt lat="44.16572" lon="6.94719">
        <ele>2028</ele>
        <time>2017-08-24T06:51:54Z</time>
      </trkpt>
      <trkpt lat="44.1657" lon="6.94697">
        <ele>2021</ele>
        <time>2017-08-24T06:53:54Z</time>
      </trkpt>
      <trkpt lat="44.16553" lon="6.94712">
        <ele>2020</ele>
        <time>2017-08-24T06:55:54Z</time>
      </trkpt>
      <trkpt lat="44.16537" lon="6.94716">
        <ele>2016</ele>
        <time>2017-08-24T06:57:54Z</time>
      </trkpt>
      <trkpt lat="44.16512" lon="6.94715">
        <ele>2008</ele>
        <time>2017-08-24T06:59:54Z</time>
      </trkpt>
      <trkpt lat="44.16501" lon="6.94711">
        <ele>2003</ele>
        <time>2017-08-24T07:01:54Z</time>
      </trkpt>
      <trkpt lat="44.16513" lon="6.94687">
        <ele>2000</ele>
        <time>2017-08-24T07:03:54Z</time>
      </trkpt>
      <trkpt lat="44.16516" lon="6.94669">
        <ele>1996</ele>
        <time>2017-08-24T07:05:54Z</time>
      </trkpt>
      <trkpt lat="44.16512" lon="6.94646">
        <ele>1991</ele>
        <time>2017-08-24T07:07:54Z</time>
      </trkpt>
      <trkpt lat="44.16501" lon="6.94646">
        <ele>1987</ele>
        <time>2017-08-24T07:09:54Z</time>
      </trkpt>
      <trkpt lat="44.16496" lon="6.94658">
        <ele>1989</ele>
        <time>2017-08-24T07:11:54Z</time>
      </trkpt>
      <trkpt lat="44.16484" lon="6.94675">
        <ele>1993</ele>
        <time>2017-08-24T07:13:54Z</time>
      </trkpt>
      <trkpt lat="44.16477" lon="6.94696">
        <ele>1999</ele>
        <time>2017-08-24T07:15:54Z</time>
      </trkpt>
      <trkpt lat="44.16468" lon="6.94703">
        <ele>2001</ele>
        <time>2017-08-24T07:17:54Z</time>
      </trkpt>
      <trkpt lat="44.1646" lon="6.94673">
        <ele>1994</ele>
        <time>2017-08-24T07:19:54Z</time>
      </trkpt>
      <trkpt lat="44.16466" lon="6.94653">
        <ele>1990</ele>
        <time>2017-08-24T07:21:54Z</time>
      </trkpt>
      <trkpt lat="44.16466" lon="6.94624">
        <ele>1986</ele>
        <time>2017-08-24T07:23:54Z</time>
      </trkpt>
      <trkpt lat="44.1646" lon="6.94598">
        <ele>1983</ele>
        <time>2017-08-24T07:25:54Z</time>
      </trkpt>
      <trkpt lat="44.16445" lon="6.94594">
        <ele>1983</ele>
        <time>2017-08-24T07:27:54Z</time>
      </trkpt>
      <trkpt lat="44.16443" lon="6.94582">
        <ele>1982</ele>
        <time>2017-08-24T07:29:54Z</time>
      </trkpt>
      <trkpt lat="44.16457" lon="6.94541">
        <ele>1981</ele>
        <time>2017-08-24T07:31:54Z</time>
      </trkpt>
      <trkpt lat="44.16475" lon="6.94518">
        <ele>1977</ele>
        <time>2017-08-24T07:33:54Z</time>
      </trkpt>
      <trkpt lat="44.16484" lon="6.94495">
        <ele>1974</ele>
        <time>2017-08-24T07:35:54Z</time>
      </trkpt>
      <trkpt lat="44.16496" lon="6.94466">
        <ele>1970</ele>
        <time>2017-08-24T07:37:54Z</time>
      </trkpt>
      <trkpt lat="44.16505" lon="6.94433">
        <ele>1968</ele>
        <time>2017-08-24T07:39:54Z</time>
      </trkpt>
      <trkpt lat="44.1651" lon="6.94382">
        <ele>1966</ele>
        <time>2017-08-24T07:41:54Z</time>
      </trkpt>
      <trkpt lat="44.1651" lon="6.94356">
        <ele>1965</ele>
        <time>2017-08-24T07:43:54Z</time>
      </trkpt>
      <trkpt lat="44.16503" lon="6.94319">
        <ele>1963</ele>
        <time>2017-08-24T07:45:54Z</time>
      </trkpt>
      <trkpt lat="44.16494" lon="6.94287">
        <ele>1963</ele>
        <time>2017-08-24T07:47:54Z</time>
      </trkpt>
      <trkpt lat="44.16499" lon="6.94267">
        <ele>1959</ele>
        <time>2017-08-24T07:49:54Z</time>
      </trkpt>
      <trkpt lat="44.16501" lon="6.9424">
        <ele>1958</ele>
        <time>2017-08-24T07:51:54Z</time>
      </trkpt>
      <trkpt lat="44.16514" lon="6.94191">
        <ele>1960</ele>
        <time>2017-08-24T07:53:54Z</time>
      </trkpt>
      <trkpt lat="44.16524" lon="6.94161">
        <ele>1960</ele>
        <time>2017-08-24T07:55:54Z</time>
      </trkpt>
      <trkpt lat="44.16537" lon="6.94144">
        <ele>1958</ele>
        <time>2017-08-24T07:57:54Z</time>
      </trkpt>
      <trkpt lat="44.16543" lon="6.94114">
        <ele>1960</ele>
        <time>2017-08-24T07:59:54Z</time>
      </trkpt>
      <trkpt lat="44.16552" lon="6.94087">
        <ele>1962</ele>
        <time>2017-08-24T08:01:54Z</time>
      </trkpt>
      <trkpt lat="44.16554" lon="6.94053">
        <ele>1963</ele>
        <time>2017-08-24T08:03:54Z</time>
      </trkpt>
      <trkpt lat="44.1656" lon="6.94037">
        <ele>1963</ele>
        <time>2017-08-24T08:05:54Z</time>
      </trkpt>
      <trkpt lat="44.1657" lon="6.94023">
        <ele>1960</ele>
        <time>2017-08-24T08:07:54Z</time>
      </trkpt>
      <trkpt lat="44.16565" lon="6.93997">
        <ele>1963</ele>
        <time>2017-08-24T08:09:54Z</time>
      </trkpt>
      <trkpt lat="44.16573" lon="6.93981">
        <ele>1960</ele>
        <time>2017-08-24T08:11:54Z</time>
      </trkpt>
      <trkpt lat="44.16567" lon="6.93951">
        <ele>1960</ele>
        <time>2017-08-24T08:13:54Z</time>
      </trkpt>
      <trkpt lat="44.1658" lon="6.93899">
        <ele>1954</ele>
        <time>2017-08-24T08:15:54Z</time>
      </trkpt>
      <trkpt lat="44.16587" lon="6.93846">
        <ele>1951</ele>
        <time>2017-08-24T08:17:54Z</time>
      </trkpt>
      <trkpt lat="44.16598" lon="6.93819">
        <ele>1949</ele>
        <time>2017-08-24T08:19:54Z</time>
      </trkpt>
      <trkpt lat="44.16609" lon="6.93793">
        <ele>1946</ele>
        <time>2017-08-24T08:21:54Z</time>
      </trkpt>
      <trkpt lat="44.1663" lon="6.93808">
        <ele>1942</ele>
        <time>2017-08-24T08:23:54Z</time>
      </trkpt>
      <trkpt lat="44.16649" lon="6.93801">
        <ele>1937</ele>
        <time>2017-08-24T08:25:54Z</time>
      </trkpt>
      <trkpt lat="44.16652" lon="6.93773">
        <ele>1934</ele>
        <time>2017-08-24T08:27:54Z</time>
      </trkpt>
      <trkpt lat="44.16656" lon="6.93738">
        <ele>1929</ele>
        <time>2017-08-24T08:29:54Z</time>
      </trkpt>
      <trkpt lat="44.1664" lon="6.93706">
        <ele>1928</ele>
        <time>2017-08-24T08:31:54Z</time>
      </trkpt>
      <trkpt lat="44.16643" lon="6.9367">
        <ele>1920</ele>
        <time>2017-08-24T08:33:54Z</time>
      </trkpt>
      <trkpt lat="44.16652" lon="6.93644">
        <ele>1913</ele>
        <time>2017-08-24T08:35:54Z</time>
      </trkpt>
      <trkpt lat="44.16663" lon="6.93639">
        <ele>1909</ele>
        <time>2017-08-24T08:37:54Z</time>
      </trkpt>
      <trkpt lat="44.16682" lon="6.93609">
        <ele>1900</ele>
        <time>2017-08-24T08:39:54Z</time>
      </trkpt>
      <trkpt lat="44.16694" lon="6.9361">
        <ele>1897</ele>
        <time>2017-08-24T08:41:54Z</time>
      </trkpt>
      <trkpt lat="44.16714" lon="6.9357">
        <ele>1891</ele>
        <time>2017-08-24T08:43:54Z</time>
      </trkpt>
      <trkpt lat="44.16742" lon="6.93538">
        <ele>1886</ele>
        <time>2017-08-24T08:45:54Z</time>
      </trkpt>
      <trkpt lat="44.16754" lon="6.93509">
        <ele>1884</ele>
        <time>2017-08-24T08:47:54Z</time>
      </trkpt>
      <trkpt lat="44.16779" lon="6.93489">
        <ele>1878</ele>
        <time>2017-08-24T08:49:54Z</time>
      </trkpt>
      <trkpt lat="44.16794" lon="6.93475">
        <ele>1874</ele>
        <time>2017-08-24T08:51:54Z</time>
      </trkpt>
      <trkpt lat="44.16804" lon="6.93453">
        <ele>1873</ele>
        <time>2017-08-24T08:53:54Z</time>
      </trkpt>
      <trkpt lat="44.1683" lon="6.93429">
        <ele>1864</ele>
        <time>2017-08-24T08:55:54Z</time>
      </trkpt>
      <trkpt lat="44.16834" lon="6.93402">
        <ele>1863</ele>
        <time>2017-08-24T08:57:54Z</time>
      </trkpt>
      <trkpt lat="44.16843" lon="6.93386">
        <ele>1859</ele>
        <time>2017-08-24T08:59:54Z</time>
      </trkpt>
      <trkpt lat="44.16846" lon="6.93363">
        <ele>1858</ele>
        <time>2017-08-24T09:01:54Z</time>
      </trkpt>
      <trkpt lat="44.16854" lon="6.93333">
        <ele>1854</ele>
        <time>2017-08-24T09:03:54Z</time>
      </trkpt>
      <trkpt lat="44.16855" lon="6.93312">
        <ele>1855</ele>
        <time>2017-08-24T09:05:54Z</time>
      </trkpt>
      <trkpt lat="44.16868" lon="6.93282">
        <ele>1850</ele>
        <time>2017-08-24T09:07:54Z</time>
      </trkpt>
      <trkpt lat="44.16871" lon="6.93257">
        <ele>1850</ele>
        <time>2017-08-24T09:09:54Z</time>
      </trkpt>
      <trkpt lat="44.16902" lon="6.93239">
        <ele>1835</ele>
        <time>2017-08-24T09:11:54Z</time>
      </trkpt>
      <trkpt lat="44.16943" lon="6.93193">
        <ele>1823</ele>
        <time>2017-08-24T09:13:54Z</time>
      </trkpt>
      <trkpt lat="44.16967" lon="6.93183">
        <ele>1812</ele>
        <time>2017-08-24T09:15:54Z</time>
      </trkpt>
      <trkpt lat="44.16971" lon="6.93199">
        <ele>1807</ele>
        <time>2017-08-24T09:17:54Z</time>
      </trkpt>
      <trkpt lat="44.17021" lon="6.93141">
        <ele>1796</ele>
        <time>2017-08-24T09:19:54Z</time>
      </trkpt>
      <trkpt lat="44.17056" lon="6.93115">
        <ele>1787</ele>
        <time>2017-08-24T09:21:54Z</time>
      </trkpt>
      <trkpt lat="44.17068" lon="6.93114">
        <ele>1782</ele>
        <time>2017-08-24T09:23:54Z</time>
      </trkpt>
      <trkpt lat="44.17097" lon="6.9309">
        <ele>1775</ele>
        <time>2017-08-24T09:25:54Z</time>
      </trkpt>
      <trkpt lat="44.17115" lon="6.93101">
        <ele>1768</ele>
        <time>2017-08-24T09:27:54Z</time>
      </trkpt>
      <trkpt lat="44.17136" lon="6.93096">
        <ele>1762</ele>
        <time>2017-08-24T09:29:54Z</time>
      </trkpt>
      <trkpt lat="44.1715" lon="6.93096">
        <ele>1758</ele>
        <time>2017-08-24T09:31:54Z</time>
      </trkpt>
      <trkpt lat="44.17163" lon="6.93084">
        <ele>1753</ele>
        <time>2017-08-24T09:33:54Z</time>
      </trkpt>
      <trkpt lat="44.17181" lon="6.93079">
        <ele>1752</ele>
        <time>2017-08-24T09:35:54Z</time>
      </trkpt>
      <trkpt lat="44.17208" lon="6.93075">
        <ele>1751</ele>
        <time>2017-08-24T09:37:54Z</time>
      </trkpt>
      <trkpt lat="44.17222" lon="6.93051">
        <ele>1751</ele>
        <time>2017-08-24T09:39:54Z</time>
      </trkpt>
      <trkpt lat="44.17243" lon="6.93034">
        <ele>1746</ele>
        <time>2017-08-24T09:41:54Z</time>
      </trkpt>
      <trkpt lat="44.17258" lon="6.93027">
        <ele>1745</ele>
        <time>2017-08-24T09:43:54Z</time>
      </trkpt>
      <trkpt lat="44.17268" lon="6.9304">
        <ele>1747</ele>
        <time>2017-08-24T09:45:54Z</time>
      </trkpt>
      <trkpt lat="44.17278" lon="6.93026">
        <ele>1745</ele>
        <time>2017-08-24T09:47:54Z</time>
      </trkpt>
      <trkpt lat="44.17295" lon="6.93012">
        <ele>1743</ele>
        <time>2017-08-24T09:49:54Z</time>
      </trkpt>
      <trkpt lat="44.17302" lon="6.92995">
        <ele>1740</ele>
        <time>2017-08-24T09:51:54Z</time>
      </trkpt>
      <trkpt lat="44.17328" lon="6.92967">
        <ele>1735</ele>
        <time>2017-08-24T09:53:54Z</time>
      </trkpt>
      <trkpt lat="44.17365" lon="6.92919">
        <ele>1730</ele>
        <time>2017-08-24T09:55:54Z</time>
      </trkpt>
      <trkpt lat="44.17378" lon="6.92903">
        <ele>1731</ele>
        <time>2017-08-24T09:57:54Z</time>
      </trkpt>
      <trkpt lat="44.174" lon="6.92887">
        <ele>1729</ele>
        <time>2017-08-24T09:59:54Z</time>
      </trkpt>
      <trkpt lat="44.1743" lon="6.92863">
        <ele>1722</ele>
        <time>2017-08-24T10:01:54Z</time>
      </trkpt>
      <trkpt lat="44.17454" lon="6.92837">
        <ele>1712</ele>
        <time>2017-08-24T10:03:54Z</time>
      </trkpt>
      <trkpt lat="44.1747" lon="6.92832">
        <ele>1709</ele>
        <time>2017-08-24T10:05:54Z</time>
      </trkpt>
      <trkpt lat="44.17487" lon="6.9282">
        <ele>1708</ele>
        <time>2017-08-24T10:07:54Z</time>
      </trkpt>
      <trkpt lat="44.17509" lon="6.92827">
        <ele>1704</ele>
        <time>2017-08-24T10:09:54Z</time>
      </trkpt>
      <trkpt lat="44.17523" lon="6.92817">
        <ele>1702</ele>
        <time>2017-08-24T10:11:54Z</time>
      </trkpt>
      <trkpt lat="44.17545" lon="6.92812">
        <ele>1698</ele>
        <time>2017-08-24T10:13:54Z</time>
      </trkpt>
      <trkpt lat="44.17563" lon="6.928">
        <ele>1692</ele>
        <time>2017-08-24T10:15:54Z</time>
      </trkpt>
      <trkpt lat="44.17575" lon="6.92804">
        <ele>1690</ele>
        <time>2017-08-24T10:17:54Z</time>
      </trkpt>
      <trkpt lat="44.17583" lon="6.92795">
        <ele>1686</ele>
        <time>2017-08-24T10:19:54Z</time>
      </trkpt>
      <trkpt lat="44.17607" lon="6.92781">
        <ele>1678</ele>
        <time>2017-08-24T10:21:54Z</time>
      </trkpt>
      <trkpt lat="44.17635" lon="6.92779">
        <ele>1674</ele>
        <time>2017-08-24T10:23:54Z</time>
      </trkpt>
      <trkpt lat="44.17668" lon="6.92779">
        <ele>1669</ele>
        <time>2017-08-24T10:25:54Z</time>
      </trkpt>
      <trkpt lat="44.17752" lon="6.9276">
        <ele>1644</ele>
        <time>2017-08-24T10:27:54Z</time>
      </trkpt>
      <trkpt lat="44.17785" lon="6.92764">
        <ele>1643</ele>
        <time>2017-08-24T10:29:54Z</time>
      </trkpt>
      <trkpt lat="44.1781" lon="6.92764">
        <ele>1641</ele>
        <time>2017-08-24T10:31:54Z</time>
      </trkpt>
      <trkpt lat="44.1782" lon="6.92748">
        <ele>1633</ele>
        <time>2017-08-24T10:33:54Z</time>
      </trkpt>
      <trkpt lat="44.17822" lon="6.9273">
        <ele>1629</ele>
        <time>2017-08-24T10:35:54Z</time>
      </trkpt>
      <trkpt lat="44.17829" lon="6.9272">
        <ele>1625</ele>
        <time>2017-08-24T10:37:54Z</time>
      </trkpt>
      <trkpt lat="44.17852" lon="6.92685">
        <ele>1617</ele>
        <time>2017-08-24T10:39:54Z</time>
      </trkpt>
      <trkpt lat="44.17877" lon="6.9267">
        <ele>1615</ele>
        <time>2017-08-24T10:41:54Z</time>
      </trkpt>
      <trkpt lat="44.17884" lon="6.92687">
        <ele>1621</ele>
        <time>2017-08-24T10:43:54Z</time>
      </trkpt>
      <trkpt lat="44.17893" lon="6.92668">
        <ele>1615</ele>
        <time>2017-08-24T10:45:54Z</time>
      </trkpt>
      <trkpt lat="44.1793" lon="6.92671">
        <ele>1617</ele>
        <time>2017-08-24T10:47:54Z</time>
      </trkpt>
      <trkpt lat="44.1798" lon="6.92674">
        <ele>1616</ele>
        <time>2017-08-24T10:49:54Z</time>
      </trkpt>
      <trkpt lat="44.18023" lon="6.92674">
        <ele>1611</ele>
        <time>2017-08-24T10:51:54Z</time>
      </trkpt>
      <trkpt lat="44.18057" lon="6.92686">
        <ele>1609</ele>
        <time>2017-08-24T10:53:54Z</time>
      </trkpt>
      <trkpt lat="44.18087" lon="6.92703">
        <ele>1611</ele>
        <time>2017-08-24T10:55:54Z</time>
      </trkpt>
      <trkpt lat="44.18129" lon="6.92692">
        <ele>1605</ele>
        <time>2017-08-24T10:57:54Z</time>
      </trkpt>
      <trkpt lat="44.1816" lon="6.92683">
        <ele>1600</ele>
        <time>2017-08-24T10:59:54Z</time>
      </trkpt>
      <trkpt lat="44.18193" lon="6.92675">
        <ele>1592</ele>
        <time>2017-08-24T11:01:54Z</time>
      </trkpt>
      <trkpt lat="44.18232" lon="6.9269">
        <ele>1592</ele>
        <time>2017-08-24T11:03:54Z</time>
      </trkpt>
      <trkpt lat="44.18256" lon="6.92684">
        <ele>1585</ele>
        <time>2017-08-24T11:05:54Z</time>
      </trkpt>
      <trkpt lat="44.18281" lon="6.92681">
        <ele>1579</ele>
        <time>2017-08-24T11:07:54Z</time>
      </trkpt>
      <trkpt lat="44.18317" lon="6.92661">
        <ele>1563</ele>
        <time>2017-08-24T11:09:54Z</time>
      </trkpt>
      <trkpt lat="44.18328" lon="6.92676">
        <ele>1566</ele>
        <time>2017-08-24T11:11:54Z</time>
      </trkpt>
      <trkpt lat="44.18358" lon="6.92672">
        <ele>1558</ele>
        <time>2017-08-24T11:13:54Z</time>
      </trkpt>
      <trkpt lat="44.18375" lon="6.92659">
        <ele>1550</ele>
        <time>2017-08-24T11:15:54Z</time>
      </trkpt>
      <trkpt lat="44.18394" lon="6.92649">
        <ele>1543</ele>
        <time>2017-08-24T11:17:54Z</time>
      </trkpt>
      <trkpt lat="44.18422" lon="6.92652">
        <ele>1538</ele>
        <time>2017-08-24T11:19:54Z</time>
      </trkpt>
      <trkpt lat="44.18454" lon="6.92659">
        <ele>1531</ele>
        <time>2017-08-24T11:21:54Z</time>
      </trkpt>
      <trkpt lat="44.18476" lon="6.92664">
        <ele>1526</ele>
        <time>2017-08-24T11:23:54Z</time>
      </trkpt>
      <trkpt lat="44.18483" lon="6.92676">
        <ele>1528</ele>
        <time>2017-08-24T11:25:54Z</time>
      </trkpt>
      <trkpt lat="44.18516" lon="6.9266">
        <ele>1516</ele>
        <time>2017-08-24T11:27:54Z</time>
      </trkpt>
      <trkpt lat="44.18559" lon="6.92656">
        <ele>1512</ele>
        <time>2017-08-24T11:29:54Z</time>
      </trkpt>
      <trkpt lat="44.18565" lon="6.92636">
        <ele>1507</ele>
        <time>2017-08-24T11:31:54Z</time>
      </trkpt>
      <trkpt lat="44.18588" lon="6.92605">
        <ele>1497</ele>
        <time>2017-08-24T11:33:54Z</time>
      </trkpt>
      <trkpt lat="44.18608" lon="6.92609">
        <ele>1495</ele>
        <time>2017-08-24T11:35:54Z</time>
      </trkpt>
      <trkpt lat="44.18632" lon="6.92614">
        <ele>1492</ele>
        <time>2017-08-24T11:37:54Z</time>
      </trkpt>
      <trkpt lat="44.18643" lon="6.92638">
        <ele>1492</ele>
        <time>2017-08-24T11:39:54Z</time>
      </trkpt>
      <trkpt lat="44.18656" lon="6.92639">
        <ele>1489</ele>
        <time>2017-08-24T11:41:54Z</time>
      </trkpt>
      <trkpt lat="44.18666" lon="6.92653">
        <ele>1487</ele>
        <time>2017-08-24T11:43:54Z</time>
      </trkpt>
      <trkpt lat="44.18678" lon="6.92648">
        <ele>1486</ele>
        <time>2017-08-24T11:45:54Z</time>
      </trkpt>
      <trkpt lat="44.18689" lon="6.9265">
        <ele>1484</ele>
        <time>2017-08-24T11:47:54Z</time>
      </trkpt>
      <trkpt lat="44.18691" lon="6.9267">
        <ele>1483</ele>
        <time>2017-08-24T11:49:54Z</time>
      </trkpt>
      <trkpt lat="44.18708" lon="6.92688">
        <ele>1483</ele>
        <time>2017-08-24T11:51:54Z</time>
      </trkpt>
      <trkpt lat="44.18721" lon="6.92713">
        <ele>1482</ele>
        <time>2017-08-24T11:53:54Z</time>
      </trkpt>
      <trkpt lat="44.18737" lon="6.92709">
        <ele>1476</ele>
        <time>2017-08-24T11:55:54Z</time>
      </trkpt>
      <trkpt lat="44.1874" lon="6.92724">
        <ele>1476</ele>
        <time>2017-08-24T11:57:54Z</time>
      </trkpt>
      <trkpt lat="44.18754" lon="6.92728">
        <ele>1473</ele>
        <time>2017-08-24T11:59:54Z</time>
      </trkpt>
      <trkpt lat="44.18757" lon="6.92743">
        <ele>1473</ele>
        <time>2017-08-24T12:01:54Z</time>
      </trkpt>
      <trkpt lat="44.18769" lon="6.92753">
        <ele>1475</ele>
        <time>2017-08-24T12:03:54Z</time>
      </trkpt>
      <trkpt lat="44.18791" lon="6.92745">
        <ele>1477</ele>
        <time>2017-08-24T12:05:54Z</time>
      </trkpt>
      <trkpt lat="44.18787" lon="6.92788">
        <ele>1478</ele>
        <time>2017-08-24T12:07:54Z</time>
      </trkpt>
      <trkpt lat="44.1879" lon="6.92802">
        <ele>1479</ele>
        <time>2017-08-24T12:09:54Z</time>
      </trkpt>
      <trkpt lat="44.188" lon="6.92814">
        <ele>1480</ele>
        <time>2017-08-24T12:11:54Z</time>
      </trkpt>
      <trkpt lat="44.1882" lon="6.92804">
        <ele>1483</ele>
        <time>2017-08-24T12:13:54Z</time>
      </trkpt>
      <trkpt lat="44.18853" lon="6.92786">
        <ele>1490</ele>
        <time>2017-08-24T12:15:54Z</time>
      </trkpt>
      <trkpt lat="44.18875" lon="6.92762">
        <ele>1497</ele>
        <time>2017-08-24T12:17:54Z</time>
      </trkpt>
      <trkpt lat="44.1889" lon="6.92754">
        <ele>1502</ele>
        <time>2017-08-24T12:19:54Z</time>
      </trkpt>
      <trkpt lat="44.18896" lon="6.92774">
        <ele>1504</ele>
        <time>2017-08-24T12:21:54Z</time>
      </trkpt>
      <trkpt lat="44.18893" lon="6.92836">
        <ele>1502</ele>
        <time>2017-08-24T12:23:54Z</time>
      </trkpt>
      <trkpt lat="44.18891" lon="6.92859">
        <ele>1501</ele>
        <time>2017-08-24T12:25:54Z</time>
      </trkpt>
      <trkpt lat="44.18903" lon="6.92872">
        <ele>1503</ele>
        <time>2017-08-24T12:27:54Z</time>
      </trkpt>
      <trkpt lat="44.18919" lon="6.92876">
        <ele>1507</ele>
        <time>2017-08-24T12:29:54Z</time>
      </trkpt>
      <trkpt lat="44.1893" lon="6.92878">
        <ele>1510</ele>
        <time>2017-08-24T12:31:54Z</time>
      </trkpt>
      <trkpt lat="44.1895" lon="6.92871">
        <ele>1516</ele>
        <time>2017-08-24T12:33:54Z</time>
      </trkpt>
      <trkpt lat="44.18958" lon="6.92839">
        <ele>1519</ele>
        <time>2017-08-24T12:35:54Z</time>
      </trkpt>
      <trkpt lat="44.18958" lon="6.92814">
        <ele>1520</ele>
        <time>2017-08-24T12:37:54Z</time>
      </trkpt>
      <trkpt lat="44.18966" lon="6.92798">
        <ele>1523</ele>
        <time>2017-08-24T12:39:54Z</time>
      </trkpt>
      <trkpt lat="44.18977" lon="6.92779">
        <ele>1526</ele>
        <time>2017-08-24T12:41:54Z</time>
      </trkpt>
      <trkpt lat="44.18991" lon="6.92776">
        <ele>1530</ele>
        <time>2017-08-24T12:43:54Z</time>
      </trkpt>
      <trkpt lat="44.19006" lon="6.9275">
        <ele>1536</ele>
        <time>2017-08-24T12:45:54Z</time>
      </trkpt>
      <trkpt lat="44.19016" lon="6.92743">
        <ele>1541</ele>
        <time>2017-08-24T12:47:54Z</time>
      </trkpt>
      <trkpt lat="44.19028" lon="6.92748">
        <ele>1546</ele>
        <time>2017-08-24T12:49:54Z</time>
      </trkpt>
      <trkpt lat="44.19031" lon="6.92726">
        <ele>1548</ele>
        <time>2017-08-24T12:51:54Z</time>
      </trkpt>
      <trkpt lat="44.19043" lon="6.92727">
        <ele>1552</ele>
        <time>2017-08-24T12:53:54Z</time>
      </trkpt>
      <trkpt lat="44.19055" lon="6.92738">
        <ele>1557</ele>
        <time>2017-08-24T12:55:54Z</time>
      </trkpt>
      <trkpt lat="44.19054" lon="6.92769">
        <ele>1556</ele>
        <time>2017-08-24T12:57:54Z</time>
      </trkpt>
      <trkpt lat="44.19069" lon="6.92808">
        <ele>1564</ele>
        <time>2017-08-24T12:59:54Z</time>
      </trkpt>
      <trkpt lat="44.19071" lon="6.92834">
        <ele>1566</ele>
        <time>2017-08-24T13:01:54Z</time>
      </trkpt>
      <trkpt lat="44.19078" lon="6.92856">
        <ele>1571</ele>
        <time>2017-08-24T13:03:54Z</time>
      </trkpt>
      <trkpt lat="44.19088" lon="6.92872">
        <ele>1578</ele>
        <time>2017-08-24T13:05:54Z</time>
      </trkpt>
      <trkpt lat="44.19093" lon="6.92885">
        <ele>1582</ele>
        <time>2017-08-24T13:07:54Z</time>
      </trkpt>
      <trkpt lat="44.19095" lon="6.92904">
        <ele>1584</ele>
        <time>2017-08-24T13:09:54Z</time>
      </trkpt>
      <trkpt lat="44.19091" lon="6.92935">
        <ele>1583</ele>
        <time>2017-08-24T13:11:54Z</time>
      </trkpt>
      <trkpt lat="44.19087" lon="6.92951">
        <ele>1581</ele>
        <time>2017-08-24T13:13:54Z</time>
      </trkpt>
      <trkpt lat="44.19093" lon="6.92969">
        <ele>1584</ele>
        <time>2017-08-24T13:15:54Z</time>
      </trkpt>
      <trkpt lat="44.19114" lon="6.92964">
        <ele>1595</ele>
        <time>2017-08-24T13:17:54Z</time>
      </trkpt>
      <trkpt lat="44.19116" lon="6.92983">
        <ele>1596</ele>
        <time>2017-08-24T13:19:54Z</time>
      </trkpt>
      <trkpt lat="44.1913" lon="6.92987">
        <ele>1604</ele>
        <time>2017-08-24T13:21:54Z</time>
      </trkpt>
      <trkpt lat="44.19146" lon="6.93004">
        <ele>1612</ele>
        <time>2017-08-24T13:23:54Z</time>
      </trkpt>
      <trkpt lat="44.19143" lon="6.92992">
        <ele>1611</ele>
        <time>2017-08-24T13:25:54Z</time>
      </trkpt>
      <trkpt lat="44.19155" lon="6.92976">
        <ele>1617</ele>
        <time>2017-08-24T13:27:54Z</time>
      </trkpt>
      <trkpt lat="44.19166" lon="6.92985">
        <ele>1623</ele>
        <time>2017-08-24T13:29:54Z</time>
      </trkpt>
      <trkpt lat="44.19186" lon="6.92965">
        <ele>1630</ele>
        <time>2017-08-24T13:31:54Z</time>
      </trkpt>
      <trkpt lat="44.19196" lon="6.92963">
        <ele>1633</ele>
        <time>2017-08-24T13:33:54Z</time>
      </trkpt>
      <trkpt lat="44.19208" lon="6.92977">
        <ele>1637</ele>
        <time>2017-08-24T13:35:54Z</time>
      </trkpt>
      <trkpt lat="44.19213" lon="6.92963">
        <ele>1639</ele>
        <time>2017-08-24T13:37:54Z</time>
      </trkpt>
      <trkpt lat="44.19219" lon="6.92967">
        <ele>1641</ele>
        <time>2017-08-24T13:39:54Z</time>
      </trkpt>
      <trkpt lat="44.19227" lon="6.92936">
        <ele>1646</ele>
        <time>2017-08-24T13:41:54Z</time>
      </trkpt>
      <trkpt lat="44.19241" lon="6.9291">
        <ele>1651</ele>
        <time>2017-08-24T13:43:54Z</time>
      </trkpt>
      <trkpt lat="44.19264" lon="6.92893">
        <ele>1656</ele>
        <time>2017-08-24T13:45:54Z</time>
      </trkpt>
      <trkpt lat="44.19285" lon="6.92856">
        <ele>1659</ele>
        <time>2017-08-24T13:47:54Z</time>
      </trkpt>
      <trkpt lat="44.19299" lon="6.92857">
        <ele>1662</ele>
        <time>2017-08-24T13:49:54Z</time>
      </trkpt>
      <trkpt lat="44.19343" lon="6.92837">
        <ele>1674</ele>
        <time>2017-08-24T13:51:54Z</time>
      </trkpt>
      <trkpt lat="44.19362" lon="6.9284">
        <ele>1679</ele>
        <time>2017-08-24T13:53:54Z</time>
      </trkpt>
      <trkpt lat="44.19381" lon="6.92862">
        <ele>1683</ele>
        <time>2017-08-24T13:55:54Z</time>
      </trkpt>
      <trkpt lat="44.1942" lon="6.92913">
        <ele>1685</ele>
        <time>2017-08-24T13:57:54Z</time>
      </trkpt>
      <trkpt lat="44.19442" lon="6.92934">
        <ele>1686</ele>
        <time>2017-08-24T13:59:54Z</time>
      </trkpt>
      <trkpt lat="44.1945" lon="6.92948">
        <ele>1684</ele>
        <time>2017-08-24T14:01:54Z</time>
      </trkpt>
      <trkpt lat="44.1946" lon="6.92945">
        <ele>1687</ele>
        <time>2017-08-24T14:03:54Z</time>
      </trkpt>
      <trkpt lat="44.19463" lon="6.92923">
        <ele>1694</ele>
        <time>2017-08-24T14:05:54Z</time>
      </trkpt>
      <trkpt lat="44.19467" lon="6.92899">
        <ele>1700</ele>
        <time>2017-08-24T14:07:54Z</time>
      </trkpt>
      <trkpt lat="44.19478" lon="6.92867">
        <ele>1709</ele>
        <time>2017-08-24T14:09:54Z</time>
      </trkpt>
      <trkpt lat="44.1949" lon="6.92852">
        <ele>1715</ele>
        <time>2017-08-24T14:11:54Z</time>
      </trkpt>
      <trkpt lat="44.19517" lon="6.92848">
        <ele>1723</ele>
        <time>2017-08-24T14:13:54Z</time>
      </trkpt>
      <trkpt lat="44.19554" lon="6.92831">
        <ele>1738</ele>
        <time>2017-08-24T14:15:54Z</time>
      </trkpt>
      <trkpt lat="44.19571" lon="6.92821">
        <ele>1745</ele>
        <time>2017-08-24T14:17:54Z</time>
      </trkpt>
      <trkpt lat="44.19575" lon="6.92846">
        <ele>1739</ele>
        <time>2017-08-24T14:19:54Z</time>
      </trkpt>
      <trkpt lat="44.19599" lon="6.92848">
        <ele>1741</ele>
        <time>2017-08-24T14:21:54Z</time>
      </trkpt>
      <trkpt lat="44.19634" lon="6.92834">
        <ele>1749</ele>
        <time>2017-08-24T14:23:54Z</time>
      </trkpt>
      <trkpt lat="44.1962" lon="6.92819">
        <ele>1752</ele>
        <time>2017-08-24T14:25:54Z</time>
      </trkpt>
      <trkpt lat="44.1966" lon="6.92813">
        <ele>1756</ele>
        <time>2017-08-24T14:27:54Z</time>
      </trkpt>
      <trkpt lat="44.19681" lon="6.92803">
        <ele>1761</ele>
        <time>2017-08-24T14:29:54Z</time>
      </trkpt>
      <trkpt lat="44.19687" lon="6.92757">
        <ele>1774</ele>
        <time>2017-08-24T14:31:54Z</time>
      </trkpt>
      <trkpt lat="44.197" lon="6.9274">
        <ele>1779</ele>
        <time>2017-08-24T14:33:54Z</time>
      </trkpt>
      <trkpt lat="44.19719" lon="6.92734">
        <ele>1781</ele>
        <time>2017-08-24T14:35:54Z</time>
      </trkpt>
      <trkpt lat="44.19753" lon="6.92742">
        <ele>1780</ele>
        <time>2017-08-24T14:37:54Z</time>
      </trkpt>
      <trkpt lat="44.19774" lon="6.92757">
        <ele>1773</ele>
        <time>2017-08-24T14:39:54Z</time>
      </trkpt>
      <trkpt lat="44.19778" lon="6.92768">
        <ele>1770</ele>
        <time>2017-08-24T14:41:54Z</time>
      </trkpt>
      <trkpt lat="44.19808" lon="6.92771">
        <ele>1764</ele>
        <time>2017-08-24T14:43:54Z</time>
      </trkpt>
      <trkpt lat="44.1982" lon="6.92749">
        <ele>1766</ele>
        <time>2017-08-24T14:45:54Z</time>
      </trkpt>
      <trkpt lat="44.19826" lon="6.92734">
        <ele>1766</ele>
        <time>2017-08-24T14:47:54Z</time>
      </trkpt>
      <trkpt lat="44.19836" lon="6.9271">
        <ele>1767</ele>
        <time>2017-08-24T14:49:54Z</time>
      </trkpt>
      <trkpt lat="44.1985" lon="6.92687">
        <ele>1767</ele>
        <time>2017-08-24T14:51:54Z</time>
      </trkpt>
      <trkpt lat="44.19868" lon="6.92679">
        <ele>1764</ele>
        <time>2017-08-24T14:53:54Z</time>
      </trkpt>
      <trkpt lat="44.19889" lon="6.92667">
        <ele>1762</ele>
        <time>2017-08-24T14:55:54Z</time>
      </trkpt>
      <trkpt lat="44.19914" lon="6.92675">
        <ele>1756</ele>
        <time>2017-08-24T14:57:54Z</time>
      </trkpt>
      <trkpt lat="44.19926" lon="6.9269">
        <ele>1754</ele>
        <time>2017-08-24T14:59:54Z</time>
      </trkpt>
      <trkpt lat="44.19935" lon="6.92696">
        <ele>1755</ele>
        <time>2017-08-24T15:01:54Z</time>
      </trkpt>
      <trkpt lat="44.19953" lon="6.92689">
        <ele>1759</ele>
        <time>2017-08-24T15:03:54Z</time>
      </trkpt>
      <trkpt lat="44.19954" lon="6.92716">
        <ele>1756</ele>
        <time>2017-08-24T15:05:54Z</time>
      </trkpt>
      <trkpt lat="44.19975" lon="6.92746">
        <ele>1756</ele>
        <time>2017-08-24T15:07:54Z</time>
      </trkpt>
      <trkpt lat="44.19991" lon="6.92762">
        <ele>1759</ele>
        <time>2017-08-24T15:09:54Z</time>
      </trkpt>
      <trkpt lat="44.20005" lon="6.92789">
        <ele>1759</ele>
        <time>2017-08-24T15:11:54Z</time>
      </trkpt>
      <trkpt lat="44.20015" lon="6.9282">
        <ele>1759</ele>
        <time>2017-08-24T15:13:54Z</time>
      </trkpt>
      <trkpt lat="44.20021" lon="6.92854">
        <ele>1758</ele>
        <time>2017-08-24T15:15:54Z</time>
      </trkpt>
      <trkpt lat="44.20039" lon="6.9286">
        <ele>1763</ele>
        <time>2017-08-24T15:17:54Z</time>
      </trkpt>
      <trkpt lat="44.20026" lon="6.92884">
        <ele>1758</ele>
        <time>2017-08-24T15:19:54Z</time>
      </trkpt>
      <trkpt lat="44.2003" lon="6.92957">
        <ele>1759</ele>
        <time>2017-08-24T15:21:54Z</time>
      </trkpt>
      <trkpt lat="44.20035" lon="6.93003">
        <ele>1761</ele>
        <time>2017-08-24T15:23:54Z</time>
      </trkpt>
      <trkpt lat="44.20024" lon="6.93077">
        <ele>1762</ele>
        <time>2017-08-24T15:25:54Z</time>
      </trkpt>
      <trkpt lat="44.20032" lon="6.93143">
        <ele>1769</ele>
        <time>2017-08-24T15:27:54Z</time>
      </trkpt>
      <trkpt lat="44.20028" lon="6.93184">
        <ele>1771</ele>
        <time>2017-08-24T15:29:54Z</time>
      </trkpt>
      <trkpt lat="44.2002" lon="6.93234">
        <ele>1772</ele>
        <time>2017-08-24T15:31:54Z</time>
      </trkpt>
      <trkpt lat="44.20025" lon="6.93268">
        <ele>1778</ele>
        <time>2017-08-24T15:33:54Z</time>
      </trkpt>
      <trkpt lat="44.20027" lon="6.93288">
        <ele>1783</ele>
        <time>2017-08-24T15:35:54Z</time>
      </trkpt>
      <trkpt lat="44.2" lon="6.93316">
        <ele>1780</ele>
        <time>2017-08-24T15:37:54Z</time>
      </trkpt>
      <trkpt lat="44.19983" lon="6.93348">
        <ele>1785</ele>
        <time>2017-08-24T15:39:54Z</time>
      </trkpt>
      <trkpt lat="44.19964" lon="6.93402">
        <ele>1793</ele>
        <time>2017-08-24T15:41:54Z</time>
      </trkpt>
      <trkpt lat="44.19983" lon="6.93429">
        <ele>1797</ele>
        <time>2017-08-24T15:43:54Z</time>
      </trkpt>
      <trkpt lat="44.20002" lon="6.9346">
        <ele>1801</ele>
        <time>2017-08-24T15:45:54Z</time>
      </trkpt>
      <trkpt lat="44.20001" lon="6.93477">
        <ele>1801</ele>
        <time>2017-08-24T15:47:54Z</time>
      </trkpt>
      <trkpt lat="44.20012" lon="6.93492">
        <ele>1805</ele>
        <time>2017-08-24T15:49:54Z</time>
      </trkpt>
      <trkpt lat="44.20033" lon="6.93539">
        <ele>1809</ele>
        <time>2017-08-24T15:51:54Z</time>
      </trkpt>
      <trkpt lat="44.20043" lon="6.93574">
        <ele>1811</ele>
        <time>2017-08-24T15:53:54Z</time>
      </trkpt>
      <trkpt lat="44.20049" lon="6.93603">
        <ele>1813</ele>
        <time>2017-08-24T15:55:54Z</time>
      </trkpt>
      <trkpt lat="44.20056" lon="6.93635">
        <ele>1814</ele>
        <time>2017-08-24T15:57:54Z</time>
      </trkpt>
      <trkpt lat="44.20069" lon="6.93653">
        <ele>1819</ele>
        <time>2017-08-24T15:59:54Z</time>
      </trkpt>
      <trkpt lat="44.20083" lon="6.93672">
        <ele>1826</ele>
        <time>2017-08-24T16:01:54Z</time>
      </trkpt>
      <trkpt lat="44.20086" lon="6.93725">
        <ele>1834</ele>
        <time>2017-08-24T16:03:54Z</time>
      </trkpt>
      <trkpt lat="44.20058" lon="6.93828">
        <ele>1838</ele>
        <time>2017-08-24T16:05:54Z</time>
      </trkpt>
      <trkpt lat="44.20045" lon="6.93863">
        <ele>1835</ele>
        <time>2017-08-24T16:07:54Z</time>
      </trkpt>
      <trkpt lat="44.20049" lon="6.93887">
        <ele>1838</ele>
        <time>2017-08-24T16:09:54Z</time>
      </trkpt>
      <trkpt lat="44.2006" lon="6.93926">
        <ele>1844</ele>
        <time>2017-08-24T16:11:54Z</time>
      </trkpt>
      <trkpt lat="44.20073" lon="6.93975">
        <ele>1851</ele>
        <time>2017-08-24T16:13:54Z</time>
      </trkpt>
      <trkpt lat="44.20088" lon="6.93985">
        <ele>1855</ele>
        <time>2017-08-24T16:15:54Z</time>
      </trkpt>
      <trkpt lat="44.20106" lon="6.9399">
        <ele>1857</ele>
        <time>2017-08-24T16:17:54Z</time>
      </trkpt>
      <trkpt lat="44.2013" lon="6.93984">
        <ele>1861</ele>
        <time>2017-08-24T16:19:54Z</time>
      </trkpt>
      <trkpt lat="44.20159" lon="6.93989">
        <ele>1863</ele>
        <time>2017-08-24T16:21:54Z</time>
      </trkpt>
      <trkpt lat="44.20183" lon="6.93989">
        <ele>1866</ele>
        <time>2017-08-24T16:23:54Z</time>
      </trkpt>
      <trkpt lat="44.20216" lon="6.9398">
        <ele>1873</ele>
        <time>2017-08-24T16:25:54Z</time>
      </trkpt>
      <trkpt lat="44.20259" lon="6.93958">
        <ele>1888</ele>
        <time>2017-08-24T16:27:54Z</time>
      </trkpt>
      <trkpt lat="44.20289" lon="6.93946">
        <ele>1898</ele>
        <time>2017-08-24T16:29:54Z</time>
      </trkpt>
      <trkpt lat="44.20306" lon="6.93945">
        <ele>1901</ele>
        <time>2017-08-24T16:31:54Z</time>
      </trkpt>
      <trkpt lat="44.20329" lon="6.93942">
        <ele>1906</ele>
        <time>2017-08-24T16:33:54Z</time>
      </trkpt>
      <trkpt lat="44.20366" lon="6.93955">
        <ele>1914</ele>
        <time>2017-08-24T16:35:54Z</time>
      </trkpt>
      <trkpt lat="44.20381" lon="6.93973">
        <ele>1913</ele>
        <time>2017-08-24T16:37:54Z</time>
      </trkpt>
      <trkpt lat="44.20404" lon="6.93992">
        <ele>1916</ele>
        <time>2017-08-24T16:39:54Z</time>
      </trkpt>
      <trkpt lat="44.20428" lon="6.94008">
        <ele>1918</ele>
        <time>2017-08-24T16:41:54Z</time>
      </trkpt>
      <trkpt lat="44.20443" lon="6.94009">
        <ele>1921</ele>
        <time>2017-08-24T16:43:54Z</time>
      </trkpt>
      <trkpt lat="44.20465" lon="6.94004">
        <ele>1927</ele>
        <time>2017-08-24T16:45:54Z</time>
      </trkpt>
      <trkpt lat="44.20492" lon="6.93995">
        <ele>1936</ele>
        <time>2017-08-24T16:47:54Z</time>
      </trkpt>
      <trkpt lat="44.20509" lon="6.93983">
        <ele>1945</ele>
        <time>2017-08-24T16:49:54Z</time>
      </trkpt>
      <trkpt lat="44.20548" lon="6.93986">
        <ele>1955</ele>
        <time>2017-08-24T16:51:54Z</time>
      </trkpt>
      <trkpt lat="44.20578" lon="6.93994">
        <ele>1960</ele>
        <time>2017-08-24T16:53:54Z</time>
      </trkpt>
      <trkpt lat="44.20612" lon="6.94007">
        <ele>1968</ele>
        <time>2017-08-24T16:55:54Z</time>
      </trkpt>
      <trkpt lat="44.20639" lon="6.94025">
        <ele>1974</ele>
        <time>2017-08-24T16:57:54Z</time>
      </trkpt>
      <trkpt lat="44.20676" lon="6.94043">
        <ele>1985</ele>
        <time>2017-08-24T16:59:54Z</time>
      </trkpt>
      <trkpt lat="44.20699" lon="6.94076">
        <ele>1985</ele>
        <time>2017-08-24T17:01:54Z</time>
      </trkpt>
      <trkpt lat="44.20717" lon="6.94097">
        <ele>1989</ele>
        <time>2017-08-24T17:03:54Z</time>
      </trkpt>
      <trkpt lat="44.20757" lon="6.94171">
        <ele>1997</ele>
        <time>2017-08-24T17:05:54Z</time>
      </trkpt>
      <trkpt lat="44.20771" lon="6.94203">
        <ele>1997</ele>
        <time>2017-08-24T17:07:54Z</time>
      </trkpt>
      <trkpt lat="44.20795" lon="6.94259">
        <ele>1994</ele>
        <time>2017-08-24T17:09:54Z</time>
      </trkpt>
      <trkpt lat="44.20821" lon="6.94267">
        <ele>2002</ele>
        <time>2017-08-24T17:11:54Z</time>
      </trkpt>
      <trkpt lat="44.20845" lon="6.94283">
        <ele>2006</ele>
        <time>2017-08-24T17:13:54Z</time>
      </trkpt>
      <trkpt lat="44.20861" lon="6.9431">
        <ele>2004</ele>
        <time>2017-08-24T17:15:54Z</time>
      </trkpt>
      <trkpt lat="44.20887" lon="6.94326">
        <ele>2006</ele>
        <time>2017-08-24T17:17:54Z</time>
      </trkpt>
      <trkpt lat="44.20897" lon="6.94307">
        <ele>2011</ele>
        <time>2017-08-24T17:19:54Z</time>
      </trkpt>
      <trkpt lat="44.20906" lon="6.943">
        <ele>2013</ele>
        <time>2017-08-24T17:21:54Z</time>
      </trkpt>
      <trkpt lat="44.20926" lon="6.94297">
        <ele>2013</ele>
        <time>2017-08-24T17:23:54Z</time>
      </trkpt>
      <trkpt lat="44.20939" lon="6.94282">
        <ele>2011</ele>
        <time>2017-08-24T17:25:54Z</time>
      </trkpt>
      <trkpt lat="44.20947" lon="6.94305">
        <ele>2006</ele>
        <time>2017-08-24T17:27:54Z</time>
      </trkpt>
      <trkpt lat="44.20956" lon="6.94319">
        <ele>2002</ele>
        <time>2017-08-24T17:29:54Z</time>
      </trkpt>
      <trkpt lat="44.20971" lon="6.94338">
        <ele>1997</ele>
        <time>2017-08-24T17:31:54Z</time>
      </trkpt>
      <trkpt lat="44.21013" lon="6.94391">
        <ele>1985</ele>
        <time>2017-08-24T17:33:54Z</time>
      </trkpt>
      <trkpt lat="44.21029" lon="6.94426">
        <ele>1980</ele>
        <time>2017-08-24T17:35:54Z</time>
      </trkpt>
      <trkpt lat="44.21048" lon="6.94447">
        <ele>1976</ele>
        <time>2017-08-24T17:37:54Z</time>
      </trkpt>
      <trkpt lat="44.21058" lon="6.94469">
        <ele>1974</ele>
        <time>2017-08-24T17:39:54Z</time>
      </trkpt>
      <trkpt lat="44.21065" lon="6.94455">
        <ele>1970</ele>
        <time>2017-08-24T17:41:54Z</time>
      </trkpt>
      <trkpt lat="44.21069" lon="6.94423">
        <ele>1966</ele>
        <time>2017-08-24T17:43:54Z</time>
      </trkpt>
      <trkpt lat="44.21071" lon="6.9438">
        <ele>1961</ele>
        <time>2017-08-24T17:45:54Z</time>
      </trkpt>
      <trkpt lat="44.21102" lon="6.94324">
        <ele>1944</ele>
        <time>2017-08-24T17:47:54Z</time>
      </trkpt>
      <trkpt lat="44.21127" lon="6.94275">
        <ele>1934</ele>
        <time>2017-08-24T17:49:54Z</time>
      </trkpt>
      <trkpt lat="44.21156" lon="6.94216">
        <ele>1926</ele>
        <time>2017-08-24T17:51:54Z</time>
      </trkpt>
      <trkpt lat="44.21225" lon="6.94109">
        <ele>1904</ele>
        <time>2017-08-24T17:53:54Z</time>
      </trkpt>
      <trkpt lat="44.21279" lon="6.94022">
        <ele>1884</ele>
        <time>2017-08-24T17:55:54Z</time>
      </trkpt>
      <trkpt lat="44.21295" lon="6.93983">
        <ele>1877</ele>
        <time>2017-08-24T17:57:54Z</time>
      </trkpt>
      <trkpt lat="44.21295" lon="6.93954">
        <ele>1873</ele>
        <time>2017-08-24T17:59:54Z</time>
      </trkpt>
      <trkpt lat="44.21303" lon="6.9394">
        <ele>1869</ele>
        <time>2017-08-24T18:01:54Z</time>
      </trkpt>
      <trkpt lat="44.21312" lon="6.93951">
        <ele>1867</ele>
        <time>2017-08-24T18:03:54Z</time>
      </trkpt>
      <trkpt lat="44.21315" lon="6.93971">
        <ele>1869</ele>
        <time>2017-08-24T18:05:54Z</time>
      </trkpt>
      <trkpt lat="44.21333" lon="6.93992">
        <ele>1866</ele>
        <time>2017-08-24T18:07:54Z</time>
      </trkpt>
      <trkpt lat="44.21348" lon="6.94025">
        <ele>1858</ele>
        <time>2017-08-24T18:09:54Z</time>
      </trkpt>
      <trkpt lat="44.21365" lon="6.94008">
        <ele>1855</ele>
        <time>2017-08-24T18:11:54Z</time>
      </trkpt>
      <trkpt lat="44.21384" lon="6.93974">
        <ele>1848</ele>
        <time>2017-08-24T18:13:54Z</time>
      </trkpt>
      <trkpt lat="44.21385" lon="6.93947">
        <ele>1845</ele>
        <time>2017-08-24T18:15:54Z</time>
      </trkpt>
      <trkpt lat="44.21381" lon="6.93912">
        <ele>1842</ele>
        <time>2017-08-24T18:17:54Z</time>
      </trkpt>
      <trkpt lat="44.21402" lon="6.93911">
        <ele>1836</ele>
        <time>2017-08-24T18:19:54Z</time>
      </trkpt>
      <trkpt lat="44.21416" lon="6.93938">
        <ele>1836</ele>
        <time>2017-08-24T18:21:54Z</time>
      </trkpt>
      <trkpt lat="44.21425" lon="6.93963">
        <ele>1834</ele>
        <time>2017-08-24T18:23:54Z</time>
      </trkpt>
      <trkpt lat="44.21446" lon="6.93981">
        <ele>1828</ele>
        <time>2017-08-24T18:25:54Z</time>
      </trkpt>
      <trkpt lat="44.21469" lon="6.93978">
        <ele>1820</ele>
        <time>2017-08-24T18:27:54Z</time>
      </trkpt>
      <trkpt lat="44.21505" lon="6.93955">
        <ele>1805</ele>
        <time>2017-08-24T18:29:54Z</time>
      </trkpt>
      <trkpt lat="44.21516" lon="6.93937">
        <ele>1799</ele>
        <time>2017-08-24T18:31:54Z</time>
      </trkpt>
      <trkpt lat="44.21514" lon="6.93912">
        <ele>1798</ele>
        <time>2017-08-24T18:33:54Z</time>
      </trkpt>
      <trkpt lat="44.21448" lon="6.93819">
        <ele>1796</ele>
        <time>2017-08-24T18:35:54Z</time>
      </trkpt>
      <trkpt lat="44.21402" lon="6.93771">
        <ele>1800</ele>
        <time>2017-08-24T18:37:54Z</time>
      </trkpt>
      <trkpt lat="44.21397" lon="6.93756">
        <ele>1799</ele>
        <time>2017-08-24T18:39:54Z</time>
      </trkpt>
      <trkpt lat="44.21412" lon="6.93691">
        <ele>1797</ele>
        <time>2017-08-24T18:41:54Z</time>
      </trkpt>
      <trkpt lat="44.21454" lon="6.93662">
        <ele>1784</ele>
        <time>2017-08-24T18:43:54Z</time>
      </trkpt>
      <trkpt lat="44.21496" lon="6.9364">
        <ele>1771</ele>
        <time>2017-08-24T18:45:54Z</time>
      </trkpt>
      <trkpt lat="44.21537" lon="6.93626">
        <ele>1759</ele>
        <time>2017-08-24T18:47:54Z</time>
      </trkpt>
      <trkpt lat="44.2157" lon="6.93609">
        <ele>1751</ele>
        <time>2017-08-24T18:49:54Z</time>
      </trkpt>
      <trkpt lat="44.21586" lon="6.93592">
        <ele>1749</ele>
        <time>2017-08-24T18:51:54Z</time>
      </trkpt>
      <trkpt lat="44.21601" lon="6.93572">
        <ele>1742</ele>
        <time>2017-08-24T18:53:54Z</time>
      </trkpt>
      <trkpt lat="44.2161" lon="6.93544">
        <ele>1737</ele>
        <time>2017-08-24T18:55:54Z</time>
      </trkpt>
      <trkpt lat="44.21608" lon="6.93514">
        <ele>1737</ele>
        <time>2017-08-24T18:57:54Z</time>
      </trkpt>
      <trkpt lat="44.21588" lon="6.9349">
        <ele>1742</ele>
        <time>2017-08-24T18:59:54Z</time>
      </trkpt>
      <trkpt lat="44.21558" lon="6.93474">
        <ele>1744</ele>
        <time>2017-08-24T19:01:54Z</time>
      </trkpt>
      <trkpt lat="44.21516" lon="6.93463">
        <ele>1750</ele>
        <time>2017-08-24T19:03:54Z</time>
      </trkpt>
      <trkpt lat="44.21498" lon="6.93451">
        <ele>1753</ele>
        <time>2017-08-24T19:05:54Z</time>
      </trkpt>
      <trkpt lat="44.21568" lon="6.93343">
        <ele>1741</ele>
        <time>2017-08-24T19:07:54Z</time>
      </trkpt>
      <trkpt lat="44.21588" lon="6.93319">
        <ele>1740</ele>
        <time>2017-08-24T19:09:54Z</time>
      </trkpt>
      <trkpt lat="44.21615" lon="6.93301">
        <ele>1737</ele>
        <time>2017-08-24T19:11:54Z</time>
      </trkpt>
      <trkpt lat="44.21676" lon="6.9329">
        <ele>1726</ele>
        <time>2017-08-24T19:13:54Z</time>
      </trkpt>
      <trkpt lat="44.21728" lon="6.93271">
        <ele>1721</ele>
        <time>2017-08-24T19:15:54Z</time>
      </trkpt>
      <trkpt lat="44.21764" lon="6.93266">
        <ele>1716</ele>
        <time>2017-08-24T19:17:54Z</time>
      </trkpt>
      <trkpt lat="44.21773" lon="6.93229">
        <ele>1719</ele>
        <time>2017-08-24T19:19:54Z</time>
      </trkpt>
      <trkpt lat="44.2179" lon="6.93208">
        <ele>1715</ele>
        <time>2017-08-24T19:21:54Z</time>
      </trkpt>
      <trkpt lat="44.21804" lon="6.93181">
        <ele>1710</ele>
        <time>2017-08-24T19:23:54Z</time>
      </trkpt>
      <trkpt lat="44.21814" lon="6.93147">
        <ele>1702</ele>
        <time>2017-08-24T19:25:54Z</time>
      </trkpt>
      <trkpt lat="44.21819" lon="6.93097">
        <ele>1692</ele>
        <time>2017-08-24T19:27:54Z</time>
      </trkpt>
      <trkpt lat="44.21825" lon="6.93052">
        <ele>1680</ele>
        <time>2017-08-24T19:29:54Z</time>
      </trkpt>
      <trkpt lat="44.21825" lon="6.92996">
        <ele>1669</ele>
        <time>2017-08-24T19:31:54Z</time>
      </trkpt>
      <trkpt lat="44.21834" lon="6.92847">
        <ele>1645</ele>
        <time>2017-08-24T19:33:54Z</time>
      </trkpt>
      <trkpt lat="44.21838" lon="6.92792">
        <ele>1640</ele>
        <time>2017-08-24T19:35:54Z</time>
      </trkpt>
      <trkpt lat="44.21874" lon="6.92876">
        <ele>1634</ele>
        <time>2017-08-24T19:37:54Z</time>
      </trkpt>
      <trkpt lat="44.21892" lon="6.92913">
        <ele>1629</ele>
        <time>2017-08-24T19:39:54Z</time>
      </trkpt>
      <trkpt lat="44.21913" lon="6.92922">
        <ele>1622</ele>
        <time>2017-08-24T19:41:54Z</time>
      </trkpt>
      <trkpt lat="44.21932" lon="6.92924">
        <ele>1618</ele>
        <time>2017-08-24T19:43:54Z</time>
      </trkpt>
      <trkpt lat="44.21964" lon="6.92914">
        <ele>1611</ele>
        <time>2017-08-24T19:45:54Z</time>
      </trkpt>
      <trkpt lat="44.21981" lon="6.929">
        <ele>1608</ele>
        <time>2017-08-24T19:47:54Z</time>
      </trkpt>
      <trkpt lat="44.21987" lon="6.92885">
        <ele>1606</ele>
        <time>2017-08-24T19:49:54Z</time>
      </trkpt>
      <trkpt lat="44.21974" lon="6.92812">
        <ele>1609</ele>
        <time>2017-08-24T19:51:54Z</time>
      </trkpt>
      <trkpt lat="44.21983" lon="6.92742">
        <ele>1613</ele>
        <time>2017-08-24T19:53:54Z</time>
      </trkpt>
      <trkpt lat="44.21984" lon="6.92696">
        <ele>1620</ele>
        <time>2017-08-24T19:55:54Z</time>
      </trkpt>
      <trkpt lat="44.21998" lon="6.92679">
        <ele>1623</ele>
        <time>2017-08-24T19:57:54Z</time>
      </trkpt>
      <trkpt lat="44.22019" lon="6.92665">
        <ele>1627</ele>
        <time>2017-08-24T19:59:54Z</time>
      </trkpt>
      <trkpt lat="44.22041" lon="6.92652">
        <ele>1631</ele>
        <time>2017-08-24T20:01:54Z</time>
      </trkpt>
      <trkpt lat="44.22064" lon="6.92651">
        <ele>1633</ele>
        <time>2017-08-24T20:03:54Z</time>
      </trkpt>
      <trkpt lat="44.22068" lon="6.92665">
        <ele>1630</ele>
        <time>2017-08-24T20:05:54Z</time>
      </trkpt>
      <trkpt lat="44.22089" lon="6.92689">
        <ele>1628</ele>
        <time>2017-08-24T20:07:54Z</time>
      </trkpt>
      <trkpt lat="44.22151" lon="6.92744">
        <ele>1631</ele>
        <time>2017-08-24T20:09:54Z</time>
      </trkpt>
      <trkpt lat="44.22185" lon="6.92772">
        <ele>1634</ele>
        <time>2017-08-24T20:11:54Z</time>
      </trkpt>
      <trkpt lat="44.22207" lon="6.92795">
        <ele>1634</ele>
        <time>2017-08-24T20:13:54Z</time>
      </trkpt>
      <trkpt lat="44.22249" lon="6.92856">
        <ele>1633</ele>
        <time>2017-08-24T20:15:54Z</time>
      </trkpt>
      <trkpt lat="44.22302" lon="6.92864">
        <ele>1628</ele>
        <time>2017-08-24T20:17:54Z</time>
      </trkpt>
      <trkpt lat="44.22321" lon="6.92845">
        <ele>1632</ele>
        <time>2017-08-24T20:19:54Z</time>
      </trkpt>
      <trkpt lat="44.22342" lon="6.92821">
        <ele>1636</ele>
        <time>2017-08-24T20:21:54Z</time>
      </trkpt>
      <trkpt lat="44.22365" lon="6.9281">
        <ele>1632</ele>
        <time>2017-08-24T20:23:54Z</time>
      </trkpt>
      <trkpt lat="44.22389" lon="6.92788">
        <ele>1631</ele>
        <time>2017-08-24T20:25:54Z</time>
      </trkpt>
      <trkpt lat="44.22412" lon="6.92783">
        <ele>1626</ele>
        <time>2017-08-24T20:27:54Z</time>
      </trkpt>
      <trkpt lat="44.22469" lon="6.92753">
        <ele>1611</ele>
        <time>2017-08-24T20:29:54Z</time>
      </trkpt>
      <trkpt lat="44.22493" lon="6.92737">
        <ele>1606</ele>
        <time>2017-08-24T20:31:54Z</time>
      </trkpt>
      <trkpt lat="44.22505" lon="6.92715">
        <ele>1609</ele>
        <time>2017-08-24T20:33:54Z</time>
      </trkpt>
      <trkpt lat="44.22518" lon="6.92703">
        <ele>1609</ele>
        <time>2017-08-24T20:35:54Z</time>
      </trkpt>
      <trkpt lat="44.22554" lon="6.92696">
        <ele>1601</ele>
        <time>2017-08-24T20:37:54Z</time>
      </trkpt>
      <trkpt lat="44.22596" lon="6.92759">
        <ele>1589</ele>
        <time>2017-08-24T20:39:54Z</time>
      </trkpt>
      <trkpt lat="44.22643" lon="6.92786">
        <ele>1595</ele>
        <time>2017-08-24T20:41:54Z</time>
      </trkpt>
      <trkpt lat="44.2265" lon="6.928">
        <ele>1596</ele>
        <time>2017-08-24T20:43:54Z</time>
      </trkpt>
      <trkpt lat="44.22659" lon="6.92807">
        <ele>1597</ele>
        <time>2017-08-24T20:45:54Z</time>
      </trkpt>
      <trkpt lat="44.22666" lon="6.92819">
        <ele>1599</ele>
        <time>2017-08-24T20:47:54Z</time>
      </trkpt>
      <trkpt lat="44.22666" lon="6.92843">
        <ele>1600</ele>
        <time>2017-08-24T20:49:54Z</time>
      </trkpt>
      <trkpt lat="44.22654" lon="6.92881">
        <ele>1601</ele>
        <time>2017-08-24T20:51:54Z</time>
      </trkpt>
      <trkpt lat="44.22637" lon="6.92902">
        <ele>1600</ele>
        <time>2017-08-24T20:53:54Z</time>
      </trkpt>
      <trkpt lat="44.2264" lon="6.92914">
        <ele>1602</ele>
        <time>2017-08-24T20:55:54Z</time>
      </trkpt>
      <trkpt lat="44.22644" lon="6.92936">
        <ele>1604</ele>
        <time>2017-08-24T20:57:54Z</time>
      </trkpt>
      <trkpt lat="44.2265" lon="6.9295">
        <ele>1605</ele>
        <time>2017-08-24T20:59:54Z</time>
      </trkpt>
      <trkpt lat="44.22661" lon="6.92978">
        <ele>1608</ele>
        <time>2017-08-24T21:01:54Z</time>
      </trkpt>
      <trkpt lat="44.22676" lon="6.93004">
        <ele>1611</ele>
        <time>2017-08-24T21:03:54Z</time>
      </trkpt>
      <trkpt lat="44.22702" lon="6.93047">
        <ele>1614</ele>
        <time>2017-08-24T21:05:54Z</time>
      </trkpt>
      <trkpt lat="44.22716" lon="6.93071">
        <ele>1615</ele>
        <time>2017-08-24T21:07:54Z</time>
      </trkpt>
      <trkpt lat="44.22717" lon="6.93092">
        <ele>1614</ele>
        <time>2017-08-24T21:09:54Z</time>
      </trkpt>
      <trkpt lat="44.22719" lon="6.93136">
        <ele>1613</ele>
        <time>2017-08-24T21:11:54Z</time>
      </trkpt>
      <trkpt lat="44.22726" lon="6.93174">
        <ele>1613</ele>
        <time>2017-08-24T21:13:54Z</time>
      </trkpt>
      <trkpt lat="44.22739" lon="6.9317">
        <ele>1614</ele>
        <time>2017-08-24T21:15:54Z</time>
      </trkpt>
      <trkpt lat="44.22742" lon="6.93109">
        <ele>1616</ele>
        <time>2017-08-24T21:17:54Z</time>
      </trkpt>
      <trkpt lat="44.22746" lon="6.93084">
        <ele>1618</ele>
        <time>2017-08-24T21:19:54Z</time>
      </trkpt>
      <trkpt lat="44.22755" lon="6.93068">
        <ele>1620</ele>
        <time>2017-08-24T21:21:54Z</time>
      </trkpt>
      <trkpt lat="44.22782" lon="6.93072">
        <ele>1623</ele>
        <time>2017-08-24T21:23:54Z</time>
      </trkpt>
      <trkpt lat="44.22793" lon="6.93066">
        <ele>1625</ele>
        <time>2017-08-24T21:25:54Z</time>
      </trkpt>
      <trkpt lat="44.22798" lon="6.93038">
        <ele>1628</ele>
        <time>2017-08-24T21:27:54Z</time>
      </trkpt>
      <trkpt lat="44.22802" lon="6.93019">
        <ele>1630</ele>
        <time>2017-08-24T21:29:54Z</time>
      </trkpt>
      <trkpt lat="44.22814" lon="6.93011">
        <ele>1632</ele>
        <time>2017-08-24T21:31:54Z</time>
      </trkpt>
      <trkpt lat="44.22828" lon="6.93017">
        <ele>1634</ele>
        <time>2017-08-24T21:33:54Z</time>
      </trkpt>
      <trkpt lat="44.22836" lon="6.93033">
        <ele>1634</ele>
        <time>2017-08-24T21:35:54Z</time>
      </trkpt>
      <trkpt lat="44.22836" lon="6.93054">
        <ele>1633</ele>
        <time>2017-08-24T21:37:54Z</time>
      </trkpt>
      <trkpt lat="44.22826" lon="6.9309">
        <ele>1629</ele>
        <time>2017-08-24T21:39:54Z</time>
      </trkpt>
      <trkpt lat="44.22825" lon="6.93122">
        <ele>1627</ele>
        <time>2017-08-24T21:41:54Z</time>
      </trkpt>
      <trkpt lat="44.22832" lon="6.93132">
        <ele>1628</ele>
        <time>2017-08-24T21:43:54Z</time>
      </trkpt>
      <trkpt lat="44.22843" lon="6.93134">
        <ele>1631</ele>
        <time>2017-08-24T21:45:54Z</time>
      </trkpt>
      <trkpt lat="44.22857" lon="6.93113">
        <ele>1635</ele>
        <time>2017-08-24T21:47:54Z</time>
      </trkpt>
      <trkpt lat="44.22887" lon="6.93077">
        <ele>1641</ele>
        <time>2017-08-24T21:49:54Z</time>
      </trkpt>
      <trkpt lat="44.22897" lon="6.93039">
        <ele>1641</ele>
        <time>2017-08-24T21:51:54Z</time>
      </trkpt>
      <trkpt lat="44.22904" lon="6.93017">
        <ele>1641</ele>
        <time>2017-08-24T21:53:54Z</time>
      </trkpt>
      <trkpt lat="44.2292" lon="6.92999">
        <ele>1641</ele>
        <time>2017-08-24T21:55:54Z</time>
      </trkpt>
      <trkpt lat="44.22933" lon="6.93007">
        <ele>1644</ele>
        <time>2017-08-24T21:57:54Z</time>
      </trkpt>
      <trkpt lat="44.22948" lon="6.93019">
        <ele>1647</ele>
        <time>2017-08-24T21:59:54Z</time>
      </trkpt>
      <trkpt lat="44.22968" lon="6.93038">
        <ele>1651</ele>
        <time>2017-08-24T22:01:54Z</time>
      </trkpt>
      <trkpt lat="44.22985" lon="6.93044">
        <ele>1654</ele>
        <time>2017-08-24T22:03:54Z</time>
      </trkpt>
      <trkpt lat="44.22998" lon="6.93034">
        <ele>1655</ele>
        <time>2017-08-24T22:05:54Z</time>
      </trkpt>
      <trkpt lat="44.23011" lon="6.93014">
        <ele>1658</ele>
        <time>2017-08-24T22:07:54Z</time>
      </trkpt>
      <trkpt lat="44.23024" lon="6.92976">
        <ele>1661</ele>
        <time>2017-08-24T22:09:54Z</time>
      </trkpt>
      <trkpt lat="44.23032" lon="6.92958">
        <ele>1664</ele>
        <time>2017-08-24T22:11:54Z</time>
      </trkpt>
      <trkpt lat="44.23029" lon="6.92916">
        <ele>1663</ele>
        <time>2017-08-24T22:13:54Z</time>
      </trkpt>
      <trkpt lat="44.23042" lon="6.9287">
        <ele>1670</ele>
        <time>2017-08-24T22:15:54Z</time>
      </trkpt>
      <trkpt lat="44.23049" lon="6.92841">
        <ele>1674</ele>
        <time>2017-08-24T22:17:54Z</time>
      </trkpt>
      <trkpt lat="44.23056" lon="6.92833">
        <ele>1677</ele>
        <time>2017-08-24T22:19:54Z</time>
      </trkpt>
      <trkpt lat="44.23066" lon="6.92836">
        <ele>1680</ele>
        <time>2017-08-24T22:21:54Z</time>
      </trkpt>
      <trkpt lat="44.23062" lon="6.92861">
        <ele>1677</ele>
        <time>2017-08-24T22:23:54Z</time>
      </trkpt>
      <trkpt lat="44.23062" lon="6.9288">
        <ele>1677</ele>
        <time>2017-08-24T22:25:54Z</time>
      </trkpt>
      <trkpt lat="44.23068" lon="6.92922">
        <ele>1677</ele>
        <time>2017-08-24T22:27:54Z</time>
      </trkpt>
      <trkpt lat="44.23078" lon="6.92951">
        <ele>1680</ele>
        <time>2017-08-24T22:29:54Z</time>
      </trkpt>
      <trkpt lat="44.23082" lon="6.92983">
        <ele>1681</ele>
        <time>2017-08-24T22:31:54Z</time>
      </trkpt>
      <trkpt lat="44.2308" lon="6.93006">
        <ele>1680</ele>
        <time>2017-08-24T22:33:54Z</time>
      </trkpt>
      <trkpt lat="44.23065" lon="6.9302">
        <ele>1676</ele>
        <time>2017-08-24T22:35:54Z</time>
      </trkpt>
      <trkpt lat="44.23058" lon="6.9302">
        <ele>1674</ele>
        <time>2017-08-24T22:37:54Z</time>
      </trkpt>
      <trkpt lat="44.23053" lon="6.93054">
        <ele>1674</ele>
        <time>2017-08-24T22:39:54Z</time>
      </trkpt>
      <trkpt lat="44.2305" lon="6.93079">
        <ele>1675</ele>
        <time>2017-08-24T22:41:54Z</time>
      </trkpt>
      <trkpt lat="44.23045" lon="6.93107">
        <ele>1673</ele>
        <time>2017-08-24T22:43:54Z</time>
      </trkpt>
      <trkpt lat="44.23046" lon="6.93141">
        <ele>1673</ele>
        <time>2017-08-24T22:45:54Z</time>
      </trkpt>
      <trkpt lat="44.23039" lon="6.93199">
        <ele>1663</ele>
        <time>2017-08-24T22:47:54Z</time>
      </trkpt>
      <trkpt lat="44.23058" lon="6.93179">
        <ele>1670</ele>
        <time>2017-08-24T22:49:54Z</time>
      </trkpt>
      <trkpt lat="44.23064" lon="6.9319">
        <ele>1668</ele>
        <time>2017-08-24T22:51:54Z</time>
      </trkpt>
      <trkpt lat="44.23078" lon="6.93194">
        <ele>1667</ele>
        <time>2017-08-24T22:53:54Z</time>
      </trkpt>
      <trkpt lat="44.23096" lon="6.93207">
        <ele>1664</ele>
        <time>2017-08-24T22:55:54Z</time>
      </trkpt>
      <trkpt lat="44.23112" lon="6.93223">
        <ele>1658</ele>
        <time>2017-08-24T22:57:54Z</time>
      </trkpt>
      <trkpt lat="44.23127" lon="6.93237">
        <ele>1653</ele>
        <time>2017-08-24T22:59:54Z</time>
      </trkpt>
      <trkpt lat="44.23138" lon="6.93247">
        <ele>1649</ele>
        <time>2017-08-24T23:01:54Z</time>
      </trkpt>
      <trkpt lat="44.23116" lon="6.9326">
        <ele>1644</ele>
        <time>2017-08-24T23:03:54Z</time>
      </trkpt>
      <trkpt lat="44.23134" lon="6.93272">
        <ele>1639</ele>
        <time>2017-08-24T23:05:54Z</time>
      </trkpt>
      <trkpt lat="44.23132" lon="6.93278">
        <ele>1637</ele>
        <time>2017-08-24T23:07:54Z</time>
      </trkpt>
      <trkpt lat="44.23123" lon="6.93283">
        <ele>1635</ele>
        <time>2017-08-24T23:09:54Z</time>
      </trkpt>
      <trkpt lat="44.23137" lon="6.93306">
        <ele>1626</ele>
        <time>2017-08-24T23:11:54Z</time>
      </trkpt>
      <trkpt lat="44.23149" lon="6.93319">
        <ele>1620</ele>
        <time>2017-08-24T23:13:54Z</time>
      </trkpt>
      <trkpt lat="44.23159" lon="6.93322">
        <ele>1618</ele>
        <time>2017-08-24T23:15:54Z</time>
      </trkpt>
      <trkpt lat="44.23141" lon="6.9333">
        <ele>1616</ele>
        <time>2017-08-24T23:17:54Z</time>
      </trkpt>
      <trkpt lat="44.23135" lon="6.93335">
        <ele>1615</ele>
        <time>2017-08-24T23:19:54Z</time>
      </trkpt>
      <trkpt lat="44.23145" lon="6.93343">
        <ele>1610</ele>
        <time>2017-08-24T23:21:54Z</time>
      </trkpt>
      <trkpt lat="44.2316" lon="6.93348">
        <ele>1607</ele>
        <time>2017-08-24T23:23:54Z</time>
      </trkpt>
      <trkpt lat="44.23171" lon="6.93346">
        <ele>1605</ele>
        <time>2017-08-24T23:25:54Z</time>
      </trkpt>
      <trkpt lat="44.23175" lon="6.93351">
        <ele>1601</ele>
        <time>2017-08-24T23:27:54Z</time>
      </trkpt>
      <trkpt lat="44.23173" lon="6.93362">
        <ele>1597</ele>
        <time>2017-08-24T23:29:54Z</time>
      </trkpt>
      <trkpt lat="44.2318" lon="6.93362">
        <ele>1594</ele>
        <time>2017-08-24T23:31:54Z</time>
      </trkpt>
      <trkpt lat="44.23181" lon="6.93369">
        <ele>1590</ele>
        <time>2017-08-24T23:33:54Z</time>
      </trkpt>
      <trkpt lat="44.23168" lon="6.93373">
        <ele>1594</ele>
        <time>2017-08-24T23:35:54Z</time>
      </trkpt>
      <trkpt lat="44.2318" lon="6.93377">
        <ele>1587</ele>
        <time>2017-08-24T23:37:54Z</time>
      </trkpt>
      <trkpt lat="44.23164" lon="6.93384">
        <ele>1590</ele>
        <time>2017-08-24T23:39:54Z</time>
      </trkpt>
      <trkpt lat="44.23164" lon="6.93391">
        <ele>1586</ele>
        <time>2017-08-24T23:41:54Z</time>
      </trkpt>
      <trkpt lat="44.23179" lon="6.93403">
        <ele>1576</ele>
        <time>2017-08-24T23:43:54Z</time>
      </trkpt>
      <trkpt lat="44.23187" lon="6.93411">
        <ele>1569</ele>
        <time>2017-08-24T23:45:54Z</time>
      </trkpt>
      <trkpt lat="44.23182" lon="6.9342">
        <ele>1567</ele>
        <time>2017-08-24T23:47:54Z</time>
      </trkpt>
      <trkpt lat="44.23186" lon="6.93426">
        <ele>1562</ele>
        <time>2017-08-24T23:49:54Z</time>
      </trkpt>
      <trkpt lat="44.232" lon="6.93424">
        <ele>1558</ele>
        <time>2017-08-24T23:51:54Z</time>
      </trkpt>
      <trkpt lat="44.23193" lon="6.93433">
        <ele>1556</ele>
        <time>2017-08-24T23:53:54Z</time>
      </trkpt>
      <trkpt lat="44.23196" lon="6.93437">
        <ele>1553</ele>
        <time>2017-08-24T23:55:54Z</time>
      </trkpt>
      <trkpt lat="44.23226" lon="6.93428">
        <ele>1547</ele>
        <time>2017-08-24T23:57:54Z</time>
      </trkpt>
      <trkpt lat="44.23233" lon="6.93429">
        <ele>1544</ele>
        <time>2017-08-24T23:59:54Z</time>
      </trkpt>
      <trkpt lat="44.23234" lon="6.9344">
        <ele>1539</ele>
        <time>2017-08-25T00:01:54Z</time>
      </trkpt>
      <trkpt lat="44.23231" lon="6.93447">
        <ele>1537</ele>
        <time>2017-08-25T00:03:54Z</time>
      </trkpt>
      <trkpt lat="44.23236" lon="6.9345">
        <ele>1534</ele>
        <time>2017-08-25T00:05:54Z</time>
      </trkpt>
      <trkpt lat="44.23239" lon="6.93454">
        <ele>1531</ele>
        <time>2017-08-25T00:07:54Z</time>
      </trkpt>
      <trkpt lat="44.23241" lon="6.93445">
        <ele>1534</ele>
        <time>2017-08-25T00:09:54Z</time>
      </trkpt>
      <trkpt lat="44.23248" lon="6.93455">
        <ele>1528</ele>
        <time>2017-08-25T00:11:54Z</time>
      </trkpt>
      <trkpt lat="44.23243" lon="6.93465">
        <ele>1525</ele>
        <time>2017-08-25T00:13:54Z</time>
      </trkpt>
      <trkpt lat="44.23247" lon="6.93465">
        <ele>1524</ele>
        <time>2017-08-25T00:15:54Z</time>
      </trkpt>
      <trkpt lat="44.23251" lon="6.93477">
        <ele>1518</ele>
        <time>2017-08-25T00:17:54Z</time>
      </trkpt>
      <trkpt lat="44.23257" lon="6.93485">
        <ele>1512</ele>
        <time>2017-08-25T00:19:54Z</time>
      </trkpt>
      <trkpt lat="44.23254" lon="6.93492">
        <ele>1511</ele>
        <time>2017-08-25T00:21:54Z</time>
      </trkpt>
      <trkpt lat="44.23259" lon="6.93491">
        <ele>1509</ele>
        <time>2017-08-25T00:23:54Z</time>
      </trkpt>
      <trkpt lat="44.23262" lon="6.93505">
        <ele>1503</ele>
        <time>2017-08-25T00:25:54Z</time>
      </trkpt>
      <trkpt lat="44.2327" lon="6.93506">
        <ele>1499</ele>
        <time>2017-08-25T00:27:54Z</time>
      </trkpt>
      <trkpt lat="44.23264" lon="6.93517">
        <ele>1498</ele>
        <time>2017-08-25T00:29:54Z</time>
      </trkpt>
      <trkpt lat="44.23272" lon="6.93518">
        <ele>1495</ele>
        <time>2017-08-25T00:31:54Z</time>
      </trkpt>
      <trkpt lat="44.23271" lon="6.93528">
        <ele>1492</ele>
        <time>2017-08-25T00:33:54Z</time>
      </trkpt>
      <trkpt lat="44.23277" lon="6.93532">
        <ele>1489</ele>
        <time>2017-08-25T00:35:54Z</time>
      </trkpt>
      <trkpt lat="44.23275" lon="6.93546">
        <ele>1485</ele>
        <time>2017-08-25T00:37:54Z</time>
      </trkpt>
      <trkpt lat="44.23277" lon="6.93559">
        <ele>1480</ele>
        <time>2017-08-25T00:39:54Z</time>
      </trkpt>
      <trkpt lat="44.23277" lon="6.93573">
        <ele>1476</ele>
        <time>2017-08-25T00:41:54Z</time>
      </trkpt>
      <trkpt lat="44.23286" lon="6.93578">
        <ele>1473</ele>
        <time>2017-08-25T00:43:54Z</time>
      </trkpt>
      <trkpt lat="44.23278" lon="6.93588">
        <ele>1471</ele>
        <time>2017-08-25T00:45:54Z</time>
      </trkpt>
      <trkpt lat="44.23283" lon="6.93594">
        <ele>1467</ele>
        <time>2017-08-25T00:47:54Z</time>
      </trkpt>
      <trkpt lat="44.23292" lon="6.93594">
        <ele>1466</ele>
        <time>2017-08-25T00:49:54Z</time>
      </trkpt>
      <trkpt lat="44.2329" lon="6.93601">
        <ele>1463</ele>
        <time>2017-08-25T00:51:54Z</time>
      </trkpt>
      <trkpt lat="44.23279" lon="6.93612">
        <ele>1461</ele>
        <time>2017-08-25T00:53:54Z</time>
      </trkpt>
      <trkpt lat="44.23296" lon="6.93615">
        <ele>1457</ele>
        <time>2017-08-25T00:55:54Z</time>
      </trkpt>
      <trkpt lat="44.23304" lon="6.93609">
        <ele>1458</ele>
        <time>2017-08-25T00:57:54Z</time>
      </trkpt>
      <trkpt lat="44.23325" lon="6.93583">
        <ele>1464</ele>
        <time>2017-08-25T00:59:54Z</time>
      </trkpt>
      <trkpt lat="44.23351" lon="6.93534">
        <ele>1459</ele>
        <time>2017-08-25T01:01:54Z</time>
      </trkpt>
      <trkpt lat="44.23374" lon="6.93496">
        <ele>1452</ele>
        <time>2017-08-25T01:03:54Z</time>
      </trkpt>
      <trkpt lat="44.23386" lon="6.93481">
        <ele>1448</ele>
        <time>2017-08-25T01:05:54Z</time>
      </trkpt>
      <trkpt lat="44.23389" lon="6.93458">
        <ele>1452</ele>
        <time>2017-08-25T01:07:54Z</time>
      </trkpt>
      <trkpt lat="44.23397" lon="6.93436">
        <ele>1453</ele>
        <time>2017-08-25T01:09:54Z</time>
      </trkpt>
      <trkpt lat="44.23404" lon="6.93434">
        <ele>1449</ele>
        <time>2017-08-25T01:11:54Z</time>
      </trkpt>
      <trkpt lat="44.23411" lon="6.93437">
        <ele>1445</ele>
        <time>2017-08-25T01:13:54Z</time>
      </trkpt>
      <trkpt lat="44.23424" lon="6.93436">
        <ele>1442</ele>
        <time>2017-08-25T01:15:54Z</time>
      </trkpt>
      <trkpt lat="44.23439" lon="6.93425">
        <ele>1445</ele>
        <time>2017-08-25T01:17:54Z</time>
      </trkpt>
      <trkpt lat="44.23447" lon="6.93402">
        <ele>1454</ele>
        <time>2017-08-25T01:19:54Z</time>
      </trkpt>
      <trkpt lat="44.23463" lon="6.93416">
        <ele>1448</ele>
        <time>2017-08-25T01:21:54Z</time>
      </trkpt>
      <trkpt lat="44.2348" lon="6.93423">
        <ele>1445</ele>
        <time>2017-08-25T01:23:54Z</time>
      </trkpt>
      <trkpt lat="44.23477" lon="6.93462">
        <ele>1431</ele>
        <time>2017-08-25T01:25:54Z</time>
      </trkpt>
      <trkpt lat="44.23478" lon="6.93479">
        <ele>1425</ele>
        <time>2017-08-25T01:27:54Z</time>
      </trkpt>
      <trkpt lat="44.23489" lon="6.93499">
        <ele>1416</ele>
        <time>2017-08-25T01:29:54Z</time>
      </trkpt>
      <trkpt lat="44.23513" lon="6.9351">
        <ele>1415</ele>
        <time>2017-08-25T01:31:54Z</time>
      </trkpt>
      <trkpt lat="44.23526" lon="6.93534">
        <ele>1410</ele>
        <time>2017-08-25T01:33:54Z</time>
      </trkpt>
      <trkpt lat="44.23547" lon="6.93557">
        <ele>1408</ele>
        <time>2017-08-25T01:35:54Z</time>
      </trkpt>
      <trkpt lat="44.23562" lon="6.93564">
        <ele>1409</ele>
        <time>2017-08-25T01:37:54Z</time>
      </trkpt>
      <trkpt lat="44.23587" lon="6.93572">
        <ele>1412</ele>
        <time>2017-08-25T01:39:54Z</time>
      </trkpt>
      <trkpt lat="44.236" lon="6.93595">
        <ele>1407</ele>
        <time>2017-08-25T01:41:54Z</time>
      </trkpt>
      <trkpt lat="44.2363" lon="6.9361">
        <ele>1410</ele>
        <time>2017-08-25T01:43:54Z</time>
      </trkpt>
      <trkpt lat="44.23645" lon="6.93631">
        <ele>1405</ele>
        <time>2017-08-25T01:45:54Z</time>
      </trkpt>
      <trkpt lat="44.23653" lon="6.93675">
        <ele>1389</ele>
        <time>2017-08-25T01:47:54Z</time>
      </trkpt>
      <trkpt lat="44.2366" lon="6.93699">
        <ele>1381</ele>
        <time>2017-08-25T01:49:54Z</time>
      </trkpt>
      <trkpt lat="44.23678" lon="6.93714">
        <ele>1376</ele>
        <time>2017-08-25T01:51:54Z</time>
      </trkpt>
      <trkpt lat="44.23661" lon="6.93724">
        <ele>1371</ele>
        <time>2017-08-25T01:53:54Z</time>
      </trkpt>
      <trkpt lat="44.23674" lon="6.93735">
        <ele>1368</ele>
        <time>2017-08-25T01:55:54Z</time>
      </trkpt>
      <trkpt lat="44.23694" lon="6.93727">
        <ele>1371</ele>
        <time>2017-08-25T01:57:54Z</time>
      </trkpt>
      <trkpt lat="44.23713" lon="6.93744">
        <ele>1363</ele>
        <time>2017-08-25T01:59:54Z</time>
      </trkpt>
      <trkpt lat="44.23725" lon="6.93782">
        <ele>1349</ele>
        <time>2017-08-25T02:01:54Z</time>
      </trkpt>
      <trkpt lat="44.23737" lon="6.93805">
        <ele>1342</ele>
        <time>2017-08-25T02:03:54Z</time>
      </trkpt>
      <trkpt lat="44.23747" lon="6.93807">
        <ele>1342</ele>
        <time>2017-08-25T02:05:54Z</time>
      </trkpt>
      <trkpt lat="44.23766" lon="6.93799">
        <ele>1339</ele>
        <time>2017-08-25T02:07:54Z</time>
      </trkpt>
      <trkpt lat="44.23786" lon="6.93775">
        <ele>1339</ele>
        <time>2017-08-25T02:09:54Z</time>
      </trkpt>
      <trkpt lat="44.23805" lon="6.93773">
        <ele>1334</ele>
        <time>2017-08-25T02:11:54Z</time>
      </trkpt>
      <trkpt lat="44.23828" lon="6.93779">
        <ele>1325</ele>
        <time>2017-08-25T02:13:54Z</time>
      </trkpt>
      <trkpt lat="44.23852" lon="6.93775">
        <ele>1315</ele>
        <time>2017-08-25T02:15:54Z</time>
      </trkpt>
      <trkpt lat="44.2387" lon="6.93752">
        <ele>1313</ele>
        <time>2017-08-25T02:17:54Z</time>
      </trkpt>
      <trkpt lat="44.23891" lon="6.93733">
        <ele>1310</ele>
        <time>2017-08-25T02:19:54Z</time>
      </trkpt>
      <trkpt lat="44.23921" lon="6.93731">
        <ele>1295</ele>
        <time>2017-08-25T02:21:54Z</time>
      </trkpt>
      <trkpt lat="44.23946" lon="6.93723">
        <ele>1284</ele>
        <time>2017-08-25T02:23:54Z</time>
      </trkpt>
      <trkpt lat="44.23972" lon="6.93693">
        <ele>1281</ele>
        <time>2017-08-25T02:25:54Z</time>
      </trkpt>
      <trkpt lat="44.23993" lon="6.93678">
        <ele>1274</ele>
        <time>2017-08-25T02:27:54Z</time>
      </trkpt>
      <trkpt lat="44.24005" lon="6.93672">
        <ele>1270</ele>
        <time>2017-08-25T02:29:54Z</time>
      </trkpt>
      <trkpt lat="44.24017" lon="6.9367">
        <ele>1265</ele>
        <time>2017-08-25T02:31:54Z</time>
      </trkpt>
      <trkpt lat="44.24044" lon="6.93674">
        <ele>1251</ele>
        <time>2017-08-25T02:33:54Z</time>
      </trkpt>
      <trkpt lat="44.24089" lon="6.93668">
        <ele>1234</ele>
        <time>2017-08-25T02:35:54Z</time>
      </trkpt>
      <trkpt lat="44.2408" lon="6.93688">
        <ele>1231</ele>
        <time>2017-08-25T02:37:54Z</time>
      </trkpt>
      <trkpt lat="44.24098" lon="6.9368">
        <ele>1229</ele>
        <time>2017-08-25T02:39:54Z</time>
      </trkpt>
      <trkpt lat="44.24123" lon="6.93676">
        <ele>1227</ele>
        <time>2017-08-25T02:41:54Z</time>
      </trkpt>
      <trkpt lat="44.24172" lon="6.93677">
        <ele>1219</ele>
        <time>2017-08-25T02:43:54Z</time>
      </trkpt>
      <trkpt lat="44.24224" lon="6.93677">
        <ele>1212</ele>
        <time>2017-08-25T02:45:54Z</time>
      </trkpt>
      <trkpt lat="44.24258" lon="6.93686">
        <ele>1207</ele>
        <time>2017-08-25T02:47:54Z</time>
      </trkpt>
      <trkpt lat="44.24268" lon="6.93688">
        <ele>1205</ele>
        <time>2017-08-25T02:49:54Z</time>
      </trkpt>
      <trkpt lat="44.24286" lon="6.9369">
        <ele>1202</ele>
        <time>2017-08-25T02:51:54Z</time>
      </trkpt>
      <trkpt lat="44.24297" lon="6.93696">
        <ele>1200</ele>
        <time>2017-08-25T02:53:54Z</time>
      </trkpt>
      <trkpt lat="44.24319" lon="6.93689">
        <ele>1197</ele>
        <time>2017-08-25T02:55:54Z</time>
      </trkpt>
      <trkpt lat="44.24331" lon="6.93681">
        <ele>1197</ele>
        <time>2017-08-25T02:57:54Z</time>
      </trkpt>
      <trkpt lat="44.24342" lon="6.93665">
        <ele>1196</ele>
        <time>2017-08-25T02:59:54Z</time>
      </trkpt>
      <trkpt lat="44.2437" lon="6.93617">
        <ele>1192</ele>
        <time>2017-08-25T03:01:54Z</time>
      </trkpt>
      <trkpt lat="44.24409" lon="6.9357">
        <ele>1191</ele>
        <time>2017-08-25T03:03:54Z</time>
      </trkpt>
      <trkpt lat="44.24445" lon="6.93532">
        <ele>1186</ele>
        <time>2017-08-25T03:05:54Z</time>
      </trkpt>
      <trkpt lat="44.24429" lon="6.93564">
        <ele>1187</ele>
        <time>2017-08-25T03:07:54Z</time>
      </trkpt>
      <trkpt lat="44.24406" lon="6.93602">
        <ele>1186</ele>
        <time>2017-08-25T03:09:54Z</time>
      </trkpt>
      <trkpt lat="44.24401" lon="6.93621">
        <ele>1184</ele>
        <time>2017-08-25T03:11:54Z</time>
      </trkpt>
      <trkpt lat="44.24424" lon="6.93593">
        <ele>1183</ele>
        <time>2017-08-25T03:13:54Z</time>
      </trkpt>
      <trkpt lat="44.24451" lon="6.93561">
        <ele>1180</ele>
        <time>2017-08-25T03:15:54Z</time>
      </trkpt>
      <trkpt lat="44.24471" lon="6.93544">
        <ele>1176</ele>
        <time>2017-08-25T03:17:54Z</time>
      </trkpt>
      <trkpt lat="44.24459" lon="6.93582">
        <ele>1173</ele>
        <time>2017-08-25T03:19:54Z</time>
      </trkpt>
      <trkpt lat="44.24436" lon="6.93622">
        <ele>1173</ele>
        <time>2017-08-25T03:21:54Z</time>
      </trkpt>
      <trkpt lat="44.24508" lon="6.93579">
        <ele>1158</ele>
        <time>2017-08-25T03:23:54Z</time>
      </trkpt>
      <trkpt lat="44.24515" lon="6.9357">
        <ele>1158</ele>
        <time>2017-08-25T03:25:54Z</time>
      </trkpt>
      <trkpt lat="44.24517" lon="6.93544">
        <ele>1162</ele>
        <time>2017-08-25T03:27:54Z</time>
      </trkpt>
      <trkpt lat="44.24517" lon="6.93505">
        <ele>1169</ele>
        <time>2017-08-25T03:29:54Z</time>
      </trkpt>
      <trkpt lat="44.24519" lon="6.9348">
        <ele>1172</ele>
        <time>2017-08-25T03:31:54Z</time>
      </trkpt>
      <trkpt lat="44.2453" lon="6.93483">
        <ele>1170</ele>
        <time>2017-08-25T03:33:54Z</time>
      </trkpt>
      <trkpt lat="44.24538" lon="6.93519">
        <ele>1162</ele>
        <time>2017-08-25T03:35:54Z</time>
      </trkpt>
      <trkpt lat="44.2457" lon="6.93546">
        <ele>1149</ele>
        <time>2017-08-25T03:37:54Z</time>
      </trkpt>
      <trkpt lat="44.24619" lon="6.93522">
        <ele>1143</ele>
        <time>2017-08-25T03:39:54Z</time>
      </trkpt>
      <trkpt lat="44.24637" lon="6.9352">
        <ele>1139</ele>
        <time>2017-08-25T03:41:54Z</time>
      </trkpt>
      <trkpt lat="44.24656" lon="6.93499">
        <ele>1138</ele>
        <time>2017-08-25T03:43:54Z</time>
      </trkpt>
      <trkpt lat="44.24709" lon="6.93443">
        <ele>1138</ele>
        <time>2017-08-25T03:45:54Z</time>
      </trkpt>
      <trkpt lat="44.24726" lon="6.93424">
        <ele>1135</ele>
        <time>2017-08-25T03:47:54Z</time>
      </trkpt>
      <trkpt lat="44.24749" lon="6.93371">
        <ele>1129</ele>
        <time>2017-08-25T03:49:54Z</time>
      </trkpt>
      <trkpt lat="44.24772" lon="6.93344">
        <ele>1127</ele>
        <time>2017-08-25T03:51:54Z</time>
      </trkpt>
      <trkpt lat="44.24786" lon="6.93351">
        <ele>1124</ele>
        <time>2017-08-25T03:53:54Z</time>
      </trkpt>
      <trkpt lat="44.24805" lon="6.93361">
        <ele>1121</ele>
        <time>2017-08-25T03:55:54Z</time>
      </trkpt>
      <trkpt lat="44.24822" lon="6.93363">
        <ele>1118</ele>
        <time>2017-08-25T03:57:54Z</time>
      </trkpt>
      <trkpt lat="44.24839" lon="6.93353">
        <ele>1117</ele>
        <time>2017-08-25T03:59:54Z</time>
      </trkpt>
      <trkpt lat="44.24866" lon="6.93316">
        <ele>1117</ele>
        <time>2017-08-25T04:01:54Z</time>
      </trkpt>
      <trkpt lat="44.24904" lon="6.93257">
        <ele>1119</ele>
        <time>2017-08-25T04:03:54Z</time>
      </trkpt>
      <trkpt lat="44.24924" lon="6.93225">
        <ele>1119</ele>
        <time>2017-08-25T04:05:54Z</time>
      </trkpt>
      <trkpt lat="44.24965" lon="6.93189">
        <ele>1122</ele>
        <time>2017-08-25T04:07:54Z</time>
      </trkpt>
      <trkpt lat="44.25011" lon="6.93152">
        <ele>1127</ele>
        <time>2017-08-25T04:09:54Z</time>
      </trkpt>
      <trkpt lat="44.25052" lon="6.93112">
        <ele>1132</ele>
        <time>2017-08-25T04:11:54Z</time>
      </trkpt>
      <trkpt lat="44.25086" lon="6.93071">
        <ele>1136</ele>
        <time>2017-08-25T04:13:54Z</time>
      </trkpt>
      <trkpt lat="44.25101" lon="6.93043">
        <ele>1137</ele>
        <time>2017-08-25T04:15:54Z</time>
      </trkpt>
      <trkpt lat="44.25123" lon="6.9302">
        <ele>1138</ele>
        <time>2017-08-25T04:17:54Z</time>
      </trkpt>
      <trkpt lat="44.25144" lon="6.92992">
        <ele>1140</ele>
        <time>2017-08-25T04:19:54Z</time>
      </trkpt>
      <trkpt lat="44.25166" lon="6.9296">
        <ele>1143</ele>
        <time>2017-08-25T04:21:54Z</time>
      </trkpt>
      <trkpt lat="44.25185" lon="6.92948">
        <ele>1142</ele>
        <time>2017-08-25T04:23:54Z</time>
      </trkpt>
      <trkpt lat="44.25209" lon="6.92926">
        <ele>1140</ele>
        <time>2017-08-25T04:25:54Z</time>
      </trkpt>
      <trkpt lat="44.25224" lon="6.92891">
        <ele>1142</ele>
        <time>2017-08-25T04:27:54Z</time>
      </trkpt>
      <trkpt lat="44.2525" lon="6.92849">
        <ele>1146</ele>
        <time>2017-08-25T04:29:54Z</time>
      </trkpt>
      <trkpt lat="44.25271" lon="6.92817">
        <ele>1147</ele>
        <time>2017-08-25T04:31:54Z</time>
      </trkpt>
      <trkpt lat="44.25273" lon="6.92795">
        <ele>1150</ele>
        <time>2017-08-25T04:33:54Z</time>
      </trkpt>
      <trkpt lat="44.25317" lon="6.92729">
        <ele>1154</ele>
        <time>2017-08-25T04:35:54Z</time>
      </trkpt>
      <trkpt lat="44.25344" lon="6.92708">
        <ele>1152</ele>
        <time>2017-08-25T04:37:54Z</time>
      </trkpt>
      <trkpt lat="44.25371" lon="6.92682">
        <ele>1152</ele>
        <time>2017-08-25T04:39:54Z</time>
      </trkpt>
      <trkpt lat="44.25398" lon="6.92667">
        <ele>1152</ele>
        <time>2017-08-25T04:41:54Z</time>
      </trkpt>
      <trkpt lat="44.25432" lon="6.92649">
        <ele>1150</ele>
        <time>2017-08-25T04:43:54Z</time>
      </trkpt>
      <trkpt lat="44.25458" lon="6.92625">
        <ele>1150</ele>
        <time>2017-08-25T04:45:54Z</time>
      </trkpt>
      <trkpt lat="44.25481" lon="6.92598">
        <ele>1150</ele>
        <time>2017-08-25T04:47:54Z</time>
      </trkpt>
      <trkpt lat="44.2551" lon="6.92556">
        <ele>1153</ele>
        <time>2017-08-25T04:49:54Z</time>
      </trkpt>
      <trkpt lat="44.25525" lon="6.92548">
        <ele>1154</ele>
        <time>2017-08-25T04:51:54Z</time>
      </trkpt>
      <trkpt lat="44.25573" lon="6.9248">
        <ele>1158</ele>
        <time>2017-08-25T04:53:54Z</time>
      </trkpt>
      <trkpt lat="44.25609" lon="6.92431">
        <ele>1159</ele>
        <time>2017-08-25T04:55:54Z</time>
      </trkpt>
      <trkpt lat="44.25635" lon="6.92389">
        <ele>1159</ele>
        <time>2017-08-25T04:57:54Z</time>
      </trkpt>
      <trkpt lat="44.2565" lon="6.9236">
        <ele>1159</ele>
        <time>2017-08-25T04:59:54Z</time>
      </trkpt>
      <trkpt lat="44.25666" lon="6.92332">
        <ele>1159</ele>
        <time>2017-08-25T05:01:54Z</time>
      </trkpt>
      <trkpt lat="44.25661" lon="6.92252">
        <ele>1161</ele>
        <time>2017-08-25T05:03:54Z</time>
      </trkpt>
      <trkpt lat="44.25678" lon="6.92245">
        <ele>1160</ele>
        <time>2017-08-25T05:05:54Z</time>
      </trkpt>
      <trkpt lat="44.25692" lon="6.92231">
        <ele>1161</ele>
        <time>2017-08-25T05:07:54Z</time>
      </trkpt>
    </trkseg>
  </trk>
</gpx>